# Wetter Temperatur Luftdruck Luftfeuchtigkeit Sichtweite Windgeschwindigkeit Windrichtung Zeit
1 Clear 37 1002 68 10000 6 150 10:18 14.08.2022
2 Clear 38 1003 69 10000 4 150 08:18 14.08.2022
3 Clear 36 1004 71 10000 2 190 06:18 14.08.2022
4 Clear 31 1001 78 10000 4 150 01:48 14.08.2022
5 Clear 29 1000 84 10000 3 140 23:23 13.08.2022
6 Clear 30 1000 83 10000 4 150 22:28 13.08.2022
7 Clear 30 1004 86 10000 3 140 20:56 13.08.2022
8 Clear 31 1000 82 10000 3 150 19:49 13.08.2022
9 Clear 32 1004 87 10000 3 150 19:19 13.08.2022
10 Clear 32 1004 84 10000 4 140 17:22 13.08.2022
11 Clear 33 1004 80 10000 3.13 150 14:51 13.08.2022
12 Clear 33 1004 80 10000 3.13 150 14:24 13.08.2022
13 Clear 34 1003 79 10000 3.58 147 13:34 13.08.2022
14 Clear 34 1002 79 10000 4 160 11:33 13.08.2022
15 Clear 34 1004 52 10000 6 110 09:26 13.08.2022
16 Clouds 39 1004 77 10000 2 0 07:43 13.08.2022
17 Clear 30 1004 82 10000 3 180 01:52 13.08.2022
18 Clear 29 1004 88 10000 3 150 23:32 12.08.2022
19 Clear 30 1004 85 10000 2.24 195 21:39 12.08.2022
20 Clear 30 1004 81 10000 2 160 19:49 12.08.2022
21 Clear 30 1004 83 10000 2 150 19:23 12.08.2022
22 Clear 30 1004 83 10000 3 160 18:26 12.08.2022
23 Clear 30 1005 79 10000 4 150 16:27 12.08.2022
24 Clear 30 1005 79 10000 3.13 135 15:19 12.08.2022
25 Clear 30 1004 78 10000 3 150 13:47 12.08.2022
26 Clear 29 1004 79 10000 4.02 205 12:32 12.08.2022
27 Rain 30 1006 74 10000 6 70 08:52 12.08.2022
28 Clouds 35 1004 73 10000 3 190 07:45 12.08.2022
29 Clear 38 1005 71 10000 4 230 06:21 12.08.2022
30 Clear 30 1005 88 10000 2 140 00:32 12.08.2022
31 Clear 30 1005 87 10000 2 150 23:58 11.08.2022
32 Clear 30 1006 87 10000 2 150 23:22 11.08.2022
33 Clear 31 1004 82 10000 2 150 21:53 11.08.2022
34 Clear 31 1005 74 10000 3 150 21:28 11.08.2022
35 Clear 31 1005 74 10000 3 150 21:28 11.08.2022
36 Clear 31 1005 82 10000 2 160 20:30 11.08.2022
37 Clear 32 1006 66 10000 3 180 19:33 11.08.2022
38 Clear 32 1006 66 10000 3 170 18:53 11.08.2022
39 Clear 32 1006 66 10000 3 160 16:46 11.08.2022
40 Clouds 27 1008 86 10000 1.25 331 15:42 11.08.2022
41 Clear 34 1006 55 10000 3 140 14:36 11.08.2022
42 Clouds 33 1003 76 10000 3 150 11:56 11.08.2022
43 Clouds 39 1004 73 10000 6 320 08:57 11.08.2022
44 Clear 38 1005 78 10000 3 230 05:58 11.08.2022
45 Clear 33 1000 66 10000 3 200 02:33 11.08.2022
46 Clear 30 1001 83 10000 3 150 22:59 10.08.2022
47 Clear 30 1004 85 10000 4 170 21:46 10.08.2022
48 Clear 31 1001 80 10000 3.13 165 20:56 10.08.2022
49 Clear 31 1004 83 10000 3.13 165 20:24 10.08.2022
50 Clear 31 1005 84 10000 3 180 18:46 10.08.2022
51 Clear 32 1005 84 10000 3 170 17:26 10.08.2022
52 Clear 33 1005 80 10000 5 150 14:25 10.08.2022
53 Clouds 33 1005 74 10000 5 90 12:54 10.08.2022
54 Clear 36 1004 72 10000 6 180 10:31 10.08.2022
55 Clouds 39 1004 68 10000 3 170 08:37 10.08.2022
56 Clear 38 1005 66 10000 2 250 07:22 10.08.2022
57 Clear 35 1005 71 10000 3 210 04:50 10.08.2022
58 Clear 30 1005 80 10000 5 170 00:50 10.08.2022
59 Clear 29 1005 82 10000 3.58 171 23:27 09.08.2022
60 Clear 30 1001 80 10000 4.47 170 21:38 09.08.2022
61 Clear 31 1001 80 10000 4 150 20:56 09.08.2022
62 Clear 30 1005 85 10000 5 160 18:56 09.08.2022
63 Clear 31 1006 85 10000 5 150 17:31 09.08.2022
64 Clear 31 1006 85 10000 5 150 17:31 09.08.2022
65 Clear 31 1006 85 10000 5 150 16:43 09.08.2022
66 Clear 32 1006 82 10000 5 150 15:59 09.08.2022
67 Clear 32 1005 82 10000 6 160 14:30 09.08.2022
68 Clear 36 1003 69 10000 5 190 10:53 09.08.2022
69 Clear 38 1004 66 10000 2 0 08:52 09.08.2022
70 Clear 38 1001 59 10000 4 200 07:54 09.08.2022
71 Clear 34 1006 71 10000 5 190 04:43 09.08.2022
72 Clear 29 1002 79 10000 4 170 23:58 08.08.2022
73 Clear 29 1002 79 10000 5 170 22:58 08.08.2022
74 Clear 29 1002 80 10000 5 170 22:35 08.08.2022
75 Clear 30 1002 79 10000 6 170 21:30 08.08.2022
76 Clear 30 1002 80 10000 6 160 19:57 08.08.2022
77 Clear 30 1002 80 10000 6 170 19:22 08.08.2022
78 Clear 30 1003 81 10000 6 150 17:34 08.08.2022
79 Clear 31 1003 80 10000 6 150 15:45 08.08.2022
80 Clear 32 1002 78 10000 7 150 14:33 08.08.2022
81 Clear 34 1005 77 10000 7 150 12:29 08.08.2022
82 Clear 36 1004 72 10000 5 150 10:19 08.08.2022
83 Clear 36 1002 61 10000 5 200 06:54 08.08.2022
84 Clear 33 1003 66 10000 6 170 03:31 08.08.2022
85 Clear 30 1006 82 10000 4 170 22:44 07.08.2022
86 Clear 30 1005 81 10000 5 160 21:40 07.08.2022
87 Clear 30 1005 80 10000 6 170 20:42 07.08.2022
88 Clear 31 1001 76 10000 6 170 20:18 07.08.2022
89 Clear 31 1001 76 10000 5 170 19:41 07.08.2022
90 Clear 30 1005 83 10000 5 170 18:36 07.08.2022
91 Clear 31 1005 84 10000 5 160 16:55 07.08.2022
92 Clear 31 1005 84 10000 5 150 16:35 07.08.2022
93 Clear 31 1005 84 10000 6 160 15:23 07.08.2022
94 Clear 33 1004 80 10000 5 140 13:37 07.08.2022
95 Clear 34 1004 77 10000 4 150 11:58 07.08.2022
96 Clear 36 1004 73 10000 5 190 10:34 07.08.2022
97 Clear 38 1001 61 10000 4 190 07:38 07.08.2022
98 Clear 31 1002 68 10000 5 210 03:20 07.08.2022
99 Clear 29 1002 79 10000 3 190 00:57 07.08.2022
100 Clear 28 1001 79 10000 3 190 22:25 06.08.2022
101 Clear 28 1005 82 10000 2 180 20:46 06.08.2022
102 Clear 28 1005 82 10000 2 200 19:41 06.08.2022
103 Clear 29 1005 81 10000 4 190 18:30 06.08.2022
104 Clear 29 1006 79 10000 3 180 17:32 06.08.2022
105 Clear 28 1005 80 10000 3 150 14:48 06.08.2022
106 Clear 29 1005 81 10000 1 0 13:49 06.08.2022
107 Clear 30 1005 78 10000 4 200 11:55 06.08.2022
108 Clouds 30 1005 77 10000 1 0 10:32 06.08.2022
109 Thunderstorm 28 1004 83 10000 6 340 08:40 06.08.2022
110 Clear 38 1000 58 10000 4 340 03:53 06.08.2022
111 Clear 31 1001 83 10000 1 0 23:50 05.08.2022
112 Clear 31 1004 86 10000 2 160 22:32 05.08.2022
113 Clear 31 1005 85 10000 1 0 19:46 05.08.2022
114 Clear 32 1005 85 10000 3 130 18:46 05.08.2022
115 Clear 32 1005 85 10000 3 130 18:22 05.08.2022
116 Clear 32 1005 84 10000 3 150 16:49 05.08.2022
117 Clear 33 1004 78 10000 5 150 15:22 05.08.2022
118 Clear 33 1004 77 10000 4 150 14:31 05.08.2022
119 Clear 34 1004 80 10000 5 140 13:24 05.08.2022
120 Clouds 35 1003 76 10000 6 180 12:29 05.08.2022
121 Clouds 38 1003 70 10000 2 270 10:51 05.08.2022
122 Clouds 40 1000 56 10000 2 240 08:27 05.08.2022
123 Clouds 38 1001 61 10000 3 0 06:56 05.08.2022
124 Clouds 38 1001 61 10000 3 0 06:56 05.08.2022
125 Clear 30 1003 79 10000 3 180 00:46 05.08.2022
126 Clear 30 1002 80 10000 3 170 22:31 04.08.2022
127 Clear 31 1002 80 10000 10.73 178 21:27 04.08.2022
128 Clear 31 1002 80 10000 10.73 177 20:43 04.08.2022
129 Clear 31 1002 81 10000 4 160 19:46 04.08.2022
130 Clear 31 1006 87 10000 4 150 18:37 04.08.2022
131 Clear 31 1006 87 10000 4 150 18:18 04.08.2022
132 Clear 32 1005 80 10000 6 150 14:23 04.08.2022
133 Clear 33 1005 78 10000 6 150 12:57 04.08.2022
134 Clear 35 1005 72 10000 5 170 11:18 04.08.2022
135 Clear 37 1003 63 10000 7 180 07:53 04.08.2022
136 Clear 35 1004 66 10000 5 200 05:46 04.08.2022
137 Clear 31 1004 71 10000 6 180 02:33 04.08.2022
138 Clear 30 1004 78 10000 4 170 23:45 03.08.2022
139 Clear 29 1004 79 10000 5 170 22:55 03.08.2022
140 Clear 30 1003 81 10000 4 170 20:50 03.08.2022
141 Clouds 30 1003 80 10000 5 160 19:46 03.08.2022
142 Clouds 30 1003 82 10000 5 150 18:37 03.08.2022
143 Clear 30 1003 81 10000 6 150 16:25 03.08.2022
144 Clear 31 1007 82 10000 5 140 14:51 03.08.2022
145 Clouds 32 1006 79 10000 5 160 12:41 03.08.2022
146 Clouds 35 1001 69 10000 6 150 08:54 03.08.2022
147 Clouds 33 1004 71 10000 5 160 04:47 03.08.2022
148 Clouds 32 1004 72 10000 5 150 03:37 03.08.2022
149 Clouds 30 1004 79 10000 5 150 01:36 03.08.2022
150 Clouds 29 1004 87 10000 4 150 23:27 02.08.2022
151 Clouds 29 1003 87 10000 5 150 21:55 02.08.2022
152 Clouds 29 1003 87 10000 4 140 21:33 02.08.2022
153 Clouds 29 1004 86 10000 4 150 19:19 02.08.2022
154 Clear 30 1004 83 10000 4 140 16:38 02.08.2022
155 Clouds 32 1003 77 10000 7 140 12:55 02.08.2022
156 Clouds 36 1006 78 10000 6 160 09:42 02.08.2022
157 Clouds 37 1002 68 10000 5 170 07:56 02.08.2022
158 Clouds 36 1002 69 10000 5 140 07:25 02.08.2022
159 Clouds 33 1004 72 10000 4 130 04:55 02.08.2022
160 Clear 29 1003 86 10000 1.34 163 23:52 01.08.2022
161 Clear 28 1006 89 10000 2 150 22:50 01.08.2022
162 Clear 29 1006 90 10000 3 140 20:53 01.08.2022
163 Clear 29 1005 90 10000 3 140 19:34 01.08.2022
164 Clear 29 1005 89 10000 3 140 18:43 01.08.2022
165 Clear 28 1006 91 10000 4 220 16:54 01.08.2022
166 Clouds 29 1002 89 10000 2 210 16:28 01.08.2022
167 Clouds 29 1002 90 3000 4 110 15:31 01.08.2022
168 Clouds 29 1001 88 3000 5 160 14:43 01.08.2022
169 Clouds 32 1004 78 10000 5 100 12:51 01.08.2022
170 Clear 35 1003 77 10000 1 0 10:29 01.08.2022
171 Clear 35 1003 70 10000 3 0 08:39 01.08.2022
172 Clouds 35 1000 63 10000 5 340 06:21 01.08.2022
173 Clouds 32 1001 69 10000 4 290 04:20 01.08.2022
174 Clouds 29 1004 83 10000 2.24 309 00:49 01.08.2022
175 Clear 28 1002 81 10000 3 360 22:41 31.07.2022
176 Clear 28 1002 84 10000 3 360 21:33 31.07.2022
177 Clear 30 1002 81 10000 3 20 19:56 31.07.2022
178 Clear 30 1002 79 10000 3 10 18:36 31.07.2022
179 Clear 31 1002 81 10000 3 20 15:54 31.07.2022
180 Clear 31 1001 79 10000 5 360 13:51 31.07.2022
181 Clear 33 1000 75 10000 5 350 12:28 31.07.2022
182 Clear 35 999 68 10000 5 310 09:55 31.07.2022
183 Clear 35 1000 70 10000 5 320 08:18 31.07.2022
184 Clouds 31 998 72 10000 4 280 03:28 31.07.2022
185 Clear 28 997 86 10000 3.13 292 23:46 30.07.2022
186 Clear 27 1001 86 10000 3 320 22:19 30.07.2022
187 Clear 27 1001 86 10000 3 320 22:19 30.07.2022
188 Clear 27 1001 87 10000 3 320 21:49 30.07.2022
189 Rain 28 1001 86 10000 3 330 20:58 30.07.2022
190 Clear 28 1001 85 10000 2 320 19:59 30.07.2022
191 Clear 28 1001 84 10000 3 320 18:57 30.07.2022
192 Clear 29 1002 85 10000 3 360 17:45 30.07.2022
193 Clouds 30 1002 86 10000 5 10 15:54 30.07.2022
194 Clear 30 1002 85 10000 5 10 15:24 30.07.2022
195 Clouds 30 1001 81 10000 3.13 20 13:19 30.07.2022
196 Clouds 31 1001 82 10000 3.13 20 12:19 30.07.2022
197 Clouds 32 1002 77 10000 3 10 10:31 30.07.2022
198 Clouds 32 1002 77 10000 3 10 10:31 30.07.2022
199 Clouds 32 1002 76 10000 3.58 41 09:56 30.07.2022
200 Clouds 32 997 76 10000 2 40 07:55 30.07.2022
201 Clouds 31 1000 80 10000 1 0 03:55 30.07.2022
202 Clouds 30 1004 82 10000 3 130 02:25 30.07.2022
203 Clouds 28 1004 86 10000 3 80 22:44 29.07.2022
204 Clouds 28 1004 86 10000 3 110 21:24 29.07.2022
205 Clouds 29 1000 84 10000 2 140 20:39 29.07.2022
206 Clouds 29 1001 84 10000 5 120 18:18 29.07.2022
207 Clouds 30 1006 85 10000 5 100 15:35 29.07.2022
208 Clouds 30 1005 81 10000 5 100 13:19 29.07.2022
209 Clouds 33 1004 75 10000 5 100 11:22 29.07.2022
210 Clouds 34 1001 65 10000 6 110 08:50 29.07.2022
211 Clouds 34 1001 65 10000 7 140 08:18 29.07.2022
212 Clouds 29 1003 78 10000 5 130 01:58 29.07.2022
213 Clear 28 1002 87 10000 4 140 22:53 28.07.2022
214 Clear 29 1002 85 10000 5 140 21:28 28.07.2022
215 Clouds 29 1002 84 10000 5 130 20:32 28.07.2022
216 Clear 29 999 82 10000 1.34 186 19:43 28.07.2022
217 Clear 29 1002 84 10000 6 140 19:23 28.07.2022
218 Clear 30 1002 79 10000 7 140 17:44 28.07.2022
219 Clear 30 1002 77 10000 6 130 16:55 28.07.2022
220 Clear 30 1006 78 10000 6 150 15:32 28.07.2022
221 Clouds 31 1006 70 10000 7 150 13:29 28.07.2022
222 Clear 35 1003 69 10000 7 130 10:37 28.07.2022
223 Clear 37 1001 63 10000 3 190 06:42 28.07.2022
224 Clear 36 999 53 10000 3 200 05:29 28.07.2022
225 Clear 29 1001 79 10000 2 160 00:49 28.07.2022
226 Clear 29 1005 84 10000 2 170 22:40 27.07.2022
227 Clear 29 1004 84 10000 2 210 21:28 27.07.2022
228 Clear 29 1004 83 10000 1.79 115 19:41 27.07.2022
229 Clear 29 1005 83 10000 3 160 17:49 27.07.2022
230 Clear 30 1005 88 10000 4 150 15:52 27.07.2022
231 Clear 30 1005 85 10000 2.68 108 14:57 27.07.2022
232 Clear 30 1004 86 10000 2.24 109 14:34 27.07.2022
233 Rain 30 1004 85 10000 2 210 12:49 27.07.2022
234 Clear 36 1004 71 10000 1 0 07:53 27.07.2022
235 Clear 35 1005 72 10000 1 0 06:21 27.07.2022
236 Clear 29 1002 76 10000 1.34 253 01:35 27.07.2022
237 Clear 28 1004 81 10000 2 230 22:26 26.07.2022
238 Clear 28 1004 79 10000 2.24 268 21:20 26.07.2022
239 Clear 28 1004 78 10000 2.24 259 20:25 26.07.2022
240 Clear 29 1005 81 10000 2 240 18:42 26.07.2022
241 Clear 28 1005 82 10000 2 240 17:57 26.07.2022
242 Rain 28 1005 82 10000 2.24 157 15:58 26.07.2022
243 Clear 28 1004 83 10000 2.68 141 14:57 26.07.2022
244 Rain 28 1006 86 10000 2 60 13:20 26.07.2022
245 Clouds 35 1003 95 10000 0.89 170 10:59 26.07.2022
246 Clear 36 999 68 10000 4 190 08:46 26.07.2022
247 Clear 36 1001 70 10000 4 200 05:49 26.07.2022
248 Clear 29 1001 79 10000 4 150 00:28 26.07.2022
249 Clear 28 1005 83 10000 2 110 22:53 25.07.2022
250 Clear 28 1005 83 10000 1.79 72 22:22 25.07.2022
251 Clear 29 1001 77 10000 2.24 119 21:38 25.07.2022
252 Clouds 29 1006 84 10000 3 180 20:40 25.07.2022
253 Clouds 29 1002 81 10000 4 160 19:27 25.07.2022
254 Clouds 30 1002 86 10000 5 140 18:18 25.07.2022
255 Clouds 30 1006 87 10000 3 120 17:27 25.07.2022
256 Clouds 30 1007 85 10000 6 140 14:32 25.07.2022
257 Clear 32 1000 71 10000 5 130 11:50 25.07.2022
258 Clouds 35 1002 68 10000 4 160 08:32 25.07.2022
259 Clear 30 1004 70 10000 4 140 02:21 25.07.2022
260 Clear 28 1007 82 10000 2.24 114 23:51 24.07.2022
261 Clear 27 1006 83 10000 2.24 113 22:54 24.07.2022
262 Clear 28 1006 82 10000 3 120 22:24 24.07.2022
263 Clear 28 1002 81 10000 3 130 21:18 24.07.2022
264 Clear 28 1002 81 10000 3 130 20:46 24.07.2022
265 Clear 28 1006 84 10000 4 150 19:38 24.07.2022
266 Clear 28 1007 84 10000 3 140 18:30 24.07.2022
267 Clear 28 1007 82 10000 4 110 15:57 24.07.2022
268 Clear 29 1006 82 10000 4 120 15:33 24.07.2022
269 Clear 29 1005 82 10000 4 120 13:54 24.07.2022
270 Clear 29 1006 79 10000 4 110 12:52 24.07.2022
271 Clear 31 1004 77 10000 2 10 11:37 24.07.2022
272 Clear 31 1004 74 10000 2 50 10:48 24.07.2022
273 Clear 32 1005 59 10000 2 80 08:30 24.07.2022
274 Clear 33 1005 71 10000 2 0 07:46 24.07.2022
275 Clear 30 1006 73 10000 4 340 03:57 24.07.2022
276 Clear 27 1004 78 10000 3 330 23:48 23.07.2022
277 Rain 27 1005 69 10000 4 320 20:51 23.07.2022
278 Clear 28 1005 83 10000 3 30 19:44 23.07.2022
279 Rain 28 1004 79 10000 5 360 18:50 23.07.2022
280 Clear 29 1004 78 10000 4 350 17:28 23.07.2022
281 Clear 31 1004 79 10000 6 340 16:30 23.07.2022
282 Clear 35 1004 55 10000 6 330 15:22 23.07.2022
283 Clear 35 1003 55 10000 5 340 14:56 23.07.2022
284 Clear 33 1003 76 10000 4.47 338 14:24 23.07.2022
285 Clear 33 1003 76 10000 4.47 338 14:24 23.07.2022
286 Clear 37 996 48 10000 3 260 12:22 23.07.2022
287 Clear 39 998 57 10000 6 290 10:44 23.07.2022
288 Clear 39 998 57 10000 7 270 09:53 23.07.2022
289 Clear 38 998 60 10000 7 280 08:24 23.07.2022
290 Clear 34 1000 69 10000 6 230 03:38 23.07.2022
291 Clear 30 1000 86 10000 3 190 00:39 23.07.2022
292 Clouds 29 1004 90 8000 3 150 21:41 22.07.2022
293 Clouds 29 1000 89 8000 3 150 20:33 22.07.2022
294 Clouds 29 1005 86 8000 4 150 18:57 22.07.2022
295 Clouds 30 1007 79 8000 5 150 17:52 22.07.2022
296 Clouds 30 1006 83 8000 4 130 16:31 22.07.2022
297 Clear 30 1006 77 10000 5 140 13:50 22.07.2022
298 Clear 35 1006 52 10000 2 0 10:40 22.07.2022
299 Clear 35 1002 65 10000 1 0 09:25 22.07.2022
300 Clear 35 1006 70 10000 1 0 08:26 22.07.2022
301 Clouds 32 1004 68 10000 4 290 04:24 22.07.2022
302 Clear 27 1008 89 10000 1.79 298 23:44 21.07.2022
303 Clear 28 1008 87 10000 2 280 21:55 21.07.2022
304 Clear 28 1008 88 10000 2 290 20:28 21.07.2022
305 Clear 28 1008 89 10000 2 250 18:43 21.07.2022
306 Clear 28 1009 89 10000 2 240 17:22 21.07.2022
307 Clear 28 1009 89 10000 2 230 16:31 21.07.2022
308 Rain 28 1008 90 10000 2 230 14:46 21.07.2022
309 Clear 28 1008 90 10000 2 190 13:58 21.07.2022
310 Rain 28 1003 88 10000 1 0 12:18 21.07.2022
311 Clouds 32 1003 74 10000 7 340 10:21 21.07.2022
312 Clouds 32 1006 77 10000 4 310 08:53 21.07.2022
313 Clouds 32 1008 70 10000 5 340 08:18 21.07.2022
314 Rain 33 1004 71 10000 6 300 06:45 21.07.2022
315 Clear 31 1004 73 10000 4 310 02:59 21.07.2022
316 Clear 29 1006 82 10000 3 310 22:49 20.07.2022
317 Rain 29 1005 83 10000 2 340 22:19 20.07.2022
318 Clear 30 1001 77 10000 2 290 20:46 20.07.2022
319 Rain 30 1005 81 10000 2 280 19:47 20.07.2022
320 Clear 31 1007 75 10000 3 270 18:54 20.07.2022
321 Clear 31 1007 76 10000 5 280 18:31 20.07.2022
322 Clouds 34 1006 59 10000 3 270 17:28 20.07.2022
323 Clear 34 1006 59 10000 3 230 15:33 20.07.2022
324 Clear 34 1005 59 10000 2 240 14:49 20.07.2022
325 Clear 35 1004 55 10000 4 230 13:21 20.07.2022
326 Clear 37 999 64 10000 6 230 10:59 20.07.2022
327 Clear 36 1000 64 10000 6 210 06:35 20.07.2022
328 Clear 29 1001 84 10000 3 190 01:47 20.07.2022
329 Clear 29 1001 88 10000 2 190 00:42 20.07.2022
330 Rain 28 1004 82 10000 2 190 22:37 19.07.2022
331 Rain 28 1004 87 10000 2 190 22:18 19.07.2022
332 Clear 28 1004 87 10000 3 200 20:50 19.07.2022
333 Clear 28 1004 85 10000 2 180 19:32 19.07.2022
334 Clear 28 1005 85 10000 3 170 18:42 19.07.2022
335 Clear 28 1005 88 10000 3 180 17:54 19.07.2022
336 Clouds 28 1005 83 10000 3 150 15:49 19.07.2022
337 Clouds 28 1004 85 10000 3 150 13:37 19.07.2022
338 Clouds 29 1003 86 10000 3 150 11:33 19.07.2022
339 Clouds 28 1003 82 10000 1 0 09:52 19.07.2022
340 Clouds 29 1003 85 10000 3 220 08:47 19.07.2022
341 Clouds 32 1003 80 10000 2 50 07:46 19.07.2022
342 Clouds 31 1003 83 10000 3 20 07:18 19.07.2022
343 Clouds 32 1000 73 10000 4 150 05:18 19.07.2022
344 Clouds 30 1000 75 10000 1 0 02:38 19.07.2022
345 Clear 27 1003 89 10000 2 140 23:54 18.07.2022
346 Clear 27 1002 89 10000 2 140 23:20 18.07.2022
347 Clear 27 1002 89 10000 3 160 22:26 18.07.2022
348 Clouds 28 1002 88 10000 3 140 21:20 18.07.2022
349 Clouds 28 1002 86 10000 2 160 20:22 18.07.2022
350 Clear 27 1002 82 10000 3 10 18:29 18.07.2022
351 Clear 27 1003 83 10000 3 10 16:30 18.07.2022
352 Clear 28 1002 81 10000 4 10 15:26 18.07.2022
353 Clouds 30 1000 80 10000 4 340 13:32 18.07.2022
354 Clouds 30 995 77 10000 5 340 11:43 18.07.2022
355 Clouds 31 995 76 10000 5 310 09:55 18.07.2022
356 Clouds 32 995 78 10000 6 310 07:54 18.07.2022
357 Clear 30 996 77 10000 5 230 03:32 18.07.2022
358 Clear 28 998 80 10000 3 220 22:56 17.07.2022
359 Clear 28 998 80 10000 2 230 22:29 17.07.2022
360 Clear 28 998 82 10000 3 240 21:35 17.07.2022
361 Clear 28 999 85 10000 4.47 256 20:45 17.07.2022
362 Clear 28 998 89 10000 3 220 19:49 17.07.2022
363 Rain 28 995 88 10000 3 210 19:20 17.07.2022
364 Rain 28 994 85 10000 3 200 17:42 17.07.2022
365 Rain 28 999 87 10000 3 200 17:22 17.07.2022
366 Rain 28 999 87 10000 3 180 16:28 17.07.2022
367 Rain 28 999 88 10000 3.13 179 15:37 17.07.2022
368 Rain 28 997 80 10000 1 0 13:51 17.07.2022
369 Rain 27 998 82 10000 2 140 12:40 17.07.2022
370 Rain 29 992 77 10000 11 280 10:19 17.07.2022
371 Clear 36 994 66 10000 3 230 06:58 17.07.2022
372 Clear 30 999 82 10000 3 200 02:34 17.07.2022
373 Clear 33 994 69 10000 3 200 02:34 17.07.2022
374 Clouds 28 999 87 7000 3 160 23:23 16.07.2022
375 Clear 29 999 89 10000 3 160 21:59 16.07.2022
376 Clear 29 1000 88 10000 2 180 20:28 16.07.2022
377 Clear 29 996 83 10000 3 140 18:43 16.07.2022
378 Clear 29 1001 82 10000 4 140 17:25 16.07.2022
379 Clear 30 1002 79 10000 4 120 15:50 16.07.2022
380 Rain 32 1000 70 10000 2 360 11:55 16.07.2022
381 Rain 33 1001 73 10000 2 10 09:41 16.07.2022
382 Clouds 33 1000 80 10000 2 10 09:22 16.07.2022
383 Clouds 33 1000 77 10000 3 340 08:35 16.07.2022
384 Clouds 32 997 72 10000 2 330 06:47 16.07.2022
385 Rain 28 996 87 10000 3 20 03:31 16.07.2022
386 Clouds 29 999 89 6000 2 160 23:52 15.07.2022
387 Clear 29 999 89 10000 1 0 22:46 15.07.2022
388 Clear 29 999 89 10000 2 160 21:52 15.07.2022
389 Clear 29 999 88 10000 2 150 20:32 15.07.2022
390 Clear 30 999 86 10000 1 220 18:46 15.07.2022
391 Clear 30 1000 86 10000 1 360 17:49 15.07.2022
392 Clear 29 1000 83 10000 1 0 15:41 15.07.2022
393 Clear 29 996 81 10000 4 290 13:22 15.07.2022
394 Clear 30 994 70 10000 4 280 11:48 15.07.2022
395 Clouds 29 1000 79 10000 2 120 10:51 15.07.2022
396 Rain 36 1000 52 10000 3 290 07:47 15.07.2022
397 Clear 33 1000 77 10000 4 280 02:39 15.07.2022
398 Clear 33 997 76 10000 2 240 00:38 15.07.2022
399 Clear 33 996 78 10000 2 260 22:54 14.07.2022
400 Rain 33 996 78 10000 2 230 21:56 14.07.2022
401 Rain 33 996 78 10000 2 210 21:32 14.07.2022
402 Rain 33 996 78 10000 3 190 20:46 14.07.2022
403 Clear 33 997 78 10000 2.24 199 20:28 14.07.2022
404 Clear 33 997 78 10000 3 190 19:58 14.07.2022
405 Clear 34 998 75 10000 4 130 16:23 14.07.2022
406 Clear 34 997 71 10000 4 100 15:54 14.07.2022
407 Clear 35 997 65 10000 1 0 14:44 14.07.2022
408 Clear 37 1001 41 10000 2 0 13:32 14.07.2022
409 Clear 38 995 41 10000 4 310 12:18 14.07.2022
410 Clear 38 1000 65 10000 3 300 11:25 14.07.2022
411 Clear 39 1000 63 10000 3 220 10:39 14.07.2022
412 Clear 40 997 56 10000 4 270 08:21 14.07.2022
413 Clear 36 998 61 10000 3 310 03:29 14.07.2022
414 Clear 33 998 76 10000 2 210 00:54 14.07.2022
415 Clear 32 997 79 10000 3 150 23:35 13.07.2022
416 Clear 32 997 77 10000 2 160 22:23 13.07.2022
417 Clear 33 997 77 10000 1.34 164 21:21 13.07.2022
418 Clear 33 997 76 10000 2 140 20:23 13.07.2022
419 Clear 33 1001 81 10000 3 180 17:54 13.07.2022
420 Clear 34 998 74 10000 3 190 16:47 13.07.2022
421 Clear 34 1002 82 10000 3 190 15:43 13.07.2022
422 Clear 37 995 37 10000 3 290 13:24 13.07.2022
423 Clear 40 1001 47 10000 4 0 10:46 13.07.2022
424 Clouds 40 997 57 10000 5 290 10:28 13.07.2022
425 Clouds 40 997 57 10000 5 290 10:28 13.07.2022
426 Clouds 40 997 58 10000 4 230 09:27 13.07.2022
427 Clouds 40 997 59 10000 4 240 07:53 13.07.2022
428 Clear 34 999 71 10000 2 180 03:26 13.07.2022
429 Clear 30 999 80 10000 2.24 178 00:24 13.07.2022
430 Clear 30 998 80 10000 3 140 22:19 12.07.2022
431 Clear 31 998 79 10000 4 150 21:36 12.07.2022
432 Clear 31 998 79 10000 4 160 20:42 12.07.2022
433 Clear 31 998 79 10000 4 180 19:42 12.07.2022
434 Clear 32 999 76 10000 3 150 18:21 12.07.2022
435 Clear 33 1000 74 10000 3 130 16:20 12.07.2022
436 Clear 33 999 75 10000 5 150 14:31 12.07.2022
437 Clear 34 998 73 10000 5 150 13:24 12.07.2022
438 Clear 37 998 68 10000 5 150 11:46 12.07.2022
439 Clear 38 996 53 10000 6 140 10:25 12.07.2022
440 Rain 39 998 61 10000 4 190 08:38 12.07.2022
441 Clouds 39 1002 71 10000 3 230 07:38 12.07.2022
442 Clear 39 1000 63 10000 3 240 05:44 12.07.2022
443 Clear 35 1004 79 10000 4 190 03:50 12.07.2022
444 Clear 30 1004 83 10000 3 150 23:50 11.07.2022
445 Clear 30 1003 83 10000 3 160 22:37 11.07.2022
446 Clear 30 1004 80 10000 4 150 20:54 11.07.2022
447 Clear 31 1004 80 10000 4 150 20:29 11.07.2022
448 Clear 31 1001 73 10000 3 150 18:39 11.07.2022
449 Clear 31 1005 79 10000 4 150 17:57 11.07.2022
450 Clear 32 1005 76 10000 4 150 16:22 11.07.2022
451 Clear 32 999 58 10000 4 150 14:52 11.07.2022
452 Clear 35 1003 77 10000 5 190 12:28 11.07.2022
453 Clear 36 1003 77 10000 3 0 10:54 11.07.2022
454 Clear 36 1003 77 10000 1 0 09:54 11.07.2022
455 Clear 36 1004 49 10000 4 190 08:36 11.07.2022
456 Clear 35 1005 55 10000 4 190 07:32 11.07.2022
457 Clear 28 1004 82 10000 2 150 00:47 11.07.2022
458 Clear 28 1003 86 10000 2.68 49 23:48 10.07.2022
459 Rain 27 1002 86 10000 2 30 22:26 10.07.2022
460 Rain 27 1002 87 10000 2.68 86 20:55 10.07.2022
461 Rain 29 998 83 10000 4 40 19:55 10.07.2022
462 Thunderstorm 29 997 84 10000 9 360 19:20 10.07.2022
463 Rain 33 1003 62 10000 3 190 17:50 10.07.2022
464 Clear 33 1002 77 10000 4 170 16:59 10.07.2022
465 Clear 34 1002 79 10000 5 180 16:20 10.07.2022
466 Clear 35 1002 67 10000 5 180 14:35 10.07.2022
467 Clear 38 1001 44 10000 3 270 12:38 10.07.2022
468 Clear 38 1000 70 10000 5 230 11:34 10.07.2022
469 Clouds 38 1002 44 10000 4 220 09:28 10.07.2022
470 Clouds 39 1002 51 10000 3 220 08:38 10.07.2022
471 Clouds 36 999 64 10000 4 270 05:36 10.07.2022
472 Clear 30 1002 86 10000 2.24 169 23:32 09.07.2022
473 Clear 30 1002 83 10000 2 190 22:26 09.07.2022
474 Clear 30 1002 83 10000 2 190 22:26 09.07.2022
475 Clear 30 1002 81 10000 2 160 21:31 09.07.2022
476 Clear 31 1002 82 10000 2 180 19:19 09.07.2022
477 Clear 31 1002 80 10000 3 150 18:22 09.07.2022
478 Clear 32 1004 62 10000 4 160 16:59 09.07.2022
479 Clear 32 1004 70 10000 5 150 15:54 09.07.2022
480 Clear 32 1004 70 10000 4 150 15:35 09.07.2022
481 Clear 33 1003 62 10000 4 110 13:54 09.07.2022
482 Rain 33 999 74 10000 5 100 13:27 09.07.2022
483 Rain 34 997 70 10000 3 90 11:33 09.07.2022
484 Clouds 35 997 70 10000 4 70 10:24 09.07.2022
485 Clouds 38 1002 47 10000 5 240 08:25 09.07.2022
486 Clouds 37 1002 49 10000 3 230 06:59 09.07.2022
487 Clouds 35 999 63 10000 3 300 04:34 09.07.2022
488 Clear 31 998 77 10000 1.34 305 23:22 08.07.2022
489 Clear 31 1001 81 10000 1 0 21:59 08.07.2022
490 Clear 32 998 75 10000 2 230 21:18 08.07.2022
491 Clear 32 998 75 10000 2 220 20:30 08.07.2022
492 Clear 32 1002 81 10000 2 190 18:33 08.07.2022
493 Clear 32 1003 80 10000 3 200 17:33 08.07.2022
494 Clear 32 1003 80 10000 3 200 17:33 08.07.2022
495 Clear 34 1003 65 10000 3 220 14:55 08.07.2022
496 Clear 34 1002 78 10000 3 220 14:29 08.07.2022
497 Clear 36 997 49 10000 4 290 12:28 08.07.2022
498 Clear 38 1002 41 10000 5 310 10:45 08.07.2022
499 Clear 37 1003 47 10000 4 300 08:51 08.07.2022
500 Clear 37 999 62 10000 4 0 06:54 08.07.2022
501 Clear 33 1001 71 10000 3 260 02:53 08.07.2022
502 Clear 30 1004 89 10000 1.79 285 23:41 07.07.2022
503 Clear 30 1004 89 10000 2 200 22:40 07.07.2022
504 Clear 30 1004 87 10000 1.34 246 20:56 07.07.2022
505 Clear 31 1005 86 10000 1.34 208 18:37 07.07.2022
506 Clear 31 1005 87 10000 2 200 17:19 07.07.2022
507 Clear 31 1005 86 10000 2 270 15:18 07.07.2022
508 Rain 31 1000 81 10000 3 140 13:25 07.07.2022
509 Clear 32 1000 77 10000 2 210 12:37 07.07.2022
510 Clear 33 999 76 10000 2 210 12:18 07.07.2022
511 Clouds 35 999 69 10000 4 240 11:29 07.07.2022
512 Clear 36 1003 78 10000 4 240 10:42 07.07.2022
513 Clear 36 1003 78 10000 4 240 10:24 07.07.2022
514 Clouds 36 1000 64 10000 4 300 07:40 07.07.2022
515 Clouds 33 1001 71 10000 4 230 04:18 07.07.2022
516 Clouds 30 1003 86 10000 0.45 331 23:37 06.07.2022
517 Clear 30 1003 86 10000 2 190 23:18 06.07.2022
518 Clear 30 1003 86 10000 2 190 22:56 06.07.2022
519 Clear 30 1003 85 10000 3 190 22:38 06.07.2022
520 Clear 31 1002 84 10000 3 190 20:54 06.07.2022
521 Clear 31 1002 84 10000 4 190 19:35 06.07.2022
522 Clear 31 999 79 10000 5 180 17:32 06.07.2022
523 Clear 31 998 79 10000 4 160 15:59 06.07.2022
524 Clear 32 997 77 10000 5 150 14:33 06.07.2022
525 Clear 34 1000 78 10000 5 170 12:31 06.07.2022
526 Clear 35 996 70 10000 6 170 11:45 06.07.2022
527 Clear 36 995 67 10000 6 180 10:18 06.07.2022
528 Clear 36 997 66 10000 6 220 07:44 06.07.2022
529 Clear 36 997 66 10000 5 200 07:44 06.07.2022
530 Clear 36 997 66 10000 5 200 07:20 06.07.2022
531 Clear 30 997 75 10000 6 170 01:42 06.07.2022
532 Clear 29 996 82 10000 5 160 22:45 05.07.2022
533 Clear 29 996 83 10000 4 150 21:32 05.07.2022
534 Clear 29 996 83 10000 4 150 21:32 05.07.2022
535 Clear 30 996 81 10000 5 160 20:38 05.07.2022
536 Clear 30 996 82 10000 7 170 19:41 05.07.2022
537 Clear 30 996 82 10000 5 150 18:26 05.07.2022
538 Clear 31 996 81 10000 5 150 17:41 05.07.2022
539 Clear 31 996 80 10000 5 150 16:39 05.07.2022
540 Clear 32 996 80 10000 5 150 15:23 05.07.2022
541 Clear 33 996 76 10000 5 150 13:36 05.07.2022
542 Clouds 33 993 67 10000 6 150 12:41 05.07.2022
543 Clouds 36 998 76 10000 5 140 10:46 05.07.2022
544 Clouds 36 998 75 10000 5 150 10:25 05.07.2022
545 Clouds 36 996 68 10000 4 140 08:24 05.07.2022
546 Clouds 36 997 67 10000 4 140 07:21 05.07.2022
547 Clouds 33 998 72 10000 4 90 04:40 05.07.2022
548 Clear 28 1002 79 10000 3 110 01:54 05.07.2022
549 Clouds 28 997 86 10000 4 120 23:40 04.07.2022
550 Clouds 27 1001 89 10000 4 130 22:58 04.07.2022
551 Clear 27 997 87 10000 4 120 22:19 04.07.2022
552 Clouds 28 997 85 10000 4 120 20:58 04.07.2022
553 Clouds 28 998 84 10000 4 120 20:37 04.07.2022
554 Clouds 28 998 83 10000 5 130 19:57 04.07.2022
555 Clouds 28 998 84 10000 5 130 19:37 04.07.2022
556 Clouds 28 998 84 10000 5 130 18:54 04.07.2022
557 Clear 28 999 81 10000 5 140 16:58 04.07.2022
558 Clouds 29 999 81 10000 7 140 15:40 04.07.2022
559 Clouds 29 999 78 10000 5 120 14:21 04.07.2022
560 Clear 30 1002 75 10000 6 120 12:56 04.07.2022
561 Clouds 33 1000 76 10000 5 110 11:32 04.07.2022
562 Clouds 34 1000 75 10000 4 120 10:33 04.07.2022
563 Clouds 34 1000 74 10000 2 150 09:23 04.07.2022
564 Clouds 32 1002 75 10000 3 0 06:28 04.07.2022
565 Clouds 29 999 74 10000 4 150 02:59 04.07.2022
566 Clouds 26 998 81 10000 3 110 23:53 03.07.2022
567 Clouds 27 998 86 10000 2 100 22:36 03.07.2022
568 Clouds 27 998 85 10000 3 140 20:46 03.07.2022
569 Clouds 27 999 85 10000 3 130 19:52 03.07.2022
570 Clouds 27 999 85 10000 3 130 19:24 03.07.2022
571 Clouds 27 999 85 10000 4 130 18:30 03.07.2022
572 Clouds 27 1000 84 10000 5 120 17:41 03.07.2022
573 Clear 28 1000 82 10000 3 110 15:28 03.07.2022
574 Clear 28 1000 80 10000 5 120 14:53 03.07.2022
575 Clear 29 1000 80 10000 5 100 13:50 03.07.2022
576 Clear 30 1003 80 10000 5 100 12:47 03.07.2022
577 Clouds 31 1003 79 10000 5 110 12:18 03.07.2022
578 Rain 32 1002 76 10000 5 130 10:54 03.07.2022
579 Clouds 32 1003 76 10000 4 140 10:35 03.07.2022
580 Clouds 33 1001 70 10000 5 130 07:38 03.07.2022
581 Clouds 32 1001 71 10000 5 140 06:35 03.07.2022
582 Clouds 27 1002 80 10000 4 120 00:39 03.07.2022
583 Clouds 26 1001 86 10000 3 110 23:37 02.07.2022
584 Clouds 27 1001 86 10000 4 120 22:31 02.07.2022
585 Clouds 27 1002 85 10000 3 110 20:28 02.07.2022
586 Clouds 27 1002 86 10000 3 160 19:49 02.07.2022
587 Clouds 27 1003 85 10000 5 140 18:24 02.07.2022
588 Clouds 28 1003 82 10000 4 120 17:38 02.07.2022
589 Clouds 28 1003 82 10000 5 130 15:56 02.07.2022
590 Clouds 29 1002 80 10000 5 120 13:35 02.07.2022
591 Clouds 30 1006 77 10000 6 120 11:48 02.07.2022
592 Clouds 31 1006 78 10000 5 120 10:50 02.07.2022
593 Clouds 32 1003 70 10000 8 150 09:49 02.07.2022
594 Clouds 32 1003 69 10000 7 140 08:37 02.07.2022
595 Clouds 33 1003 69 10000 7 140 08:19 02.07.2022
596 Clouds 29 1005 77 10000 5 160 02:59 02.07.2022
597 Clouds 27 1005 85 10000 5 130 00:28 02.07.2022
598 Clouds 26 1004 86 10000 4 130 23:21 01.07.2022
599 Clouds 27 1004 85 10000 5 130 22:29 01.07.2022
600 Clouds 27 1004 87 10000 5 140 21:37 01.07.2022
601 Clouds 27 1004 86 10000 3 150 20:58 01.07.2022
602 Clouds 27 1004 85 10000 5 130 20:20 01.07.2022
603 Clouds 27 1005 85 10000 6 140 19:36 01.07.2022
604 Clouds 27 1005 86 10000 8 150 16:41 01.07.2022
605 Clouds 28 1005 82 10000 7 140 14:29 01.07.2022
606 Clouds 28 1004 81 10000 6 150 13:33 01.07.2022
607 Clouds 31 1004 72 10000 8 160 10:53 01.07.2022
608 Clouds 31 1004 73 10000 7 150 10:19 01.07.2022
609 Clouds 31 1005 76 10000 9 150 06:31 01.07.2022
610 Clouds 28 1005 76 10000 6 150 02:43 01.07.2022
611 Clear 27 1004 86 10000 5 150 23:44 30.06.2022
612 Clear 27 1004 87 10000 5 150 22:50 30.06.2022
613 Clear 26 1004 87 10000 5 150 22:31 30.06.2022
614 Clouds 26 1004 87 10000 5 150 21:53 30.06.2022
615 Clouds 27 1004 87 10000 5 150 20:49 30.06.2022
616 Clear 27 1003 86 10000 5 150 20:20 30.06.2022
617 Clear 27 1004 84 10000 5 150 19:47 30.06.2022
618 Clear 27 1004 85 10000 6 160 18:52 30.06.2022
619 Clear 27 1004 85 10000 7 150 17:53 30.06.2022
620 Clouds 28 1004 85 10000 5 160 17:18 30.06.2022
621 Clouds 28 1004 86 10000 5 160 16:18 30.06.2022
622 Rain 28 1003 85 10000 4 150 13:59 30.06.2022
623 Rain 28 1003 85 10000 4 150 13:20 30.06.2022
624 Rain 28 1003 84 10000 5 140 12:33 30.06.2022
625 Rain 30 1001 78 10000 5 150 10:49 30.06.2022
626 Rain 31 1002 78 10000 7 150 09:47 30.06.2022
627 Clouds 32 1001 74 10000 7 150 08:31 30.06.2022
628 Clouds 32 1002 72 10000 6 170 07:41 30.06.2022
629 Clouds 32 1002 71 10000 6 170 05:45 30.06.2022
630 Rain 27 1005 88 10000 3 150 23:39 29.06.2022
631 Rain 27 1001 86 10000 4.92 178 22:42 29.06.2022
632 Rain 27 1004 87 10000 4.92 179 22:19 29.06.2022
633 Clear 27 1004 84 10000 3 170 20:35 29.06.2022
634 Clear 27 1000 81 10000 4 180 19:57 29.06.2022
635 Clear 27 1000 85 10000 5 170 18:46 29.06.2022
636 Clear 28 1000 85 10000 4.92 165 17:38 29.06.2022
637 Rain 28 1000 85 10000 3 150 16:24 29.06.2022
638 Rain 27 999 88 10000 4.47 162 13:52 29.06.2022
639 Rain 27 998 87 10000 5.81 193 12:38 29.06.2022
640 Rain 28 1003 83 10000 1 0 10:18 29.06.2022
641 Thunderstorm 27 1003 89 10000 4 180 09:27 29.06.2022
642 Clouds 33 997 59 10000 4 350 06:32 29.06.2022
643 Clouds 35 1003 55 10000 5 180 04:44 29.06.2022
644 Clear 28 1001 77 10000 5 180 00:53 29.06.2022
645 Clear 28 1001 79 10000 3 180 00:34 29.06.2022
646 Clear 28 1001 80 10000 5 180 22:52 28.06.2022
647 Clear 28 1000 84 10000 4 180 21:59 28.06.2022
648 Clear 28 1000 83 10000 5 170 21:40 28.06.2022
649 Clear 28 997 81 10000 5 170 21:22 28.06.2022
650 Clear 28 1000 79 10000 6 170 19:54 28.06.2022
651 Clear 28 1000 79 10000 5 170 19:30 28.06.2022
652 Clear 28 1000 79 10000 7 170 18:40 28.06.2022
653 Clear 28 1001 83 10000 5 150 17:25 28.06.2022
654 Clear 29 997 80 10000 6 150 15:55 28.06.2022
655 Rain 29 996 81 10000 6 150 14:52 28.06.2022
656 Rain 29 996 81 10000 6 140 14:19 28.06.2022
657 Clear 30 996 81 10000 6 160 13:45 28.06.2022
658 Clear 31 995 78 10000 6 150 12:30 28.06.2022
659 Rain 33 996 70 10000 6 170 10:23 28.06.2022
660 Rain 34 995 68 10000 6 190 08:55 28.06.2022
661 Rain 34 996 67 10000 8 200 08:33 28.06.2022
662 Rain 34 996 67 10000 8 200 07:20 28.06.2022
663 Clear 30 997 74 10000 6 180 03:55 28.06.2022
664 Rain 28 997 79 10000 7 180 23:51 27.06.2022
665 Rain 28 997 78 10000 8 180 23:26 27.06.2022
666 Rain 28 997 78 10000 7 170 21:53 27.06.2022
667 Rain 28 997 80 10000 7 170 21:22 27.06.2022
668 Rain 28 997 80 10000 7 170 20:33 27.06.2022
669 Clear 28 998 76 10000 9 160 18:51 27.06.2022
670 Clear 28 998 74 10000 7 160 17:38 27.06.2022
671 Clear 29 998 74 10000 7 160 15:50 27.06.2022
672 Clear 30 998 76 10000 6 150 14:18 27.06.2022
673 Clear 31 997 75 10000 7 150 12:58 27.06.2022
674 Clear 32 997 73 10000 7 140 11:40 27.06.2022
675 Rain 35 998 66 10000 7 180 09:45 27.06.2022
676 Clear 35 998 64 10000 8 180 08:43 27.06.2022
677 Clear 35 998 63 10000 7 190 07:49 27.06.2022
678 Clear 34 999 65 10000 8 190 05:50 27.06.2022
679 Clear 29 1001 75 10000 6 170 01:24 27.06.2022
680 Clear 28 1000 77 10000 6 170 22:59 26.06.2022
681 Clear 28 1000 77 10000 6 170 21:38 26.06.2022
682 Clear 28 1000 78 10000 6 170 20:28 26.06.2022
683 Clear 29 1000 79 10000 8 170 18:33 26.06.2022
684 Rain 29 1001 78 10000 7 170 17:40 26.06.2022
685 Clear 30 1000 77 10000 6 160 15:36 26.06.2022
686 Clear 30 1000 78 10000 6 150 14:22 26.06.2022
687 Clear 31 1000 78 10000 6 150 13:24 26.06.2022
688 Clear 32 1000 72 10000 6 160 11:39 26.06.2022
689 Clear 34 1000 70 10000 8 170 10:42 26.06.2022
690 Clear 33 1000 69 10000 7 160 09:58 26.06.2022
691 Clear 35 1001 68 10000 5.36 171 07:47 26.06.2022
692 Clear 35 1001 68 10000 5.36 171 07:47 26.06.2022
693 Clear 33 1002 69 10000 5 200 05:26 26.06.2022
694 Clear 28 1001 75 10000 5 170 00:36 26.06.2022
695 Clear 28 1001 75 10000 5 170 00:18 26.06.2022
696 Clear 28 1001 80 10000 4 160 23:29 25.06.2022
697 Clear 28 1000 81 10000 4.02 161 22:42 25.06.2022
698 Clear 28 1000 82 10000 4.02 162 22:24 25.06.2022
699 Clear 28 999 83 10000 3 160 21:21 25.06.2022
700 Clear 28 1000 82 10000 3 150 20:36 25.06.2022
701 Clear 28 1000 83 10000 3 160 19:56 25.06.2022
702 Clear 29 1000 83 10000 4 150 18:22 25.06.2022
703 Clear 29 1000 84 10000 5 150 17:26 25.06.2022
704 Clear 30 1000 81 10000 4 150 16:25 25.06.2022
705 Clear 30 1000 77 10000 5 160 14:28 25.06.2022
706 Clear 32 999 71 10000 6 180 12:43 25.06.2022
707 Clear 33 998 68 10000 6 190 11:39 25.06.2022
708 Clear 34 998 64 10000 6.26 217 09:24 25.06.2022
709 Clear 34 999 66 10000 7.15 216 08:48 25.06.2022
710 Clear 34 998 68 10000 7.15 214 08:20 25.06.2022
711 Clear 33 1004 69 10000 5 200 06:26 25.06.2022
712 Clear 27 1000 81 10000 2.24 194 00:44 25.06.2022
713 Clear 26 1000 84 10000 2.68 185 23:32 24.06.2022
714 Clear 25 999 84 10000 5 170 21:59 24.06.2022
715 Clear 26 999 83 10000 5 180 21:21 24.06.2022
716 Clear 26 998 82 10000 3 220 20:22 24.06.2022
717 Clear 26 1003 86 10000 4 190 19:23 24.06.2022
718 Clear 27 999 81 10000 2.24 208 18:50 24.06.2022
719 Clear 26 1003 85 10000 2.24 205 18:31 24.06.2022
720 Rain 27 1000 82 10000 3 190 17:46 24.06.2022
721 Rain 27 1000 81 10000 2 190 16:32 24.06.2022
722 Clear 27 999 80 10000 4.02 211 14:29 24.06.2022
723 Clear 27 999 79 10000 4.02 209 13:55 24.06.2022
724 Clear 27 999 78 10000 3.58 231 12:26 24.06.2022
725 Clear 26 999 78 10000 3 280 11:40 24.06.2022
726 Rain 27 998 74 10000 2 0 10:22 24.06.2022
727 Rain 27 998 76 10000 4 220 09:41 24.06.2022
728 Rain 26 999 82 10000 6 230 08:52 24.06.2022
729 Clouds 27 1000 85 10000 6 260 07:20 24.06.2022
730 Clouds 27 1000 86 10000 4 290 06:42 24.06.2022
731 Rain 27 1000 88 10000 4 290 06:18 24.06.2022
732 Rain 25 999 90 10000 2 260 02:31 24.06.2022
733 Clouds 29 1002 74 10000 5 320 22:57 23.06.2022
734 Clear 29 1001 74 10000 3 220 22:38 23.06.2022
735 Clouds 30 1001 83 10000 2 300 20:57 23.06.2022
736 Clouds 30 997 77 10000 3.13 217 20:32 23.06.2022
737 Clear 29 1002 74 10000 1 0 19:24 23.06.2022
738 Clear 32 1003 58 10000 2 280 17:50 23.06.2022
739 Rain 33 1003 52 10000 4 230 16:58 23.06.2022
740 Clear 33 1003 55 10000 4 220 15:49 23.06.2022
741 Rain 33 1003 55 10000 3 210 15:24 23.06.2022
742 Clear 34 998 67 10000 3 230 13:32 23.06.2022
743 Clear 36 997 63 10000 6 240 11:23 23.06.2022
744 Clear 35 997 63 10000 6 230 10:31 23.06.2022
745 Rain 35 996 45 10000 7 250 08:35 23.06.2022
746 Clear 31 1000 71 10000 6 230 02:38 23.06.2022
747 Clear 29 1000 72 10000 5 210 00:26 23.06.2022
748 Clear 28 1004 77 10000 4 210 23:27 22.06.2022
749 Clear 28 1004 80 10000 4 230 22:31 22.06.2022
750 Clear 29 999 76 10000 4 230 21:21 22.06.2022
751 Clear 29 999 76 10000 5 230 20:25 22.06.2022
752 Clear 29 999 76 10000 4 230 19:50 22.06.2022
753 Clear 30 1000 75 10000 6 200 18:21 22.06.2022
754 Clear 30 1000 78 10000 4 200 17:26 22.06.2022
755 Clear 30 1000 79 10000 4 200 16:18 22.06.2022
756 Clear 30 1001 79 10000 4 180 15:25 22.06.2022
757 Clouds 31 999 78 10000 3 210 13:52 22.06.2022
758 Clouds 31 1000 80 10000 2 220 13:26 22.06.2022
759 Clouds 32 1003 83 10000 3 250 12:56 22.06.2022
760 Clear 33 999 68 10000 5 240 11:47 22.06.2022
761 Clear 35 1002 73 10000 5 240 10:54 22.06.2022
762 Clear 35 999 64 10000 6 240 09:44 22.06.2022
763 Clear 34 1000 68 10000 5 220 07:56 22.06.2022
764 Clear 31 1001 70 10000 4 200 03:30 22.06.2022
765 Clear 27 1001 78 10000 3 160 01:22 22.06.2022
766 Clear 26 1000 86 10000 3 130 23:39 21.06.2022
767 Clear 26 999 86 10000 2 140 21:31 21.06.2022
768 Clear 26 1000 84 10000 2 100 19:43 21.06.2022
769 Clear 26 1000 85 10000 3 130 18:30 21.06.2022
770 Clear 26 1000 83 10000 5 140 16:52 21.06.2022
771 Clear 28 999 77 10000 4 160 12:40 21.06.2022
772 Clouds 30 998 74 10000 4 160 10:55 21.06.2022
773 Clouds 30 998 75 10000 4 160 09:40 21.06.2022
774 Clouds 30 999 72 10000 3 150 07:56 21.06.2022
775 Clouds 28 1000 74 10000 4 140 05:37 21.06.2022
776 Clouds 26 998 84 10000 3 140 00:37 21.06.2022
777 Clouds 25 1001 86 10000 3 110 22:23 20.06.2022
778 Clouds 25 1001 84 10000 3 120 21:49 20.06.2022
779 Clouds 25 1001 86 10000 2 110 20:30 20.06.2022
780 Clouds 25 1001 86 10000 3 160 19:37 20.06.2022
781 Clouds 26 1001 84 10000 3 160 18:44 20.06.2022
782 Clouds 26 1001 84 10000 2 100 17:50 20.06.2022
783 Clouds 26 1001 84 10000 2 60 16:55 20.06.2022
784 Clouds 26 1001 83 10000 3 90 15:52 20.06.2022
785 Clouds 28 999 79 10000 5 40 12:38 20.06.2022
786 Clouds 30 999 76 10000 5 50 10:32 20.06.2022
787 Clouds 31 995 66 10000 4 20 08:57 20.06.2022
788 Clouds 31 995 66 10000 4 20 08:57 20.06.2022
789 Clouds 31 999 72 10000 4 40 08:21 20.06.2022
790 Clouds 30 996 69 10000 2 190 05:35 20.06.2022
791 Clear 26 1001 86 10000 2.68 162 01:33 20.06.2022
792 Rain 26 997 85 10000 2 140 00:25 20.06.2022
793 Clouds 25 997 87 10000 5 150 22:50 19.06.2022
794 Clouds 25 997 86 10000 4 150 21:51 19.06.2022
795 Rain 25 997 86 10000 3 160 21:31 19.06.2022
796 Rain 26 997 84 10000 3 140 20:38 19.06.2022
797 Rain 26 998 83 10000 4 180 19:47 19.06.2022
798 Rain 26 998 84 10000 3.13 183 18:43 19.06.2022
799 Rain 26 998 80 10000 4 180 17:48 19.06.2022
800 Rain 25 1003 85 10000 3.58 202 17:22 19.06.2022
801 Clear 26 1003 83 10000 3.58 195 16:34 19.06.2022
802 Rain 27 998 79 10000 3 190 15:41 19.06.2022
803 Rain 27 998 80 10000 4 200 14:56 19.06.2022
804 Clouds 28 998 79 10000 4 220 14:19 19.06.2022
805 Rain 27 998 83 10000 4 130 12:56 19.06.2022
806 Rain 28 1001 84 10000 5 80 10:55 19.06.2022
807 Clouds 30 1002 77 10000 3 310 09:40 19.06.2022
808 Clouds 30 1002 76 10000 3 260 08:47 19.06.2022
809 Clouds 31 1002 72 10000 2 0 07:51 19.06.2022
810 Clouds 30 999 71 10000 2 320 04:45 19.06.2022
811 Clouds 25 1004 83 10000 1.79 86 01:29 19.06.2022
812 Clouds 25 1003 88 10000 1 0 00:24 19.06.2022
813 Clouds 25 1003 87 10000 1.79 83 23:35 18.06.2022
814 Clouds 25 1003 87 10000 2 170 22:36 18.06.2022
815 Clouds 25 1003 87 10000 2 80 20:56 18.06.2022
816 Clouds 25 1003 87 10000 2 110 20:28 18.06.2022
817 Clear 26 999 86 10000 3 160 19:37 18.06.2022
818 Clear 26 999 85 10000 3 150 18:45 18.06.2022
819 Clear 26 999 84 10000 3 150 17:31 18.06.2022
820 Clear 27 999 81 10000 3 140 16:47 18.06.2022
821 Clear 27 999 84 10000 4 140 15:31 18.06.2022
822 Clear 27 997 81 10000 4 160 14:42 18.06.2022
823 Clear 28 997 79 10000 6 150 13:22 18.06.2022
824 Clear 29 1002 77 10000 5 110 11:38 18.06.2022
825 Clear 31 1002 74 10000 5 120 10:46 18.06.2022
826 Clear 32 1002 71 10000 4 100 09:20 18.06.2022
827 Clear 33 1002 69 10000 3 140 08:19 18.06.2022
828 Clear 32 1000 65 10000 4 130 06:44 18.06.2022
829 Clear 27 1001 75 10000 4 160 03:24 18.06.2022
830 Clear 24 1000 83 10000 4 160 01:24 18.06.2022
831 Clear 23 1000 85 10000 4 150 00:45 18.06.2022
832 Clear 23 1000 86 10000 4 130 23:52 17.06.2022
833 Clear 23 1000 87 10000 3 150 23:19 17.06.2022
834 Clear 23 999 86 10000 4 150 20:42 17.06.2022
835 Clear 24 1000 85 10000 4 150 19:30 17.06.2022
836 Clear 24 1000 85 10000 3 140 18:34 17.06.2022
837 Clear 24 1001 84 10000 5 150 17:34 17.06.2022
838 Clear 25 999 81 10000 6 140 16:42 17.06.2022
839 Clear 25 999 80 10000 5 140 15:42 17.06.2022
840 Clear 26 999 81 10000 5 140 14:50 17.06.2022
841 Clear 26 1000 82 10000 6 140 14:19 17.06.2022
842 Clear 27 1000 80 10000 5 150 13:44 17.06.2022
843 Clear 28 1005 78 10000 5 150 12:45 17.06.2022
844 Clear 31 998 60 10000 6 170 11:56 17.06.2022
845 Clear 32 999 65 10000 6 170 11:35 17.06.2022
846 Clear 34 999 59 10000 6 190 09:59 17.06.2022
847 Clear 33 1003 70 10000 2 180 08:27 17.06.2022
848 Clouds 34 1001 60 10000 2 290 06:58 17.06.2022
849 Clear 32 1001 63 10000 1 0 05:35 17.06.2022
850 Clear 29 999 71 10000 2 170 02:42 17.06.2022
851 Clouds 24 1001 86 7000 3 140 00:33 17.06.2022
852 Clear 23 1000 85 10000 2 150 22:44 16.06.2022
853 Clear 24 1000 86 10000 2 150 21:26 16.06.2022
854 Clear 24 1000 86 10000 3 150 20:59 16.06.2022
855 Clear 24 1000 86 10000 3 150 20:36 16.06.2022
856 Clear 24 1000 86 10000 3 160 19:53 16.06.2022
857 Clear 25 1000 84 10000 5 160 18:27 16.06.2022
858 Clear 26 1002 80 10000 4 160 17:43 16.06.2022
859 Clear 26 1000 76 10000 3 150 16:39 16.06.2022
860 Clear 27 1000 74 10000 4 160 15:24 16.06.2022
861 Clear 28 999 73 10000 4 160 14:46 16.06.2022
862 Clear 29 999 72 10000 4 150 13:32 16.06.2022
863 Clear 30 1001 67 10000 5 190 12:36 16.06.2022
864 Clear 32 1000 63 10000 5 180 11:52 16.06.2022
865 Clear 33 1000 61 10000 5 180 10:56 16.06.2022
866 Clear 33 998 63 10000 5 170 10:20 16.06.2022
867 Clear 32 998 66 10000 4 180 09:21 16.06.2022
868 Clear 33 1001 61 10000 4 190 08:30 16.06.2022
869 Rain 33 1001 62 10000 5 210 07:26 16.06.2022
870 Clear 31 1003 64 10000 5 190 04:50 16.06.2022
871 Clear 27 1003 70 10000 3 180 02:21 16.06.2022
872 Clear 27 1001 73 10000 2 160 01:35 16.06.2022
873 Clear 26 1001 80 8000 2 150 00:56 16.06.2022
874 Clear 23 1007 84 8000 2.24 163 23:43 15.06.2022
875 Clear 24 1007 85 7000 2.68 160 22:35 15.06.2022
876 Clear 24 1007 85 10000 2.68 157 21:22 15.06.2022
877 Clear 24 1007 82 10000 3 140 20:44 15.06.2022
878 Clear 24 1007 81 10000 3 140 20:25 15.06.2022
879 Clear 25 1007 83 10000 3.13 158 19:29 15.06.2022
880 Clear 25 1003 77 10000 3 150 17:56 15.06.2022
881 Clear 26 1003 77 10000 4 150 17:25 15.06.2022
882 Clear 27 1002 71 10000 4 150 15:38 15.06.2022
883 Clear 28 1001 69 10000 4 150 14:18 15.06.2022
884 Clear 29 1002 66 10000 5 150 12:54 15.06.2022
885 Clear 31 1002 66 10000 5 120 11:53 15.06.2022
886 Clear 33 1006 64 10000 3 330 10:24 15.06.2022
887 Clear 33 1006 65 10000 4 360 09:43 15.06.2022
888 Clear 34 1007 59 10000 2 0 08:40 15.06.2022
889 Clouds 32 1003 52 10000 3 290 06:34 15.06.2022
890 Clouds 30 1004 57 10000 5 310 04:34 15.06.2022
891 Clear 25 1003 76 7000 2.68 264 01:54 15.06.2022
892 Mist 24 1003 83 5000 2.24 237 00:50 15.06.2022
893 Mist 23 1002 87 4000 2.24 220 23:39 14.06.2022
894 Mist 23 1002 86 4000 1.79 219 23:19 14.06.2022
895 Mist 23 1001 87 5000 2.24 205 22:21 14.06.2022
896 Clear 23 1001 86 7000 2.24 206 21:36 14.06.2022
897 Clear 23 1001 86 7000 3.13 210 20:54 14.06.2022
898 Clouds 23 1001 85 8000 2.68 208 20:28 14.06.2022
899 Clear 24 1001 84 10000 2.68 197 18:56 14.06.2022
900 Clear 24 1002 82 10000 3 200 17:40 14.06.2022
901 Clear 24 1002 80 10000 3 180 16:43 14.06.2022
902 Clear 25 1001 78 10000 3 190 15:50 14.06.2022
903 Clear 25 999 79 10000 4 190 15:22 14.06.2022
904 Clear 25 999 76 10000 5 190 14:32 14.06.2022
905 Clear 27 1005 72 10000 3 220 13:41 14.06.2022
906 Clear 28 1004 70 10000 5 230 12:42 14.06.2022
907 Clouds 29 1003 69 10000 5 240 11:31 14.06.2022
908 Clouds 30 999 63 10000 5 230 10:47 14.06.2022
909 Clouds 30 999 60 10000 5 240 09:48 14.06.2022
910 Clouds 30 999 62 10000 5 230 08:46 14.06.2022
911 Clouds 29 1000 64 10000 3 250 07:31 14.06.2022
912 Clouds 27 999 67 8000 3 270 05:19 14.06.2022
913 Clouds 23 1001 82 8000 2 230 02:49 14.06.2022
914 Mist 21 1000 89 5000 1.79 198 00:28 14.06.2022
915 Mist 21 1000 89 5000 2 160 23:22 13.06.2022
916 Clouds 21 1000 88 6000 1 150 22:25 13.06.2022
917 Rain 21 1000 88 6000 1 0 21:48 13.06.2022
918 Clouds 21 1000 87 7000 1 270 20:31 13.06.2022
919 Clouds 21 1000 87 7000 3 220 19:34 13.06.2022
920 Clouds 21 1001 89 8000 2 140 17:58 13.06.2022
921 Clouds 21 1000 88 8000 1.34 129 17:38 13.06.2022
922 Clouds 22 1001 85 8000 1 0 16:40 13.06.2022
923 Clouds 22 1000 85 10000 1.34 84 15:37 13.06.2022
924 Clouds 21 1000 87 10000 1.34 99 14:42 13.06.2022
925 Clouds 21 1000 87 10000 1.34 107 13:46 13.06.2022
926 Clouds 22 999 86 10000 1.34 111 12:47 13.06.2022
927 Clouds 22 999 84 10000 2.68 80 11:26 13.06.2022
928 Clouds 22 999 85 8000 2.24 82 10:26 13.06.2022
929 Clouds 22 999 86 8000 3 70 09:31 13.06.2022
930 Clouds 22 999 86 10000 2 80 07:38 13.06.2022
931 Rain 21 1005 89 6000 2 100 05:42 13.06.2022
932 Rain 21 1000 86 10000 2 70 02:50 13.06.2022
933 Rain 21 1000 87 10000 2 80 01:37 13.06.2022
934 Rain 20 1000 88 8000 2 70 00:18 13.06.2022
935 Rain 20 1000 87 10000 1 0 23:24 12.06.2022
936 Clouds 20 1000 87 10000 2 90 22:22 12.06.2022
937 Rain 20 1000 85 10000 3 90 21:20 12.06.2022
938 Rain 20 1000 85 10000 3 90 20:27 12.06.2022
939 Rain 20 1001 85 10000 4 120 19:30 12.06.2022
940 Rain 21 1003 85 10000 4 130 17:51 12.06.2022
941 Rain 21 1003 78 10000 4 140 16:24 12.06.2022
942 Rain 21 1004 82 10000 3 120 14:57 12.06.2022
943 Rain 21 1004 84 10000 2 130 14:21 12.06.2022
944 Rain 21 1004 84 10000 3 130 13:51 12.06.2022
945 Clouds 21 1003 84 10000 3 150 12:37 12.06.2022
946 Clouds 21 1003 84 10000 4 140 11:37 12.06.2022
947 Clouds 22 1004 83 10000 4 160 10:22 12.06.2022
948 Clouds 22 1004 81 10000 3 160 08:54 12.06.2022
949 Rain 22 1004 80 10000 4 150 08:35 12.06.2022
950 Clouds 22 1004 81 10000 4 140 07:32 12.06.2022
951 Rain 23 1005 79 10000 4 120 04:35 12.06.2022
952 Rain 22 1007 78 10000 3 120 02:38 12.06.2022
953 Rain 22 1006 76 10000 3 150 01:37 12.06.2022
954 Rain 22 1006 82 10000 3 150 00:58 12.06.2022
955 Rain 22 1005 82 10000 4 120 00:20 12.06.2022
956 Clouds 21 1005 82 10000 2 110 23:29 11.06.2022
957 Clouds 21 1006 81 10000 4 110 22:38 11.06.2022
958 Clouds 22 1006 82 10000 3 110 21:37 11.06.2022
959 Clouds 22 1006 83 10000 3 110 20:34 11.06.2022
960 Clouds 22 1006 82 10000 3 110 19:46 11.06.2022
961 Rain 22 1006 81 10000 3 100 18:56 11.06.2022
962 Rain 22 1006 80 10000 3 120 18:33 11.06.2022
963 Rain 22 1007 80 10000 3 100 17:50 11.06.2022
964 Clouds 22 1007 78 10000 3 100 17:26 11.06.2022
965 Clouds 22 1007 78 10000 4 90 16:52 11.06.2022
966 Clouds 22 1007 78 10000 4 90 16:26 11.06.2022
967 Rain 23 1007 77 10000 4 120 15:28 11.06.2022
968 Clouds 23 1006 75 10000 4 110 13:53 11.06.2022
969 Clouds 23 1006 75 10000 4 110 13:53 11.06.2022
970 Clouds 25 1006 67 10000 5 110 12:36 11.06.2022
971 Clouds 26 1010 68 10000 5 80 10:46 11.06.2022
972 Clouds 26 1010 69 10000 5 90 09:43 11.06.2022
973 Clouds 26 1010 67 10000 5 80 08:46 11.06.2022
974 Clouds 27 1006 64 10000 5 90 06:47 11.06.2022
975 Clouds 26 1007 63 10000 7 80 05:58 11.06.2022
976 Clouds 24 1007 69 10000 5 70 03:45 11.06.2022
977 Clouds 22 1006 82 10000 4 60 01:52 11.06.2022
978 Clouds 22 1006 84 10000 4 30 01:26 11.06.2022
979 Clouds 21 1005 84 10000 3 80 23:28 10.06.2022
980 Clouds 21 1005 78 10000 0.45 67 22:29 10.06.2022
981 Clouds 21 1004 78 10000 1 0 21:47 10.06.2022
982 Clouds 20 1004 79 10000 2 50 20:39 10.06.2022
983 Clouds 20 1004 79 10000 2 50 20:21 10.06.2022
984 Rain 21 1005 77 10000 3 80 19:19 10.06.2022
985 Rain 20 1005 83 10000 1 0 18:46 10.06.2022
986 Clouds 21 1005 82 10000 1 80 17:54 10.06.2022
987 Clouds 21 1005 82 10000 1 0 17:23 10.06.2022
988 Clear 20 1005 77 10000 1 0 16:28 10.06.2022
989 Clear 20 1006 81 10000 4.92 78 15:40 10.06.2022
990 Clouds 20 1005 78 10000 2 140 14:28 10.06.2022
991 Clouds 20 1005 82 7000 4 120 12:58 10.06.2022
992 Rain 21 1005 78 10000 6 150 11:59 10.06.2022
993 Clouds 23 1004 71 10000 6 120 10:51 10.06.2022
994 Clouds 23 1004 70 10000 3 120 09:57 10.06.2022
995 Clear 23 1004 71 10000 5 160 08:48 10.06.2022
996 Clouds 23 1004 76 10000 4 150 07:41 10.06.2022
997 Clouds 23 1004 74 10000 4 170 06:46 10.06.2022
998 Clouds 24 1002 73 10000 4 160 06:27 10.06.2022
999 Clouds 23 1003 87 10000 3 150 04:47 10.06.2022
1000 Rain 22 1004 82 10000 5 150 01:59 10.06.2022
1001 Clouds 22 1004 79 10000 4 140 01:36 10.06.2022
1002 Clouds 22 1004 79 10000 4 140 01:36 10.06.2022
1003 Clouds 22 1003 79 10000 4 130 23:57 09.06.2022
1004 Clear 22 1003 83 10000 4 130 22:22 09.06.2022
1005 Clear 22 1003 83 10000 5 130 21:37 09.06.2022
1006 Clear 22 1003 82 10000 5 130 20:58 09.06.2022
1007 Clear 22 1003 82 10000 5 130 20:27 09.06.2022
1008 Clear 22 1004 83 10000 5 150 19:31 09.06.2022
1009 Clear 22 1004 83 10000 5 150 19:31 09.06.2022
1010 Clear 22 1004 82 10000 5 140 18:34 09.06.2022
1011 Clear 22 1004 81 10000 6 140 17:25 09.06.2022
1012 Clear 23 1005 79 10000 5 140 16:21 09.06.2022
1013 Clear 23 1004 78 10000 6 130 14:39 09.06.2022
1014 Clear 24 1004 78 10000 5 150 13:55 09.06.2022
1015 Clear 24 1004 76 10000 5 130 13:29 09.06.2022
1016 Clear 25 1004 72 10000 5 130 12:21 09.06.2022
1017 Clear 27 1003 69 10000 5 150 11:19 09.06.2022
1018 Clear 28 1003 64 10000 6 130 09:50 09.06.2022
1019 Clear 28 1003 64 10000 6 130 09:50 09.06.2022
1020 Clear 28 1008 70 10000 5 150 09:31 09.06.2022
1021 Clear 28 1004 69 10000 6 140 07:56 09.06.2022
1022 Clear 28 1004 68 10000 5 140 06:55 09.06.2022
1023 Clouds 25 1005 71 10000 5 140 03:22 09.06.2022
1024 Clouds 21 1004 84 10000 5 130 23:49 08.06.2022
1025 Clouds 22 1003 83 10000 4 130 22:58 08.06.2022
1026 Clouds 21 1003 83 10000 5 130 22:27 08.06.2022
1027 Clouds 21 1003 83 10000 4 130 21:56 08.06.2022
1028 Clouds 21 1003 83 10000 5 130 21:23 08.06.2022
1029 Clouds 21 1004 82 10000 5 140 20:22 08.06.2022
1030 Clouds 21 1004 81 10000 5 140 19:39 08.06.2022
1031 Clouds 22 1004 83 10000 5 130 18:47 08.06.2022
1032 Clear 22 1005 81 10000 4 130 17:30 08.06.2022
1033 Clear 23 1004 73 10000 5 140 15:52 08.06.2022
1034 Clear 24 1004 71 10000 5 130 13:58 08.06.2022
1035 Clear 26 1003 59 10000 4 140 12:22 08.06.2022
1036 Clear 27 1006 60 10000 3 130 11:33 08.06.2022
1037 Clear 29 1002 52 10000 3 140 10:20 08.06.2022
1038 Clear 29 1003 55 10000 4 150 09:22 08.06.2022
1039 Clear 29 1003 56 10000 4 170 08:40 08.06.2022
1040 Clear 28 1005 55 10000 3 160 06:35 08.06.2022
1041 Clear 24 1005 65 10000 3 150 03:58 08.06.2022
1042 Clear 21 1005 75 10000 2 120 00:45 08.06.2022
1043 Clear 20 1004 77 10000 2 150 23:29 07.06.2022
1044 Clear 20 1004 76 10000 1 160 22:45 07.06.2022
1045 Clear 20 1004 76 10000 1 70 22:26 07.06.2022
1046 Clear 20 1004 77 10000 3 10 21:34 07.06.2022
1047 Clear 20 1004 76 10000 2 10 20:58 07.06.2022
1048 Clear 20 1004 73 10000 2 20 20:32 07.06.2022
1049 Clear 21 1004 69 10000 2.24 29 19:38 07.06.2022
1050 Clear 21 1004 70 10000 1 0 18:23 07.06.2022
1051 Clear 21 1004 73 10000 1 0 17:26 07.06.2022
1052 Clear 21 1004 74 10000 4 20 16:43 07.06.2022
1053 Clear 22 1005 74 10000 4 30 15:47 07.06.2022
1054 Clear 22 1004 73 10000 5 40 15:26 07.06.2022
1055 Clear 22 1004 73 10000 5 40 15:26 07.06.2022
1056 Clear 23 1004 71 10000 4 30 14:50 07.06.2022
1057 Clear 23 1004 70 10000 5 30 14:32 07.06.2022
1058 Clear 24 1001 63 10000 4 20 13:31 07.06.2022
1059 Clear 25 1008 62 10000 4 20 12:49 07.06.2022
1060 Clear 26 1008 55 10000 5 20 11:47 07.06.2022
1061 Clear 27 1007 62 10000 4 10 10:26 07.06.2022
1062 Clear 28 1007 63 10000 6 10 08:49 07.06.2022
1063 Clear 28 1002 58 10000 6 340 07:34 07.06.2022
1064 Clouds 27 1003 63 10000 5 360 05:58 07.06.2022
1065 Clouds 25 1002 69 10000 7 10 03:31 07.06.2022
1066 Clouds 22 1001 79 10000 5 360 00:45 07.06.2022
1067 Clouds 23 1000 82 8000 5 360 23:41 06.06.2022
1068 Clouds 23 999 83 10000 5 360 22:47 06.06.2022
1069 Clouds 23 998 83 10000 5 10 21:56 06.06.2022
1070 Clear 24 998 82 10000 4 10 20:35 06.06.2022
1071 Clear 25 998 81 10000 4 340 19:24 06.06.2022
1072 Clear 26 998 78 10000 1 0 18:47 06.06.2022
1073 Clear 26 998 78 10000 3.58 178 17:55 06.06.2022
1074 Clear 26 998 77 10000 3 240 16:51 06.06.2022
1075 Clear 26 998 77 10000 1 0 15:44 06.06.2022
1076 Clear 27 995 77 10000 4 180 14:57 06.06.2022
1077 Clear 28 996 73 10000 4 180 13:40 06.06.2022
1078 Clear 29 994 65 10000 4 180 12:59 06.06.2022
1079 Clear 30 995 56 10000 6 180 12:27 06.06.2022
1080 Clear 30 996 55 10000 6 180 11:45 06.06.2022
1081 Clear 32 994 60 10000 4 230 09:46 06.06.2022
1082 Clear 32 997 58 10000 4 230 08:36 06.06.2022
1083 Clear 31 997 59 10000 4 220 07:43 06.06.2022
1084 Clear 30 998 62 10000 4 220 06:44 06.06.2022
1085 Clear 27 995 68 10000 2 250 04:36 06.06.2022
1086 Clouds 23 998 81 10000 3 300 01:30 06.06.2022
1087 Clouds 22 997 82 10000 2 280 00:55 06.06.2022
1088 Clouds 22 997 82 10000 2 270 00:33 06.06.2022
1089 Clouds 21 997 85 10000 3 320 22:58 05.06.2022
1090 Clouds 22 996 84 10000 2 320 21:59 05.06.2022
1091 Clouds 22 996 83 10000 4 310 20:23 05.06.2022
1092 Clouds 22 996 83 10000 3 340 18:57 05.06.2022
1093 Clouds 22 996 83 10000 3 360 17:59 05.06.2022
1094 Clouds 22 996 83 10000 4 360 17:38 05.06.2022
1095 Clouds 22 997 83 10000 4 360 17:20 05.06.2022
1096 Clouds 22 997 85 10000 4 10 16:47 05.06.2022
1097 Clouds 22 996 87 10000 5 10 15:22 05.06.2022
1098 Clouds 23 995 86 10000 4 350 14:18 05.06.2022
1099 Clouds 23 993 88 8000 6 360 11:58 05.06.2022
1100 Clouds 23 992 87 10000 5 30 10:45 05.06.2022
1101 Clouds 23 993 88 10000 6 20 10:24 05.06.2022
1102 Mist 23 992 89 4000 7 20 09:29 05.06.2022
1103 Rain 25 992 90 4000 4.47 353 08:23 05.06.2022
1104 Rain 25 993 91 10000 2 230 05:58 05.06.2022
1105 Clouds 25 994 91 10000 3 240 05:19 05.06.2022
1106 Rain 24 994 91 7000 2.68 258 02:23 05.06.2022
1107 Rain 24 994 91 4500 2.68 264 01:23 05.06.2022
1108 Rain 24 994 91 4500 2.68 264 01:23 05.06.2022
1109 Thunderstorm 25 994 90 8000 2.24 216 22:49 04.06.2022
1110 Rain 25 994 89 10000 1.79 201 21:25 04.06.2022
1111 Rain 25 994 88 10000 3 180 19:26 04.06.2022
1112 Clear 26 996 86 10000 3 170 16:48 04.06.2022
1113 Clear 26 997 86 10000 3 160 16:20 04.06.2022
1114 Clear 26 997 86 10000 3 140 15:35 04.06.2022
1115 Clear 27 996 85 10000 3 170 13:59 04.06.2022
1116 Clear 28 996 81 10000 4 160 11:38 04.06.2022
1117 Clouds 29 996 77 10000 3 140 10:52 04.06.2022
1118 Clouds 30 997 75 10000 3 140 09:47 04.06.2022
1119 Clouds 29 997 78 10000 4 150 08:59 04.06.2022
1120 Clouds 29 997 77 10000 3 170 08:37 04.06.2022
1121 Clouds 28 997 80 10000 4 130 06:25 04.06.2022
1122 Clouds 24 1000 89 10000 6 160 03:52 04.06.2022
1123 Clouds 22 1000 89 6000 4 130 00:22 04.06.2022
1124 Clouds 23 1000 89 7000 4 130 22:56 03.06.2022
1125 Clouds 23 1000 88 10000 5 130 21:52 03.06.2022
1126 Clouds 23 1000 87 10000 5 150 20:40 03.06.2022
1127 Clouds 23 1000 87 10000 6 130 19:33 03.06.2022
1128 Clouds 23 1001 87 10000 6 130 16:58 03.06.2022
1129 Clouds 23 1001 87 10000 5 120 15:55 03.06.2022
1130 Clouds 23 1001 85 10000 5 130 14:25 03.06.2022
1131 Clouds 24 1000 86 10000 6 130 12:21 03.06.2022
1132 Clouds 26 1000 80 10000 5 130 09:57 03.06.2022
1133 Clouds 26 1000 80 10000 5 110 09:29 03.06.2022
1134 Clouds 25 1001 81 10000 5 120 07:45 03.06.2022
1135 Clouds 26 1000 79 10000 6 120 06:59 03.06.2022
1136 Clouds 26 1001 79 10000 6 140 06:28 03.06.2022
1137 Clouds 24 1002 76 10000 5 130 03:39 03.06.2022
1138 Clouds 22 1005 79 10000 4 120 23:52 02.06.2022
1139 Clouds 22 1005 75 10000 3 120 22:23 02.06.2022
1140 Clouds 22 1005 75 10000 5 120 20:38 02.06.2022
1141 Clouds 22 1005 75 10000 4 130 19:56 02.06.2022
1142 Clouds 22 1005 75 10000 5 140 19:38 02.06.2022
1143 Clouds 23 1005 84 10000 6 130 18:41 02.06.2022
1144 Clouds 23 1006 75 10000 5 150 16:28 02.06.2022
1145 Clouds 23 1006 77 10000 5 140 15:47 02.06.2022
1146 Clouds 25 1004 80 10000 6 140 13:31 02.06.2022
1147 Clear 25 1004 79 10000 5 150 12:49 02.06.2022
1148 Clouds 28 1004 75 10000 6 130 10:36 02.06.2022
1149 Clouds 28 1004 74 10000 5 130 09:30 02.06.2022
1150 Clouds 28 1004 73 10000 5 120 08:44 02.06.2022
1151 Clouds 28 1004 74 10000 5 120 08:23 02.06.2022
1152 Clouds 27 1005 76 7000 4 110 06:21 02.06.2022
1153 Mist 24 1007 87 4000 3 160 03:50 02.06.2022
1154 Mist 23 1005 86 3500 2.24 124 00:47 02.06.2022
1155 Mist 23 1004 82 3500 2 140 22:57 01.06.2022
1156 Mist 23 1004 82 3500 2 180 21:59 01.06.2022
1157 Mist 23 1000 86 3500 2.24 144 21:24 01.06.2022
1158 Mist 23 1000 86 3500 2 140 20:38 01.06.2022
1159 Mist 23 1000 85 3500 4 170 19:51 01.06.2022
1160 Mist 23 1000 86 5000 3 150 18:28 01.06.2022
1161 Clouds 24 1000 86 6000 3 190 16:56 01.06.2022
1162 Clouds 24 1000 84 6000 2 180 15:43 01.06.2022
1163 Clouds 25 1000 84 7000 3 190 14:46 01.06.2022
1164 Clouds 25 999 84 7000 3 170 13:18 01.06.2022
1165 Clouds 27 998 78 10000 4 230 10:44 01.06.2022
1166 Rain 28 999 76 10000 3 230 09:28 01.06.2022
1167 Clouds 29 999 73 10000 4 230 07:59 01.06.2022
1168 Clouds 29 999 70 10000 2 230 07:20 01.06.2022
1169 Rain 26 1000 79 10000 3 210 03:55 01.06.2022
1170 Clouds 22 1000 85 7000 3 190 23:47 31.05.2022
1171 Clouds 22 999 85 10000 3 190 22:38 31.05.2022
1172 Clouds 22 999 84 10000 3 190 22:19 31.05.2022
1173 Clouds 22 1000 83 10000 4 170 21:23 31.05.2022
1174 Rain 22 1000 82 10000 3 170 20:42 31.05.2022
1175 Clouds 22 1000 79 10000 4 150 19:22 31.05.2022
1176 Clouds 22 1001 76 10000 5 150 18:19 31.05.2022
1177 Clear 22 1001 70 10000 4 150 17:37 31.05.2022
1178 Clear 23 1002 64 10000 5 150 15:45 31.05.2022
1179 Clear 23 1002 63 10000 5 150 15:22 31.05.2022
1180 Clear 25 1002 48 10000 5 140 12:39 31.05.2022
1181 Clear 25 1002 47 10000 5 140 12:18 31.05.2022
1182 Clear 27 1002 41 10000 8 160 10:22 31.05.2022
1183 Clear 28 1003 43 10000 7 150 07:43 31.05.2022
1184 Clear 27 1005 43 10000 7 140 05:38 31.05.2022
1185 Clear 25 1005 45 10000 5 130 03:41 31.05.2022
1186 Clear 18 1005 58 10000 2.24 136 23:39 30.05.2022
1187 Clear 18 1005 57 10000 2.24 135 23:18 30.05.2022
1188 Clear 19 1004 55 10000 1 0 22:32 30.05.2022
1189 Clear 19 1004 52 10000 1.34 99 21:37 30.05.2022
1190 Clear 20 1004 52 10000 2 40 20:41 30.05.2022
1191 Clear 20 1004 51 10000 2 60 19:38 30.05.2022
1192 Clear 21 1004 59 10000 5 30 17:48 30.05.2022
1193 Clear 21 1004 61 10000 5 20 17:19 30.05.2022
1194 Clear 23 1004 64 10000 5 10 15:44 30.05.2022
1195 Clear 23 1002 71 10000 3 40 12:58 30.05.2022
1196 Clouds 24 1001 73 10000 5 40 11:26 30.05.2022
1197 Clouds 25 1000 73 8000 8 10 09:41 30.05.2022
1198 Clouds 30 1000 70 7000 8 30 07:29 30.05.2022
1199 Rain 31 1000 62 10000 5 10 05:52 30.05.2022
1200 Clouds 28 999 77 8000 3 340 03:18 30.05.2022
1201 Fog 22 998 88 1400 1.34 273 23:32 29.05.2022
1202 Mist 22 997 86 1800 1.79 266 22:40 29.05.2022
1203 Fog 22 997 86 1800 1.34 279 21:40 29.05.2022
1204 Mist 22 997 86 2500 1.34 319 19:57 29.05.2022
1205 Mist 22 997 86 2500 1.34 318 19:28 29.05.2022
1206 Mist 23 997 85 3000 1.79 234 17:48 29.05.2022
1207 Clouds 23 997 88 6000 2 180 15:50 29.05.2022
1208 Clouds 23 997 88 6000 2 170 15:32 29.05.2022
1209 Clouds 23 997 88 10000 2 190 14:31 29.05.2022
1210 Clouds 23 996 85 10000 4 220 11:55 29.05.2022
1211 Clouds 24 996 85 10000 4 230 10:45 29.05.2022
1212 Clouds 24 999 82 10000 3 240 09:52 29.05.2022
1213 Clouds 22 996 85 10000 3 230 07:28 29.05.2022
1214 Clouds 22 997 87 10000 2 200 04:50 29.05.2022
1215 Clouds 21 997 87 10000 3 210 04:31 29.05.2022
1216 Rain 20 997 86 4000 2 180 00:35 29.05.2022
1217 Mist 19 997 83 5000 2.24 127 23:42 28.05.2022
1218 Clouds 19 997 83 7000 2.24 134 22:46 28.05.2022
1219 Clouds 19 997 83 10000 2 150 21:42 28.05.2022
1220 Rain 19 998 83 10000 3 160 19:52 28.05.2022
1221 Rain 19 998 83 10000 4 150 19:18 28.05.2022
1222 Clouds 19 999 83 10000 3 150 17:44 28.05.2022
1223 Rain 19 1000 85 10000 4 160 16:50 28.05.2022
1224 Rain 20 1001 84 10000 4 150 15:44 28.05.2022
1225 Clouds 20 1000 82 10000 4 150 14:35 28.05.2022
1226 Clouds 21 1000 80 10000 4 150 13:21 28.05.2022
1227 Clouds 21 1000 79 10000 6 160 12:40 28.05.2022
1228 Clouds 21 999 76 10000 5 160 11:26 28.05.2022
1229 Rain 21 1000 78 10000 6 170 10:25 28.05.2022
1230 Clouds 22 1000 77 10000 7 170 09:22 28.05.2022
1231 Clear 23 1000 69 10000 7 160 07:23 28.05.2022
1232 Clouds 23 1001 68 10000 7 180 06:26 28.05.2022
1233 Clouds 22 1001 79 10000 6 190 03:48 28.05.2022
1234 Clear 22 1000 73 10000 5 170 00:33 28.05.2022
1235 Clear 21 1000 73 10000 3 160 23:32 27.05.2022
1236 Clear 22 999 70 10000 3 150 21:50 27.05.2022
1237 Clear 22 999 70 10000 3 150 21:50 27.05.2022
1238 Clear 22 1000 69 10000 4 150 20:56 27.05.2022
1239 Clear 22 1000 68 10000 4 140 20:25 27.05.2022
1240 Clear 22 1000 68 10000 5 160 19:48 27.05.2022
1241 Rain 22 1000 68 10000 4 150 19:29 27.05.2022
1242 Clear 23 1001 68 10000 3.58 149 18:24 27.05.2022
1243 Clear 23 1002 73 10000 5 150 16:40 27.05.2022
1244 Clear 23 1002 73 10000 5 140 15:33 27.05.2022
1245 Clear 24 1001 71 10000 5 150 14:26 27.05.2022
1246 Clear 24 1001 68 10000 4 140 13:18 27.05.2022
1247 Rain 26 1000 67 10000 6 140 11:34 27.05.2022
1248 Clouds 26 1000 68 10000 5 140 10:56 27.05.2022
1249 Clear 27 1000 68 10000 6 110 10:31 27.05.2022
1250 Clear 29 1000 61 10000 2 110 09:35 27.05.2022
1251 Clouds 28 1005 64 10000 2 310 07:55 27.05.2022
1252 Clouds 28 999 57 8000 1 0 05:44 27.05.2022
1253 Clear 23 1000 77 10000 2 200 02:26 27.05.2022
1254 Clear 19 1001 75 10000 2 160 00:29 27.05.2022
1255 Clear 18 1001 77 10000 1.79 179 22:39 26.05.2022
1256 Clear 19 1001 75 10000 1.79 161 21:39 26.05.2022
1257 Clear 19 1000 76 10000 1.79 157 20:30 26.05.2022
1258 Clear 19 1001 76 10000 2 140 19:19 26.05.2022
1259 Clear 19 1002 74 10000 2 150 17:51 26.05.2022
1260 Clear 20 1002 73 10000 2 160 16:42 26.05.2022
1261 Clear 20 1002 73 10000 2.68 118 15:45 26.05.2022
1262 Clear 21 1001 73 10000 4 140 14:28 26.05.2022
1263 Clear 22 1001 72 10000 3 110 12:37 26.05.2022
1264 Clouds 23 1001 72 10000 3 70 11:23 26.05.2022
1265 Clouds 23 1001 70 10000 2 120 09:41 26.05.2022
1266 Clouds 24 999 67 10000 2 120 09:23 26.05.2022
1267 Clouds 22 1007 70 10000 1 0 07:57 26.05.2022
1268 Clouds 21 1001 77 8000 3 50 03:53 26.05.2022
1269 Rain 20 1004 70 10000 1 0 00:33 26.05.2022
1270 Rain 20 1003 69 10000 2 40 23:39 25.05.2022
1271 Clear 20 1001 71 10000 1 0 21:47 25.05.2022
1272 Clear 20 1000 71 10000 2 30 21:28 25.05.2022
1273 Rain 20 1001 71 10000 1 0 20:34 25.05.2022
1274 Clear 20 1001 73 10000 1 0 19:21 25.05.2022
1275 Clear 20 1002 76 10000 3 160 17:33 25.05.2022
1276 Clear 20 1002 74 10000 3 160 16:36 25.05.2022
1277 Clear 21 1002 74 10000 3 150 15:53 25.05.2022
1278 Clear 21 1002 73 10000 2 110 14:51 25.05.2022
1279 Clear 22 1002 71 10000 3 120 14:32 25.05.2022
1280 Clouds 22 1002 68 10000 4 160 13:35 25.05.2022
1281 Clear 24 1002 60 10000 4 150 12:36 25.05.2022
1282 Clouds 26 1008 61 10000 1 0 10:43 25.05.2022
1283 Clouds 27 1001 58 10000 3 130 09:54 25.05.2022
1284 Clouds 28 997 52 10000 3.49 90 08:23 25.05.2022
1285 Clouds 24 997 65 10000 3.09 92 06:53 25.05.2022
1286 Clouds 22 1004 75 10000 3 170 03:20 25.05.2022
1287 Clear 18 1003 90 10000 0 0 23:55 24.05.2022
1288 Clouds 19 1003 89 10000 2 160 23:23 24.05.2022
1289 Clouds 19 1003 84 10000 2 150 22:19 24.05.2022
1290 Clouds 19 1003 82 10000 2 160 21:38 24.05.2022
1291 Clouds 19 1003 82 10000 2 160 21:19 24.05.2022
1292 Clouds 19 1004 79 10000 2 120 19:37 24.05.2022
1293 Clouds 19 1004 79 10000 2 130 18:50 24.05.2022
1294 Clouds 19 1005 86 10000 4 110 16:41 24.05.2022
1295 Clouds 18 1005 86 10000 4 110 16:18 24.05.2022
1296 Clouds 18 1005 88 10000 4 130 14:50 24.05.2022
1297 Clouds 18 1005 92 8000 5 120 13:48 24.05.2022
1298 Clouds 19 1005 94 8000 4 110 12:46 24.05.2022
1299 Clouds 19 1005 93 7000 5 120 10:29 24.05.2022
1300 Clouds 19 1005 92 6000 4 130 09:42 24.05.2022
1301 Clouds 19 1005 90 8000 5 120 08:49 24.05.2022
1302 Clouds 20 1005 92 8000 4 120 06:56 24.05.2022
1303 Clouds 20 1006 92 6000 4 130 03:48 24.05.2022
1304 Clouds 19 1006 93 6000 4 120 01:49 24.05.2022
1305 Clouds 19 1006 91 7000 4 130 01:18 24.05.2022
1306 Clouds 19 1005 83 10000 3 120 22:51 23.05.2022
1307 Clouds 19 1005 83 10000 4 120 21:55 23.05.2022
1308 Clouds 19 1005 83 10000 3 130 21:26 23.05.2022
1309 Clouds 19 1005 85 10000 3 130 20:26 23.05.2022
1310 Clouds 19 1005 89 10000 3 130 19:31 23.05.2022
1311 Clouds 18 1005 92 10000 4 130 18:54 23.05.2022
1312 Clouds 18 1005 88 10000 5 140 18:27 23.05.2022
1313 Clouds 19 1006 81 10000 5 140 17:18 23.05.2022
1314 Clouds 19 1006 77 10000 7 170 14:52 23.05.2022
1315 Clear 21 1006 65 10000 5 140 12:50 23.05.2022
1316 Clouds 21 1005 65 10000 9 130 11:26 23.05.2022
1317 Clouds 21 1005 64 10000 9 150 09:50 23.05.2022
1318 Clouds 23 1005 63 10000 9 160 09:23 23.05.2022
1319 Clouds 26 1005 46 10000 8 150 07:48 23.05.2022
1320 Clouds 25 1005 41 10000 9 130 06:45 23.05.2022
1321 Clear 24 1013 50 10000 8 150 05:25 23.05.2022
1322 Clear 22 1004 71 10000 7 160 02:23 23.05.2022
1323 Clear 21 1004 72 10000 5 140 01:37 23.05.2022
1324 Clear 20 1002 72 10000 5 150 23:51 22.05.2022
1325 Rain 21 1002 67 10000 5 140 22:35 22.05.2022
1326 Clear 21 1002 65 10000 4 140 21:55 22.05.2022
1327 Clear 21 1001 64 10000 5 140 20:53 22.05.2022
1328 Rain 21 1002 63 10000 6 150 20:27 22.05.2022
1329 Rain 21 1004 62 10000 7 150 19:56 22.05.2022
1330 Clear 21 1004 62 10000 6 150 18:55 22.05.2022
1331 Clear 21 1004 61 10000 6 150 18:25 22.05.2022
1332 Clear 22 1005 61 10000 6 150 17:33 22.05.2022
1333 Rain 22 1005 60 10000 7 150 16:31 22.05.2022
1334 Clear 23 1005 59 10000 5 150 14:48 22.05.2022
1335 Clear 23 1005 58 10000 6 130 13:45 22.05.2022
1336 Clear 24 1004 57 10000 5 150 12:50 22.05.2022
1337 Clear 25 1004 51 10000 5 150 11:42 22.05.2022
1338 Clear 28 1004 47 10000 5 150 09:43 22.05.2022
1339 Clear 27 1004 46 10000 5 130 08:35 22.05.2022
1340 Clear 27 1005 48 10000 5 170 07:21 22.05.2022
1341 Clear 26 1005 50 10000 5 130 05:44 22.05.2022
1342 Clear 21 1003 75 10000 3 150 01:43 22.05.2022
1343 Clouds 19 1006 79 8000 2.24 160 00:43 22.05.2022
1344 Clouds 18 1005 82 8000 1.79 161 23:54 21.05.2022
1345 Clouds 18 1005 82 8000 2 150 22:57 21.05.2022
1346 Clouds 18 1005 81 8000 2 150 21:42 21.05.2022
1347 Clouds 18 1005 79 8000 1 160 20:59 21.05.2022
1348 Clear 19 1005 79 10000 2 170 20:24 21.05.2022
1349 Clear 19 1005 79 10000 2 140 19:30 21.05.2022
1350 Clear 19 1006 77 10000 4 160 17:51 21.05.2022
1351 Clear 20 1006 77 10000 4 160 16:43 21.05.2022
1352 Clear 21 1006 74 10000 3 160 14:37 21.05.2022
1353 Clear 22 1005 73 10000 4 170 13:42 21.05.2022
1354 Clear 22 1005 70 10000 4 170 12:50 21.05.2022
1355 Clear 23 1005 69 10000 5 160 12:25 21.05.2022
1356 Clouds 26 1009 64 10000 3 110 10:24 21.05.2022
1357 Clouds 26 1009 62 10000 1.79 78 09:43 21.05.2022
1358 Clouds 26 1010 61 10000 1 0 08:57 21.05.2022
1359 Clouds 25 1010 63 10000 3 90 07:53 21.05.2022
1360 Clouds 23 1007 68 10000 1 0 03:58 21.05.2022
1361 Clouds 18 1006 85 7000 2 360 23:53 20.05.2022
1362 Clouds 18 1005 84 7000 2.24 54 22:57 20.05.2022
1363 Clouds 18 1005 84 6000 2.24 54 22:23 20.05.2022
1364 Clouds 18 1005 84 6000 2.24 73 21:41 20.05.2022
1365 Clouds 18 1005 82 6000 1.79 80 20:54 20.05.2022
1366 Rain 19 1005 82 7000 2.24 75 19:58 20.05.2022
1367 Clouds 19 1005 81 7000 2.24 72 19:26 20.05.2022
1368 Clouds 19 1006 81 10000 2.24 72 18:36 20.05.2022
1369 Clear 19 1006 85 10000 1.79 58 16:53 20.05.2022
1370 Clear 19 1006 84 10000 1.79 62 15:58 20.05.2022
1371 Clouds 19 1006 84 10000 1.79 64 15:40 20.05.2022
1372 Clouds 19 1006 86 10000 1.79 72 14:29 20.05.2022
1373 Clouds 19 1006 86 10000 2 180 13:54 20.05.2022
1374 Clouds 19 1005 85 6000 3 80 11:33 20.05.2022
1375 Rain 21 1006 79 10000 2.68 99 09:51 20.05.2022
1376 Clouds 21 1006 78 10000 3.13 86 08:43 20.05.2022
1377 Clouds 21 1011 79 8000 3.13 64 06:47 20.05.2022
1378 Rain 21 1011 78 10000 3.13 64 06:24 20.05.2022
1379 Clear 20 1012 78 10000 3 10 04:22 20.05.2022
1380 Clear 19 1008 80 10000 3 360 00:43 20.05.2022
1381 Clear 18 1007 73 10000 1 0 22:46 19.05.2022
1382 Clear 18 1007 73 10000 1 50 21:59 19.05.2022
1383 Clear 18 1007 73 10000 2 10 21:40 19.05.2022
1384 Clear 18 1007 74 10000 2 10 21:22 19.05.2022
1385 Clouds 18 1008 74 10000 3 10 20:25 19.05.2022
1386 Clouds 18 1008 69 10000 1.79 157 19:34 19.05.2022
1387 Rain 19 1009 75 10000 2.68 141 17:59 19.05.2022
1388 Clouds 20 1010 76 10000 3 110 16:29 19.05.2022
1389 Clouds 21 1010 73 10000 3 100 14:52 19.05.2022
1390 Clouds 21 1010 71 10000 4 110 14:21 19.05.2022
1391 Clear 22 1009 65 10000 4 150 12:23 19.05.2022
1392 Clear 22 1009 65 10000 5 150 10:40 19.05.2022
1393 Clear 22 1010 63 10000 6 160 08:59 19.05.2022
1394 Clear 23 1011 62 10000 5 140 07:48 19.05.2022
1395 Clear 21 1012 67 10000 4 150 04:44 19.05.2022
1396 Clear 19 1012 70 10000 5 160 01:57 19.05.2022
1397 Clear 19 1012 61 10000 4 140 23:53 18.05.2022
1398 Clear 19 1012 59 10000 3 130 22:46 18.05.2022
1399 Clear 19 1012 54 10000 5 130 21:47 18.05.2022
1400 Clear 19 1012 55 10000 3 140 21:25 18.05.2022
1401 Clear 19 1012 50 10000 4 150 20:24 18.05.2022
1402 Clear 19 1012 46 10000 4 140 19:37 18.05.2022
1403 Clear 20 1012 49 10000 5 140 18:21 18.05.2022
1404 Clear 20 1013 49 10000 4 160 17:41 18.05.2022
1405 Clear 20 1013 49 10000 4 160 17:23 18.05.2022
1406 Clear 21 1014 48 10000 4 150 15:59 18.05.2022
1407 Clear 21 1014 48 10000 4 150 15:59 18.05.2022
1408 Clear 21 1013 48 10000 5 140 15:38 18.05.2022
1409 Clear 22 1013 46 10000 4 130 14:34 18.05.2022
1410 Clear 22 1013 41 10000 4 150 13:20 18.05.2022
1411 Clear 23 1012 38 10000 5 150 12:39 18.05.2022
1412 Clear 24 1012 37 10000 5 130 11:34 18.05.2022
1413 Clear 25 1012 37 10000 6 150 10:52 18.05.2022
1414 Clear 27 1012 35 10000 6 160 08:29 18.05.2022
1415 Clear 27 1012 41 10000 5 180 07:28 18.05.2022
1416 Clear 26 1014 40 10000 4 190 04:33 18.05.2022
1417 Clear 19 1013 57 10000 2.24 168 00:52 18.05.2022
1418 Clear 18 1013 58 10000 2.24 169 00:18 18.05.2022
1419 Clear 19 1011 50 10000 2.68 175 21:24 17.05.2022
1420 Clear 19 1012 50 10000 3.58 176 20:57 17.05.2022
1421 Clear 20 1012 48 10000 4 180 19:45 17.05.2022
1422 Clear 20 1012 48 10000 4 190 19:25 17.05.2022
1423 Clear 20 1012 48 10000 4 160 17:49 17.05.2022
1424 Clear 21 1012 48 10000 5 170 16:58 17.05.2022
1425 Clear 21 1012 47 10000 5 170 16:24 17.05.2022
1426 Clear 21 1011 53 10000 4 160 14:56 17.05.2022
1427 Clear 22 1011 53 10000 4 150 14:29 17.05.2022
1428 Clear 23 1010 46 10000 5 170 13:30 17.05.2022
1429 Clouds 27 1009 43 10000 5 170 10:42 17.05.2022
1430 Clouds 27 1013 54 10000 5 150 08:53 17.05.2022
1431 Clouds 28 1009 40 10000 2 0 07:56 17.05.2022
1432 Clouds 28 1009 44 10000 3 0 06:26 17.05.2022
1433 Clear 20 1007 66 10000 3 220 01:34 17.05.2022
1434 Clear 17 1009 68 10000 2.24 219 23:46 16.05.2022
1435 Clear 17 1009 67 10000 2.68 206 22:39 16.05.2022
1436 Clear 18 1009 63 10000 3 170 21:24 16.05.2022
1437 Clear 18 1009 63 10000 3.13 190 20:42 16.05.2022
1438 Clear 18 1010 59 10000 3.13 189 18:53 16.05.2022
1439 Clear 19 1010 56 10000 3.58 186 17:26 16.05.2022
1440 Clear 20 1010 50 10000 2 170 15:35 16.05.2022
1441 Clear 21 1009 47 10000 5 160 13:48 16.05.2022
1442 Clear 22 1008 47 10000 7 150 12:41 16.05.2022
1443 Clear 25 1012 54 10000 3 260 10:38 16.05.2022
1444 Clear 26 1008 41 10000 3 260 08:32 16.05.2022
1445 Clear 26 1009 43 10000 2 0 06:30 16.05.2022
1446 Clear 18 1011 65 10000 3.13 264 01:43 16.05.2022
1447 Clear 17 1010 64 10000 2 250 22:45 15.05.2022
1448 Clear 17 1010 63 10000 2 250 22:20 15.05.2022
1449 Clear 17 1010 62 10000 3 230 21:37 15.05.2022
1450 Clear 17 1010 59 10000 3 240 20:47 15.05.2022
1451 Clear 18 1011 58 10000 2.68 217 18:46 15.05.2022
1452 Clear 18 1011 57 10000 2.68 189 16:54 15.05.2022
1453 Clear 19 1011 54 10000 2 290 14:34 15.05.2022
1454 Clear 20 1011 53 10000 2.68 77 13:46 15.05.2022
1455 Clear 21 1010 47 10000 4 270 12:19 15.05.2022
1456 Clear 23 1010 44 10000 3 30 10:49 15.05.2022
1457 Clear 23 1010 41 10000 1 0 09:57 15.05.2022
1458 Clear 22 1016 49 10000 2 0 07:24 15.05.2022
1459 Clear 21 1016 48 10000 3 10 06:56 15.05.2022
1460 Rain 19 1013 46 10000 3 300 03:38 15.05.2022
1461 Clear 17 1013 62 10000 1.34 236 00:26 15.05.2022
1462 Clouds 16 1012 57 10000 1.34 215 23:37 14.05.2022
1463 Clear 16 1012 60 10000 2 10 21:51 14.05.2022
1464 Clear 17 1012 60 10000 2 350 21:26 14.05.2022
1465 Rain 17 1012 56 10000 2 180 20:27 14.05.2022
1466 Clear 17 1012 56 10000 1 0 19:21 14.05.2022
1467 Clear 17 1013 55 10000 1 90 18:58 14.05.2022
1468 Clear 17 1013 55 10000 3 40 17:47 14.05.2022
1469 Clear 18 1013 46 10000 3 60 15:58 14.05.2022
1470 Clear 18 1012 48 10000 5 50 14:39 14.05.2022
1471 Clear 18 1013 49 10000 5 50 14:18 14.05.2022
1472 Clear 21 1011 54 10000 4 30 11:46 14.05.2022
1473 Clear 22 1011 49 10000 5 20 10:44 14.05.2022
1474 Clear 22 1015 57 10000 5 20 10:18 14.05.2022
1475 Clear 22 1015 53 10000 4 40 09:23 14.05.2022
1476 Clear 22 1016 52 10000 4 30 07:32 14.05.2022
1477 Clear 20 1012 52 10000 4 40 04:35 14.05.2022
1478 Clear 14 1011 77 10000 2.24 2 00:27 14.05.2022
1479 Clear 14 1010 77 10000 1 10 23:25 13.05.2022
1480 Clear 14 1010 77 10000 1 10 23:25 13.05.2022
1481 Clear 14 1010 76 10000 2.24 355 22:54 13.05.2022
1482 Clear 14 1010 74 10000 2.68 356 22:21 13.05.2022
1483 Clear 14 1009 74 10000 2.68 354 20:59 13.05.2022
1484 Clear 14 1009 72 10000 2.68 354 20:37 13.05.2022
1485 Clear 14 1009 72 10000 2.68 354 20:19 13.05.2022
1486 Clear 15 1009 70 10000 2.24 346 18:56 13.05.2022
1487 Clear 15 1009 68 10000 2.24 353 17:30 13.05.2022
1488 Clear 15 1009 68 10000 3 10 16:29 13.05.2022
1489 Clear 15 1009 65 10000 3 360 15:46 13.05.2022
1490 Clear 16 1008 64 10000 4 20 14:38 13.05.2022
1491 Clear 17 1007 66 10000 6 30 12:51 13.05.2022
1492 Clouds 17 1006 70 10000 7 10 11:39 13.05.2022
1493 Clouds 17 1005 76 10000 4 360 09:54 13.05.2022
1494 Rain 17 1005 79 8000 5 10 08:51 13.05.2022
1495 Rain 16 1005 83 4000 5 350 07:50 13.05.2022
1496 Rain 17 1005 81 8000 4 10 06:49 13.05.2022
1497 Rain 16 1005 83 8000 4 360 04:54 13.05.2022
1498 Rain 15 1004 81 7000 4.47 28 00:42 13.05.2022
1499 Clouds 15 1003 81 10000 4.02 32 22:47 12.05.2022
1500 Rain 15 1003 81 10000 5 30 22:29 12.05.2022
1501 Rain 16 1004 81 8000 5 40 20:41 12.05.2022
1502 Rain 16 1004 80 8000 3 50 19:24 12.05.2022
1503 Rain 16 1005 81 8000 2 50 18:19 12.05.2022
1504 Rain 17 1005 84 8000 3 70 16:34 12.05.2022
1505 Rain 17 1006 85 6000 3 60 14:51 12.05.2022
1506 Rain 17 1005 86 6000 2 60 13:48 12.05.2022
1507 Rain 17 1004 85 8000 3 30 11:31 12.05.2022
1508 Rain 18 1004 84 8000 4 30 10:22 12.05.2022
1509 Rain 19 1005 82 10000 4 30 08:52 12.05.2022
1510 Mist 19 1006 83 5000 4 20 07:57 12.05.2022
1511 Clouds 19 1006 80 10000 3 40 06:55 12.05.2022
1512 Clouds 19 1007 79 10000 3 50 03:31 12.05.2022
1513 Rain 18 1007 84 8000 4 40 00:41 12.05.2022
1514 Clouds 18 1007 81 8000 4 360 22:41 11.05.2022
1515 Clouds 18 1007 80 10000 3 360 21:56 11.05.2022
1516 Clouds 18 1007 82 10000 3 40 21:24 11.05.2022
1517 Clouds 18 1007 83 10000 4 50 19:36 11.05.2022
1518 Clouds 19 1008 81 10000 3 40 16:59 11.05.2022
1519 Clouds 19 1009 81 10000 2 40 15:59 11.05.2022
1520 Clouds 20 1008 77 10000 3 80 14:39 11.05.2022
1521 Clouds 20 1008 77 10000 3 80 14:39 11.05.2022
1522 Clouds 20 1008 76 10000 3 80 14:19 11.05.2022
1523 Clouds 21 1007 69 10000 5 40 11:55 11.05.2022
1524 Clouds 21 1007 68 10000 5 40 11:30 11.05.2022
1525 Clouds 23 1007 62 10000 4 80 08:55 11.05.2022
1526 Clouds 20 1009 78 10000 4 30 05:45 11.05.2022
1527 Clouds 19 1008 73 10000 2.24 61 01:28 11.05.2022
1528 Clouds 18 1007 75 10000 2 90 22:32 10.05.2022
1529 Clouds 18 1007 75 10000 2 90 21:58 10.05.2022
1530 Clouds 18 1007 77 10000 2 80 20:58 10.05.2022
1531 Clouds 18 1007 77 10000 3 120 20:19 10.05.2022
1532 Clouds 19 1007 77 10000 4 140 18:27 10.05.2022
1533 Rain 19 1007 77 10000 3 120 17:36 10.05.2022
1534 Clouds 19 1007 76 10000 4 130 15:42 10.05.2022
1535 Rain 20 1007 75 10000 4 130 12:48 10.05.2022
1536 Rain 20 1007 73 10000 4 130 11:51 10.05.2022
1537 Rain 20 1006 72 10000 4 130 11:21 10.05.2022
1538 Rain 20 1006 72 10000 5 140 10:54 10.05.2022
1539 Rain 21 1007 70 10000 4 160 09:26 10.05.2022
1540 Rain 21 1007 68 10000 4 140 07:26 10.05.2022
1541 Rain 19 1009 72 10000 5 140 04:32 10.05.2022
1542 Clouds 17 1009 76 10000 4 130 01:18 10.05.2022
1543 Clouds 18 1008 71 10000 4 100 23:26 09.05.2022
1544 Clouds 17 1008 69 10000 3 100 21:58 09.05.2022
1545 Rain 17 1008 73 10000 4 110 21:18 09.05.2022
1546 Rain 17 1009 73 10000 3 100 19:29 09.05.2022
1547 Rain 17 1010 68 10000 3 80 17:52 09.05.2022
1548 Clear 18 1011 65 10000 3 70 16:38 09.05.2022
1549 Rain 18 1011 65 10000 3 70 15:52 09.05.2022
1550 Rain 18 1011 64 10000 3 90 15:24 09.05.2022
1551 Clear 18 1011 65 10000 4 90 14:29 09.05.2022
1552 Clear 18 1011 63 10000 5 100 13:49 09.05.2022
1553 Clear 19 1011 60 10000 4 60 12:26 09.05.2022
1554 Clear 21 1015 59 10000 4 50 11:32 09.05.2022
1555 Clear 21 1014 56 10000 3 60 10:42 09.05.2022
1556 Clear 22 1015 53 10000 3 80 08:45 09.05.2022
1557 Clear 22 1015 53 10000 3 50 07:54 09.05.2022
1558 Clear 18 1012 58 10000 4 50 03:21 09.05.2022
1559 Clear 16 1012 65 10000 4 40 23:34 08.05.2022
1560 Clear 16 1011 63 10000 4 40 22:55 08.05.2022
1561 Clear 16 1011 64 10000 2 70 21:55 08.05.2022
1562 Clear 16 1011 64 10000 2 70 21:55 08.05.2022
1563 Clear 17 1011 66 10000 3 40 20:35 08.05.2022
1564 Clear 17 1011 67 10000 5 30 19:44 08.05.2022
1565 Clear 17 1012 65 10000 3 70 18:54 08.05.2022
1566 Clear 18 1012 63 10000 4 60 17:59 08.05.2022
1567 Clear 18 1012 61 10000 2 70 16:43 08.05.2022
1568 Clear 18 1012 58 10000 4 80 15:31 08.05.2022
1569 Clear 19 1011 57 10000 5 80 14:44 08.05.2022
1570 Clear 20 1014 62 10000 4 80 12:25 08.05.2022
1571 Clouds 23 1014 63 10000 4 120 10:31 08.05.2022
1572 Clouds 23 1014 64 10000 4 120 09:57 08.05.2022
1573 Clouds 23 1014 64 10000 4 120 09:57 08.05.2022
1574 Clouds 23 1015 62 10000 3 0 08:55 08.05.2022
1575 Clouds 24 1016 61 10000 5 0 06:57 08.05.2022
1576 Clouds 21 1013 60 10000 3 50 03:26 08.05.2022
1577 Clear 20 1013 64 10000 3 90 02:41 08.05.2022
1578 Clouds 18 1013 75 10000 3 40 00:21 08.05.2022
1579 Clouds 18 1012 72 10000 3 80 23:47 07.05.2022
1580 Clouds 18 1012 77 10000 3 120 22:46 07.05.2022
1581 Clouds 18 1012 78 10000 3 120 21:57 07.05.2022
1582 Clouds 18 1012 76 10000 4 110 21:33 07.05.2022
1583 Clouds 18 1013 77 10000 4 80 20:27 07.05.2022
1584 Clouds 19 1014 78 10000 4 90 18:59 07.05.2022
1585 Clouds 19 1014 77 10000 4 90 17:31 07.05.2022
1586 Clouds 20 1014 76 10000 4 60 15:34 07.05.2022
1587 Clouds 20 1012 76 10000 6 50 12:34 07.05.2022
1588 Clouds 22 1012 74 10000 5 70 10:23 07.05.2022
1589 Clear 24 1011 68 10000 6 50 08:37 07.05.2022
1590 Clear 24 1016 73 10000 7 50 07:37 07.05.2022
1591 Clouds 26 1012 66 10000 6 60 06:42 07.05.2022
1592 Clear 25 1012 67 10000 1 0 04:21 07.05.2022
1593 Mist 19 1010 85 3000 3 160 00:50 07.05.2022
1594 Clouds 18 1009 86 6000 3 140 22:55 06.05.2022
1595 Clouds 18 1009 86 6000 3 160 22:21 06.05.2022
1596 Clouds 18 1009 86 10000 3 160 21:36 06.05.2022
1597 Clear 19 1009 83 10000 2 150 20:18 06.05.2022
1598 Clear 19 1009 81 10000 3 140 19:27 06.05.2022
1599 Clear 20 1009 81 10000 4 130 18:49 06.05.2022
1600 Clear 20 1009 81 10000 3 140 17:38 06.05.2022
1601 Clear 21 1009 80 10000 5 140 15:55 06.05.2022
1602 Clear 21 1009 79 10000 4.02 136 15:32 06.05.2022
1603 Clear 22 1008 77 10000 6 130 14:22 06.05.2022
1604 Clear 24 1005 65 10000 4 130 12:52 06.05.2022
1605 Clear 27 1007 59 10000 6 140 11:58 06.05.2022
1606 Clear 28 1007 55 10000 6 140 11:27 06.05.2022
1607 Clear 30 1006 50 10000 4 160 09:48 06.05.2022
1608 Clear 30 1006 51 10000 4 140 09:18 06.05.2022
1609 Clear 30 1007 50 10000 2 250 07:54 06.05.2022
1610 Clear 29 1008 51 10000 3 180 06:26 06.05.2022
1611 Clear 23 1009 68 10000 4 170 03:42 06.05.2022
1612 Clear 21 1009 75 10000 5 160 02:38 06.05.2022
1613 Clear 18 1008 83 10000 3 150 22:58 05.05.2022
1614 Clear 18 1008 83 10000 4 150 21:50 05.05.2022
1615 Clear 19 1008 80 10000 3 140 20:37 05.05.2022
1616 Clear 19 1008 79 10000 4 140 18:56 05.05.2022
1617 Clear 20 1009 74 10000 5 130 16:42 05.05.2022
1618 Clear 20 1009 73 10000 5 130 15:30 05.05.2022
1619 Clear 22 1008 69 10000 6 130 13:30 05.05.2022
1620 Clear 22 1008 67 10000 6 150 12:56 05.05.2022
1621 Clear 26 1008 54 10000 6 160 11:22 05.05.2022
1622 Clear 27 1005 31 10000 6 140 09:40 05.05.2022
1623 Clear 27 1009 46 10000 6 120 08:34 05.05.2022
1624 Clear 25 1010 50 10000 5 140 06:23 05.05.2022
1625 Clear 19 1011 67 10000 4 160 02:23 05.05.2022
1626 Clear 18 1008 75 10000 4 150 01:37 05.05.2022
1627 Clear 15 1011 72 10000 2 150 23:57 04.05.2022
1628 Clear 15 1010 71 10000 2 160 22:54 04.05.2022
1629 Clear 15 1010 71 10000 3 140 21:59 04.05.2022
1630 Clear 16 1010 70 10000 3 150 21:30 04.05.2022
1631 Clear 16 1010 70 10000 3 130 20:42 04.05.2022
1632 Clear 16 1011 71 10000 4 140 19:56 04.05.2022
1633 Clear 16 1011 70 10000 4 140 19:35 04.05.2022
1634 Clear 17 1012 68 10000 4 150 18:22 04.05.2022
1635 Clear 17 1012 68 10000 3 150 17:59 04.05.2022
1636 Clear 18 1012 65 10000 4 140 15:57 04.05.2022
1637 Clear 18 1012 62 10000 4 130 15:30 04.05.2022
1638 Clear 20 1012 56 10000 5 130 14:21 04.05.2022
1639 Clear 20 1012 53 10000 4 150 13:50 04.05.2022
1640 Clear 23 1015 56 10000 6 130 12:34 04.05.2022
1641 Clear 25 1016 55 10000 6 160 10:57 04.05.2022
1642 Clear 26 1016 56 10000 5 160 09:45 04.05.2022
1643 Clear 27 1011 43 10000 5 170 08:48 04.05.2022
1644 Clear 26 1012 44 10000 5 140 07:33 04.05.2022
1645 Clear 22 1013 49 10000 3 180 02:59 04.05.2022
1646 Clear 18 1013 61 10000 3.13 154 01:24 04.05.2022
1647 Clouds 17 1012 67 8000 3.13 157 22:50 03.05.2022
1648 Clear 17 1012 68 10000 3 150 21:47 03.05.2022
1649 Clear 17 1012 68 10000 3 150 21:20 03.05.2022
1650 Clear 17 1012 68 10000 3.58 163 20:31 03.05.2022
1651 Clear 18 1013 68 10000 4 150 18:54 03.05.2022
1652 Clear 18 1013 68 10000 4 150 18:54 03.05.2022
1653 Clear 18 1013 68 10000 4 150 18:34 03.05.2022
1654 Clear 18 1015 67 10000 4 150 17:19 03.05.2022
1655 Clear 20 1014 63 10000 3 170 15:43 03.05.2022
1656 Clear 22 1013 53 10000 4 150 13:28 03.05.2022
1657 Clear 23 1013 48 10000 5 140 12:30 03.05.2022
1658 Clear 26 1013 49 10000 7 180 10:58 03.05.2022
1659 Clear 27 1017 57 10000 2 140 09:46 03.05.2022
1660 Clouds 26 1018 57 10000 2 0 07:59 03.05.2022
1661 Clear 27 1014 44 10000 1 0 06:45 03.05.2022
1662 Clear 21 1012 53 10000 1 0 01:52 03.05.2022
1663 Clear 17 1013 57 10000 0.89 50 22:45 02.05.2022
1664 Clear 17 1013 58 10000 2 360 21:55 02.05.2022
1665 Clear 17 1013 58 10000 1 20 21:24 02.05.2022
1666 Clear 18 1013 55 10000 1.34 256 18:57 02.05.2022
1667 Clear 18 1013 52 10000 1.34 258 18:25 02.05.2022
1668 Clear 17 1018 61 10000 2.24 238 17:37 02.05.2022
1669 Clear 19 1013 49 10000 2.24 229 16:24 02.05.2022
1670 Clear 19 1013 47 10000 1.79 220 15:37 02.05.2022
1671 Clear 21 1012 47 10000 2 230 13:58 02.05.2022
1672 Clear 22 1011 46 10000 3 250 12:45 02.05.2022
1673 Clear 24 1011 44 10000 3 250 11:20 02.05.2022
1674 Clear 24 1011 45 10000 3 0 09:31 02.05.2022
1675 Clear 24 1012 45 10000 3 260 07:57 02.05.2022
1676 Clouds 22 1012 49 8000 3 300 04:44 02.05.2022
1677 Mist 13 1012 76 5000 2.24 263 00:25 02.05.2022
1678 Clouds 13 1012 73 7000 2.24 244 23:52 01.05.2022
1679 Clear 13 1011 68 10000 2.24 228 22:45 01.05.2022
1680 Clear 14 1012 67 10000 1.79 215 21:30 01.05.2022
1681 Clear 14 1012 66 10000 1.79 203 20:19 01.05.2022
1682 Clear 14 1012 65 10000 2 200 19:18 01.05.2022
1683 Clear 14 1013 63 10000 2.68 210 18:46 01.05.2022
1684 Clear 15 1013 62 10000 2.24 196 17:46 01.05.2022
1685 Clear 15 1013 60 10000 3 160 16:24 01.05.2022
1686 Clear 16 1013 58 10000 3 150 15:38 01.05.2022
1687 Clear 16 1012 57 10000 4 160 13:52 01.05.2022
1688 Rain 19 1011 47 10000 3 350 11:28 01.05.2022
1689 Clear 20 1016 49 10000 2 330 09:32 01.05.2022
1690 Clear 20 1017 50 10000 3 310 08:42 01.05.2022
1691 Clouds 17 1015 56 10000 2 0 03:44 01.05.2022
1692 Clouds 13 1013 71 10000 2.24 346 00:29 01.05.2022
1693 Clouds 13 1014 68 10000 3 340 21:49 30.04.2022
1694 Clouds 13 1014 66 10000 4 340 21:18 30.04.2022
1695 Clouds 13 1015 67 10000 3 340 19:42 30.04.2022
1696 Rain 14 1015 66 10000 3 350 18:28 30.04.2022
1697 Clear 14 1015 66 10000 4 10 16:50 30.04.2022
1698 Rain 14 1015 65 10000 4 50 15:47 30.04.2022
1699 Clear 15 1014 64 10000 4 30 14:48 30.04.2022
1700 Rain 16 1014 64 10000 4 350 12:55 30.04.2022
1701 Rain 16 1013 61 10000 4 360 11:34 30.04.2022
1702 Clouds 17 1013 60 10000 4 360 10:45 30.04.2022
1703 Clouds 16 1017 61 10000 4 30 09:41 30.04.2022
1704 Clouds 16 1018 62 10000 4 50 06:43 30.04.2022
1705 Clear 15 1015 63 10000 3 20 02:36 30.04.2022
1706 Clear 13 1014 69 10000 2 350 23:37 29.04.2022
1707 Clear 13 1014 69 10000 2 360 22:31 29.04.2022
1708 Clear 12 1014 68 10000 2 360 21:39 29.04.2022
1709 Clouds 13 1014 68 10000 2 30 20:49 29.04.2022
1710 Clouds 13 1014 66 10000 2 60 19:45 29.04.2022
1711 Clouds 13 1015 69 10000 4 50 17:55 29.04.2022
1712 Clouds 13 1015 69 10000 3 50 17:23 29.04.2022
1713 Clouds 14 1015 67 10000 2 60 15:49 29.04.2022
1714 Clouds 15 1015 64 10000 3 70 14:22 29.04.2022
1715 Clouds 15 1014 64 10000 2 50 12:52 29.04.2022
1716 Clouds 15 1013 63 10000 4 40 11:49 29.04.2022
1717 Clouds 16 1013 62 10000 5 350 08:51 29.04.2022
1718 Clouds 15 1013 67 10000 6 20 07:28 29.04.2022
1719 Clouds 14 1014 67 10000 6 10 06:39 29.04.2022
1720 Clouds 14 1014 68 10000 6 10 04:53 29.04.2022
1721 Clouds 13 1011 73 10000 5 360 00:39 29.04.2022
1722 Clouds 13 1010 74 10000 7 10 23:27 28.04.2022
1723 Clouds 13 1009 73 10000 7 10 22:41 28.04.2022
1724 Clouds 13 1009 75 10000 7 10 21:47 28.04.2022
1725 Clouds 13 1008 76 10000 7 10 20:57 28.04.2022
1726 Clouds 13 1008 77 10000 9 10 20:24 28.04.2022
1727 Rain 14 1008 80 10000 8 360 19:41 28.04.2022
1728 Rain 14 1008 80 10000 8 360 19:21 28.04.2022
1729 Rain 15 1007 80 10000 6 20 18:35 28.04.2022
1730 Clouds 16 1006 85 10000 9 30 17:20 28.04.2022
1731 Rain 16 1007 85 6000 6 20 16:40 28.04.2022
1732 Rain 17 1007 85 6000 6 20 16:18 28.04.2022
1733 Clouds 17 1007 84 10000 6 10 15:27 28.04.2022
1734 Clouds 17 1007 84 10000 6 10 15:27 28.04.2022
1735 Clouds 18 1005 84 7000 2 90 13:44 28.04.2022
1736 Rain 18 1002 90 7000 3 90 12:42 28.04.2022
1737 Rain 19 1005 79 7000 4 120 11:56 28.04.2022
1738 Clouds 20 1005 75 10000 4 110 10:44 28.04.2022
1739 Clouds 21 1005 73 10000 4 120 09:52 28.04.2022
1740 Clouds 21 1006 69 10000 3 90 08:30 28.04.2022
1741 Clouds 20 1005 74 10000 3 80 06:58 28.04.2022
1742 Clouds 19 1009 74 10000 3 100 05:55 28.04.2022
1743 Rain 19 1009 72 10000 3 120 04:50 28.04.2022
1744 Clouds 19 1009 72 10000 4 90 04:31 28.04.2022
1745 Clear 16 1010 70 10000 3 80 00:22 28.04.2022
1746 Rain 16 1010 63 10000 3 70 22:38 27.04.2022
1747 Clear 16 1009 61 10000 4 80 21:51 27.04.2022
1748 Clear 16 1010 62 10000 4 70 20:56 27.04.2022
1749 Clear 16 1010 62 10000 4 60 20:35 27.04.2022
1750 Clear 16 1011 60 10000 3 70 19:37 27.04.2022
1751 Clear 16 1011 63 10000 4 80 18:52 27.04.2022
1752 Clear 16 1011 63 10000 4 80 18:22 27.04.2022
1753 Clear 16 1011 59 10000 4 50 16:27 27.04.2022
1754 Clear 17 1009 54 10000 6 60 14:26 27.04.2022
1755 Clear 20 1016 30 10000 5 30 11:45 27.04.2022
1756 Clear 20 1015 48 10000 5 50 11:20 27.04.2022
1757 Clear 21 1015 48 10000 6 60 08:58 27.04.2022
1758 Clear 22 1011 44 10000 5 80 07:18 27.04.2022
1759 Clear 20 1012 60 10000 6 70 03:41 27.04.2022
1760 Clouds 17 1009 77 10000 4 70 01:30 27.04.2022
1761 Clouds 16 1009 78 10000 3 70 00:36 27.04.2022
1762 Clouds 16 1009 75 10000 3 50 23:25 26.04.2022
1763 Clouds 16 1008 75 10000 2 70 22:57 26.04.2022
1764 Clouds 16 1008 75 10000 2 70 22:38 26.04.2022
1765 Clouds 17 1008 75 10000 2 70 21:26 26.04.2022
1766 Clouds 17 1008 77 10000 3 20 20:40 26.04.2022
1767 Clouds 17 1008 77 10000 3 20 19:48 26.04.2022
1768 Clouds 17 1008 76 10000 4 50 19:26 26.04.2022
1769 Clouds 17 1007 77 10000 3 40 18:42 26.04.2022
1770 Clouds 18 1007 80 10000 4 30 17:50 26.04.2022
1771 Clouds 18 1007 81 10000 3 30 16:26 26.04.2022
1772 Clouds 19 1004 77 10000 3.13 9 13:58 26.04.2022
1773 Clouds 19 1004 77 10000 2 360 13:29 26.04.2022
1774 Clouds 19 1003 77 10000 5 10 11:32 26.04.2022
1775 Clouds 19 1002 78 10000 7 360 10:31 26.04.2022
1776 Clouds 20 1001 79 10000 6 350 08:47 26.04.2022
1777 Clouds 20 1001 85 6000 6 350 05:46 26.04.2022
1778 Mist 21 1000 86 5000 5 330 04:23 26.04.2022
1779 Rain 22 998 85 10000 3.13 254 00:53 26.04.2022
1780 Rain 22 997 82 10000 4 230 23:52 25.04.2022
1781 Rain 22 997 82 10000 2.68 220 22:18 25.04.2022
1782 Clear 22 997 81 10000 4 210 21:33 25.04.2022
1783 Rain 22 997 81 10000 2 190 20:26 25.04.2022
1784 Clear 22 997 81 10000 3.58 237 18:52 25.04.2022
1785 Clear 21 997 86 10000 4.92 240 17:40 25.04.2022
1786 Clear 21 997 86 10000 4.92 240 17:40 25.04.2022
1787 Clear 21 997 87 10000 5.36 234 16:50 25.04.2022
1788 Clouds 22 998 85 10000 4.47 212 15:23 25.04.2022
1789 Rain 22 998 85 10000 6 180 14:34 25.04.2022
1790 Rain 22 996 86 10000 2.24 178 13:21 25.04.2022
1791 Thunderstorm 24 997 80 2500 8 270 10:44 25.04.2022
1792 Clear 25 996 74 10000 5 150 09:42 25.04.2022
1793 Clouds 27 997 73 10000 7 140 07:56 25.04.2022
1794 Clouds 25 1000 73 10000 5 150 05:55 25.04.2022
1795 Mist 18 1001 87 5000 5 130 01:30 25.04.2022
1796 Clouds 17 1001 84 6000 4 150 23:56 24.04.2022
1797 Clouds 17 1001 84 6000 5 150 23:25 24.04.2022
1798 Mist 17 1001 85 4000 5 140 22:39 24.04.2022
1799 Mist 17 1002 83 3000 4 130 21:56 24.04.2022
1800 Mist 17 1002 85 4000 4 140 21:22 24.04.2022
1801 Mist 17 1003 84 4000 4 130 20:46 24.04.2022
1802 Mist 17 1003 83 5000 4 150 20:20 24.04.2022
1803 Clouds 18 1004 83 10000 4 130 18:38 24.04.2022
1804 Clouds 18 1004 83 10000 4 110 17:42 24.04.2022
1805 Clouds 18 1005 83 10000 4 110 17:20 24.04.2022
1806 Clouds 18 1005 83 10000 5 130 16:51 24.04.2022
1807 Clouds 18 1005 83 10000 5 140 16:23 24.04.2022
1808 Clouds 18 1005 81 10000 5 130 15:39 24.04.2022
1809 Clouds 19 1005 81 10000 4 120 14:31 24.04.2022
1810 Clouds 19 1005 78 10000 5 110 13:26 24.04.2022
1811 Clouds 19 1005 78 10000 6 120 12:46 24.04.2022
1812 Clouds 20 1004 76 10000 5 130 11:46 24.04.2022
1813 Clouds 21 1004 75 10000 5 140 10:33 24.04.2022
1814 Clouds 21 1004 75 10000 6 150 09:42 24.04.2022
1815 Clouds 22 1005 70 10000 4 150 07:41 24.04.2022
1816 Clouds 21 1006 71 10000 3 150 05:32 24.04.2022
1817 Clouds 19 1006 76 10000 2.24 85 01:51 24.04.2022
1818 Clouds 18 1006 80 10000 2 190 00:38 24.04.2022
1819 Clouds 18 1005 77 10000 3 110 23:45 23.04.2022
1820 Clouds 18 1005 76 10000 3 110 23:22 23.04.2022
1821 Clouds 18 1005 78 10000 2 160 21:55 23.04.2022
1822 Clouds 18 1005 78 10000 2 180 21:35 23.04.2022
1823 Clouds 18 1004 76 10000 3 150 20:58 23.04.2022
1824 Clouds 18 1005 77 10000 2 120 19:54 23.04.2022
1825 Clouds 17 1005 81 10000 2 150 19:19 23.04.2022
1826 Clouds 17 1005 81 10000 2 130 18:53 23.04.2022
1827 Clouds 17 1005 82 10000 3 150 18:24 23.04.2022
1828 Clouds 18 1005 82 10000 2 80 17:43 23.04.2022
1829 Clouds 18 1006 82 10000 3 100 16:43 23.04.2022
1830 Clouds 18 1006 82 10000 4 100 15:32 23.04.2022
1831 Clouds 18 1005 79 10000 3 100 12:50 23.04.2022
1832 Clouds 19 1004 80 10000 4 120 10:50 23.04.2022
1833 Clouds 19 1009 81 10000 3 50 09:38 23.04.2022
1834 Clouds 20 1005 79 10000 3 360 07:21 23.04.2022
1835 Rain 19 1006 85 7000 3 160 03:54 23.04.2022
1836 Rain 19 1005 85 10000 3 140 01:25 23.04.2022
1837 Rain 19 1005 84 7000 5 130 23:31 22.04.2022
1838 Rain 20 1005 85 7000 3 170 22:20 22.04.2022
1839 Rain 20 1005 84 10000 3 180 21:44 22.04.2022
1840 Rain 20 1005 84 10000 4 160 20:48 22.04.2022
1841 Rain 20 1005 82 10000 4 170 20:27 22.04.2022
1842 Rain 21 1006 81 10000 5 180 19:20 22.04.2022
1843 Rain 22 1006 81 10000 5 190 18:42 22.04.2022
1844 Clear 22 1011 78 10000 3.58 194 17:41 22.04.2022
1845 Rain 22 1011 77 10000 3 190 16:46 22.04.2022
1846 Rain 23 1006 71 10000 3.58 210 15:44 22.04.2022
1847 Clear 23 1006 70 10000 3.58 212 15:18 22.04.2022
1848 Clear 24 1004 67 10000 2 160 13:50 22.04.2022
1849 Rain 25 1005 66 10000 4 180 12:58 22.04.2022
1850 Clear 26 1004 63 10000 4 190 11:50 22.04.2022
1851 Clear 27 1004 54 10000 2 240 11:21 22.04.2022
1852 Clear 27 1004 54 10000 3 220 10:50 22.04.2022
1853 Clear 28 1004 52 10000 3 230 10:30 22.04.2022
1854 Clear 28 1004 50 10000 3 230 09:50 22.04.2022
1855 Clear 29 1004 50 10000 2 0 08:50 22.04.2022
1856 Clear 28 1005 55 10000 3 220 06:58 22.04.2022
1857 Clear 21 1004 68 10000 2 170 02:45 22.04.2022
1858 Clear 18 1006 74 10000 3 160 00:51 22.04.2022
1859 Clear 18 1006 71 10000 2.68 163 23:24 21.04.2022
1860 Clear 18 1005 70 10000 3 160 22:27 21.04.2022
1861 Clear 18 1006 71 10000 3 150 20:36 21.04.2022
1862 Clear 18 1006 71 10000 3 150 20:36 21.04.2022
1863 Clear 18 1006 70 10000 3 150 20:18 21.04.2022
1864 Clear 19 1006 66 10000 4 150 18:35 21.04.2022
1865 Clear 19 1006 67 10000 5 160 17:54 21.04.2022
1866 Clear 19 1007 70 10000 5 150 16:30 21.04.2022
1867 Clear 19 1007 72 10000 5 160 15:21 21.04.2022
1868 Clear 20 1006 72 10000 5 160 14:47 21.04.2022
1869 Clear 21 1005 64 10000 5 150 13:23 21.04.2022
1870 Clear 22 1010 60 10000 5 170 12:53 21.04.2022
1871 Clear 25 1008 63 10000 4 240 10:47 21.04.2022
1872 Clear 27 1005 52 10000 3 250 08:55 21.04.2022
1873 Clear 25 1006 52 10000 3 260 07:24 21.04.2022
1874 Clouds 21 1008 66 10000 4 210 04:58 21.04.2022
1875 Clouds 18 1008 75 7000 3 210 03:28 21.04.2022
1876 Clouds 17 1008 78 6000 4 190 02:47 21.04.2022
1877 Clouds 17 1008 78 6000 4 190 02:47 21.04.2022
1878 Mist 15 1007 82 5000 3.13 156 00:43 21.04.2022
1879 Mist 15 1007 80 5000 3 160 23:50 20.04.2022
1880 Mist 15 1007 80 4800 4 170 23:22 20.04.2022
1881 Rain 15 1007 79 4800 4 160 22:45 20.04.2022
1882 Clouds 15 1007 80 6000 3 170 22:26 20.04.2022
1883 Clouds 15 1007 78 7000 2 170 21:27 20.04.2022
1884 Clear 15 1007 75 10000 4.92 179 20:23 20.04.2022
1885 Clear 15 1007 73 10000 3 150 19:51 20.04.2022
1886 Clouds 15 1008 74 10000 3 150 19:18 20.04.2022
1887 Clouds 17 1008 70 10000 4 160 17:55 20.04.2022
1888 Rain 18 1008 60 10000 6 150 16:40 20.04.2022
1889 Rain 19 1008 59 10000 6 150 16:18 20.04.2022
1890 Rain 20 1013 57 10000 6 150 13:50 20.04.2022
1891 Clear 22 1004 43 10000 6 150 11:44 20.04.2022
1892 Clear 23 1008 51 10000 6 170 10:56 20.04.2022
1893 Clear 24 1008 50 10000 6 160 09:58 20.04.2022
1894 Clear 24 1008 49 10000 6 160 09:24 20.04.2022
1895 Clear 24 1009 51 10000 4 190 08:20 20.04.2022
1896 Clear 23 1010 50 10000 2 210 06:56 20.04.2022
1897 Clear 20 1010 58 10000 2 200 03:34 20.04.2022
1898 Clear 14 1012 67 10000 2.24 164 00:22 20.04.2022
1899 Clear 14 1011 63 10000 2.24 166 23:35 19.04.2022
1900 Clear 15 1011 61 10000 2 150 22:24 19.04.2022
1901 Clear 15 1011 60 10000 2.68 164 21:55 19.04.2022
1902 Clear 14 1012 62 10000 2.68 163 21:19 19.04.2022
1903 Clear 14 1012 61 10000 3.13 153 20:41 19.04.2022
1904 Clear 15 1012 59 10000 3 150 19:43 19.04.2022
1905 Clear 15 1013 57 10000 3.13 151 18:47 19.04.2022
1906 Clear 16 1013 60 10000 4 140 17:28 19.04.2022
1907 Clear 16 1014 60 10000 3 150 16:43 19.04.2022
1908 Clear 16 1014 60 10000 3 150 16:21 19.04.2022
1909 Clear 17 1013 58 10000 4 150 14:48 19.04.2022
1910 Clear 19 1012 57 10000 4 130 13:34 19.04.2022
1911 Clear 19 1012 55 10000 5 130 12:50 19.04.2022
1912 Clear 20 1012 55 10000 5 140 11:55 19.04.2022
1913 Clear 21 1012 55 10000 4 120 10:23 19.04.2022
1914 Clear 22 1017 57 10000 2 220 08:54 19.04.2022
1915 Clear 21 1012 48 10000 2 220 04:42 19.04.2022
1916 Clear 18 1015 56 10000 3 180 03:25 19.04.2022
1917 Clear 13 1013 66 10000 1.34 206 00:27 19.04.2022
1918 Clear 13 1013 57 10000 2 170 23:25 18.04.2022
1919 Clear 13 1013 54 10000 1.34 199 21:29 18.04.2022
1920 Clear 13 1013 53 10000 1.79 195 20:53 18.04.2022
1921 Clear 13 1019 59 10000 2 150 20:27 18.04.2022
1922 Clear 14 1014 54 10000 2.24 176 19:42 18.04.2022
1923 Clear 14 1015 56 10000 1.79 147 18:53 18.04.2022
1924 Clear 15 1015 58 10000 2 170 17:53 18.04.2022
1925 Clear 15 1015 56 10000 1.79 175 17:33 18.04.2022
1926 Clear 15 1015 54 10000 2 140 16:44 18.04.2022
1927 Clear 15 1015 52 10000 3 130 15:54 18.04.2022
1928 Clear 16 1014 49 10000 4 130 14:42 18.04.2022
1929 Clear 16 1014 49 10000 4 130 14:42 18.04.2022
1930 Clear 17 1014 49 10000 3 130 13:34 18.04.2022
1931 Clear 17 1014 49 10000 3 130 13:34 18.04.2022
1932 Clear 19 1013 45 10000 3 50 12:29 18.04.2022
1933 Clear 19 1017 49 10000 3 30 11:27 18.04.2022
1934 Clear 20 1017 50 10000 3 350 10:29 18.04.2022
1935 Clear 20 1017 49 10000 2 0 09:30 18.04.2022
1936 Clear 20 1019 32 10000 3 350 07:35 18.04.2022
1937 Clear 15 1020 58 10000 1 0 04:40 18.04.2022
1938 Clear 14 1013 52 10000 2 110 23:42 17.04.2022
1939 Clear 14 1013 52 10000 3 120 22:40 17.04.2022
1940 Clear 14 1013 52 10000 3 130 21:42 17.04.2022
1941 Clear 14 1013 52 10000 3 130 21:21 17.04.2022
1942 Clear 14 1013 53 10000 3 120 20:32 17.04.2022
1943 Clear 14 1013 53 10000 3 140 19:21 17.04.2022
1944 Clear 14 1015 53 10000 4 150 17:38 17.04.2022
1945 Clear 14 1015 50 10000 4 110 15:38 17.04.2022
1946 Clear 15 1015 49 10000 4 110 14:54 17.04.2022
1947 Clear 15 1014 48 10000 4 110 13:45 17.04.2022
1948 Clear 15 1014 45 10000 5 110 12:56 17.04.2022
1949 Clear 17 1018 47 10000 6 130 11:24 17.04.2022
1950 Clear 18 1019 36 10000 5 110 10:40 17.04.2022
1951 Clear 18 1019 47 10000 5 110 10:19 17.04.2022
1952 Clear 20 1019 44 10000 5 100 09:23 17.04.2022
1953 Clear 19 1019 42 10000 3 0 08:41 17.04.2022
1954 Clear 19 1020 44 10000 5 110 06:52 17.04.2022
1955 Clear 16 1016 38 10000 1 0 03:20 17.04.2022
1956 Clear 12 1015 66 10000 2 360 00:53 17.04.2022
1957 Clear 11 1015 65 10000 2 10 23:48 16.04.2022
1958 Clear 12 1015 63 10000 3 360 21:55 16.04.2022
1959 Clear 12 1015 64 10000 2 360 21:23 16.04.2022
1960 Clear 12 1015 60 10000 3 10 19:33 16.04.2022
1961 Clear 12 1015 61 10000 2 10 18:45 16.04.2022
1962 Clear 13 1016 58 10000 3 30 17:21 16.04.2022
1963 Clear 13 1015 56 10000 2 50 16:31 16.04.2022
1964 Clear 14 1016 55 10000 3 50 15:23 16.04.2022
1965 Clear 14 1016 52 10000 3 40 14:43 16.04.2022
1966 Clear 15 1015 49 10000 3 50 13:55 16.04.2022
1967 Clear 15 1015 45 10000 4 60 13:24 16.04.2022
1968 Clear 15 1020 38 10000 4 40 11:58 16.04.2022
1969 Clear 16 1020 32 10000 4 20 10:35 16.04.2022
1970 Clear 17 1019 45 10000 4 20 09:38 16.04.2022
1971 Clear 17 1020 44 10000 5 40 08:54 16.04.2022
1972 Clear 17 1020 43 10000 4 10 07:31 16.04.2022
1973 Clear 16 1021 43 10000 6 40 06:18 16.04.2022
1974 Clear 13 1017 52 10000 3 30 01:53 16.04.2022
1975 Clear 12 1015 54 10000 3 40 23:53 15.04.2022
1976 Clear 12 1016 55 10000 4 20 22:51 15.04.2022
1977 Clear 12 1015 55 10000 3 30 22:31 15.04.2022
1978 Clear 12 1015 56 10000 4 30 21:34 15.04.2022
1979 Clear 13 1015 57 10000 5 30 20:44 15.04.2022
1980 Clear 13 1016 56 10000 4 20 19:49 15.04.2022
1981 Clear 13 1016 55 10000 4 20 19:30 15.04.2022
1982 Clear 13 1016 55 10000 4 20 18:45 15.04.2022
1983 Clear 13 1016 57 10000 4 20 18:23 15.04.2022
1984 Clear 13 1017 61 10000 5 10 17:28 15.04.2022
1985 Rain 14 1017 60 10000 7 20 16:25 15.04.2022
1986 Clear 14 1017 58 10000 6 360 15:52 15.04.2022
1987 Clear 14 1016 56 10000 6 10 14:20 15.04.2022
1988 Clear 15 1015 54 10000 6 10 12:53 15.04.2022
1989 Clear 15 1015 55 10000 7 20 12:26 15.04.2022
1990 Clear 16 1015 54 10000 7 10 11:52 15.04.2022
1991 Clear 16 1013 48 10000 7 10 10:48 15.04.2022
1992 Clear 16 1020 55 10000 8 20 10:21 15.04.2022
1993 Rain 17 1020 54 10000 8 10 09:23 15.04.2022
1994 Clear 17 1020 53 10000 8 10 08:49 15.04.2022
1995 Rain 18 1015 54 10000 8 20 06:51 15.04.2022
1996 Clouds 17 1013 59 10000 8 30 04:49 15.04.2022
1997 Clouds 12 1014 77 10000 5 10 00:51 15.04.2022
1998 Clouds 12 1014 74 10000 6 10 23:28 14.04.2022
1999 Rain 12 1013 73 10000 6 20 22:46 14.04.2022
2000 Clouds 13 1013 74 10000 6 350 22:27 14.04.2022
2001 Rain 13 1013 74 10000 5 360 21:50 14.04.2022
2002 Clouds 13 1012 78 10000 3 10 19:51 14.04.2022
2003 Clouds 13 1013 79 10000 3 10 19:22 14.04.2022
2004 Clouds 13 1014 83 10000 6 10 17:46 14.04.2022
2005 Clouds 13 1014 83 8000 6 10 16:51 14.04.2022
2006 Clouds 13 1014 82 10000 5 20 15:52 14.04.2022
2007 Clouds 13 1013 83 10000 6 30 13:54 14.04.2022
2008 Clouds 14 1012 82 8000 7 20 13:25 14.04.2022
2009 Mist 14 1012 83 2200 6 350 12:33 14.04.2022
2010 Clouds 14 1011 82 8000 5 340 11:47 14.04.2022
2011 Clouds 14 1011 83 8000 7 360 11:18 14.04.2022
2012 Clouds 15 1011 84 6000 6 350 10:31 14.04.2022
2013 Clouds 15 1010 83 8000 8 340 09:30 14.04.2022
2014 Clouds 15 1009 81 8000 7 340 08:24 14.04.2022
2015 Clouds 14 1009 84 8000 5 350 05:57 14.04.2022
2016 Mist 13 1007 80 4000 7 360 00:59 14.04.2022
2017 Rain 14 1005 81 8000 7 320 22:38 13.04.2022
2018 Clouds 14 1005 82 10000 9 340 21:43 13.04.2022
2019 Rain 15 1004 82 10000 7 330 20:41 13.04.2022
2020 Rain 15 1004 82 10000 7 350 19:49 13.04.2022
2021 Rain 15 1004 87 6000 8 350 18:37 13.04.2022
2022 Rain 15 1004 85 8000 9 20 17:25 13.04.2022
2023 Rain 14 1004 85 8000 10 20 16:53 13.04.2022
2024 Rain 14 1003 84 6000 10 20 15:47 13.04.2022
2025 Rain 14 1003 84 6000 10 30 15:27 13.04.2022
2026 Rain 13 1003 84 8000 10 20 14:40 13.04.2022
2027 Rain 13 1003 84 8000 5 20 13:43 13.04.2022
2028 Rain 13 1002 83 8000 8 30 12:52 13.04.2022
2029 Rain 14 1001 84 5000 8 30 11:47 13.04.2022
2030 Rain 14 1001 84 3000 8 20 10:31 13.04.2022
2031 Rain 15 1002 83 7000 8 30 08:45 13.04.2022
2032 Rain 15 1003 82 8000 7 40 07:57 13.04.2022
2033 Rain 15 1005 83 8000 6 10 06:48 13.04.2022
2034 Clouds 16 1005 81 10000 6 30 06:24 13.04.2022
2035 Mist 14 1005 83 4000 7 20 01:51 13.04.2022
2036 Mist 15 1004 80 5000 7 20 00:19 13.04.2022
2037 Clouds 16 1004 78 8000 6 40 22:33 12.04.2022
2038 Clouds 16 1004 77 8000 5 30 21:51 12.04.2022
2039 Clouds 16 1004 79 7000 7 20 20:48 12.04.2022
2040 Clouds 16 1004 80 7000 6 10 20:19 12.04.2022
2041 Clouds 16 1004 80 7000 7 10 19:40 12.04.2022
2042 Clouds 18 1004 81 7000 8 10 18:53 12.04.2022
2043 Clouds 20 1004 82 10000 6 10 17:38 12.04.2022
2044 Rain 21 1004 79 10000 6 30 16:38 12.04.2022
2045 Clear 23 1002 76 10000 6 360 15:34 12.04.2022
2046 Clear 26 1007 57 10000 4 150 14:41 12.04.2022
2047 Clear 26 1007 57 10000 4 150 13:45 12.04.2022
2048 Clear 27 1000 49 10000 5 150 13:23 12.04.2022
2049 Clear 30 1006 42 10000 5 140 11:49 12.04.2022
2050 Clear 29 1001 54 10000 6 150 11:28 12.04.2022
2051 Clear 31 1001 52 10000 5 180 09:47 12.04.2022
2052 Clear 33 1002 49 10000 4 160 08:32 12.04.2022
2053 Clear 32 1003 52 10000 3 210 06:46 12.04.2022
2054 Clear 30 1004 56 10000 3 200 05:38 12.04.2022
2055 Clear 21 1005 75 10000 3 160 01:48 12.04.2022
2056 Clear 20 1004 79 10000 3 150 23:20 11.04.2022
2057 Clear 20 1004 75 10000 4 160 21:51 11.04.2022
2058 Clear 20 1004 72 10000 3 150 21:18 11.04.2022
2059 Clear 21 1004 70 10000 3 150 20:30 11.04.2022
2060 Clear 21 1004 69 10000 3 150 19:58 11.04.2022
2061 Clear 21 1008 72 10000 3 150 19:25 11.04.2022
2062 Clear 21 1009 72 10000 3 150 18:52 11.04.2022
2063 Clear 22 1004 65 10000 3 150 17:57 11.04.2022
2064 Clear 22 1005 64 10000 3 140 17:30 11.04.2022
2065 Clear 23 1005 62 10000 4 150 16:25 11.04.2022
2066 Clear 25 1004 57 10000 3.13 146 14:40 11.04.2022
2067 Clear 27 1009 41 10000 3 140 13:19 11.04.2022
2068 Clear 29 1008 42 10000 5 140 12:36 11.04.2022
2069 Clear 31 1007 29 10000 3 180 11:42 11.04.2022
2070 Clear 31 1007 61 10000 2 160 10:34 11.04.2022
2071 Clear 32 1007 62 10000 2 0 09:30 11.04.2022
2072 Clear 32 1004 47 10000 3 270 07:19 11.04.2022
2073 Clear 22 1003 71 10000 3 190 02:32 11.04.2022
2074 Clear 18 1005 77 10000 2 150 22:54 10.04.2022
2075 Clear 18 1005 77 10000 3 150 22:26 10.04.2022
2076 Clear 18 1005 77 10000 3 150 21:35 10.04.2022
2077 Clear 18 1005 75 10000 3 150 20:33 10.04.2022
2078 Clear 18 1005 78 10000 3 150 19:45 10.04.2022
2079 Clear 19 1006 79 10000 3 150 19:23 10.04.2022
2080 Clear 19 1006 77 10000 3 150 18:45 10.04.2022
2081 Clear 19 1006 77 10000 3 150 17:55 10.04.2022
2082 Clear 19 1006 78 10000 4 150 17:35 10.04.2022
2083 Clear 20 1007 76 10000 4 150 16:25 10.04.2022
2084 Clear 20 1007 74 10000 5 150 15:30 10.04.2022
2085 Clear 20 1007 73 10000 6 150 14:25 10.04.2022
2086 Clear 22 1006 66 10000 4 140 12:35 10.04.2022
2087 Clear 24 1003 58 10000 6 160 11:49 10.04.2022
2088 Clear 24 1005 62 10000 6 150 11:29 10.04.2022
2089 Clear 25 1003 55 10000 6 150 10:54 10.04.2022
2090 Clear 25 1003 55 10000 6 150 10:54 10.04.2022
2091 Clear 25 1005 59 10000 5 160 09:56 10.04.2022
2092 Clear 26 1005 58 10000 6 170 09:28 10.04.2022
2093 Clear 26 1006 57 10000 6 180 08:22 10.04.2022
2094 Clear 27 1011 63 10000 5 160 07:27 10.04.2022
2095 Clear 25 1007 56 10000 4 160 05:46 10.04.2022
2096 Clear 19 1008 68 10000 5 160 02:21 10.04.2022
2097 Clear 17 1007 77 10000 4 150 00:25 10.04.2022
2098 Clear 17 1007 72 10000 4 150 23:43 09.04.2022
2099 Clear 17 1007 72 10000 4 140 22:45 09.04.2022
2100 Clear 17 1007 72 10000 4 150 21:34 09.04.2022
2101 Clear 17 1007 72 10000 4 150 20:48 09.04.2022
2102 Clear 17 1007 71 10000 4 150 20:23 09.04.2022
2103 Clear 17 1007 74 10000 5 150 19:41 09.04.2022
2104 Clear 17 1008 74 10000 5 150 18:54 09.04.2022
2105 Clear 17 1008 73 10000 5 150 18:18 09.04.2022
2106 Clear 18 1008 72 10000 5 150 17:34 09.04.2022
2107 Clear 18 1008 71 10000 5 150 16:47 09.04.2022
2108 Clear 18 1009 71 10000 6 150 15:53 09.04.2022
2109 Clear 19 1008 70 10000 7 150 15:28 09.04.2022
2110 Clear 19 1008 68 10000 6 150 14:27 09.04.2022
2111 Clear 20 1005 62 10000 7 150 13:47 09.04.2022
2112 Clear 22 1012 53 10000 6 140 12:59 09.04.2022
2113 Clear 24 1012 38 10000 6 160 11:56 09.04.2022
2114 Clear 27 1011 28 10000 6 140 10:55 09.04.2022
2115 Clear 27 1012 55 10000 5 170 10:19 09.04.2022
2116 Clear 28 1012 23 10000 4 180 09:36 09.04.2022
2117 Clear 27 1012 56 10000 5 150 08:45 09.04.2022
2118 Clear 25 1009 42 10000 5 200 05:35 09.04.2022
2119 Clear 15 1009 60 10000 3 150 00:36 09.04.2022
2120 Clear 15 1009 60 10000 3 150 00:36 09.04.2022
2121 Clear 15 1013 60 10000 3 150 23:25 08.04.2022
2122 Clear 16 1014 60 10000 3 150 21:57 08.04.2022
2123 Clear 16 1014 60 10000 3 160 20:47 08.04.2022
2124 Clear 17 1010 55 10000 4 140 19:57 08.04.2022
2125 Clear 17 1010 54 10000 4 150 18:59 08.04.2022
2126 Clear 17 1010 53 10000 4 150 18:25 08.04.2022
2127 Clear 17 1016 57 10000 4 150 17:38 08.04.2022
2128 Clear 18 1011 51 10000 4 150 17:19 08.04.2022
2129 Clear 18 1016 56 10000 4 150 16:32 08.04.2022
2130 Clear 19 1016 56 10000 5 150 15:38 08.04.2022
2131 Clear 20 1016 40 10000 6 150 14:52 08.04.2022
2132 Clear 20 1008 36 10000 6 150 14:21 08.04.2022
2133 Clear 21 1015 37 10000 6 150 13:36 08.04.2022
2134 Clear 21 1015 37 10000 6 150 13:18 08.04.2022
2135 Clear 25 1015 29 10000 6 150 11:43 08.04.2022
2136 Clear 26 1010 43 10000 7 140 10:26 08.04.2022
2137 Clear 26 1016 57 10000 6 160 09:20 08.04.2022
2138 Clear 27 1012 44 10000 6 180 07:58 08.04.2022
2139 Clear 27 1012 43 10000 7 160 06:46 08.04.2022
2140 Clear 23 1012 40 10000 3 170 03:35 08.04.2022
2141 Clear 15 1014 65 10000 2.68 140 00:31 08.04.2022
2142 Clear 15 1013 61 10000 2 150 23:53 07.04.2022
2143 Clear 15 1018 62 10000 2 150 22:55 07.04.2022
2144 Clear 15 1018 62 10000 2 150 22:36 07.04.2022
2145 Clear 16 1013 59 10000 2 150 22:18 07.04.2022
2146 Clear 16 1013 62 10000 2 150 21:30 07.04.2022
2147 Clear 16 1013 62 10000 3 130 20:56 07.04.2022
2148 Clear 16 1013 62 10000 3 140 20:26 07.04.2022
2149 Clear 17 1020 64 10000 1 0 17:45 07.04.2022
2150 Clear 17 1020 63 10000 1 0 17:23 07.04.2022
2151 Clear 18 1020 60 10000 1.79 114 16:42 07.04.2022
2152 Clear 19 1020 55 10000 2.68 119 15:56 07.04.2022
2153 Clear 21 1011 33 10000 3 140 13:59 07.04.2022
2154 Clear 22 1010 31 10000 4 150 13:26 07.04.2022
2155 Clear 23 1010 29 10000 5 170 12:28 07.04.2022
2156 Clear 27 1017 29 10000 2 180 10:56 07.04.2022
2157 Clear 27 1016 59 10000 2 230 09:28 07.04.2022
2158 Clear 26 1017 58 10000 2 80 07:38 07.04.2022
2159 Clear 26 1014 44 10000 2 190 05:32 07.04.2022
2160 Clear 18 1012 75 10000 1 0 02:38 07.04.2022
2161 Clear 14 1014 76 10000 1.79 188 00:47 07.04.2022
2162 Clear 14 1013 72 10000 2.24 157 23:39 06.04.2022
2163 Clear 15 1012 72 10000 2.24 171 22:45 06.04.2022
2164 Clear 15 1012 71 10000 2.24 172 22:21 06.04.2022
2165 Clear 15 1013 70 10000 1 160 20:53 06.04.2022
2166 Clear 15 1013 72 10000 1 200 20:26 06.04.2022
2167 Clear 15 1014 70 10000 2 150 19:48 06.04.2022
2168 Clear 15 1014 73 10000 2 150 18:48 06.04.2022
2169 Clear 15 1015 73 10000 2 160 17:38 06.04.2022
2170 Clear 15 1015 73 10000 2 160 17:20 06.04.2022
2171 Clear 16 1015 70 10000 2 160 16:34 06.04.2022
2172 Clear 16 1012 68 10000 3 140 15:45 06.04.2022
2173 Clear 18 1014 62 10000 3 140 13:53 06.04.2022
2174 Clear 19 1014 58 10000 6 130 12:37 06.04.2022
2175 Clear 20 1019 55 10000 7 150 11:44 06.04.2022
2176 Clear 23 1018 53 10000 2 0 10:37 06.04.2022
2177 Clear 23 1018 53 10000 2 0 10:18 06.04.2022
2178 Clear 24 1018 50 10000 3 0 09:25 06.04.2022
2179 Clear 25 1019 55 10000 3 30 08:18 06.04.2022
2180 Clear 23 1020 54 10000 2 30 06:40 06.04.2022
2181 Clear 14 1014 77 10000 1 10 01:44 06.04.2022
2182 Clear 12 1015 69 10000 1 350 23:50 05.04.2022
2183 Clear 12 1015 68 10000 1.79 149 21:59 05.04.2022
2184 Clear 12 1015 68 10000 1.79 148 21:18 05.04.2022
2185 Clear 12 1015 69 10000 1.79 142 20:24 05.04.2022
2186 Clear 13 1015 66 10000 1.34 174 18:45 05.04.2022
2187 Clear 13 1016 63 10000 2 170 17:22 05.04.2022
2188 Clear 13 1016 63 10000 2 160 16:44 05.04.2022
2189 Clear 13 1016 62 10000 1 0 15:52 05.04.2022
2190 Clear 13 1016 62 10000 1 180 15:31 05.04.2022
2191 Clear 14 1015 63 10000 3.13 155 13:55 05.04.2022
2192 Clear 15 1014 60 10000 3.58 155 12:41 05.04.2022
2193 Rain 16 1014 59 10000 1 0 11:43 05.04.2022
2194 Clear 16 1014 58 10000 1 0 11:25 05.04.2022
2195 Clear 16 1015 56 10000 4 190 09:41 05.04.2022
2196 Clear 17 1015 55 10000 4 190 08:51 05.04.2022
2197 Clear 14 1018 62 10000 3 160 04:25 05.04.2022
2198 Clear 12 1017 64 10000 3 140 23:48 04.04.2022
2199 Clear 12 1017 64 10000 4 150 22:41 04.04.2022
2200 Clear 11 1018 65 10000 4 160 21:51 04.04.2022
2201 Clear 11 1018 70 10000 3 150 21:20 04.04.2022
2202 Clear 11 1018 69 10000 5 160 20:48 04.04.2022
2203 Clear 11 1019 70 10000 4 140 19:38 04.04.2022
2204 Clear 11 1019 69 10000 4 140 18:46 04.04.2022
2205 Clear 12 1020 68 10000 4 140 17:33 04.04.2022
2206 Clear 12 1020 67 10000 5 130 16:36 04.04.2022
2207 Clear 12 1020 64 10000 5 130 15:34 04.04.2022
2208 Clear 12 1020 62 10000 5 140 14:49 04.04.2022
2209 Clear 12 1020 61 10000 6 140 14:31 04.04.2022
2210 Clear 13 1017 56 10000 5 130 13:18 04.04.2022
2211 Clear 17 1025 47 10000 5 140 11:29 04.04.2022
2212 Clear 17 1024 47 10000 4 140 10:49 04.04.2022
2213 Clear 18 1027 51 10000 3 140 07:36 04.04.2022
2214 Clear 13 1024 56 10000 4 120 03:18 04.04.2022
2215 Clear 9 1023 66 10000 1 0 23:48 03.04.2022
2216 Clear 9 1023 65 10000 2 160 22:31 03.04.2022
2217 Clear 9 1022 63 10000 2 110 21:32 03.04.2022
2218 Clear 10 1023 63 10000 2 90 20:36 03.04.2022
2219 Clear 10 1023 63 10000 2 110 19:45 03.04.2022
2220 Clear 10 1024 67 10000 3 110 18:29 03.04.2022
2221 Clear 10 1024 65 10000 4 110 17:44 03.04.2022
2222 Clear 10 1023 63 10000 3 100 16:50 03.04.2022
2223 Clear 10 1024 62 10000 3 100 16:21 03.04.2022
2224 Clear 11 1023 58 10000 4 110 14:28 03.04.2022
2225 Clear 12 1023 56 10000 4 120 13:44 03.04.2022
2226 Clear 13 1028 53 10000 4 90 12:19 03.04.2022
2227 Clear 16 1027 48 10000 3 70 10:32 03.04.2022
2228 Clear 17 1027 47 10000 4 30 09:23 03.04.2022
2229 Clear 16 1028 47 10000 2 0 07:24 03.04.2022
2230 Clear 13 1024 46 10000 1 0 03:37 03.04.2022
2231 Clear 8 1023 65 10000 1 350 00:36 03.04.2022
2232 Clear 8 1023 61 10000 2 10 22:54 02.04.2022
2233 Clear 8 1023 59 10000 2 10 21:57 02.04.2022
2234 Clear 8 1023 60 10000 2 20 21:28 02.04.2022
2235 Clear 9 1023 59 10000 2 10 20:41 02.04.2022
2236 Clear 9 1023 55 10000 1 80 18:57 02.04.2022
2237 Clear 9 1023 55 10000 1 100 18:20 02.04.2022
2238 Clear 9 1023 55 10000 1 100 18:20 02.04.2022
2239 Clear 9 1024 54 10000 1 90 17:46 02.04.2022
2240 Clear 10 1024 56 10000 3 110 15:59 02.04.2022
2241 Clear 10 1023 55 10000 4 110 15:21 02.04.2022
2242 Clear 11 1023 55 10000 4 110 14:42 02.04.2022
2243 Clear 12 1023 51 10000 3 110 13:34 02.04.2022
2244 Clear 13 1027 49 10000 4 30 12:34 02.04.2022
2245 Clear 15 1027 45 10000 3 340 10:50 02.04.2022
2246 Clear 15 1028 44 10000 2 0 08:44 02.04.2022
2247 Clear 14 1029 46 10000 2 0 06:43 02.04.2022
2248 Clear 12 1025 44 10000 4 10 03:31 02.04.2022
2249 Clear 7 1024 66 10000 2 360 23:55 01.04.2022
2250 Clear 7 1023 68 10000 2 10 22:55 01.04.2022
2251 Clear 8 1023 68 10000 2.24 350 21:31 01.04.2022
2252 Clear 8 1024 70 10000 3 360 20:50 01.04.2022
2253 Clear 8 1024 69 10000 3 10 19:51 01.04.2022
2254 Clear 8 1024 69 10000 4 360 19:27 01.04.2022
2255 Clear 8 1025 69 10000 4 10 18:42 01.04.2022
2256 Clear 9 1026 67 10000 4 360 17:45 01.04.2022
2257 Clear 9 1026 64 10000 5 30 16:34 01.04.2022
2258 Clear 10 1026 62 10000 3 50 15:19 01.04.2022
2259 Clear 10 1025 59 10000 4 40 14:18 01.04.2022
2260 Clear 11 1025 56 10000 5 40 13:32 01.04.2022
2261 Clear 12 1025 53 10000 5 20 12:32 01.04.2022
2262 Clear 13 1024 51 10000 6 30 11:18 01.04.2022
2263 Clear 13 1029 50 10000 5 360 09:53 01.04.2022
2264 Clear 13 1030 49 10000 6 360 07:50 01.04.2022
2265 Clear 12 1031 52 10000 5 360 06:30 01.04.2022
2266 Clear 13 1026 51 10000 5 20 04:45 01.04.2022
2267 Clear 12 1027 53 10000 7 10 03:21 01.04.2022
2268 Clear 10 1026 58 10000 6 360 01:53 01.04.2022
2269 Clear 8 1024 58 10000 5 360 22:56 31.03.2022
2270 Clear 8 1024 53 10000 4 360 21:49 31.03.2022
2271 Clear 9 1024 53 10000 5 10 21:21 31.03.2022
2272 Clear 9 1024 53 10000 5 10 20:28 31.03.2022
2273 Clear 9 1024 53 10000 5 10 19:44 31.03.2022
2274 Clear 9 1025 55 10000 6 10 18:35 31.03.2022
2275 Clear 9 1025 65 10000 7 360 17:25 31.03.2022
2276 Clouds 10 1025 70 10000 6 10 15:58 31.03.2022
2277 Clouds 10 1025 71 10000 5 360 15:29 31.03.2022
2278 Rain 10 1025 74 10000 5 360 14:49 31.03.2022
2279 Clouds 10 1023 76 10000 4 10 13:53 31.03.2022
2280 Rain 12 1022 66 10000 5 360 11:31 31.03.2022
2281 Rain 12 1021 64 10000 9 10 10:27 31.03.2022
2282 Rain 13 1021 63 10000 7 10 09:40 31.03.2022
2283 Clouds 13 1022 62 10000 8 10 07:49 31.03.2022
2284 Clouds 13 1021 67 10000 8 30 03:30 31.03.2022
2285 Rain 12 1018 72 10000 5 30 23:25 30.03.2022
2286 Rain 13 1017 72 10000 7 10 21:57 30.03.2022
2287 Clouds 13 1016 72 10000 6 10 21:31 30.03.2022
2288 Rain 13 1016 71 10000 6 10 20:44 30.03.2022
2289 Rain 14 1016 69 10000 5 20 19:48 30.03.2022
2290 Rain 14 1017 69 10000 4 10 18:41 30.03.2022
2291 Rain 14 1017 69 10000 5 10 17:51 30.03.2022
2292 Rain 15 1017 67 10000 4 20 17:20 30.03.2022
2293 Rain 15 1016 66 10000 6 30 16:40 30.03.2022
2294 Clear 16 1015 65 10000 5 20 15:55 30.03.2022
2295 Rain 17 1013 60 10000 5 40 14:35 30.03.2022
2296 Rain 17 1014 65 10000 5 40 13:21 30.03.2022
2297 Clear 18 1011 66 10000 8 30 12:19 30.03.2022
2298 Clear 23 1017 49 10000 5 350 10:48 30.03.2022
2299 Clear 24 1011 58 10000 3 320 09:43 30.03.2022
2300 Clouds 24 1016 64 10000 3 320 08:20 30.03.2022
2301 Clear 24 1012 58 10000 3 270 06:32 30.03.2022
2302 Clear 22 1012 61 10000 2 240 05:38 30.03.2022
2303 Clear 15 1013 78 10000 3 190 01:48 30.03.2022
2304 Clear 14 1011 77 10000 3 170 22:39 29.03.2022
2305 Clear 14 1011 76 10000 4 170 21:48 29.03.2022
2306 Clear 14 1012 76 10000 4 170 21:20 29.03.2022
2307 Clear 14 1012 78 10000 5 160 20:25 29.03.2022
2308 Clear 14 1012 77 10000 6 150 19:27 29.03.2022
2309 Clear 14 1013 77 10000 5 150 18:53 29.03.2022
2310 Clear 14 1013 75 10000 5 150 17:40 29.03.2022
2311 Clear 14 1014 74 10000 5 150 16:59 29.03.2022
2312 Clear 14 1014 72 10000 5 150 16:25 29.03.2022
2313 Clear 14 1014 69 10000 6 140 14:58 29.03.2022
2314 Clear 14 1014 66 10000 5 130 14:39 29.03.2022
2315 Clear 14 1011 60 10000 5 140 13:30 29.03.2022
2316 Clear 17 1018 55 10000 5 140 11:46 29.03.2022
2317 Clear 18 1018 50 10000 6 150 10:59 29.03.2022
2318 Clear 19 1019 51 10000 5 150 09:50 29.03.2022
2319 Clear 19 1014 40 10000 4 150 08:20 29.03.2022
2320 Clear 17 1016 47 10000 5 140 05:38 29.03.2022
2321 Clear 9 1018 64 10000 4 130 01:25 29.03.2022
2322 Clear 9 1018 58 10000 3 120 23:25 28.03.2022
2323 Clear 9 1018 58 10000 2 110 22:54 28.03.2022
2324 Clear 9 1018 58 10000 2 100 22:28 28.03.2022
2325 Clear 9 1018 57 10000 3 140 20:59 28.03.2022
2326 Clear 9 1018 57 10000 2 130 20:31 28.03.2022
2327 Clear 9 1019 62 10000 2.24 115 19:46 28.03.2022
2328 Clear 9 1019 62 10000 3 130 19:27 28.03.2022
2329 Clear 9 1020 60 10000 2 120 18:40 28.03.2022
2330 Clear 9 1020 59 10000 4 110 17:39 28.03.2022
2331 Clear 10 1020 58 10000 3 100 16:33 28.03.2022
2332 Clear 11 1020 57 10000 4 110 14:48 28.03.2022
2333 Clear 11 1020 57 10000 5 110 14:21 28.03.2022
2334 Clear 12 1024 57 10000 4 110 12:24 28.03.2022
2335 Clear 13 1024 53 10000 2 120 11:31 28.03.2022
2336 Clear 14 1023 52 10000 2 110 09:43 28.03.2022
2337 Clear 14 1023 52 10000 2 110 09:19 28.03.2022
2338 Clear 14 1024 53 10000 3 180 08:22 28.03.2022
2339 Rain 13 1024 50 10000 3 110 07:28 28.03.2022
2340 Clouds 12 1021 52 10000 4 70 03:44 28.03.2022
2341 Rain 10 1019 59 10000 4 60 23:30 27.03.2022
2342 Clouds 10 1019 62 10000 4 70 22:24 27.03.2022
2343 Clouds 10 1019 62 10000 4 70 22:24 27.03.2022
2344 Clouds 10 1018 63 10000 5 60 21:41 27.03.2022
2345 Clouds 10 1018 62 10000 5 70 20:54 27.03.2022
2346 Clouds 10 1018 62 10000 5 70 20:54 27.03.2022
2347 Clouds 11 1018 62 10000 4 60 19:48 27.03.2022
2348 Clouds 11 1018 62 10000 5 60 19:20 27.03.2022
2349 Clouds 10 1019 67 10000 5 60 18:27 27.03.2022
2350 Clouds 10 1019 67 10000 5 60 18:27 27.03.2022
2351 Clouds 10 1019 67 10000 5 60 18:27 27.03.2022
2352 Clear 10 1019 68 10000 5 50 17:38 27.03.2022
2353 Rain 11 1019 68 10000 6 40 16:21 27.03.2022
2354 Clear 11 1018 67 10000 4 50 15:18 27.03.2022
2355 Clear 12 1017 63 10000 6 20 13:55 27.03.2022
2356 Rain 14 1013 59 10000 6 30 12:20 27.03.2022
2357 Clear 17 1020 42 10000 4 10 10:47 27.03.2022
2358 Clear 19 1014 39 10000 6 20 08:37 27.03.2022
2359 Clear 18 1015 40 10000 3 340 05:45 27.03.2022
2360 Clear 13 1014 59 10000 2 200 00:47 27.03.2022
2361 Clear 13 1013 55 10000 1 330 23:34 26.03.2022
2362 Clear 12 1018 52 10000 2 290 22:35 26.03.2022
2363 Clear 12 1017 56 10000 1 20 21:33 26.03.2022
2364 Clear 13 1012 50 10000 2 20 20:20 26.03.2022
2365 Clear 13 1013 49 10000 1 30 18:59 26.03.2022
2366 Clear 13 1012 49 10000 1.79 340 17:47 26.03.2022
2367 Clear 13 1013 47 10000 1.79 340 17:28 26.03.2022
2368 Clear 13 1014 48 10000 1 0 16:24 26.03.2022
2369 Clear 13 1013 48 10000 2 20 14:50 26.03.2022
2370 Clear 14 1013 46 10000 3.58 354 13:52 26.03.2022
2371 Clear 14 1017 46 10000 5 20 12:44 26.03.2022
2372 Clear 15 1017 53 10000 5 350 11:28 26.03.2022
2373 Clouds 16 1010 53 10000 7 330 09:23 26.03.2022
2374 Clouds 17 1010 59 10000 6 330 08:28 26.03.2022
2375 Clouds 16 1015 60 10000 7 330 05:54 26.03.2022
2376 Clouds 15 1015 64 10000 7 310 03:58 26.03.2022
2377 Clouds 13 1006 71 10000 4 310 23:21 25.03.2022
2378 Clouds 14 1004 73 10000 6 300 20:59 25.03.2022
2379 Clouds 14 1003 74 10000 6 300 20:38 25.03.2022
2380 Clouds 15 1003 73 10000 9 320 19:27 25.03.2022
2381 Clouds 15 1002 76 10000 6 290 18:37 25.03.2022
2382 Clouds 16 1002 77 10000 5 290 17:35 25.03.2022
2383 Clouds 16 1002 79 10000 6 300 16:41 25.03.2022
2384 Clouds 17 1001 81 10000 4.47 283 15:50 25.03.2022
2385 Mist 18 999 88 3000 3.58 255 13:40 25.03.2022
2386 Clouds 18 998 87 10000 1 160 11:49 25.03.2022
2387 Clouds 18 998 84 10000 5 190 09:47 25.03.2022
2388 Clouds 18 997 84 10000 6 180 09:19 25.03.2022
2389 Rain 18 998 85 10000 8 170 07:48 25.03.2022
2390 Clouds 18 998 86 10000 8 170 07:21 25.03.2022
2391 Clouds 17 1002 85 4000 9 170 03:58 25.03.2022
2392 Rain 16 1004 81 8000 8 150 23:55 24.03.2022
2393 Rain 15 1005 79 10000 6 160 22:24 24.03.2022
2394 Rain 15 1005 78 10000 9 160 21:29 24.03.2022
2395 Rain 15 1007 78 10000 8 160 19:50 24.03.2022
2396 Clear 14 1007 74 10000 7 150 18:45 24.03.2022
2397 Clear 14 1007 71 10000 7 160 17:38 24.03.2022
2398 Clear 14 1008 68 10000 9 150 16:39 24.03.2022
2399 Clear 14 1009 70 10000 10 150 14:53 24.03.2022
2400 Clear 14 1009 70 10000 9 150 14:32 24.03.2022
2401 Clear 14 1009 70 10000 7 140 13:36 24.03.2022
2402 Clear 14 1009 68 10000 8 150 12:35 24.03.2022
2403 Clear 14 1009 64 10000 7 140 11:31 24.03.2022
2404 Clear 17 1014 57 10000 7 160 09:34 24.03.2022
2405 Clear 17 1015 55 10000 9 150 08:38 24.03.2022
2406 Clear 17 1012 48 10000 7 160 05:44 24.03.2022
2407 Clear 9 1013 66 10000 4 150 00:47 24.03.2022
2408 Clear 8 1013 63 10000 2.24 128 22:21 23.03.2022
2409 Clear 8 1012 62 10000 2.24 138 21:24 23.03.2022
2410 Clear 8 1013 59 10000 2.24 155 20:36 23.03.2022
2411 Clear 8 1013 58 10000 2.24 164 19:33 23.03.2022
2412 Clear 8 1013 57 10000 2 150 18:18 23.03.2022
2413 Clear 8 1014 55 10000 2 150 17:25 23.03.2022
2414 Clear 9 1015 56 10000 4 150 15:43 23.03.2022
2415 Clear 9 1015 56 10000 3 160 14:47 23.03.2022
2416 Clear 10 1015 57 10000 4 150 13:31 23.03.2022
2417 Clear 12 1019 54 10000 2 50 11:24 23.03.2022
2418 Clear 13 1019 46 10000 2 40 08:41 23.03.2022
2419 Clear 13 1020 50 10000 2 350 05:50 23.03.2022
2420 Clear 13 1020 49 10000 2 350 05:50 23.03.2022
2421 Clouds 11 1016 53 10000 2 340 02:50 23.03.2022
2422 Clear 8 1021 64 10000 2 300 00:26 23.03.2022
2423 Clouds 8 1015 62 10000 1 10 21:52 22.03.2022
2424 Clouds 8 1015 63 10000 2 350 21:23 22.03.2022
2425 Clouds 8 1016 60 10000 3 10 20:23 22.03.2022
2426 Clouds 8 1016 60 10000 4 10 19:27 22.03.2022
2427 Clouds 8 1017 58 10000 5 360 18:48 22.03.2022
2428 Clouds 8 1017 60 10000 4.02 11 17:44 22.03.2022
2429 Clouds 8 1023 54 10000 4.02 1 16:58 22.03.2022
2430 Clouds 9 1017 61 10000 3 20 15:42 22.03.2022
2431 Clouds 9 1017 65 10000 3 20 15:20 22.03.2022
2432 Clouds 9 1018 65 10000 3 40 14:44 22.03.2022
2433 Clouds 9 1018 64 10000 3 30 13:42 22.03.2022
2434 Clouds 9 1017 64 10000 2 70 12:18 22.03.2022
2435 Clouds 10 1017 61 10000 3 40 11:20 22.03.2022
2436 Rain 10 1017 60 10000 5 60 09:28 22.03.2022
2437 Rain 10 1018 59 10000 4 50 07:30 22.03.2022
2438 Clouds 10 1019 62 10000 5 50 03:57 22.03.2022
2439 Rain 8 1018 74 10000 7 20 00:50 22.03.2022
2440 Rain 8 1017 75 10000 5 20 22:48 21.03.2022
2441 Rain 8 1016 75 10000 4 30 21:30 21.03.2022
2442 Rain 8 1016 77 10000 5 30 20:44 21.03.2022
2443 Rain 8 1016 77 10000 5 30 20:23 21.03.2022
2444 Rain 8 1016 76 10000 6 30 19:45 21.03.2022
2445 Clouds 8 1016 73 10000 5 40 18:47 21.03.2022
2446 Clouds 8 1016 75 10000 4 40 17:36 21.03.2022
2447 Clouds 8 1016 75 10000 4 60 16:59 21.03.2022
2448 Rain 8 1016 76 10000 7 50 16:27 21.03.2022
2449 Rain 8 1016 76 10000 6 40 15:43 21.03.2022
2450 Rain 8 1015 76 10000 6 50 14:36 21.03.2022
2451 Rain 8 1014 75 10000 8 60 13:20 21.03.2022
2452 Rain 8 1013 82 10000 6 30 11:58 21.03.2022
2453 Rain 8 1012 81 7000 6 30 11:20 21.03.2022
2454 Rain 8 1012 81 7000 6 50 09:49 21.03.2022
2455 Rain 8 1012 80 8000 6 70 07:33 21.03.2022
2456 Rain 8 1014 79 5000 4 60 05:56 21.03.2022
2457 Clouds 8 1016 79 8000 3 70 01:39 21.03.2022
2458 Clouds 8 1015 76 10000 4 80 22:57 20.03.2022
2459 Clouds 8 1015 75 10000 3 80 22:23 20.03.2022
2460 Rain 8 1015 75 10000 4 70 21:37 20.03.2022
2461 Rain 8 1014 78 10000 4 80 20:54 20.03.2022
2462 Rain 8 1015 78 10000 3 80 20:27 20.03.2022
2463 Rain 8 1015 78 10000 3 70 19:48 20.03.2022
2464 Rain 8 1016 78 10000 2 70 19:19 20.03.2022
2465 Rain 8 1016 78 10000 4 70 17:43 20.03.2022
2466 Rain 8 1016 78 10000 4 70 17:24 20.03.2022
2467 Rain 8 1016 78 10000 2 30 15:58 20.03.2022
2468 Clouds 8 1016 75 10000 4 60 14:38 20.03.2022
2469 Clouds 8 1015 80 10000 3 60 13:38 20.03.2022
2470 Clouds 7 1015 81 10000 2 30 11:58 20.03.2022
2471 Rain 7 1013 78 6000 5 60 09:59 20.03.2022
2472 Rain 7 1013 78 6000 3 50 08:19 20.03.2022
2473 Rain 8 1014 76 10000 3 70 05:49 20.03.2022
2474 Clouds 8 1015 67 10000 5 100 03:18 20.03.2022
2475 Clouds 8 1015 68 10000 6 40 00:53 20.03.2022
2476 Clouds 8 1014 62 10000 3 60 23:37 19.03.2022
2477 Clouds 8 1012 62 10000 3 90 21:58 19.03.2022
2478 Clouds 8 1012 61 10000 3 40 21:25 19.03.2022
2479 Clear 8 1014 58 10000 3 90 19:22 19.03.2022
2480 Clear 8 1014 58 10000 2 90 18:30 19.03.2022
2481 Clear 8 1014 58 10000 2 80 17:45 19.03.2022
2482 Clear 8 1015 59 10000 3 60 16:45 19.03.2022
2483 Clouds 7 1015 63 10000 6 40 15:22 19.03.2022
2484 Clouds 8 1014 63 10000 5 40 13:40 19.03.2022
2485 Clouds 8 1012 64 10000 4 50 12:42 19.03.2022
2486 Clouds 8 1012 64 10000 4 50 12:19 19.03.2022
2487 Clouds 8 1011 65 10000 5 30 11:42 19.03.2022
2488 Clouds 9 1011 66 8000 5 30 08:57 19.03.2022
2489 Clouds 12 1010 68 6000 8 20 04:24 19.03.2022
2490 Clouds 13 1009 68 7000 5 340 02:32 19.03.2022
2491 Clouds 11 1007 74 6000 2 250 23:50 18.03.2022
2492 Clouds 11 1007 70 10000 2 270 22:43 18.03.2022
2493 Clouds 11 1007 70 10000 2 270 22:20 18.03.2022
2494 Clouds 11 1006 70 10000 2 210 20:25 18.03.2022
2495 Clouds 11 1005 70 10000 1 0 19:23 18.03.2022
2496 Clouds 11 1005 68 10000 2 220 18:34 18.03.2022
2497 Clouds 11 1006 68 10000 2 210 16:52 18.03.2022
2498 Clouds 10 1006 68 10000 1 190 15:52 18.03.2022
2499 Clouds 10 1007 72 10000 1 210 14:25 18.03.2022
2500 Clouds 10 1006 71 10000 2 300 12:39 18.03.2022
2501 Clouds 10 1007 70 10000 3 300 11:28 18.03.2022
2502 Clouds 10 1006 69 10000 3 320 09:41 18.03.2022
2503 Rain 10 1006 69 10000 3 340 08:45 18.03.2022
2504 Clouds 10 1008 69 10000 3 320 06:42 18.03.2022
2505 Clouds 8 1010 74 10000 5 340 04:38 18.03.2022
2506 Clouds 7 1009 80 6000 6 320 00:54 18.03.2022
2507 Mist 8 1008 75 4000 6 320 23:52 17.03.2022
2508 Clouds 8 1007 74 10000 8 330 22:26 17.03.2022
2509 Clouds 8 1007 74 10000 7 330 21:51 17.03.2022
2510 Clouds 8 1006 75 7000 7 320 21:27 17.03.2022
2511 Clouds 8 1006 77 7000 6 320 20:52 17.03.2022
2512 Clouds 9 1006 78 6000 7 320 19:55 17.03.2022
2513 Rain 9 1006 76 6000 8 320 19:33 17.03.2022
2514 Rain 10 1006 78 7000 8 320 18:51 17.03.2022
2515 Clouds 10 1006 76 10000 6 320 17:26 17.03.2022
2516 Clouds 10 1005 74 10000 9 330 15:52 17.03.2022
2517 Clouds 10 1005 79 10000 8 320 15:33 17.03.2022
2518 Clouds 11 1005 80 7000 8 320 14:48 17.03.2022
2519 Clouds 11 1003 80 10000 9 330 12:59 17.03.2022
2520 Rain 12 1002 82 10000 7 320 12:37 17.03.2022
2521 Rain 12 1001 81 10000 7 330 11:30 17.03.2022
2522 Clouds 12 998 94 10000 8 360 10:34 17.03.2022
2523 Clouds 17 1005 98 8000 2 10 08:41 17.03.2022
2524 Rain 17 1004 85 10000 2 10 07:52 17.03.2022
2525 Rain 17 1001 85 10000 5 130 05:48 17.03.2022
2526 Rain 16 1004 85 8000 2 100 03:41 17.03.2022
2527 Rain 17 1004 83 6000 5 110 23:57 16.03.2022
2528 Rain 18 1004 82 10000 4 100 22:51 16.03.2022
2529 Rain 18 1004 81 10000 6 100 22:33 16.03.2022
2530 Clouds 19 1004 82 10000 6 120 21:46 16.03.2022
2531 Clouds 19 1004 82 10000 5 130 20:26 16.03.2022
2532 Clouds 19 1005 80 10000 4 120 19:21 16.03.2022
2533 Clouds 19 1005 82 10000 4 130 18:38 16.03.2022
2534 Clear 19 1005 83 10000 6 140 17:43 16.03.2022
2535 Clear 19 1005 82 10000 6 140 17:20 16.03.2022
2536 Clouds 19 1006 80 10000 6 140 15:56 16.03.2022
2537 Clear 20 1006 77 10000 6 140 14:28 16.03.2022
2538 Rain 21 1003 73 10000 4 140 13:32 16.03.2022
2539 Clear 23 1010 56 10000 4 150 11:57 16.03.2022
2540 Clear 23 1002 55 10000 3 150 11:21 16.03.2022
2541 Clear 25 1002 50 10000 6 160 10:23 16.03.2022
2542 Clear 28 1002 42 10000 5 130 08:53 16.03.2022
2543 Clear 26 1010 66 10000 4 160 06:27 16.03.2022
2544 Clear 19 1005 72 10000 3 160 01:45 16.03.2022
2545 Clear 14 1011 65 10000 2 150 22:41 15.03.2022
2546 Clear 14 1011 68 10000 1 160 21:55 15.03.2022
2547 Clear 14 1011 65 10000 2 150 20:28 15.03.2022
2548 Clear 15 1006 68 10000 3 150 18:58 15.03.2022
2549 Clear 15 1007 68 10000 2 130 16:59 15.03.2022
2550 Clear 15 1007 68 10000 2 150 16:32 15.03.2022
2551 Clear 15 1007 66 10000 3 150 15:21 15.03.2022
2552 Clear 16 1007 65 10000 4 160 14:40 15.03.2022
2553 Clear 16 1007 62 10000 4 150 13:38 15.03.2022
2554 Clear 18 1007 58 10000 4 150 12:24 15.03.2022
2555 Clear 18 1012 55 10000 3 180 11:31 15.03.2022
2556 Clear 21 1011 30 10000 5 150 09:45 15.03.2022
2557 Clear 21 1007 45 10000 4 160 08:42 15.03.2022
2558 Clear 21 1007 49 10000 3 200 07:50 15.03.2022
2559 Clear 22 1007 45 10000 4 170 07:28 15.03.2022
2560 Clear 17 1011 53 10000 3 100 03:30 15.03.2022
2561 Clear 11 1011 74 10000 4 130 23:40 14.03.2022
2562 Clear 11 1011 70 10000 4 130 23:21 14.03.2022
2563 Clear 11 1010 67 10000 4 140 22:26 14.03.2022
2564 Clear 11 1010 66 10000 3 70 21:26 14.03.2022
2565 Clear 12 1011 70 10000 4 30 20:35 14.03.2022
2566 Clear 12 1011 66 10000 4 20 19:59 14.03.2022
2567 Clear 13 1012 63 10000 6 10 18:37 14.03.2022
2568 Clear 13 1012 59 10000 4 20 17:44 14.03.2022
2569 Clear 14 1012 62 10000 3 30 16:57 14.03.2022
2570 Rain 14 1009 61 10000 3 60 15:37 14.03.2022
2571 Rain 14 1009 58 10000 5 10 14:38 14.03.2022
2572 Rain 16 1009 63 8000 6 30 12:21 14.03.2022
2573 Clouds 17 1009 67 8000 9 30 10:50 14.03.2022
2574 Clouds 19 1008 67 8000 8 20 09:41 14.03.2022
2575 Clouds 19 1008 66 8000 8 20 09:20 14.03.2022
2576 Clouds 20 1008 69 7000 10 10 08:55 14.03.2022
2577 Haze 22 1007 70 4000 9 20 07:21 14.03.2022
2578 Clear 28 1011 82 10000 4 260 05:22 14.03.2022
2579 Clear 20 1007 75 10000 1.34 155 01:52 14.03.2022
2580 Clear 17 1006 81 8000 3 160 00:40 14.03.2022
2581 Clear 16 1011 72 10000 1 120 21:56 13.03.2022
2582 Clear 16 1011 72 10000 2 90 21:28 13.03.2022
2583 Clear 16 1010 72 10000 2 70 20:53 13.03.2022
2584 Clear 16 1011 72 10000 1 100 20:29 13.03.2022
2585 Clear 16 1011 73 10000 1 0 19:48 13.03.2022
2586 Clear 17 1006 76 10000 1 0 19:25 13.03.2022
2587 Clear 17 1007 76 10000 2 100 18:50 13.03.2022
2588 Clear 16 1011 72 10000 2 140 18:27 13.03.2022
2589 Clear 18 1012 82 10000 2 100 17:40 13.03.2022
2590 Clouds 17 1007 79 8000 4 100 16:48 13.03.2022
2591 Clouds 17 1005 88 8000 3 110 16:27 13.03.2022
2592 Clear 17 1013 87 10000 3 110 15:44 13.03.2022
2593 Clear 18 1013 84 10000 3 80 14:49 13.03.2022
2594 Clear 20 1013 77 10000 4 80 13:30 13.03.2022
2595 Clear 23 1011 68 10000 6 50 12:26 13.03.2022
2596 Clear 24 1011 60 10000 4 50 11:45 13.03.2022
2597 Clear 26 1010 53 10000 4 30 10:51 13.03.2022
2598 Clear 27 1010 47 10000 3 340 10:30 13.03.2022
2599 Clear 28 1009 44 10000 4 300 09:43 13.03.2022
2600 Clear 28 1009 44 10000 4 310 08:50 13.03.2022
2601 Clear 28 1009 44 10000 4 270 08:31 13.03.2022
2602 Clear 26 1008 67 10000 3 260 07:34 13.03.2022
2603 Clear 22 1010 69 10000 3 170 04:59 13.03.2022
2604 Clear 20 1012 68 10000 6 350 01:48 13.03.2022
2605 Clear 18 1009 67 10000 4 180 23:28 12.03.2022
2606 Clear 18 1008 67 10000 4.92 188 21:39 12.03.2022
2607 Clear 19 1003 69 10000 5 170 20:20 12.03.2022
2608 Clear 19 1003 69 10000 6 170 19:46 12.03.2022
2609 Clear 19 1004 71 10000 5 160 18:41 12.03.2022
2610 Clear 19 1005 72 10000 6 160 17:53 12.03.2022
2611 Clear 18 1006 76 10000 6 160 16:28 12.03.2022
2612 Clear 18 1006 76 10000 6 160 16:28 12.03.2022
2613 Clear 18 1006 76 10000 4 150 15:50 12.03.2022
2614 Clear 19 1006 76 10000 5 150 15:21 12.03.2022
2615 Clear 19 1006 76 10000 6 150 13:53 12.03.2022
2616 Clear 20 1006 74 10000 8 140 12:27 12.03.2022
2617 Clear 21 1005 71 10000 5 140 11:52 12.03.2022
2618 Clear 21 1002 69 10000 6 150 11:32 12.03.2022
2619 Clear 23 1005 64 10000 7 140 10:24 12.03.2022
2620 Clear 24 1005 62 10000 6 150 09:41 12.03.2022
2621 Clear 25 1006 59 10000 7 160 07:52 12.03.2022
2622 Clear 24 1012 63 10000 5 180 06:30 12.03.2022
2623 Clear 14 1010 85 6000 2 140 00:31 12.03.2022
2624 Clear 15 1009 81 8000 2 130 23:38 11.03.2022
2625 Clear 15 1009 81 10000 2.24 135 22:29 11.03.2022
2626 Clear 16 1009 79 10000 1 0 21:23 11.03.2022
2627 Clear 16 1009 77 10000 2 140 20:42 11.03.2022
2628 Clear 16 1009 77 10000 2 140 20:22 11.03.2022
2629 Clear 16 1010 75 10000 2.24 124 19:29 11.03.2022
2630 Clear 17 1010 72 10000 1.79 100 17:50 11.03.2022
2631 Clear 17 1010 69 10000 1.79 102 17:21 11.03.2022
2632 Clear 18 1011 66 10000 2 140 15:57 11.03.2022
2633 Clear 18 1011 70 10000 2 150 15:29 11.03.2022
2634 Clear 19 1010 68 10000 4 100 13:27 11.03.2022
2635 Clear 20 1007 64 10000 4 100 12:23 11.03.2022
2636 Clear 20 1007 61 10000 4 110 11:56 11.03.2022
2637 Clear 25 1014 38 10000 4 70 10:24 11.03.2022
2638 Clear 26 1014 36 10000 5 50 09:27 11.03.2022
2639 Clear 25 1013 59 10000 2 0 08:24 11.03.2022
2640 Clear 25 1013 59 10000 2 50 07:46 11.03.2022
2641 Clear 23 1014 59 10000 1 0 05:49 11.03.2022
2642 Clear 21 1015 60 10000 2 0 04:22 11.03.2022
2643 Clear 14 1013 70 10000 2 160 23:49 10.03.2022
2644 Clear 14 1013 70 10000 2.24 190 22:31 10.03.2022
2645 Clear 13 1013 69 10000 1 160 21:48 10.03.2022
2646 Clear 14 1013 70 10000 1 160 21:20 10.03.2022
2647 Clear 14 1013 70 10000 2.24 174 19:48 10.03.2022
2648 Clear 14 1013 70 10000 2.24 175 18:55 10.03.2022
2649 Clear 15 1013 69 10000 3 150 17:36 10.03.2022
2650 Clear 15 1015 69 10000 2.24 153 15:55 10.03.2022
2651 Clear 16 1015 71 10000 2 170 14:48 10.03.2022
2652 Clear 17 1009 71 10000 4 140 13:21 10.03.2022
2653 Clear 18 1006 67 10000 4 140 11:58 10.03.2022
2654 Clear 20 1014 52 10000 4 140 10:53 10.03.2022
2655 Clear 21 1008 58 10000 5 180 09:21 10.03.2022
2656 Clear 21 1006 48 10000 5 170 07:38 10.03.2022
2657 Clear 20 1009 55 10000 6 170 04:36 10.03.2022
2658 Clear 14 1010 72 10000 6 160 01:46 10.03.2022
2659 Clear 12 1010 72 10000 5 150 23:18 09.03.2022
2660 Clear 12 1009 70 10000 6 150 21:49 09.03.2022
2661 Clear 12 1009 69 10000 5 150 21:27 09.03.2022
2662 Clear 12 1009 65 10000 5 150 19:43 09.03.2022
2663 Clear 12 1010 64 10000 6 140 18:29 09.03.2022
2664 Clear 13 1010 63 10000 5 140 17:26 09.03.2022
2665 Clear 13 1010 63 10000 5 140 17:26 09.03.2022
2666 Clear 13 1010 63 10000 5 140 17:26 09.03.2022
2667 Clear 13 1011 65 10000 7 140 16:30 09.03.2022
2668 Clear 13 1011 63 10000 6 140 14:56 09.03.2022
2669 Clear 14 1012 66 10000 7 140 13:52 09.03.2022
2670 Clear 14 1012 72 10000 6 130 12:39 09.03.2022
2671 Clear 15 1011 69 10000 6 120 11:52 09.03.2022
2672 Clear 15 1011 66 10000 6 140 11:32 09.03.2022
2673 Clear 19 1018 37 10000 6 160 09:45 09.03.2022
2674 Clear 21 1019 30 10000 6 150 08:47 09.03.2022
2675 Clear 21 1019 30 10000 5 150 06:51 09.03.2022
2676 Clear 13 1016 59 8000 4 150 01:54 09.03.2022
2677 Clear 10 1015 67 10000 2 150 00:26 09.03.2022
2678 Clear 10 1014 60 10000 2.68 135 22:46 08.03.2022
2679 Clear 10 1013 57 10000 3 150 21:52 08.03.2022
2680 Clear 10 1013 57 10000 2 150 21:21 08.03.2022
2681 Clear 11 1013 54 10000 3 160 20:22 08.03.2022
2682 Clear 11 1013 52 10000 3 150 19:24 08.03.2022
2683 Clear 11 1013 53 10000 3 150 18:22 08.03.2022
2684 Clear 11 1014 50 10000 3 150 16:44 08.03.2022
2685 Clear 13 1013 54 10000 3 150 14:57 08.03.2022
2686 Clear 13 1013 49 10000 4 150 13:45 08.03.2022
2687 Clear 15 1012 45 10000 3 160 12:20 08.03.2022
2688 Clear 16 1018 44 10000 5 180 11:42 08.03.2022
2689 Clear 18 1012 47 10000 4 190 10:28 08.03.2022
2690 Clear 19 1017 52 10000 3 190 08:56 08.03.2022
2691 Clear 18 1018 53 10000 3 0 06:30 08.03.2022
2692 Clear 13 1015 61 10000 4 230 02:37 08.03.2022
2693 Clear 8 1015 65 10000 3.13 225 22:43 07.03.2022
2694 Clear 8 1020 62 10000 2 220 21:44 07.03.2022
2695 Clear 8 1020 59 10000 1 200 20:56 07.03.2022
2696 Clear 9 1015 61 10000 1 220 20:29 07.03.2022
2697 Clear 9 1015 61 10000 1 200 19:48 07.03.2022
2698 Clear 8 1020 60 10000 2.24 226 18:50 07.03.2022
2699 Clear 10 1015 59 10000 2.24 226 18:28 07.03.2022
2700 Clear 9 1020 56 10000 1.79 206 16:56 07.03.2022
2701 Clear 9 1021 54 10000 2 0 16:37 07.03.2022
2702 Clear 10 1021 53 10000 2 0 14:41 07.03.2022
2703 Clear 12 1020 59 10000 3 270 12:34 07.03.2022
2704 Clear 13 1020 53 10000 4 260 11:21 07.03.2022
2705 Clear 15 1021 31 10000 3 330 10:26 07.03.2022
2706 Clear 14 1020 47 10000 4 320 07:42 07.03.2022
2707 Clouds 7 1022 54 10000 3 10 00:37 07.03.2022
2708 Clouds 7 1022 54 10000 3 10 00:19 07.03.2022
2709 Clouds 7 1021 52 10000 1 40 23:19 06.03.2022
2710 Clouds 7 1021 52 10000 2.24 61 22:25 06.03.2022
2711 Rain 7 1021 52 10000 1.34 44 20:56 06.03.2022
2712 Clear 8 1016 56 10000 2 70 20:28 06.03.2022
2713 Clear 8 1016 56 10000 3 130 19:35 06.03.2022
2714 Clear 8 1017 56 10000 0.89 82 18:40 06.03.2022
2715 Clear 8 1017 54 10000 3 100 17:22 06.03.2022
2716 Clear 8 1017 54 10000 4 140 16:52 06.03.2022
2717 Clear 8 1017 54 10000 3 110 16:24 06.03.2022
2718 Clear 8 1018 53 10000 2 120 15:19 06.03.2022
2719 Clear 8 1017 54 10000 3 110 14:41 06.03.2022
2720 Clear 8 1018 53 10000 3 110 13:47 06.03.2022
2721 Clear 8 1017 54 10000 4 80 12:36 06.03.2022
2722 Clear 9 1017 51 10000 3 80 11:30 06.03.2022
2723 Clear 9 1017 46 10000 4 80 10:30 06.03.2022
2724 Clear 11 1017 42 10000 4 70 08:51 06.03.2022
2725 Clear 11 1016 44 10000 4 90 08:27 06.03.2022
2726 Clear 12 1018 39 10000 5 110 06:33 06.03.2022
2727 Clear 8 1020 46 10000 4 70 01:32 06.03.2022
2728 Clear 8 1019 44 10000 3 90 00:33 06.03.2022
2729 Clear 8 1019 45 10000 3 80 23:41 05.03.2022
2730 Clear 8 1019 45 10000 3 80 23:18 05.03.2022
2731 Clear 8 1019 46 10000 3 70 22:25 05.03.2022
2732 Clear 8 1018 43 10000 2 80 21:24 05.03.2022
2733 Clear 8 1018 44 10000 4 70 19:56 05.03.2022
2734 Clear 8 1019 46 10000 3 40 18:56 05.03.2022
2735 Clear 8 1019 50 10000 3 40 18:34 05.03.2022
2736 Clear 8 1019 55 10000 4 30 16:57 05.03.2022
2737 Clear 8 1019 54 10000 3 50 15:43 05.03.2022
2738 Clear 9 1019 53 10000 4 50 14:52 05.03.2022
2739 Clear 9 1018 49 10000 4 50 14:34 05.03.2022
2740 Clear 9 1017 49 10000 4 50 13:34 05.03.2022
2741 Clear 10 1014 41 10000 5 40 11:49 05.03.2022
2742 Clear 11 1016 42 10000 5 40 11:20 05.03.2022
2743 Clear 12 1021 46 10000 5 50 10:20 05.03.2022
2744 Clear 12 1020 43 10000 7 30 09:26 05.03.2022
2745 Clear 14 1020 41 10000 6 60 07:51 05.03.2022
2746 Clear 15 1020 42 10000 7 40 05:43 05.03.2022
2747 Clear 14 1020 44 10000 8 30 04:33 05.03.2022
2748 Mist 11 1008 87 3000 6 360 23:38 04.03.2022
2749 Mist 12 1015 73 3000 2.68 318 22:44 04.03.2022
2750 Mist 12 1010 79 3000 2.24 312 22:23 04.03.2022
2751 Mist 13 1009 79 4000 1 0 20:57 04.03.2022
2752 Mist 13 1009 79 4000 2.68 252 20:27 04.03.2022
2753 Mist 12 1009 77 4000 3.13 236 19:36 04.03.2022
2754 Mist 13 1009 78 4000 2.68 237 18:45 04.03.2022
2755 Mist 12 1009 78 4500 2.68 215 17:48 04.03.2022
2756 Mist 12 1009 77 5000 2.68 213 17:28 04.03.2022
2757 Mist 13 1010 78 5000 3.13 199 15:30 04.03.2022
2758 Clear 13 1009 77 6000 2 180 14:33 04.03.2022
2759 Clouds 14 1009 76 8000 4 170 13:26 04.03.2022
2760 Clouds 15 1006 81 8000 4 180 11:46 04.03.2022
2761 Clear 18 1008 68 10000 3 200 10:52 04.03.2022
2762 Clear 18 1013 66 10000 4 210 09:58 04.03.2022
2763 Clear 18 1013 65 10000 2 230 08:39 04.03.2022
2764 Clouds 17 1014 69 10000 2 270 07:36 04.03.2022
2765 Clouds 13 1016 76 7000 3 0 03:56 04.03.2022
2766 Mist 11 1009 80 5000 2 0 00:28 04.03.2022
2767 Rain 11 1010 79 10000 3.13 175 22:28 03.03.2022
2768 Rain 11 1009 77 10000 2 160 21:44 03.03.2022
2769 Rain 11 1009 76 10000 2.68 166 21:26 03.03.2022
2770 Rain 12 1010 68 10000 3 170 19:55 03.03.2022
2771 Rain 12 1010 61 10000 2 130 18:54 03.03.2022
2772 Clear 12 1011 59 10000 2 140 18:24 03.03.2022
2773 Clear 12 1010 58 10000 4 150 17:30 03.03.2022
2774 Clear 12 1011 58 10000 5 150 16:24 03.03.2022
2775 Clear 12 1012 60 10000 4 150 15:23 03.03.2022
2776 Clear 13 1012 63 10000 4 150 14:43 03.03.2022
2777 Clear 14 1012 64 10000 5 160 13:24 03.03.2022
2778 Clear 14 1011 63 10000 5 150 12:21 03.03.2022
2779 Clear 17 1008 49 10000 5 150 10:47 03.03.2022
2780 Clear 19 1011 50 10000 5 160 09:38 03.03.2022
2781 Clear 19 1016 54 10000 2 200 07:48 03.03.2022
2782 Clear 18 1017 53 10000 4 170 06:35 03.03.2022
2783 Clouds 12 1015 57 8000 4 160 02:42 03.03.2022
2784 Clear 9 1015 63 10000 2 140 23:34 02.03.2022
2785 Clear 8 1014 62 10000 2 150 22:52 02.03.2022
2786 Clear 9 1014 61 10000 2.24 156 21:34 02.03.2022
2787 Clear 9 1014 62 10000 2 160 20:53 02.03.2022
2788 Clear 9 1014 61 10000 2 140 20:24 02.03.2022
2789 Clear 9 1015 58 10000 3 150 19:36 02.03.2022
2790 Clear 9 1015 57 10000 3 150 18:46 02.03.2022
2791 Clear 9 1015 57 10000 3 150 18:18 02.03.2022
2792 Clear 9 1015 55 10000 4 150 17:32 02.03.2022
2793 Clear 10 1015 54 10000 3 150 16:51 02.03.2022
2794 Clear 10 1016 50 10000 3 150 14:48 02.03.2022
2795 Clear 11 1016 52 10000 4 140 13:25 02.03.2022
2796 Clear 12 1015 50 10000 2.24 133 12:44 02.03.2022
2797 Clear 13 1015 47 8000 3 230 11:51 02.03.2022
2798 Clear 14 1015 45 7000 2 230 11:24 02.03.2022
2799 Clear 14 1015 45 7000 2 230 11:24 02.03.2022
2800 Clear 16 1015 41 6000 3 290 09:46 02.03.2022
2801 Clear 16 1015 38 7000 4 260 08:59 02.03.2022
2802 Clear 16 1015 37 10000 5 280 07:39 02.03.2022
2803 Clear 16 1016 36 10000 5 300 06:51 02.03.2022
2804 Clear 11 1019 49 6000 2 0 02:54 02.03.2022
2805 Clouds 7 1018 60 8000 1 0 23:55 01.03.2022
2806 Clouds 7 1017 59 8000 1 0 22:46 01.03.2022
2807 Clouds 7 1017 60 8000 1 340 22:20 01.03.2022
2808 Clouds 8 1017 59 8000 2 360 21:25 01.03.2022
2809 Clouds 8 1017 61 6000 2 10 20:30 01.03.2022
2810 Clouds 7 1017 61 6000 2 10 20:30 01.03.2022
2811 Clouds 8 1017 61 6000 2 10 20:30 01.03.2022
2812 Clouds 8 1018 63 6000 3 360 19:38 01.03.2022
2813 Clouds 8 1018 63 6000 3 10 18:50 01.03.2022
2814 Clouds 8 1018 62 6000 4 10 18:21 01.03.2022
2815 Mist 8 1018 63 5000 4 360 17:30 01.03.2022
2816 Mist 8 1018 63 5000 4 20 16:33 01.03.2022
2817 Mist 8 1018 63 4500 5 30 15:38 01.03.2022
2818 Mist 8 1018 64 4500 6 10 14:35 01.03.2022
2819 Mist 8 1017 66 4000 6 10 13:52 01.03.2022
2820 Mist 8 1017 66 4000 7 10 13:24 01.03.2022
2821 Rain 9 1017 66 4000 7 20 12:32 01.03.2022
2822 Haze 11 1015 68 4000 9 20 10:36 01.03.2022
2823 Haze 14 1010 67 4000 8 20 08:42 01.03.2022
2824 Haze 15 1010 65 5000 11 360 07:52 01.03.2022
2825 Clouds 18 1013 58 6000 4 310 05:54 01.03.2022
2826 Mist 15 1014 74 4200 4 300 02:33 01.03.2022
2827 Mist 13 1012 81 3500 2 290 00:34 01.03.2022
2828 Mist 13 1012 77 5000 3 350 23:29 28.02.2022
2829 Mist 14 1011 71 5000 8 340 21:59 28.02.2022
2830 Mist 15 1011 70 5000 7 340 21:25 28.02.2022
2831 Mist 15 1010 67 5000 5 330 19:55 28.02.2022
2832 Clouds 15 1009 70 6000 3.13 314 19:33 28.02.2022
2833 Clouds 15 1009 69 6000 1.79 275 18:40 28.02.2022
2834 Clear 15 1013 64 10000 1 0 17:30 28.02.2022
2835 Clear 15 1009 68 10000 2 170 16:33 28.02.2022
2836 Clear 16 1010 67 10000 2 160 15:23 28.02.2022
2837 Clear 15 1010 67 10000 2 170 14:31 28.02.2022
2838 Clear 16 1010 66 10000 2 140 13:47 28.02.2022
2839 Clear 16 1007 63 10000 3 150 12:41 28.02.2022
2840 Clear 17 1007 61 10000 4 150 11:55 28.02.2022
2841 Clear 19 1014 52 10000 4 150 10:48 28.02.2022
2842 Clear 20 1009 55 10000 3 160 10:20 28.02.2022
2843 Clear 21 1014 57 10000 1 0 09:32 28.02.2022
2844 Clear 21 1014 57 10000 2 230 08:29 28.02.2022
2845 Clear 20 1014 58 10000 3 220 07:28 28.02.2022
2846 Clear 17 1012 58 10000 5 190 04:44 28.02.2022
2847 Clear 17 1018 58 10000 5 190 04:23 28.02.2022
2848 Clear 11 1014 68 10000 6 150 23:27 27.02.2022
2849 Clear 10 1013 67 10000 5 160 22:33 27.02.2022
2850 Clear 10 1014 65 10000 6 140 21:51 27.02.2022
2851 Clear 10 1014 66 10000 5 140 20:59 27.02.2022
2852 Clear 10 1014 63 10000 5 140 20:27 27.02.2022
2853 Clear 9 1015 63 10000 5 140 19:57 27.02.2022
2854 Clear 9 1015 63 10000 5 140 19:26 27.02.2022
2855 Clear 9 1015 63 10000 5 130 18:40 27.02.2022
2856 Clear 10 1015 62 10000 6 140 17:54 27.02.2022
2857 Clear 9 1016 61 10000 5 130 16:38 27.02.2022
2858 Clear 9 1017 59 10000 6 130 15:59 27.02.2022
2859 Clear 10 1017 64 10000 7 130 13:21 27.02.2022
2860 Clear 10 1017 58 10000 5 140 12:32 27.02.2022
2861 Clear 13 1013 49 10000 6 150 10:54 27.02.2022
2862 Clear 14 1016 46 10000 5 130 09:58 27.02.2022
2863 Clear 15 1021 49 10000 3 130 09:37 27.02.2022
2864 Clear 14 1021 50 10000 3 130 09:18 27.02.2022
2865 Clear 14 1022 51 10000 2 0 07:34 27.02.2022
2866 Clear 13 1024 49 10000 3 180 05:38 27.02.2022
2867 Clear 8 1020 61 10000 1.79 63 00:53 27.02.2022
2868 Clear 7 1019 55 8000 2 60 22:58 26.02.2022
2869 Clear 7 1019 54 8000 3 30 21:44 26.02.2022
2870 Clear 8 1019 53 8000 3 40 20:52 26.02.2022
2871 Clear 8 1019 53 8000 4 40 20:19 26.02.2022
2872 Clear 8 1019 52 8000 3 40 19:46 26.02.2022
2873 Clear 8 1019 50 8000 4 40 19:19 26.02.2022
2874 Clear 9 1019 50 10000 5 40 17:45 26.02.2022
2875 Clear 10 1019 47 10000 6 40 16:51 26.02.2022
2876 Clear 11 1018 47 10000 3.13 330 15:57 26.02.2022
2877 Clear 12 1018 50 10000 2.68 325 15:23 26.02.2022
2878 Clear 12 1017 49 10000 2 280 14:54 26.02.2022
2879 Clear 12 1017 49 10000 2.24 286 14:33 26.02.2022
2880 Clear 13 1016 48 10000 2.24 273 13:19 26.02.2022
2881 Clear 14 1016 48 10000 2.24 266 12:23 26.02.2022
2882 Clear 14 1015 46 10000 3 290 11:28 26.02.2022
2883 Clear 16 1015 45 10000 4 280 10:40 26.02.2022
2884 Clear 17 1015 43 10000 6 300 08:53 26.02.2022
2885 Clear 17 1015 41 10000 5 270 06:51 26.02.2022
2886 Clear 6 1019 71 10000 1.79 197 00:56 26.02.2022
2887 Clear 6 1018 67 10000 2.24 163 22:49 25.02.2022
2888 Clear 6 1018 67 10000 1.79 163 21:43 25.02.2022
2889 Clear 6 1018 67 10000 1.79 163 21:23 25.02.2022
2890 Clear 6 1018 67 10000 3 160 20:32 25.02.2022
2891 Clear 6 1019 67 10000 2 150 18:59 25.02.2022
2892 Clear 7 1019 64 10000 4 150 17:27 25.02.2022
2893 Clear 7 1020 63 10000 4 150 16:24 25.02.2022
2894 Clear 7 1020 64 10000 4 150 15:43 25.02.2022
2895 Clear 7 1021 64 10000 5 150 15:20 25.02.2022
2896 Clear 8 1021 62 10000 5 150 14:42 25.02.2022
2897 Clear 8 1021 60 10000 5 140 13:36 25.02.2022
2898 Clear 8 1021 61 10000 6 150 12:55 25.02.2022
2899 Clear 9 1021 57 10000 5 150 11:28 25.02.2022
2900 Clear 11 1020 48 10000 6 150 10:29 25.02.2022
2901 Clear 12 1025 49 10000 6 160 09:57 25.02.2022
2902 Clear 13 1021 38 10000 6 160 08:46 25.02.2022
2903 Clear 12 1026 45 10000 6 150 07:41 25.02.2022
2904 Clear 11 1028 47 10000 4 150 05:48 25.02.2022
2905 Clear 10 1025 37 10000 4 140 03:34 25.02.2022
2906 Clear 3 1025 59 10000 1 0 23:42 24.02.2022
2907 Clear 3 1024 57 10000 1.34 134 21:56 24.02.2022
2908 Clear 3 1024 58 10000 1.34 133 21:37 24.02.2022
2909 Clear 3 1024 58 10000 1.34 136 21:18 24.02.2022
2910 Clear 3 1025 55 10000 1.34 157 19:38 24.02.2022
2911 Clear 3 1025 53 10000 2 160 18:38 24.02.2022
2912 Clear 3 1025 52 10000 2 160 18:18 24.02.2022
2913 Clear 3 1026 52 10000 2 150 17:33 24.02.2022
2914 Clear 4 1026 52 10000 3 150 16:45 24.02.2022
2915 Clear 4 1027 52 10000 3 150 16:21 24.02.2022
2916 Clear 5 1027 53 10000 3 160 14:53 24.02.2022
2917 Clear 5 1026 52 10000 2 180 14:26 24.02.2022
2918 Clear 5 1026 50 10000 3 150 13:39 24.02.2022
2919 Clear 5 1026 50 10000 3 150 13:39 24.02.2022
2920 Clear 7 1027 49 10000 3 140 12:49 24.02.2022
2921 Clear 8 1031 46 10000 2 10 10:40 24.02.2022
2922 Clear 8 1031 40 10000 2 10 08:58 24.02.2022
2923 Clear 8 1031 40 10000 3 10 08:39 24.02.2022
2924 Clear 7 1033 42 10000 2 0 05:52 24.02.2022
2925 Clear 4 1030 58 10000 3 10 01:56 24.02.2022
2926 Clear 4 1030 58 10000 3 10 01:56 24.02.2022
2927 Clear 1 1028 57 10000 2 350 22:38 23.02.2022
2928 Clear 1 1028 55 10000 2 330 21:40 23.02.2022
2929 Clear 1 1028 53 10000 2 350 20:31 23.02.2022
2930 Clear 1 1028 53 10000 2 340 19:46 23.02.2022
2931 Clear 2 1028 52 10000 1 50 18:32 23.02.2022
2932 Clear 2 1028 51 10000 2 20 17:36 23.02.2022
2933 Clear 3 1030 47 10000 4 40 14:42 23.02.2022
2934 Clear 4 1029 47 10000 5 40 12:42 23.02.2022
2935 Clear 5 1028 50 10000 6 40 11:34 23.02.2022
2936 Clear 6 1028 47 10000 6 40 10:31 23.02.2022
2937 Clear 7 1027 44 10000 7 10 08:59 23.02.2022
2938 Clear 7 1032 48 10000 6 20 07:58 23.02.2022
2939 Clear 6 1035 50 10000 4 60 03:49 23.02.2022
2940 Clear 3 1030 63 10000 2 260 00:28 23.02.2022
2941 Clear 3 1028 64 10000 3.13 21 23:36 22.02.2022
2942 Rain 3 1029 65 10000 0.45 6 22:31 22.02.2022
2943 Clear 3 1029 65 10000 2 270 21:49 22.02.2022
2944 Clear 3 1029 66 10000 2 250 21:30 22.02.2022
2945 Clear 3 1028 66 10000 1 210 20:52 22.02.2022
2946 Rain 3 1028 63 10000 2 180 20:29 22.02.2022
2947 Clouds 3 1028 62 10000 2 140 19:36 22.02.2022
2948 Snow 3 1028 60 10000 2 140 19:18 22.02.2022
2949 Rain 4 1028 59 10000 5 30 17:46 22.02.2022
2950 Clouds 5 1028 57 10000 5 40 17:20 22.02.2022
2951 Rain 6 1028 57 10000 6 30 16:36 22.02.2022
2952 Rain 6 1029 55 10000 5 30 15:39 22.02.2022
2953 Clouds 6 1034 54 10000 4 40 14:44 22.02.2022
2954 Clear 7 1027 48 10000 5 40 12:21 22.02.2022
2955 Clear 8 1032 41 10000 3 50 10:39 22.02.2022
2956 Clear 8 1031 39 10000 4 20 07:52 22.02.2022
2957 Clear 8 1031 38 10000 1.34 45 07:25 22.02.2022
2958 Clear 8 1028 39 10000 2 350 02:52 22.02.2022
2959 Clear 5 1027 45 10000 1.34 358 00:49 22.02.2022
2960 Clear 4 1026 49 10000 2 10 22:41 21.02.2022
2961 Clear 4 1026 52 10000 1 360 21:30 21.02.2022
2962 Clear 4 1026 46 10000 0.45 354 20:34 21.02.2022
2963 Clear 4 1027 44 10000 0.89 153 18:42 21.02.2022
2964 Clear 5 1027 40 10000 2 150 16:50 21.02.2022
2965 Clear 6 1027 40 10000 3 150 14:24 21.02.2022
2966 Clear 6 1027 40 10000 4 150 13:59 21.02.2022
2967 Rain 6 1027 41 10000 4 160 12:59 21.02.2022
2968 Clear 6 1026 40 10000 4 170 12:23 21.02.2022
2969 Clear 8 1025 34 10000 5 140 10:45 21.02.2022
2970 Clear 8 1029 35 10000 2 230 08:44 21.02.2022
2971 Clear 5 1028 34 10000 1 0 02:31 21.02.2022
2972 Clear 1 1026 45 10000 2 230 22:45 20.02.2022
2973 Clear 2 1026 46 10000 2 230 22:19 20.02.2022
2974 Clear 2 1026 46 10000 2 230 22:18 20.02.2022
2975 Clear 2 1026 43 10000 1 230 21:41 20.02.2022
2976 Clear 2 1026 42 10000 2 240 20:51 20.02.2022
2977 Clear 2 1026 40 10000 1 0 20:21 20.02.2022
2978 Clear 2 1027 42 10000 1.34 2 19:21 20.02.2022
2979 Clear 2 1027 44 10000 1 0 18:42 20.02.2022
2980 Clear 2 1027 44 10000 1 0 18:23 20.02.2022
2981 Clear 2 1027 45 10000 2 110 17:30 20.02.2022
2982 Clear 3 1027 42 10000 0.89 29 15:30 20.02.2022
2983 Clear 3 1027 42 10000 2 70 14:33 20.02.2022
2984 Clear 3 1027 40 10000 2 40 12:51 20.02.2022
2985 Clear 4 1026 39 10000 4 20 11:56 20.02.2022
2986 Clear 4 1026 39 10000 4 20 11:56 20.02.2022
2987 Clear 4 1025 38 10000 5 20 10:21 20.02.2022
2988 Clear 5 1026 37 10000 6 10 09:46 20.02.2022
2989 Clear 4 1032 42 10000 1.34 357 06:30 20.02.2022
2990 Clear 0 1028 48 10000 4 320 00:32 20.02.2022
2991 Clear 1 1027 47 10000 4 320 23:33 19.02.2022
2992 Clear 1 1026 49 10000 4 320 22:24 19.02.2022
2993 Clear 1 1026 48 10000 4 320 21:47 19.02.2022
2994 Clear 2 1025 46 10000 4 340 20:41 19.02.2022
2995 Clear 1 1025 50 10000 5 350 19:35 19.02.2022
2996 Clear 1 1026 50 10000 6 360 18:41 19.02.2022
2997 Clear 1 1025 48 10000 7 360 17:57 19.02.2022
2998 Clear 1 1026 50 10000 6 360 17:21 19.02.2022
2999 Clear 2 1026 52 10000 6 360 15:59 19.02.2022
3000 Clear 2 1026 51 10000 7 360 14:54 19.02.2022
3001 Clear 3 1025 50 10000 7 10 13:57 19.02.2022
3002 Clouds 4 1024 47 10000 7 360 11:47 19.02.2022
3003 Clouds 4 1023 53 10000 8 10 10:48 19.02.2022
3004 Clouds 5 1022 56 10000 7 360 08:56 19.02.2022
3005 Clouds 5 1022 60 10000 1.34 350 06:48 19.02.2022
3006 Clouds 4 1022 69 10000 6 350 00:38 19.02.2022
3007 Clouds 4 1021 72 10000 5 340 22:24 18.02.2022
3008 Clouds 4 1020 73 10000 5 360 21:21 18.02.2022
3009 Clouds 3 1020 71 10000 6 360 19:57 18.02.2022
3010 Rain 4 1021 76 10000 6.71 0 18:51 18.02.2022
3011 Clouds 3 1021 76 10000 6 360 18:28 18.02.2022
3012 Clouds 3 1020 75 10000 6 360 17:56 18.02.2022
3013 Clouds 4 1020 74 10000 6 10 15:57 18.02.2022
3014 Clouds 4 1019 74 10000 6 30 13:56 18.02.2022
3015 Clouds 4 1019 74 10000 6 40 13:28 18.02.2022
3016 Clouds 5 1019 75 10000 7 30 12:42 18.02.2022
3017 Clouds 5 1019 73 10000 6 40 11:56 18.02.2022
3018 Clouds 5 1019 72 10000 5 40 10:42 18.02.2022
3019 Clouds 7 1019 62 10000 4 60 06:58 18.02.2022
3020 Clouds 7 1020 60 10000 4 70 05:42 18.02.2022
3021 Clouds 5 1021 62 10000 4 40 23:53 17.02.2022
3022 Clouds 5 1021 64 10000 3 350 21:50 17.02.2022
3023 Clouds 5 1021 65 10000 2 340 21:26 17.02.2022
3024 Clear 4 1021 68 10000 2 30 20:40 17.02.2022
3025 Clear 3 1022 69 10000 2 10 19:52 17.02.2022
3026 Clouds 3 1022 74 10000 3 20 18:54 17.02.2022
3027 Clouds 3 1022 74 10000 3 50 17:59 17.02.2022
3028 Clouds 3 1023 73 10000 3 60 16:43 17.02.2022
3029 Clouds 3 1023 72 10000 3 40 15:40 17.02.2022
3030 Clouds 3 1023 71 10000 3 40 14:28 17.02.2022
3031 Rain 4 1022 67 10000 5 60 12:50 17.02.2022
3032 Rain 5 1021 57 10000 5 70 11:27 17.02.2022
3033 Clouds 5 1020 56 10000 5 60 09:30 17.02.2022
3034 Rain 5 1023 54 10000 4 70 04:41 17.02.2022
3035 Clear 3 1022 50 10000 7 40 23:21 16.02.2022
3036 Clear 3 1021 49 10000 5 40 21:45 16.02.2022
3037 Clear 4 1021 52 10000 7 50 19:57 16.02.2022
3038 Clouds 4 1022 56 10000 8.94 38 18:43 16.02.2022
3039 Clouds 4 1022 59 10000 5 30 17:53 16.02.2022
3040 Clouds 5 1022 62 10000 6 40 15:40 16.02.2022
3041 Rain 5 1021 62 10000 6 40 15:19 16.02.2022
3042 Clouds 5 1020 59 10000 6 50 13:28 16.02.2022
3043 Rain 6 1020 61 10000 5 60 12:19 16.02.2022
3044 Clouds 6 1019 61 10000 5 70 11:26 16.02.2022
3045 Clouds 7 1019 58 10000 3 70 10:33 16.02.2022
3046 Clouds 8 1019 56 10000 5 60 07:54 16.02.2022
3047 Clouds 7 1024 58 10000 6 40 06:26 16.02.2022
3048 Clear 5 1019 61 10000 2 70 23:45 15.02.2022
3049 Clear 5 1019 61 10000 2 20 22:29 15.02.2022
3050 Clear 5 1019 61 10000 2 30 21:47 15.02.2022
3051 Clear 5 1019 61 10000 2 40 21:27 15.02.2022
3052 Clear 5 1019 61 10000 3 30 20:56 15.02.2022
3053 Clouds 5 1019 61 10000 2 360 19:57 15.02.2022
3054 Clouds 5 1020 65 10000 1 0 18:56 15.02.2022
3055 Clouds 4 1020 64 10000 2 100 18:21 15.02.2022
3056 Clouds 4 1019 64 10000 1 0 17:49 15.02.2022
3057 Clouds 4 1020 63 10000 1 0 16:38 15.02.2022
3058 Clear 4 1020 63 10000 2 80 15:26 15.02.2022
3059 Clear 4 1019 61 10000 4 70 13:27 15.02.2022
3060 Clear 5 1019 60 10000 4 70 12:37 15.02.2022
3061 Clear 6 1019 60 10000 3 70 11:27 15.02.2022
3062 Clear 6 1019 56 10000 4 40 09:31 15.02.2022
3063 Clouds 6 1019 58 10000 4 40 06:52 15.02.2022
3064 Clouds 7 1021 59 10000 5 30 03:55 15.02.2022
3065 Mist 6 1019 63 4000 4 40 22:36 14.02.2022
3066 Mist 7 1019 63 4000 3.58 24 21:35 14.02.2022
3067 Mist 7 1019 64 4000 3 20 20:30 14.02.2022
3068 Mist 7 1020 64 4000 4 40 19:32 14.02.2022
3069 Mist 7 1021 68 5000 4 30 18:30 14.02.2022
3070 Mist 7 1021 68 5000 4 20 17:58 14.02.2022
3071 Clouds 7 1020 68 7000 4 30 17:24 14.02.2022
3072 Clear 8 1019 60 10000 3 50 15:59 14.02.2022
3073 Clear 9 1019 53 10000 3 20 13:53 14.02.2022
3074 Clear 10 1019 54 10000 3 10 13:26 14.02.2022
3075 Clear 10 1019 55 10000 3 360 12:33 14.02.2022
3076 Clear 10 1018 53 10000 4 340 11:54 14.02.2022
3077 Clear 10 1017 49 10000 4 360 10:37 14.02.2022
3078 Clear 11 1022 50 10000 4 360 08:43 14.02.2022
3079 Clear 11 1022 49 10000 5 20 07:30 14.02.2022
3080 Clear 4 1018 67 10000 3 330 23:45 13.02.2022
3081 Clear 4 1017 67 10000 2 320 22:42 13.02.2022
3082 Clear 4 1017 67 10000 2 320 22:23 13.02.2022
3083 Clear 5 1017 68 10000 2 330 21:30 13.02.2022
3084 Clear 5 1017 66 10000 2 310 20:33 13.02.2022
3085 Clear 6 1017 69 10000 2 320 19:29 13.02.2022
3086 Clear 6 1017 68 10000 3 330 18:44 13.02.2022
3087 Clear 7 1017 68 10000 2 350 17:57 13.02.2022
3088 Clear 7 1017 66 10000 3 10 15:54 13.02.2022
3089 Clear 7 1017 66 10000 3 10 15:54 13.02.2022
3090 Rain 7 1017 66 10000 4 360 14:58 13.02.2022
3091 Clear 7 1017 68 10000 3 360 13:59 13.02.2022
3092 Clear 7 1017 68 10000 3 360 13:59 13.02.2022
3093 Rain 7 1016 68 10000 2 360 12:50 13.02.2022
3094 Rain 7 1016 66 10000 3 360 11:26 13.02.2022
3095 Rain 7 1016 67 10000 4 360 10:30 13.02.2022
3096 Rain 8 1015 67 10000 4 360 09:41 13.02.2022
3097 Rain 7 1015 72 10000 5 10 07:19 13.02.2022
3098 Mist 8 1015 70 5000 4 10 00:35 13.02.2022
3099 Clouds 8 1014 71 6000 3.58 15 23:39 12.02.2022
3100 Clouds 8 1014 70 6000 3.58 14 22:33 12.02.2022
3101 Clouds 8 1014 70 6000 2 10 21:19 12.02.2022
3102 Clouds 8 1015 70 6000 2 360 20:32 12.02.2022
3103 Clouds 8 1015 70 6000 2 350 19:21 12.02.2022
3104 Clouds 8 1015 70 6000 2 330 18:50 12.02.2022
3105 Clouds 8 1015 70 8000 3 340 18:32 12.02.2022
3106 Clouds 8 1016 73 8000 3 20 16:55 12.02.2022
3107 Clouds 8 1016 72 8000 3 10 16:25 12.02.2022
3108 Clouds 8 1016 72 8000 2 20 15:49 12.02.2022
3109 Clouds 8 1016 71 8000 2 20 14:30 12.02.2022
3110 Clouds 8 1016 71 10000 3 30 12:55 12.02.2022
3111 Clouds 9 1016 67 10000 4 30 10:36 12.02.2022
3112 Clouds 9 1016 66 10000 3 50 09:39 12.02.2022
3113 Clouds 9 1016 66 10000 4 50 08:48 12.02.2022
3114 Clouds 9 1016 66 10000 4 30 07:50 12.02.2022
3115 Clouds 9 1018 67 10000 4 10 05:33 12.02.2022
3116 Clouds 9 1019 67 10000 2 50 03:32 12.02.2022
3117 Clouds 8 1019 68 10000 4 20 02:18 12.02.2022
3118 Clouds 7 1017 68 10000 3 20 22:28 11.02.2022
3119 Clouds 7 1017 68 10000 3 10 21:47 11.02.2022
3120 Clouds 7 1017 66 10000 4 50 20:39 11.02.2022
3121 Clouds 7 1018 67 10000 3 60 19:35 11.02.2022
3122 Clouds 6 1018 69 10000 4 40 18:59 11.02.2022
3123 Clouds 6 1018 73 7000 2 50 17:41 11.02.2022
3124 Clouds 6 1018 73 7000 2 50 17:22 11.02.2022
3125 Clouds 7 1018 72 7000 3 60 15:55 11.02.2022
3126 Rain 6 1018 75 6000 4 80 14:38 11.02.2022
3127 Clouds 6 1018 76 6000 4 80 14:20 11.02.2022
3128 Rain 6 1018 74 6000 4 80 13:50 11.02.2022
3129 Clouds 6 1018 74 6000 4 80 13:31 11.02.2022
3130 Rain 7 1018 73 7000 4 80 11:27 11.02.2022
3131 Rain 7 1017 70 8000 3 90 09:39 11.02.2022
3132 Rain 7 1017 70 10000 5 80 08:39 11.02.2022
3133 Rain 7 1023 68 10000 5 80 08:21 11.02.2022
3134 Rain 8 1018 64 10000 4 100 06:31 11.02.2022
3135 Rain 8 1020 65 10000 4 80 02:25 11.02.2022
3136 Rain 7 1019 63 10000 3 80 00:46 11.02.2022
3137 Rain 7 1019 60 10000 2 70 22:45 10.02.2022
3138 Rain 7 1018 61 10000 3 70 21:44 10.02.2022
3139 Clear 7 1018 59 10000 3 70 20:52 10.02.2022
3140 Rain 6 1018 60 10000 3 50 20:24 10.02.2022
3141 Clear 6 1018 60 10000 2 30 19:24 10.02.2022
3142 Clear 6 1019 65 10000 4.02 78 18:33 10.02.2022
3143 Rain 6 1019 63 10000 2 10 17:25 10.02.2022
3144 Clear 6 1019 62 10000 2 80 16:47 10.02.2022
3145 Clear 6 1019 62 10000 4 80 15:42 10.02.2022
3146 Clear 6 1019 62 10000 4 80 15:24 10.02.2022
3147 Clouds 6 1020 62 10000 3 70 14:35 10.02.2022
3148 Clouds 6 1019 61 10000 4 70 13:59 10.02.2022
3149 Clouds 6 1020 62 10000 4 110 13:19 10.02.2022
3150 Clouds 8 1019 60 10000 5 110 11:57 10.02.2022
3151 Clouds 7 1024 58 10000 2 60 11:32 10.02.2022
3152 Clear 8 1024 55 10000 3 30 10:25 10.02.2022
3153 Clear 8 1023 51 10000 3 40 09:46 10.02.2022
3154 Clear 9 1023 50 10000 2 320 08:42 10.02.2022
3155 Clouds 8 1024 51 10000 3 10 06:33 10.02.2022
3156 Clouds 6 1026 61 10000 6.71 355 03:33 10.02.2022
3157 Clouds 5 1021 70 10000 3 10 00:56 10.02.2022
3158 Clouds 5 1021 69 10000 0.45 342 00:38 10.02.2022
3159 Clouds 5 1021 69 10000 3 340 00:20 10.02.2022
3160 Clouds 5 1019 69 10000 1 0 22:56 09.02.2022
3161 Clouds 5 1019 69 10000 2 350 22:33 09.02.2022
3162 Clouds 5 1019 69 10000 2 340 21:47 09.02.2022
3163 Clouds 5 1019 69 10000 2 350 21:27 09.02.2022
3164 Clouds 5 1019 69 10000 4 10 20:44 09.02.2022
3165 Clouds 5 1019 69 10000 4 10 20:44 09.02.2022
3166 Clouds 5 1019 69 10000 4 10 20:22 09.02.2022
3167 Clouds 5 1019 70 10000 3 10 19:41 09.02.2022
3168 Clouds 5 1019 70 8000 2.24 350 18:38 09.02.2022
3169 Clouds 4 1019 74 10000 3 360 16:55 09.02.2022
3170 Clouds 5 1019 73 10000 3 10 15:59 09.02.2022
3171 Clouds 5 1019 74 10000 3 10 15:23 09.02.2022
3172 Rain 5 1019 75 10000 0.45 52 12:43 09.02.2022
3173 Clouds 5 1019 75 10000 4 10 11:29 09.02.2022
3174 Rain 5 1018 74 10000 4 10 10:33 09.02.2022
3175 Rain 6 1018 74 10000 3 30 09:47 09.02.2022
3176 Rain 6 1018 71 10000 4 40 09:21 09.02.2022
3177 Rain 6 1018 70 10000 3 30 08:43 09.02.2022
3178 Rain 7 1019 68 10000 2 20 05:55 09.02.2022
3179 Rain 7 1021 62 10000 2 10 03:51 09.02.2022
3180 Clear 6 1021 64 10000 2 50 01:55 09.02.2022
3181 Clear 5 1020 64 10000 2 10 23:42 08.02.2022
3182 Clear 4 1020 65 10000 2 360 22:53 08.02.2022
3183 Clear 4 1020 63 10000 2 50 22:27 08.02.2022
3184 Clear 4 1020 64 10000 2 10 21:58 08.02.2022
3185 Clear 4 1021 62 10000 2 10 21:22 08.02.2022
3186 Clear 4 1021 63 10000 2.24 35 20:55 08.02.2022
3187 Clear 4 1021 63 10000 2.24 35 20:23 08.02.2022
3188 Clear 4 1022 62 10000 1.79 44 18:53 08.02.2022
3189 Clear 4 1022 67 10000 3 350 17:50 08.02.2022
3190 Clear 5 1023 66 10000 2 40 16:35 08.02.2022
3191 Clear 5 1023 65 10000 3 40 15:39 08.02.2022
3192 Clear 5 1023 65 10000 4 60 14:56 08.02.2022
3193 Clear 6 1023 62 10000 3 60 13:29 08.02.2022
3194 Clouds 6 1023 62 10000 4 40 12:18 08.02.2022
3195 Clouds 6 1022 64 10000 5 40 10:39 08.02.2022
3196 Rain 7 1021 63 10000 4 40 09:46 08.02.2022
3197 Clouds 8 1021 58 10000 5 40 08:25 08.02.2022
3198 Clouds 8 1022 65 10000 5 30 05:41 08.02.2022
3199 Clouds 8 1024 66 10000 4 350 04:39 08.02.2022
3200 Clouds 7 1024 66 10000 4 350 04:21 08.02.2022
3201 Clouds 7 1025 70 10000 5 360 03:36 08.02.2022
3202 Clouds 7 1025 71 10000 5 360 03:18 08.02.2022
3203 Clouds 6 1025 71 10000 3.13 328 02:59 08.02.2022
3204 Clouds 6 1025 72 10000 4 360 02:36 08.02.2022
3205 Clouds 6 1024 72 10000 4 360 02:18 08.02.2022
3206 Clouds 6 1024 75 10000 3.13 333 01:44 08.02.2022
3207 Clouds 5 1023 75 10000 3.13 333 01:24 08.02.2022
3208 Clouds 5 1023 74 10000 4 340 00:54 08.02.2022
3209 Clouds 5 1022 71 10000 3.13 336 23:57 07.02.2022
3210 Clouds 5 1021 72 10000 2 350 23:39 07.02.2022
3211 Clouds 5 1021 72 10000 2 350 23:18 07.02.2022
3212 Clouds 5 1020 73 10000 3.13 357 22:20 07.02.2022
3213 Clouds 5 1020 74 10000 3 350 21:55 07.02.2022
3214 Clouds 5 1020 71 10000 3 350 21:29 07.02.2022
3215 Clouds 5 1020 72 10000 3 350 20:59 07.02.2022
3216 Clouds 5 1020 72 10000 3.13 3 20:40 07.02.2022
3217 Clouds 5 1021 72 10000 2 40 19:51 07.02.2022
3218 Clouds 5 1021 72 10000 3 30 19:32 07.02.2022
3219 Clouds 5 1021 78 10000 3 360 17:52 07.02.2022
3220 Rain 5 1021 78 10000 4 340 16:53 07.02.2022
3221 Rain 5 1020 78 10000 3 30 15:49 07.02.2022
3222 Rain 5 1020 77 10000 3 40 14:55 07.02.2022
3223 Clouds 4 1019 78 10000 3 20 13:28 07.02.2022
3224 Rain 4 1019 78 10000 0.45 34 12:42 07.02.2022
3225 Rain 4 1018 77 10000 1.79 34 11:57 07.02.2022
3226 Rain 4 1019 77 10000 1.79 38 11:34 07.02.2022
3227 Rain 4 1018 76 10000 0.45 43 10:49 07.02.2022
3228 Rain 4 1018 76 10000 0.45 45 10:29 07.02.2022
3229 Rain 4 1018 76 10000 0.45 51 09:53 07.02.2022
3230 Rain 4 1017 75 10000 0.89 60 09:18 07.02.2022
3231 Rain 4 1017 75 10000 0.89 66 08:36 07.02.2022
3232 Rain 4 1017 74 10000 1.34 86 06:54 07.02.2022
3233 Rain 4 1017 74 10000 1.34 87 06:33 07.02.2022
3234 Rain 4 1021 74 10000 0.89 61 02:58 07.02.2022
3235 Rain 4 1020 67 10000 0.45 66 00:44 07.02.2022
3236 Rain 4 1020 64 10000 0.89 69 23:42 06.02.2022
3237 Rain 4 1021 61 10000 1.79 72 22:47 06.02.2022
3238 Rain 5 1021 57 10000 1.79 70 21:52 06.02.2022
3239 Rain 5 1021 56 10000 0.89 73 21:30 06.02.2022
3240 Rain 5 1021 54 10000 0.45 73 20:53 06.02.2022
3241 Rain 5 1022 53 10000 1.34 72 20:31 06.02.2022
3242 Clear 5 1022 52 10000 1.79 72 19:37 06.02.2022
3243 Clear 5 1023 51 10000 1.79 74 18:38 06.02.2022
3244 Rain 5 1023 51 10000 1.79 73 17:55 06.02.2022
3245 Clear 5 1023 54 10000 0.45 81 16:56 06.02.2022
3246 Clear 5 1024 54 10000 0.45 100 16:38 06.02.2022
3247 Clear 5 1024 52 10000 0.89 86 15:47 06.02.2022
3248 Clear 5 1025 52 10000 0.89 82 15:26 06.02.2022
3249 Rain 5 1025 51 10000 0.45 76 14:27 06.02.2022
3250 Rain 5 1025 51 10000 0.45 70 13:24 06.02.2022
3251 Rain 5 1025 53 10000 0.89 65 12:45 06.02.2022
3252 Clear 5 1024 51 10000 0.45 57 11:23 06.02.2022
3253 Clear 6 1024 50 10000 0.45 55 09:56 06.02.2022
3254 Clear 6 1024 45 10000 0.45 53 08:47 06.02.2022
3255 Clear 7 1024 44 10000 1.34 46 07:36 06.02.2022
3256 Clear 7 1024 44 10000 1.34 46 07:36 06.02.2022
3257 Clear 6 1032 46 10000 0.89 36 05:29 06.02.2022
3258 Clear 3 1033 51 10000 0.45 28 02:26 06.02.2022
3259 Clear 3 1028 53 10000 0.45 18 01:21 06.02.2022
3260 Clear 2 1027 55 10000 0.45 13 00:24 06.02.2022
3261 Clear 2 1027 42 10000 0.45 16 22:18 05.02.2022
3262 Clear 3 1027 40 10000 0.45 9 20:48 05.02.2022
3263 Clear 3 1027 40 10000 0.45 8 20:23 05.02.2022
3264 Clear 3 1027 41 10000 0.45 5 19:44 05.02.2022
3265 Clear 2 1027 50 10000 0.45 3 18:48 05.02.2022
3266 Clear 2 1027 52 10000 0.45 4 17:37 05.02.2022
3267 Clear 3 1027 51 10000 0.45 4 16:33 05.02.2022
3268 Clear 3 1027 49 10000 0.45 6 15:31 05.02.2022
3269 Clear 3 1027 50 10000 0.89 9 13:58 05.02.2022
3270 Clear 3 1027 51 10000 0.89 11 12:46 05.02.2022
3271 Clear 4 1027 47 10000 0.45 10 11:47 05.02.2022
3272 Clear 5 1031 45 10000 2.24 8 10:44 05.02.2022
3273 Clear 6 1031 42 10000 1.34 7 09:51 05.02.2022
3274 Clear 6 1031 40 10000 1.79 1 08:51 05.02.2022
3275 Clear 6 1031 43 10000 1.34 349 07:27 05.02.2022
3276 Clouds 6 1031 46 10000 1.34 344 06:55 05.02.2022
3277 Clouds 4 1032 58 8000 0.45 2 02:43 05.02.2022
3278 Clouds 4 1026 65 8000 0.45 1 01:18 05.02.2022
3279 Clouds 3 1025 67 6000 0.45 0 00:36 05.02.2022
3280 Clouds 3 1025 63 10000 0.45 0 23:33 04.02.2022
3281 Clear 3 1025 63 10000 3.13 359 22:45 04.02.2022
3282 Clear 3 1024 63 10000 0.45 358 21:36 04.02.2022
3283 Clear 3 1024 63 10000 0.45 0 21:18 04.02.2022
3284 Clear 3 1024 62 10000 0.45 2 20:36 04.02.2022
3285 Clear 3 1024 62 10000 1.79 5 19:18 04.02.2022
3286 Clear 4 1024 58 10000 0.89 317 16:22 04.02.2022
3287 Clear 5 1024 50 10000 0.89 332 15:18 04.02.2022
3288 Clear 5 1023 51 10000 0.45 7 14:40 04.02.2022
3289 Clear 6 1023 44 10000 0.45 352 12:43 04.02.2022
3290 Clear 7 1023 44 10000 0.45 343 11:45 04.02.2022
3291 Clear 8 1022 40 10000 0.89 344 10:53 04.02.2022
3292 Clear 8 1027 43 10000 0.89 348 09:35 04.02.2022
3293 Clear 8 1027 42 10000 1.79 349 07:44 04.02.2022
3294 Clear 6 1029 51 10000 0.45 356 03:28 04.02.2022
3295 Clear 5 1029 57 10000 3.13 350 02:33 04.02.2022
3296 Clear 2 1022 70 10000 2.24 350 23:34 03.02.2022
3297 Clear 2 1022 68 10000 2.68 349 22:48 03.02.2022
3298 Clear 3 1022 71 10000 2.24 348 21:51 03.02.2022
3299 Clear 3 1022 69 10000 0.45 346 20:50 03.02.2022
3300 Clear 3 1022 69 10000 0.45 345 20:21 03.02.2022
3301 Clear 4 1022 66 10000 0.45 338 19:34 03.02.2022
3302 Clear 4 1022 68 10000 2.24 326 18:48 03.02.2022
3303 Rain 4 1022 69 10000 0.89 319 17:47 03.02.2022
3304 Clear 4 1022 67 10000 0.89 54 16:39 03.02.2022
3305 Rain 4 1023 68 10000 0.45 31 14:54 03.02.2022
3306 Rain 4 1022 68 10000 0.89 29 13:19 03.02.2022
3307 Rain 5 1022 69 10000 0.45 29 11:43 03.02.2022
3308 Rain 7 1019 60 10000 0.89 49 08:40 03.02.2022
3309 Rain 7 1020 58 10000 0.45 44 07:20 03.02.2022
3310 Clouds 4 1022 69 10000 2.68 12 00:33 03.02.2022
3311 Clear 4 1022 70 10000 0.45 18 23:45 02.02.2022
3312 Clear 3 1021 69 10000 3.13 27 22:35 02.02.2022
3313 Rain 4 1022 69 10000 0.45 16 21:37 02.02.2022
3314 Clear 4 1022 69 10000 0.45 16 21:37 02.02.2022
3315 Rain 4 1022 70 10000 0.45 20 20:53 02.02.2022
3316 Clouds 3 1022 69 10000 0.45 23 19:59 02.02.2022
3317 Clouds 3 1022 69 10000 0.45 20 19:32 02.02.2022
3318 Clouds 3 1022 69 10000 0.45 17 18:50 02.02.2022
3319 Rain 3 1023 69 10000 0.45 18 18:22 02.02.2022
3320 Rain 3 1023 70 10000 0.45 29 17:19 02.02.2022
3321 Rain 3 1023 70 10000 0.45 29 16:42 02.02.2022
3322 Rain 3 1023 75 10000 0.45 32 13:57 02.02.2022
3323 Rain 3 1023 74 10000 0.89 32 12:25 02.02.2022
3324 Rain 4 1022 74 8000 0.89 33 11:34 02.02.2022
3325 Rain 4 1022 70 5000 0.45 33 10:31 02.02.2022
3326 Clouds 6 1022 61 10000 0.89 29 07:40 02.02.2022
3327 Rain 4 1024 57 10000 0.45 9 22:52 01.02.2022
3328 Rain 5 1024 57 10000 0.45 19 21:52 01.02.2022
3329 Clear 5 1024 55 10000 0.45 24 20:36 01.02.2022
3330 Rain 4 1024 60 10000 0.45 18 17:50 01.02.2022
3331 Rain 5 1025 60 10000 0.45 25 16:42 01.02.2022
3332 Clear 5 1025 57 10000 0.45 27 14:49 01.02.2022
3333 Clear 5 1024 55 10000 0.45 28 12:47 01.02.2022
3334 Clear 5 1024 53 10000 0.45 26 11:34 01.02.2022
3335 Clouds 8 1024 44 7000 0.45 14 05:43 01.02.2022
3336 Clouds 6 1023 57 8000 0.89 352 23:51 31.01.2022
3337 Clouds 6 1022 57 8000 3.13 352 23:28 31.01.2022
3338 Clear 6 1021 56 10000 2.24 341 21:59 31.01.2022
3339 Clear 6 1021 55 10000 0.45 342 21:32 31.01.2022
3340 Rain 6 1022 53 10000 0.45 345 20:33 31.01.2022
3341 Rain 6 1022 53 10000 0.45 335 19:45 31.01.2022
3342 Rain 6 1022 56 10000 1.34 324 18:26 31.01.2022
3343 Clear 6 1022 58 10000 0.89 318 17:41 31.01.2022
3344 Rain 6 1022 56 10000 0.89 305 16:43 31.01.2022
3345 Clear 6 1023 56 10000 0 0 15:43 31.01.2022
3346 Clear 6 1022 54 10000 0.45 142 14:22 31.01.2022
3347 Rain 7 1022 48 10000 1.34 136 12:39 31.01.2022
3348 Clear 7 1021 47 10000 0.45 116 11:56 31.01.2022
3349 Clear 8 1021 45 10000 0.45 38 10:50 31.01.2022
3350 Clear 8 1021 44 10000 0.45 27 10:30 31.01.2022
3351 Clear 8 1021 42 10000 0.89 334 09:26 31.01.2022
3352 Clear 9 1021 40 10000 0.45 311 08:50 31.01.2022
3353 Clear 9 1020 39 10000 0.89 323 08:20 31.01.2022
3354 Clear 8 1026 44 10000 0.89 261 06:18 31.01.2022
3355 Clear 1 1023 64 10000 0.45 342 00:55 31.01.2022
3356 Clear 1 1021 61 10000 0.45 348 22:55 30.01.2022
3357 Clear 1 1021 61 10000 1.34 334 22:25 30.01.2022
3358 Clear 1 1022 59 10000 1.79 332 21:40 30.01.2022
3359 Clear 1 1022 58 10000 1.34 332 21:19 30.01.2022
3360 Clear 2 1022 62 10000 1.34 321 20:46 30.01.2022
3361 Clear 2 1022 59 10000 0.45 1 20:27 30.01.2022
3362 Clear 3 1022 58 10000 0.45 327 19:45 30.01.2022
3363 Clear 2 1022 59 10000 0.45 2 18:43 30.01.2022
3364 Clear 2 1022 59 10000 1.79 10 18:18 30.01.2022
3365 Clear 2 1019 71 10000 2 10 17:22 30.01.2022
3366 Clear 3 1019 68 10000 0 0 16:40 30.01.2022
3367 Clear 3 1019 68 10000 0 0 16:21 30.01.2022
3368 Clear 3 1019 66 10000 1 60 15:50 30.01.2022
3369 Clear 3 1019 65 10000 1 0 15:31 30.01.2022
3370 Clear 3 1019 64 10000 1 0 14:46 30.01.2022
3371 Clear 5 1018 61 10000 2 310 12:47 30.01.2022
3372 Clear 5 1021 54 10000 0.45 354 11:57 30.01.2022
3373 Clouds 6 1020 50 10000 0.45 348 10:32 30.01.2022
3374 Clouds 6 1024 53 10000 0.45 346 09:50 30.01.2022
3375 Clouds 6 1020 52 10000 0.45 328 08:54 30.01.2022
3376 Clouds 6 1020 55 10000 0.45 294 07:28 30.01.2022
3377 Rain 3 1020 76 10000 0.89 336 01:56 30.01.2022
3378 Rain 3 1020 76 10000 0.89 336 01:56 30.01.2022
3379 Rain 2 1019 70 8000 0.45 334 00:23 30.01.2022
3380 Rain 2 1018 71 10000 0.89 335 23:18 29.01.2022
3381 Rain 2 1017 69 10000 0.89 332 21:49 29.01.2022
3382 Rain 2 1017 69 10000 0.45 300 21:24 29.01.2022
3383 Rain 3 1017 70 10000 0.45 334 20:28 29.01.2022
3384 Rain 3 1018 70 10000 0.45 334 19:34 29.01.2022
3385 Rain 3 1018 70 8000 4.02 334 18:52 29.01.2022
3386 Rain 3 1018 69 8000 0.89 337 18:18 29.01.2022
3387 Rain 3 1018 69 6000 0.89 342 17:28 29.01.2022
3388 Rain 3 1018 74 6000 0.45 342 15:50 29.01.2022
3389 Rain 3 1018 73 7000 0.45 355 13:59 29.01.2022
3390 Rain 3 1018 72 7000 0.45 356 13:41 29.01.2022
3391 Rain 3 1018 71 7000 0.45 358 13:22 29.01.2022
3392 Rain 4 1017 66 7000 4.02 5 11:40 29.01.2022
3393 Rain 4 1016 65 8000 0.45 12 10:54 29.01.2022
3394 Rain 4 1016 65 10000 0.89 19 08:42 29.01.2022
3395 Rain 6 1017 61 10000 0.45 11 06:37 29.01.2022
3396 Clear 3 1019 73 10000 0.45 4 00:34 29.01.2022
3397 Rain 3 1019 69 10000 0.89 359 23:44 28.01.2022
3398 Rain 3 1019 72 10000 0.45 4 22:48 28.01.2022
3399 Snow 3 1019 73 10000 0.45 9 22:20 28.01.2022
3400 Snow 2 1019 74 5000 0.45 2 20:42 28.01.2022
3401 Snow 2 1019 74 5000 0.45 2 20:23 28.01.2022
3402 Snow 2 1020 74 5000 0.89 12 19:28 28.01.2022
3403 Snow 2 1020 73 4000 0.45 4 18:38 28.01.2022
3404 Snow 2 1021 71 10000 0.89 1 16:39 28.01.2022
3405 Snow 3 1021 74 10000 0.45 2 14:59 28.01.2022
3406 Rain 4 1021 71 10000 0.89 8 13:23 28.01.2022
3407 Rain 4 1020 66 10000 0.45 16 11:52 28.01.2022
3408 Rain 4 1020 65 10000 0.89 14 10:32 28.01.2022
3409 Rain 5 1020 65 10000 0.45 315 09:47 28.01.2022
3410 Rain 6 1020 60 10000 0.45 272 07:43 28.01.2022
3411 Clouds 6 1020 59 10000 0.89 14 06:30 28.01.2022
3412 Rain 6 1023 62 10000 0.45 23 03:51 28.01.2022
3413 Clouds 5 1023 64 10000 0.89 19 02:28 28.01.2022
3414 Clouds 5 1023 65 10000 0.89 6 01:38 28.01.2022
3415 Clouds 5 1022 60 10000 0.89 12 00:46 28.01.2022
3416 Rain 5 1022 69 10000 0.45 22 22:20 27.01.2022
3417 Rain 5 1022 71 10000 0.45 5 21:37 27.01.2022
3418 Rain 5 1022 67 10000 0.45 0 20:59 27.01.2022
3419 Rain 5 1022 67 10000 0.45 0 20:59 27.01.2022
3420 Rain 5 1022 66 10000 0.89 7 19:45 27.01.2022
3421 Rain 5 1022 64 10000 0.45 8 18:20 27.01.2022
3422 Clear 5 1022 66 10000 0.45 9 16:55 27.01.2022
3423 Clouds 5 1022 75 8000 0.89 19 13:58 27.01.2022
3424 Rain 6 1021 74 10000 0.45 281 12:49 27.01.2022
3425 Rain 6 1021 73 10000 0.45 29 11:54 27.01.2022
3426 Rain 7 1019 69 10000 1.79 23 09:48 27.01.2022
3427 Rain 7 1019 69 10000 1.79 23 09:48 27.01.2022
3428 Clouds 7 1019 71 8000 0.45 27 08:40 27.01.2022
3429 Clouds 7 1019 74 7000 0.45 29 07:52 27.01.2022
3430 Mist 7 1021 76 4000 1.34 21 03:34 27.01.2022
3431 Rain 7 1019 75 5000 1.79 35 00:23 27.01.2022
3432 Rain 7 1017 75 8000 1.34 46 22:27 26.01.2022
3433 Rain 7 1017 75 8000 0.45 48 21:44 26.01.2022
3434 Rain 7 1018 75 8000 0.45 45 20:43 26.01.2022
3435 Clouds 7 1018 74 8000 2.68 44 20:24 26.01.2022
3436 Rain 7 1018 75 8000 1.34 48 19:30 26.01.2022
3437 Rain 7 1018 75 8000 2.24 50 18:46 26.01.2022
3438 Rain 7 1018 75 8000 2.24 48 18:18 26.01.2022
3439 Rain 7 1018 75 8000 1.34 46 17:33 26.01.2022
3440 Rain 7 1018 75 8000 0.45 41 16:47 26.01.2022
3441 Rain 7 1018 75 8000 1.34 43 15:56 26.01.2022
3442 Rain 7 1018 78 8000 1.79 44 14:30 26.01.2022
3443 Rain 7 1018 79 7000 1.79 55 12:18 26.01.2022
3444 Rain 7 1017 77 4000 1.79 55 10:49 26.01.2022
3445 Rain 7 1017 78 4000 0.89 52 09:50 26.01.2022
3446 Rain 8 1017 77 5000 0.89 50 08:32 26.01.2022
3447 Rain 8 1017 74 8000 2.68 55 06:27 26.01.2022
3448 Rain 8 1017 74 8000 2.68 55 06:27 26.01.2022
3449 Rain 8 1017 74 8000 2.68 55 06:27 26.01.2022
3450 Rain 8 1017 74 8000 2.68 55 06:27 26.01.2022
3451 Clouds 6 1019 66 8000 0.45 27 00:21 26.01.2022
3452 Clouds 6 1019 66 7000 0.89 32 23:34 25.01.2022
3453 Clouds 6 1019 65 7000 0.89 35 22:48 25.01.2022
3454 Clouds 6 1018 67 7000 0.45 33 22:18 25.01.2022
3455 Clouds 6 1019 66 7000 0.45 28 21:22 25.01.2022
3456 Clouds 6 1019 67 7000 0.45 27 20:44 25.01.2022
3457 Clouds 6 1019 69 7000 0.45 26 19:53 25.01.2022
3458 Clouds 6 1019 70 7000 0.45 13 18:46 25.01.2022
3459 Rain 6 1020 70 7000 2.24 4 17:45 25.01.2022
3460 Rain 6 1020 71 6000 2.24 356 16:58 25.01.2022
3461 Rain 6 1020 74 6000 0.45 355 16:34 25.01.2022
3462 Rain 7 1019 74 6000 2.24 13 15:39 25.01.2022
3463 Rain 7 1019 72 7000 0.45 19 14:58 25.01.2022
3464 Rain 7 1019 66 7000 0.45 19 13:47 25.01.2022
3465 Clouds 8 1017 62 7000 0.89 3 10:59 25.01.2022
3466 Clouds 8 1017 61 7000 0.89 1 09:20 25.01.2022
3467 Clouds 7 1022 61 6000 0.89 359 07:30 25.01.2022
3468 Clouds 7 1022 62 6000 0.45 359 06:51 25.01.2022
3469 Clouds 7 1023 63 6000 0.89 355 05:22 25.01.2022
3470 Clouds 6 1018 65 8000 0.45 358 23:37 24.01.2022
3471 Clouds 5 1018 64 8000 0.89 0 23:19 24.01.2022
3472 Clouds 5 1017 64 8000 2.68 359 22:59 24.01.2022
3473 Clouds 5 1017 64 8000 2.68 359 22:41 24.01.2022
3474 Clouds 6 1017 64 8000 0.45 357 21:55 24.01.2022
3475 Clouds 6 1017 64 8000 0.45 359 21:29 24.01.2022
3476 Clouds 6 1017 64 8000 0.89 10 20:33 24.01.2022
3477 Clouds 5 1018 69 8000 0.45 11 19:52 24.01.2022
3478 Clouds 5 1018 69 8000 0.45 9 19:30 24.01.2022
3479 Clouds 6 1018 62 8000 0.45 9 18:19 24.01.2022
3480 Clouds 6 1018 64 8000 0.45 11 17:24 24.01.2022
3481 Clouds 6 1018 64 8000 0.45 358 16:55 24.01.2022
3482 Clouds 6 1018 64 8000 0.45 355 16:19 24.01.2022
3483 Clouds 6 1018 67 8000 0.45 5 14:43 24.01.2022
3484 Clouds 6 1018 62 8000 0.45 13 13:24 24.01.2022
3485 Clouds 6 1017 62 8000 0.45 10 12:23 24.01.2022
3486 Clouds 7 1017 65 8000 1.34 76 10:46 24.01.2022
3487 Rain 7 1016 66 8000 0.89 98 09:48 24.01.2022
3488 Clouds 8 1016 66 6000 6.71 180 08:41 24.01.2022
3489 Clouds 8 1016 67 6000 0.45 88 06:41 24.01.2022
3490 Mist 7 1017 75 3500 0.45 3 01:31 24.01.2022
3491 Mist 7 1016 76 4000 0.45 2 00:38 24.01.2022
3492 Mist 7 1016 72 4000 0.45 3 00:20 24.01.2022
3493 Clouds 8 1015 73 8000 0.45 11 22:37 23.01.2022
3494 Rain 8 1015 77 10000 0.45 12 21:50 23.01.2022
3495 Rain 8 1015 77 10000 0.89 13 21:26 23.01.2022
3496 Rain 8 1015 78 10000 0.45 289 20:45 23.01.2022
3497 Rain 8 1014 74 10000 0.45 19 19:52 23.01.2022
3498 Rain 8 1015 75 10000 0.89 18 18:52 23.01.2022
3499 Rain 8 1014 79 10000 0.45 21 17:49 23.01.2022
3500 Clouds 9 1014 79 10000 0.45 22 16:47 23.01.2022
3501 Rain 9 1014 81 10000 0.45 28 14:59 23.01.2022
3502 Rain 9 1014 80 10000 0.89 28 14:25 23.01.2022
3503 Clouds 9 1013 81 10000 0.45 33 12:59 23.01.2022
3504 Clouds 9 1013 83 10000 0.89 34 12:22 23.01.2022
3505 Clouds 10 1013 82 10000 0.45 35 11:59 23.01.2022
3506 Rain 10 1012 82 10000 0.89 35 11:19 23.01.2022
3507 Rain 10 1012 82 8000 1.79 32 10:27 23.01.2022
3508 Rain 10 1011 83 8000 0.89 32 09:51 23.01.2022
3509 Rain 11 1011 84 7000 1.79 26 08:54 23.01.2022
3510 Rain 11 1011 84 7000 0.45 28 05:57 23.01.2022
3511 Rain 11 1011 85 4000 0.45 9 01:52 23.01.2022
3512 Rain 10 1011 84 3500 3.13 8 01:27 23.01.2022
3513 Rain 11 1010 80 4000 0.45 359 00:23 23.01.2022
3514 Rain 11 1010 80 3000 0.45 358 23:57 22.01.2022
3515 Rain 10 1010 84 3000 0.45 15 22:46 22.01.2022
3516 Rain 10 1011 80 2800 2.24 341 21:36 22.01.2022
3517 Rain 10 1011 83 3500 0.45 16 20:21 22.01.2022
3518 Mist 10 1011 83 2800 1.79 71 18:56 22.01.2022
3519 Mist 10 1011 83 3200 1.34 74 18:24 22.01.2022
3520 Clouds 10 1011 83 6000 1.79 67 17:40 22.01.2022
3521 Clouds 10 1012 83 6000 2.24 32 16:56 22.01.2022
3522 Rain 10 1012 83 5000 1.79 29 15:53 22.01.2022
3523 Rain 10 1012 83 6000 1.79 26 15:26 22.01.2022
3524 Rain 10 1012 82 5000 2.24 65 13:46 22.01.2022
3525 Rain 10 1013 82 6000 0.45 62 12:52 22.01.2022
3526 Rain 10 1013 82 6000 1.34 69 12:29 22.01.2022
3527 Rain 10 1013 81 6000 0.45 76 11:31 22.01.2022
3528 Rain 10 1012 81 7000 0.89 82 10:29 22.01.2022
3529 Rain 10 1012 81 7000 0.89 84 09:59 22.01.2022
3530 Clouds 11 1012 78 6000 0.89 83 08:52 22.01.2022
3531 Clouds 11 1013 76 8000 0.89 84 07:39 22.01.2022
3532 Clouds 11 1015 72 10000 0.45 93 04:53 22.01.2022
3533 Clouds 9 1016 73 10000 0.45 90 01:35 22.01.2022
3534 Clear 8 1016 73 10000 0.45 92 23:45 21.01.2022
3535 Rain 8 1016 73 10000 0.45 101 22:36 21.01.2022
3536 Rain 8 1017 69 10000 0.45 97 20:28 21.01.2022
3537 Rain 8 1018 65 10000 0.89 95 18:40 21.01.2022
3538 Clear 8 1018 65 10000 0.45 94 17:41 21.01.2022
3539 Clear 8 1019 65 10000 0.89 98 15:44 21.01.2022
3540 Rain 8 1020 62 10000 0.45 93 13:51 21.01.2022
3541 Rain 8 1020 62 10000 0.45 93 13:51 21.01.2022
3542 Rain 8 1020 60 10000 1.34 86 12:38 21.01.2022
3543 Clear 8 1020 60 10000 0.89 85 11:28 21.01.2022
3544 Clouds 8 1020 58 10000 1.79 86 10:19 21.01.2022
3545 Clouds 9 1020 55 10000 0.45 1 08:24 21.01.2022
3546 Clouds 10 1020 53 10000 0.89 79 06:57 21.01.2022
3547 Clear 5 1023 60 10000 0.89 88 23:36 20.01.2022
3548 Clear 5 1023 60 10000 0.89 87 22:24 20.01.2022
3549 Clear 5 1023 59 10000 1.79 111 21:43 20.01.2022
3550 Rain 5 1023 58 10000 0.89 106 20:53 20.01.2022
3551 Clear 5 1023 58 10000 1.34 110 19:20 20.01.2022
3552 Rain 5 1023 58 10000 1.79 99 18:50 20.01.2022
3553 Clear 5 1023 58 10000 1.79 78 17:29 20.01.2022
3554 Clear 5 1023 58 10000 0.45 225 15:43 20.01.2022
3555 Clear 5 1024 58 10000 2.68 69 15:19 20.01.2022
3556 Clear 5 1024 58 10000 2.24 83 13:41 20.01.2022
3557 Clear 5 1023 56 10000 1.79 81 12:35 20.01.2022
3558 Clear 6 1023 57 10000 0.45 43 11:50 20.01.2022
3559 Clear 7 1022 53 10000 1.34 45 10:40 20.01.2022
3560 Clear 7 1027 53 10000 0.89 45 09:37 20.01.2022
3561 Clear 8 1027 51 10000 0.89 44 07:51 20.01.2022
3562 Clouds 6 1023 63 6000 0.89 25 00:46 20.01.2022
3563 Clouds 6 1021 66 10000 0.89 24 22:59 19.01.2022
3564 Clouds 6 1021 66 10000 0.89 25 22:21 19.01.2022
3565 Clouds 6 1021 67 10000 0.89 25 21:23 19.01.2022
3566 Clouds 7 1021 70 10000 0.45 24 20:46 19.01.2022
3567 Clouds 7 1021 71 10000 0.89 22 19:45 19.01.2022
3568 Clouds 7 1021 70 10000 1.34 27 18:29 19.01.2022
3569 Clouds 7 1021 72 10000 1.79 36 17:44 19.01.2022
3570 Clear 8 1021 72 10000 0.45 31 16:47 19.01.2022
3571 Clear 9 1020 70 10000 0.45 33 14:42 19.01.2022
3572 Clouds 10 1019 68 10000 0.45 35 12:42 19.01.2022
3573 Clear 11 1018 65 10000 0.45 28 11:39 19.01.2022
3574 Clear 12 1018 58 10000 2.68 32 10:20 19.01.2022
3575 Clouds 12 1022 60 10000 2.68 42 09:34 19.01.2022
3576 Clouds 13 1022 57 10000 0.45 34 06:35 19.01.2022
3577 Clear 8 1024 67 10000 1 0 02:38 19.01.2022
3578 Clear 6 1018 72 10000 0.45 292 23:19 18.01.2022
3579 Clear 6 1018 72 10000 0.45 77 22:19 18.01.2022
3580 Clear 6 1018 71 10000 0.45 299 20:55 18.01.2022
3581 Clear 7 1018 68 10000 0.45 97 19:54 18.01.2022
3582 Clear 6 1019 69 10000 0.45 99 19:36 18.01.2022
3583 Clear 7 1019 66 10000 0.45 106 18:38 18.01.2022
3584 Clear 7 1019 66 10000 0.45 106 17:57 18.01.2022
3585 Clear 7 1019 65 10000 0.89 70 16:38 18.01.2022
3586 Clear 7 1019 64 10000 0.89 70 15:40 18.01.2022
3587 Clear 7 1019 65 10000 0.89 81 15:20 18.01.2022
3588 Clear 8 1017 69 10000 0.45 287 12:30 18.01.2022
3589 Clear 9 1017 62 10000 5 120 10:46 18.01.2022
3590 Clouds 12 1016 50 8000 2 130 08:49 18.01.2022
3591 Clouds 10 1025 56 8000 2 230 07:46 18.01.2022
3592 Clear 7 1029 69 10000 3 80 02:32 18.01.2022
3593 Clear 6 1020 73 10000 2 70 23:22 17.01.2022
3594 Clear 6 1020 72 10000 2 80 22:23 17.01.2022
3595 Clouds 7 1020 71 10000 3 70 21:33 17.01.2022
3596 Clouds 7 1020 70 10000 4 60 19:56 17.01.2022
3597 Clouds 7 1021 74 10000 3 70 18:29 17.01.2022
3598 Clouds 8 1021 73 10000 3 70 17:24 17.01.2022
3599 Clouds 8 1021 73 10000 3 40 16:27 17.01.2022
3600 Clear 8 1021 71 10000 2 80 14:59 17.01.2022
3601 Clear 8 1021 73 10000 3 70 14:33 17.01.2022
3602 Clear 8 1021 73 10000 2 100 13:20 17.01.2022
3603 Clear 8 1021 72 10000 2 80 12:54 17.01.2022
3604 Clear 9 1020 68 10000 4 40 11:48 17.01.2022
3605 Clear 10 1019 63 10000 3 20 10:21 17.01.2022
3606 Clouds 12 1019 58 10000 2 340 08:51 17.01.2022
3607 Clouds 12 1019 56 10000 1 0 07:22 17.01.2022
3608 Clear 9 1021 67 10000 3 90 02:23 17.01.2022
3609 Clouds 8 1020 72 10000 2 70 00:53 17.01.2022
3610 Clear 7 1019 74 10000 2 30 21:26 16.01.2022
3611 Rain 7 1022 63 10000 0.45 76 20:33 16.01.2022
3612 Rain 7 1022 63 10000 0.45 76 20:33 16.01.2022
3613 Clear 7 1022 63 10000 0.45 91 18:50 16.01.2022
3614 Clear 7 1023 62 10000 0.89 37 17:55 16.01.2022
3615 Clear 7 1023 62 10000 0.45 47 16:56 16.01.2022
3616 Clear 7 1023 62 10000 0.89 65 15:50 16.01.2022
3617 Clear 7 1023 62 10000 1.34 112 14:30 16.01.2022
3618 Clouds 7 1023 62 8000 0.89 110 13:33 16.01.2022
3619 Clouds 8 1023 61 6000 1.79 75 12:27 16.01.2022
3620 Clouds 8 1023 61 6000 0.45 348 11:38 16.01.2022
3621 Clouds 9 1023 59 6000 3.58 50 10:45 16.01.2022
3622 Haze 9 1022 57 5000 0.45 225 09:59 16.01.2022
3623 Haze 9 1022 56 5000 0.89 102 09:38 16.01.2022
3624 Haze 9 1022 55 5000 0.89 102 09:20 16.01.2022
3625 Haze 10 1026 56 5000 0.89 114 07:21 16.01.2022
3626 Mist 7 1022 65 5000 2 350 00:36 16.01.2022
3627 Clouds 7 1021 65 7000 2 340 22:55 15.01.2022
3628 Clouds 7 1021 65 7000 2.24 349 21:22 15.01.2022
3629 Clouds 7 1020 65 7000 1 0 20:45 15.01.2022
3630 Clouds 7 1021 65 7000 2 190 20:22 15.01.2022
3631 Clouds 7 1021 65 7000 1.79 355 19:27 15.01.2022
3632 Rain 7 1021 63 8000 1.34 351 18:20 15.01.2022
3633 Clear 6 1020 62 10000 1 0 16:49 15.01.2022
3634 Clear 7 1020 60 10000 0.45 140 14:38 15.01.2022
3635 Clear 8 1019 60 10000 0.45 67 12:40 15.01.2022
3636 Clouds 8 1019 56 8000 1.34 10 11:26 15.01.2022
3637 Clouds 10 1017 49 8000 0.45 1 09:46 15.01.2022
3638 Mist 5 1019 69 4000 2 290 01:58 15.01.2022
3639 Clouds 5 1018 69 8000 0.45 104 23:20 14.01.2022
3640 Clouds 4 1017 69 10000 0.45 5 21:18 14.01.2022
3641 Clouds 5 1018 71 10000 0.45 306 20:25 14.01.2022
3642 Clouds 5 1018 71 10000 0.45 47 19:50 14.01.2022
3643 Clouds 5 1018 71 10000 2.24 224 18:38 14.01.2022
3644 Clouds 4 1018 69 10000 0.89 273 17:21 14.01.2022
3645 Clouds 5 1019 69 10000 0.89 273 16:40 14.01.2022
3646 Rain 6 1019 60 10000 0.45 336 14:50 14.01.2022
3647 Rain 6 1019 58 10000 0.45 335 14:25 14.01.2022
3648 Rain 6 1019 57 10000 0.45 278 12:47 14.01.2022
3649 Clear 6 1019 54 10000 0.45 313 11:51 14.01.2022
3650 Clear 6 1018 51 10000 0.89 312 10:24 14.01.2022
3651 Rain 7 1018 47 10000 0.45 314 08:52 14.01.2022
3652 Rain 6 1018 45 10000 0.45 325 07:29 14.01.2022
3653 Clear 1 1028 57 10000 0.45 20 01:43 14.01.2022
3654 Clear 1 1023 54 10000 0.89 58 23:39 13.01.2022
3655 Clear 1 1023 53 10000 0.89 104 21:45 13.01.2022
3656 Clear 1 1023 54 10000 0.45 79 21:27 13.01.2022
3657 Clear 1 1023 56 10000 0.45 50 19:44 13.01.2022
3658 Clear 1 1023 56 10000 0.45 50 19:22 13.01.2022
3659 Clear 1 1024 55 10000 0.45 84 18:33 13.01.2022
3660 Clear 2 1024 55 10000 0.45 70 16:43 13.01.2022
3661 Clear 2 1024 54 10000 0.45 54 15:38 13.01.2022
3662 Clear 2 1024 53 10000 0.45 54 14:50 13.01.2022
3663 Clear 3 1024 53 10000 0.89 150 12:54 13.01.2022
3664 Clear 5 1023 45 10000 0.89 111 10:25 13.01.2022
3665 Clear 5 1028 47 10000 2.68 20 09:20 13.01.2022
3666 Clear 5 1027 46 10000 1.34 352 08:27 13.01.2022
3667 Clear 5 1028 47 10000 2.24 311 07:24 13.01.2022
3668 Clear 5 1028 48 10000 1.34 257 06:38 13.01.2022
3669 Clouds 4 1028 51 8000 0.89 192 05:20 13.01.2022
3670 Haze 4 1023 59 3000 0.45 287 02:33 13.01.2022
3671 Mist 4 1021 65 3200 0.45 337 00:56 13.01.2022
3672 Clouds 4 1020 61 6000 0.45 286 23:49 12.01.2022
3673 Clouds 4 1020 61 6000 0.45 283 23:24 12.01.2022
3674 Clouds 3 1018 58 7000 1.34 330 21:58 12.01.2022
3675 Clear 3 1018 56 10000 1.34 52 21:23 12.01.2022
3676 Clear 3 1018 55 10000 0.45 354 20:57 12.01.2022
3677 Clear 3 1018 55 10000 0.89 11 19:55 12.01.2022
3678 Clear 3 1018 51 10000 0.45 23 18:43 12.01.2022
3679 Clear 3 1018 50 10000 2.24 268 17:38 12.01.2022
3680 Clear 3 1019 47 10000 0.45 2 16:33 12.01.2022
3681 Clear 4 1018 47 10000 0.45 326 14:48 12.01.2022
3682 Clear 5 1019 49 10000 0.45 289 13:24 12.01.2022
3683 Clear 6 1018 47 10000 2 230 11:59 12.01.2022
3684 Clear 8 1022 40 10000 0.89 15 08:43 12.01.2022
3685 Clear 8 1022 42 10000 0.89 15 07:50 12.01.2022
3686 Clear 8 1023 42 10000 0.89 346 07:31 12.01.2022
3687 Clear 1 1022 58 10000 0.45 64 23:53 11.01.2022
3688 Clear 1 1021 58 10000 0 0 22:56 11.01.2022
3689 Clear 1 1021 57 10000 0 0 22:23 11.01.2022
3690 Clear 1 1021 53 10000 1.79 6 20:56 11.01.2022
3691 Clear 1 1021 52 10000 0.45 79 20:20 11.01.2022
3692 Clear 2 1022 52 10000 0.45 113 18:32 11.01.2022
3693 Clear 2 1022 51 10000 0.45 104 17:35 11.01.2022
3694 Clear 2 1022 51 10000 0.89 106 16:38 11.01.2022
3695 Clear 2 1023 52 10000 1.34 64 15:47 11.01.2022
3696 Clear 3 1023 52 10000 0.89 117 14:42 11.01.2022
3697 Clear 3 1023 52 10000 0.89 117 13:56 11.01.2022
3698 Clear 3 1023 52 10000 0.89 80 13:36 11.01.2022
3699 Clear 3 1023 51 10000 0.89 80 12:48 11.01.2022
3700 Clear 4 1023 48 10000 0.45 135 11:45 11.01.2022
3701 Clear 5 1027 45 10000 1.34 98 09:39 11.01.2022
3702 Clear 5 1026 44 10000 1.79 190 07:18 11.01.2022
3703 Clouds 4 1022 62 7000 0.45 299 00:33 11.01.2022
3704 Clouds 4 1021 62 7000 0.45 310 23:44 10.01.2022
3705 Clouds 4 1021 64 7000 0.45 306 23:24 10.01.2022
3706 Mist 5 1020 66 5000 0.45 309 22:19 10.01.2022
3707 Mist 5 1020 66 5000 0.45 309 22:19 10.01.2022
3708 Mist 5 1020 67 4000 0.45 311 21:54 10.01.2022
3709 Mist 5 1020 69 3500 0.45 324 21:21 10.01.2022
3710 Mist 5 1020 67 3500 0.89 83 20:57 10.01.2022
3711 Mist 5 1019 68 3500 0.45 298 20:28 10.01.2022
3712 Mist 5 1019 69 3500 0.89 9 19:44 10.01.2022
3713 Mist 5 1019 69 3500 0.45 302 19:21 10.01.2022
3714 Mist 5 1019 69 3500 0.45 302 19:21 10.01.2022
3715 Mist 5 1019 69 3500 0.45 333 18:49 10.01.2022
3716 Mist 6 1018 70 3500 0.45 303 17:41 10.01.2022
3717 Mist 6 1019 68 3500 0.45 307 16:42 10.01.2022
3718 Mist 6 1019 65 3500 0.45 309 15:49 10.01.2022
3719 Haze 7 1018 64 3500 0.89 313 14:30 10.01.2022
3720 Haze 7 1017 60 4000 0.45 169 11:58 10.01.2022
3721 Haze 7 1016 59 4000 0.89 24 11:25 10.01.2022
3722 Haze 8 1015 59 3500 0.45 214 09:50 10.01.2022
3723 Haze 8 1015 58 3500 0.89 324 07:18 10.01.2022
3724 Haze 8 1016 58 3500 0.89 259 05:49 10.01.2022
3725 Haze 8 1016 58 3500 0.89 259 05:49 10.01.2022
3726 Haze 7 1017 64 2800 0.45 225 01:30 10.01.2022
3727 Mist 6 1017 66 3500 0.45 89 00:25 10.01.2022
3728 Mist 6 1017 67 4000 2 10 23:33 09.01.2022
3729 Mist 6 1017 65 4000 1.34 14 22:37 09.01.2022
3730 Mist 6 1017 65 4000 0.45 335 21:46 09.01.2022
3731 Mist 6 1017 65 4000 0.89 332 21:23 09.01.2022
3732 Mist 6 1017 65 4000 0.89 107 20:51 09.01.2022
3733 Mist 6 1017 64 4000 0.89 107 20:33 09.01.2022
3734 Mist 7 1017 65 4000 0.45 108 19:44 09.01.2022
3735 Mist 7 1017 65 4000 0.45 108 19:23 09.01.2022
3736 Haze 7 1018 64 4000 0.45 108 18:52 09.01.2022
3737 Haze 7 1018 64 4000 2 30 18:33 09.01.2022
3738 Haze 7 1018 64 4200 0.45 180 17:31 09.01.2022
3739 Haze 7 1018 63 4500 0.45 278 16:53 09.01.2022
3740 Haze 7 1018 62 5000 0.45 309 15:57 09.01.2022
3741 Haze 7 1019 62 5000 3 350 15:35 09.01.2022
3742 Clouds 7 1019 62 6000 0.45 31 14:40 09.01.2022
3743 Clouds 7 1019 60 6000 0.45 31 13:50 09.01.2022
3744 Clouds 7 1018 60 6000 2 350 12:50 09.01.2022
3745 Clouds 7 1018 60 6000 0.45 110 11:51 09.01.2022
3746 Clouds 7 1017 60 6000 0.89 300 10:52 09.01.2022
3747 Clouds 7 1017 59 6000 0.45 135 09:42 09.01.2022
3748 Clouds 7 1017 61 6000 0.45 5 08:34 09.01.2022
3749 Rain 8 1019 57 10000 0.89 89 03:55 09.01.2022
3750 Rain 7 1019 60 10000 0.45 8 01:23 09.01.2022
3751 Rain 6 1019 60 10000 0.45 270 23:39 08.01.2022
3752 Rain 6 1018 60 10000 0.89 119 22:59 08.01.2022
3753 Rain 6 1018 60 10000 0.89 113 22:19 08.01.2022
3754 Rain 6 1018 60 10000 0.89 92 21:25 08.01.2022
3755 Rain 6 1019 60 10000 1.34 104 20:41 08.01.2022
3756 Clear 6 1019 60 10000 1.34 104 20:19 08.01.2022
3757 Clear 6 1019 59 10000 0.89 118 18:34 08.01.2022
3758 Rain 7 1019 60 10000 0.89 102 17:22 08.01.2022
3759 Clear 7 1020 60 10000 0.89 90 15:51 08.01.2022
3760 Clear 7 1020 61 10000 0.45 270 14:43 08.01.2022
3761 Clear 7 1021 59 10000 0.89 235 13:25 08.01.2022
3762 Rain 8 1020 57 10000 0.45 123 11:25 08.01.2022
3763 Clear 8 1019 56 10000 0.89 173 10:25 08.01.2022
3764 Clear 8 1019 55 10000 0.89 113 09:47 08.01.2022
3765 Clear 8 1020 53 10000 1.34 233 07:21 08.01.2022
3766 Clear 8 1023 59 10000 0.45 95 02:45 08.01.2022
3767 Clear 7 1022 65 10000 0.45 88 00:41 08.01.2022
3768 Clear 7 1022 67 10000 0.45 69 22:47 07.01.2022
3769 Clouds 6 1022 67 10000 1.79 11 20:58 07.01.2022
3770 Clouds 6 1022 69 10000 1.79 12 20:19 07.01.2022
3771 Clear 5 1023 68 10000 1.79 24 19:18 07.01.2022
3772 Clear 6 1023 67 10000 1.79 26 18:44 07.01.2022
3773 Clear 7 1023 66 10000 0.89 100 17:26 07.01.2022
3774 Clear 7 1023 66 10000 1.79 67 16:30 07.01.2022
3775 Clear 7 1024 62 10000 0.89 114 13:54 07.01.2022
3776 Clear 7 1024 61 10000 1.79 89 13:22 07.01.2022
3777 Clear 8 1024 61 10000 0.45 270 12:49 07.01.2022
3778 Clear 10 1022 52 10000 0.45 225 09:37 07.01.2022
3779 Clear 8 1031 58 10000 0.89 101 02:55 07.01.2022
3780 Clear 7 1031 61 10000 0.45 90 01:54 07.01.2022
3781 Clear 7 1026 65 10000 3 360 01:27 07.01.2022
3782 Clear 6 1025 65 10000 3 350 00:58 07.01.2022
3783 Clear 5 1025 65 10000 0.45 90 22:54 06.01.2022
3784 Clear 6 1025 64 10000 0.45 180 21:28 06.01.2022
3785 Clear 6 1026 62 10000 0.89 6 20:21 06.01.2022
3786 Clear 6 1026 61 10000 2 350 19:44 06.01.2022
3787 Clear 6 1026 61 10000 0.45 276 17:54 06.01.2022
3788 Clouds 6 1027 61 10000 0.45 269 17:34 06.01.2022
3789 Clouds 6 1027 60 10000 0.89 235 16:42 06.01.2022
3790 Clouds 7 1026 61 10000 0.45 180 15:46 06.01.2022
3791 Clouds 7 1026 60 10000 0.89 19 15:25 06.01.2022
3792 Clouds 7 1026 59 10000 0.45 68 14:43 06.01.2022
3793 Clouds 7 1026 58 10000 0.45 68 14:18 06.01.2022
3794 Clouds 7 1025 58 10000 1.34 78 12:43 06.01.2022
3795 Clouds 7 1025 58 10000 0.89 80 11:42 06.01.2022
3796 Clouds 7 1025 58 10000 0.89 80 11:42 06.01.2022
3797 Clouds 7 1025 57 10000 0.89 80 11:22 06.01.2022
3798 Clouds 8 1024 54 10000 0.89 91 08:51 06.01.2022
3799 Clouds 7 1024 64 10000 1.34 1 00:43 06.01.2022
3800 Clouds 7 1024 67 10000 0.45 278 23:36 05.01.2022
3801 Clouds 7 1023 68 10000 0.45 49 22:54 05.01.2022
3802 Clouds 7 1023 68 10000 0.45 7 22:30 05.01.2022
3803 Clouds 7 1023 69 10000 0.45 7 21:47 05.01.2022
3804 Clouds 7 1022 70 10000 0.89 73 20:50 05.01.2022
3805 Clouds 7 1022 73 10000 0.45 94 19:59 05.01.2022
3806 Clouds 7 1022 78 10000 0.89 85 18:38 05.01.2022
3807 Clouds 7 1021 77 10000 0.45 316 17:23 05.01.2022
3808 Clouds 7 1021 78 10000 0.45 307 16:38 05.01.2022
3809 Clouds 7 1020 80 10000 0.89 111 15:20 05.01.2022
3810 Clouds 7 1019 79 10000 1.34 109 13:51 05.01.2022
3811 Clouds 7 1019 79 10000 0.89 91 12:51 05.01.2022
3812 Rain 9 1016 80 10000 1.79 93 09:30 05.01.2022
3813 Rain 9 1014 80 8000 1.34 104 07:42 05.01.2022
3814 Rain 10 1015 79 7000 1.79 64 04:58 05.01.2022
3815 Clouds 11 1014 68 10000 0.45 270 00:44 05.01.2022
3816 Clouds 11 1015 68 10000 0.89 21 23:27 04.01.2022
3817 Clouds 11 1015 68 10000 0.89 21 22:40 04.01.2022
3818 Clouds 11 1015 68 10000 0.45 308 21:18 04.01.2022
3819 Clouds 11 1016 69 10000 1.34 53 19:19 04.01.2022
3820 Rain 11 1017 68 10000 1.34 34 17:39 04.01.2022
3821 Clouds 11 1018 68 10000 1.34 64 16:41 04.01.2022
3822 Clouds 11 1018 68 10000 0.89 63 16:22 04.01.2022
3823 Clouds 11 1019 69 10000 1.34 70 14:52 04.01.2022
3824 Clouds 10 1019 70 10000 1.79 77 14:34 04.01.2022
3825 Rain 11 1019 70 10000 1.79 72 13:26 04.01.2022
3826 Clouds 11 1019 66 10000 2.24 77 10:40 04.01.2022
3827 Clouds 12 1019 65 10000 2.24 60 09:20 04.01.2022
3828 Clouds 12 1018 63 10000 1.34 94 08:25 04.01.2022
3829 Mist 9 1021 75 4000 0.45 92 01:51 04.01.2022
3830 Mist 7 1021 79 4000 0.89 102 00:40 04.01.2022
3831 Mist 6 1020 76 4000 1.79 63 22:51 03.01.2022
3832 Clear 6 1020 75 6000 2.24 59 21:42 03.01.2022
3833 Clear 6 1020 74 6000 2.24 59 21:24 03.01.2022
3834 Clear 7 1020 71 8000 1.34 103 19:47 03.01.2022
3835 Clear 7 1020 72 10000 1.34 112 18:33 03.01.2022
3836 Clear 7 1020 69 10000 1.79 107 17:40 03.01.2022
3837 Clear 7 1020 69 10000 1.79 107 17:40 03.01.2022
3838 Clear 8 1020 69 10000 1.79 117 16:57 03.01.2022
3839 Clear 9 1020 65 10000 0.45 78 14:55 03.01.2022
3840 Clear 8 1020 66 10000 0.45 54 14:29 03.01.2022
3841 Clear 10 1020 61 10000 0.45 67 12:35 03.01.2022
3842 Clear 11 1019 59 10000 2 350 11:33 03.01.2022
3843 Clear 12 1023 55 10000 0.45 294 09:49 03.01.2022
3844 Clear 13 1023 52 10000 0.89 244 08:46 03.01.2022
3845 Clear 13 1024 52 10000 0.89 85 06:47 03.01.2022
3846 Mist 5 1020 75 4000 0.89 62 23:47 02.01.2022
3847 Mist 5 1020 73 4000 0.89 62 23:18 02.01.2022
3848 Fog 5 1020 73 4000 0.45 45 22:42 02.01.2022
3849 Mist 5 1020 73 5000 0 0 21:32 02.01.2022
3850 Mist 5 1021 73 5000 1.34 116 20:31 02.01.2022
3851 Mist 5 1021 73 5000 1.34 116 20:30 02.01.2022
3852 Mist 5 1021 73 5000 1.34 116 20:30 02.01.2022
3853 Mist 5 1021 73 5000 1.34 116 20:30 02.01.2022
3854 Clear 6 1021 73 6000 1 10 19:31 02.01.2022
3855 Clouds 6 1021 72 7000 1 10 18:56 02.01.2022
3856 Clouds 6 1021 70 7000 1.34 55 17:58 02.01.2022
3857 Clouds 7 1021 70 7000 1 0 17:39 02.01.2022
3858 Clouds 7 1022 70 7000 0.89 81 17:21 02.01.2022
3859 Clouds 7 1022 68 8000 0.89 114 16:28 02.01.2022
3860 Clear 8 1023 66 10000 1.34 92 14:44 02.01.2022
3861 Clear 8 1023 63 10000 3 50 13:37 02.01.2022
3862 Clear 9 1023 61 10000 0.45 60 12:32 02.01.2022
3863 Clear 9 1023 58 10000 0.89 96 11:49 02.01.2022
3864 Clear 10 1022 54 10000 0.89 84 10:53 02.01.2022
3865 Clear 11 1022 49 10000 0.89 84 09:56 02.01.2022
3866 Clouds 11 1027 48 8000 0.89 50 07:34 02.01.2022
3867 Haze 7 1030 59 5000 1.79 38 02:56 02.01.2022
3868 Clear 5 1028 63 8000 0.45 195 23:42 01.01.2022
3869 Clear 5 1028 63 8000 0.45 195 23:24 01.01.2022
3870 Clear 5 1027 64 8000 0.45 342 22:25 01.01.2022
3871 Clear 5 1027 64 8000 0.45 135 21:45 01.01.2022
3872 Clear 5 1027 63 8000 2.24 299 21:21 01.01.2022
3873 Clear 6 1027 61 10000 2 300 20:20 01.01.2022
3874 Clear 6 1027 61 10000 0.45 330 19:33 01.01.2022
3875 Clear 7 1027 56 10000 0.45 284 18:29 01.01.2022
3876 Clear 8 1027 54 10000 0.45 95 16:55 01.01.2022
3877 Clear 8 1027 57 10000 0.45 303 16:34 01.01.2022
3878 Clear 8 1027 57 10000 0.45 348 15:33 01.01.2022
3879 Clear 8 1027 60 10000 0.45 291 14:22 01.01.2022
3880 Clear 9 1027 58 10000 0.45 99 13:28 01.01.2022
3881 Clear 9 1026 58 10000 0.45 99 11:59 01.01.2022
3882 Clear 9 1026 58 10000 0.45 8 11:24 01.01.2022
3883 Clear 9 1026 58 10000 0.45 8 10:43 01.01.2022
3884 Clear 9 1026 56 10000 0.89 1 09:47 01.01.2022
3885 Clear 10 1026 55 10000 0.89 7 08:27 01.01.2022
3886 Clear 10 1026 55 10000 0.89 7 07:56 01.01.2022
3887 Clear 10 1026 55 10000 0.89 18 07:37 01.01.2022
3888 Clear 10 1026 53 10000 0.45 274 06:42 01.01.2022
3889 Clear 10 1028 53 10000 1.34 18 04:38 01.01.2022
3890 Clear 9 1029 52 10000 0.89 29 03:38 01.01.2022
3891 Clear 6 1029 51 10000 3 110 23:52 31.12.2021
3892 Clear 6 1029 49 10000 1 0 21:55 31.12.2021
3893 Clear 6 1030 49 10000 0.45 0 20:48 31.12.2021
3894 Clear 6 1030 47 10000 0.89 109 19:31 31.12.2021
3895 Clear 7 1031 53 10000 3 120 18:46 31.12.2021
3896 Clear 6 1031 48 10000 0.45 81 17:45 31.12.2021
3897 Clear 6 1031 48 10000 0.45 81 17:19 31.12.2021
3898 Clear 6 1031 46 10000 0.89 110 16:46 31.12.2021
3899 Clear 6 1032 46 10000 0.89 110 15:59 31.12.2021
3900 Clear 6 1032 46 10000 0.89 110 15:40 31.12.2021
3901 Clear 6 1032 46 10000 1.34 23 15:19 31.12.2021
3902 Clear 6 1032 47 10000 1.34 52 14:33 31.12.2021
3903 Clear 6 1032 46 10000 1.34 52 13:44 31.12.2021
3904 Clear 7 1032 47 10000 0.45 270 12:49 31.12.2021
3905 Clear 7 1032 47 10000 1.34 63 12:19 31.12.2021
3906 Clear 7 1032 44 10000 0.89 98 11:33 31.12.2021
3907 Clear 8 1031 44 10000 0.89 98 10:41 31.12.2021
3908 Clear 8 1031 44 10000 1.34 32 10:23 31.12.2021
3909 Clear 9 1031 42 10000 1.34 77 09:33 31.12.2021
3910 Clear 9 1031 41 10000 1.34 77 08:49 31.12.2021
3911 Clear 9 1031 43 10000 0.89 94 07:49 31.12.2021
3912 Clear 2 1034 58 8000 1.79 18 00:47 31.12.2021
3913 Clear 2 1033 61 10000 1.79 6 22:50 30.12.2021
3914 Clear 2 1032 62 10000 1.79 7 22:26 30.12.2021
3915 Clear 2 1032 60 10000 1.79 356 21:37 30.12.2021
3916 Clear 2 1032 61 10000 1.34 354 20:49 30.12.2021
3917 Clear 2 1032 61 10000 1.34 354 20:28 30.12.2021
3918 Clear 2 1032 63 10000 1.34 353 19:48 30.12.2021
3919 Clear 3 1032 60 10000 1.34 353 19:18 30.12.2021
3920 Clear 3 1032 59 10000 0.45 260 18:21 30.12.2021
3921 Clear 4 1032 54 10000 1 360 16:37 30.12.2021
3922 Clear 5 1032 52 10000 1 20 15:53 30.12.2021
3923 Clear 5 1032 50 10000 0.45 260 14:49 30.12.2021
3924 Clear 5 1032 48 10000 3 330 14:30 30.12.2021
3925 Clear 6 1032 45 10000 2 340 13:24 30.12.2021
3926 Clear 7 1031 43 10000 0.45 186 11:35 30.12.2021
3927 Clear 8 1030 40 10000 0.89 348 10:27 30.12.2021
3928 Clear 9 1029 38 10000 1.79 47 09:27 30.12.2021
3929 Clear 9 1029 38 10000 0.89 346 06:55 30.12.2021
3930 Clear 8 1031 43 8000 0.89 253 04:25 30.12.2021
3931 Clear 7 1027 43 8000 0.45 351 03:40 30.12.2021
3932 Clear 5 1023 52 7000 3 280 01:56 30.12.2021
3933 Clear 3 1025 56 10000 0.45 287 23:36 29.12.2021
3934 Clear 3 1024 55 10000 1 0 22:32 29.12.2021
3935 Clear 3 1024 53 10000 0 0 21:54 29.12.2021
3936 Clear 3 1024 53 10000 0.45 255 20:56 29.12.2021
3937 Clear 3 1024 52 10000 0 0 20:18 29.12.2021
3938 Clear 4 1024 49 10000 1 0 19:30 29.12.2021
3939 Clear 5 1023 45 10000 0.45 281 18:30 29.12.2021
3940 Clear 5 1023 45 10000 0.89 251 17:30 29.12.2021
3941 Clear 6 1024 44 10000 0.89 251 16:58 29.12.2021
3942 Clear 6 1024 45 10000 0.45 219 16:19 29.12.2021
3943 Clear 7 1023 42 10000 0.45 135 14:47 29.12.2021
3944 Clear 8 1023 41 10000 3 310 12:50 29.12.2021
3945 Clear 8 1023 41 10000 3 290 12:27 29.12.2021
3946 Clear 9 1021 40 10000 1.34 316 10:38 29.12.2021
3947 Clear 10 1019 35 10000 1.34 311 08:37 29.12.2021
3948 Clear 11 1019 39 10000 1.34 325 06:49 29.12.2021
3949 Clear 10 1020 38 10000 1.34 316 06:28 29.12.2021
3950 Clear 10 1020 39 10000 2.24 292 05:50 29.12.2021
3951 Clear 8 1022 39 10000 1.34 313 03:46 29.12.2021
3952 Clear 5 1021 54 10000 0.45 354 00:28 29.12.2021
3953 Clear 4 1021 56 10000 0.45 350 23:56 28.12.2021
3954 Clear 4 1020 57 10000 0.89 16 22:50 28.12.2021
3955 Clear 4 1020 56 10000 0.45 359 22:24 28.12.2021
3956 Clear 4 1020 55 10000 0.45 23 21:53 28.12.2021
3957 Clear 4 1020 53 10000 0.89 15 20:49 28.12.2021
3958 Clear 4 1020 51 10000 0.45 43 19:44 28.12.2021
3959 Clear 4 1020 51 10000 0.45 330 18:44 28.12.2021
3960 Clear 4 1020 51 10000 0.45 330 18:23 28.12.2021
3961 Clear 4 1021 50 10000 2 210 16:35 28.12.2021
3962 Clear 4 1021 49 10000 2 230 15:52 28.12.2021
3963 Clear 4 1021 50 10000 2 240 15:25 28.12.2021
3964 Clear 4 1022 51 10000 1 260 14:52 28.12.2021
3965 Clear 4 1022 55 10000 2.24 229 14:21 28.12.2021
3966 Clear 4 1022 54 10000 2.24 208 13:54 28.12.2021
3967 Clear 5 1022 54 10000 0.45 45 13:31 28.12.2021
3968 Clear 5 1021 52 10000 0.45 90 12:55 28.12.2021
3969 Clear 5 1021 52 10000 0.45 79 11:51 28.12.2021
3970 Clear 6 1021 51 10000 0.89 286 09:30 28.12.2021
3971 Clear 6 1022 49 10000 0.45 39 07:31 28.12.2021
3972 Clear 4 1026 42 10000 0.45 30 02:22 28.12.2021
3973 Clear 1 1023 51 10000 2 10 23:26 27.12.2021
3974 Clear 0 1026 47 10000 0.45 81 22:20 27.12.2021
3975 Clear 0 1026 41 10000 0.45 89 21:29 27.12.2021
3976 Clear 1 1027 38 10000 0 0 20:24 27.12.2021
3977 Clear 1 1027 38 10000 0 0 20:24 27.12.2021
3978 Clear 0 1027 43 10000 1 180 19:45 27.12.2021
3979 Clear 1 1027 44 10000 1 240 18:54 27.12.2021
3980 Clear 1 1028 41 10000 1 200 17:50 27.12.2021
3981 Clear 1 1028 40 10000 1 170 17:18 27.12.2021
3982 Clear 1 1029 38 10000 0.89 21 15:53 27.12.2021
3983 Clear 2 1029 34 10000 0.45 45 14:34 27.12.2021
3984 Rain 2 1029 34 10000 0.45 253 13:58 27.12.2021
3985 Clear 2 1029 32 10000 0.89 228 12:47 27.12.2021
3986 Clear 3 1028 31 10000 0.45 48 10:36 27.12.2021
3987 Clear 3 1028 31 10000 0.45 48 10:18 27.12.2021
3988 Clear 4 1034 33 10000 1.34 17 08:39 27.12.2021
3989 Clear 3 1034 34 10000 1.34 81 07:32 27.12.2021
3990 Clear -1 1038 36 10000 0.89 264 02:26 27.12.2021
3991 Clear -2 1032 34 10000 0.89 261 00:23 27.12.2021
3992 Clear -2 1032 34 10000 0.45 333 23:41 26.12.2021
3993 Clear -2 1032 33 10000 0.45 313 22:47 26.12.2021
3994 Clear -2 1032 33 10000 0.89 144 21:30 26.12.2021
3995 Clear -2 1032 35 10000 0.45 325 19:52 26.12.2021
3996 Clear -2 1033 36 10000 0.89 80 18:25 26.12.2021
3997 Clear -2 1033 34 10000 0.45 307 17:44 26.12.2021
3998 Clear -1 1033 33 10000 0.45 321 14:38 26.12.2021
3999 Clear 0 1034 32 10000 0.89 19 13:43 26.12.2021
4000 Clear 0 1034 33 10000 0.45 284 13:21 26.12.2021
4001 Clear 0 1033 34 10000 0.45 281 12:34 26.12.2021
4002 Clear 1 1033 33 10000 0.45 314 10:48 26.12.2021
4003 Clear 2 1032 32 10000 0.45 314 09:29 26.12.2021
4004 Clear 1 1037 34 10000 1.79 72 08:44 26.12.2021
4005 Clear 2 1037 34 10000 1.79 72 08:23 26.12.2021
4006 Clear 0 1034 52 10000 1.34 71 01:36 26.12.2021
4007 Clear -1 1034 55 10000 0.45 300 00:20 26.12.2021
4008 Clear -1 1034 55 10000 0.45 305 23:28 25.12.2021
4009 Clear -1 1034 55 10000 0.45 319 22:29 25.12.2021
4010 Clear -1 1034 54 10000 1.79 30 21:25 25.12.2021
4011 Clear -1 1033 56 10000 0.45 312 19:28 25.12.2021
4012 Clear -1 1033 55 10000 0.45 320 18:57 25.12.2021
4013 Clear 0 1033 55 10000 0.45 323 18:25 25.12.2021
4014 Clear 0 1033 55 10000 0.45 294 16:46 25.12.2021
4015 Clouds 1 1033 54 10000 0.45 311 15:26 25.12.2021
4016 Clouds 2 1033 56 10000 0.45 334 13:43 25.12.2021
4017 Clouds 3 1032 50 10000 1.34 70 12:18 25.12.2021
4018 Clouds 3 1030 52 10000 1.79 348 10:32 25.12.2021
4019 Clouds 3 1030 53 10000 1.79 348 09:48 25.12.2021
4020 Clouds 4 1029 53 10000 1.34 271 05:39 25.12.2021
4021 Clouds 4 1029 58 10000 1.34 356 01:31 25.12.2021
4022 Clouds 4 1028 60 10000 0.89 64 23:55 24.12.2021
4023 Clouds 4 1027 62 10000 1.34 54 21:46 24.12.2021
4024 Clouds 5 1026 64 8000 0.45 8 19:26 24.12.2021
4025 Rain 6 1025 64 8000 0.45 282 18:34 24.12.2021
4026 Clouds 6 1025 71 7000 1.34 56 16:40 24.12.2021
4027 Clouds 7 1024 70 8000 0.45 265 15:49 24.12.2021
4028 Clouds 7 1024 69 10000 0.45 297 15:20 24.12.2021
4029 Clouds 7 1023 72 10000 0.45 270 14:31 24.12.2021
4030 Clouds 7 1023 74 10000 0.45 278 13:45 24.12.2021
4031 Rain 8 1022 74 10000 0.45 288 12:55 24.12.2021
4032 Clouds 8 1022 74 10000 0.45 295 12:34 24.12.2021
4033 Clouds 9 1020 77 6000 0.45 269 11:42 24.12.2021
4034 Rain 9 1020 77 6000 0.89 322 11:19 24.12.2021
4035 Rain 10 1019 73 6000 0.45 303 10:33 24.12.2021
4036 Clouds 10 1017 75 7000 0.45 269 08:38 24.12.2021
4037 Mist 10 1016 78 5000 0.89 41 07:58 24.12.2021
4038 Clouds 13 1015 72 10000 1.34 86 06:18 24.12.2021
4039 Clear 13 1013 75 10000 0.89 64 00:20 24.12.2021
4040 Clouds 13 1012 75 10000 1.34 69 23:33 23.12.2021
4041 Clear 13 1012 73 10000 1.34 72 22:50 23.12.2021
4042 Clouds 13 1012 71 10000 0 0 22:22 23.12.2021
4043 Clouds 13 1012 71 10000 2 30 21:39 23.12.2021
4044 Clouds 13 1012 71 10000 1 0 20:27 23.12.2021
4045 Clear 13 1012 71 10000 0.45 89 19:28 23.12.2021
4046 Clear 13 1013 71 10000 0.45 36 17:58 23.12.2021
4047 Clear 13 1013 71 10000 3.13 96 17:18 23.12.2021
4048 Clear 12 1013 70 10000 0.45 30 16:26 23.12.2021
4049 Clear 12 1014 70 10000 0.45 55 15:32 23.12.2021
4050 Clear 12 1014 69 10000 0.45 55 14:58 23.12.2021
4051 Clear 12 1013 69 10000 0.45 42 14:38 23.12.2021
4052 Clear 12 1014 67 10000 0.45 61 13:25 23.12.2021
4053 Clear 13 1014 63 10000 0.89 49 11:20 23.12.2021
4054 Clear 15 1014 55 10000 1.34 11 09:53 23.12.2021
4055 Clear 15 1019 57 10000 1.79 29 09:33 23.12.2021
4056 Clear 16 1019 54 10000 1.34 15 08:25 23.12.2021
4057 Clear 15 1021 57 10000 1.79 30 05:23 23.12.2021
4058 Clear 8 1017 75 6000 1.79 77 00:34 23.12.2021
4059 Fog 8 1017 79 5000 1.79 75 22:50 22.12.2021
4060 Clear 8 1017 79 8000 1.79 75 21:59 22.12.2021
4061 Clear 8 1017 79 7000 0.45 98 21:30 22.12.2021
4062 Clear 8 1017 79 7000 0.45 98 20:58 22.12.2021
4063 Clear 8 1017 79 7000 3 360 20:40 22.12.2021
4064 Clear 8 1017 77 7000 1.79 66 19:42 22.12.2021
4065 Clear 8 1017 76 7000 1.34 61 18:25 22.12.2021
4066 Clear 9 1018 75 10000 1.79 65 17:38 22.12.2021
4067 Clear 10 1018 73 8000 0.89 96 15:50 22.12.2021
4068 Clear 10 1018 72 7000 0.45 99 13:57 22.12.2021
4069 Clear 11 1017 70 7000 0.89 66 12:47 22.12.2021
4070 Clear 12 1017 68 7000 1.34 45 11:37 22.12.2021
4071 Clear 14 1021 61 8000 0.45 102 09:43 22.12.2021
4072 Clear 15 1020 58 6000 0.89 77 07:55 22.12.2021
4073 Haze 14 1021 57 4500 0.45 225 05:51 22.12.2021
4074 Haze 14 1021 59 4500 0.45 77 05:31 22.12.2021
4075 Haze 14 1022 63 4000 0.45 104 04:55 22.12.2021
4076 Haze 13 1022 66 3500 0.45 104 04:31 22.12.2021
4077 Mist 11 1022 72 3000 0.45 108 03:34 22.12.2021
4078 Mist 11 1014 86 2500 3 360 01:37 22.12.2021
4079 Mist 8 1015 76 5000 1.79 12 23:33 21.12.2021
4080 Clear 8 1015 72 6000 1.79 14 22:29 21.12.2021
4081 Clear 8 1015 71 6000 1 350 21:51 21.12.2021
4082 Rain 8 1015 70 6000 1.79 18 21:24 21.12.2021
4083 Clear 8 1015 65 6000 1.79 23 20:23 21.12.2021
4084 Rain 8 1015 64 7000 1.34 32 19:46 21.12.2021
4085 Rain 8 1015 63 7000 1.34 34 19:19 21.12.2021
4086 Clear 8 1015 63 8000 1.34 41 18:22 21.12.2021
4087 Clear 9 1015 64 8000 2 10 17:47 21.12.2021
4088 Rain 9 1015 60 8000 0.45 0 16:39 21.12.2021
4089 Rain 10 1015 57 8000 1.79 47 15:29 21.12.2021
4090 Clear 11 1014 54 8000 1.34 33 13:51 21.12.2021
4091 Clear 11 1014 52 8000 1.34 34 13:31 21.12.2021
4092 Clear 13 1013 49 8000 1.34 18 11:57 21.12.2021
4093 Clear 15 1013 46 8000 0.45 318 10:25 21.12.2021
4094 Clear 15 1013 44 8000 0.45 318 09:33 21.12.2021
4095 Clear 16 1012 43 8000 0.45 246 08:28 21.12.2021
4096 Clear 17 1012 41 8000 0.89 327 07:32 21.12.2021
4097 Clouds 16 1018 47 8000 0.89 327 06:50 21.12.2021
4098 Clouds 12 1012 53 7000 0.45 40 03:18 21.12.2021
4099 Clear 10 1013 61 10000 0.89 22 23:59 20.12.2021
4100 Rain 10 1013 59 10000 0.89 21 23:32 20.12.2021
4101 Clear 9 1013 60 10000 0.45 1 22:33 20.12.2021
4102 Rain 10 1012 60 10000 0.45 42 21:48 20.12.2021
4103 Rain 10 1013 60 10000 1.79 244 21:23 20.12.2021
4104 Clear 10 1013 61 10000 1.79 245 20:45 20.12.2021
4105 Clear 10 1013 57 10000 0.45 44 19:54 20.12.2021
4106 Clear 10 1010 63 10000 1 170 19:31 20.12.2021
4107 Clear 10 1011 61 10000 0.45 43 18:54 20.12.2021
4108 Rain 10 1013 56 10000 0.45 31 17:53 20.12.2021
4109 Clear 10 1014 53 10000 0.45 2 17:25 20.12.2021
4110 Clear 10 1014 50 10000 2.24 214 16:40 20.12.2021
4111 Clear 10 1014 49 10000 1.79 204 15:51 20.12.2021
4112 Clear 10 1014 47 10000 0.45 10 14:51 20.12.2021
4113 Rain 11 1014 43 10000 0.45 314 12:53 20.12.2021
4114 Clear 12 1014 44 10000 3 180 11:19 20.12.2021
4115 Clear 14 1013 41 10000 0.89 276 09:47 20.12.2021
4116 Clear 14 1013 39 10000 0.89 276 09:28 20.12.2021
4117 Clear 15 1013 36 10000 0.45 40 08:41 20.12.2021
4118 Clear 16 1013 36 10000 0.45 34 07:49 20.12.2021
4119 Clear 15 1018 43 10000 0.89 328 07:29 20.12.2021
4120 Clear 13 1017 43 10000 0.45 8 03:59 20.12.2021
4121 Clear 6 1017 59 10000 0.45 343 23:58 19.12.2021
4122 Clear 6 1017 58 10000 0.45 321 22:45 19.12.2021
4123 Clear 6 1017 56 10000 0.45 314 21:50 19.12.2021
4124 Clear 6 1017 56 10000 0.45 314 21:29 19.12.2021
4125 Clear 6 1017 52 10000 0.45 314 20:30 19.12.2021
4126 Clear 7 1017 50 10000 0.45 45 19:46 19.12.2021
4127 Clear 7 1018 48 10000 0.45 314 18:58 19.12.2021
4128 Clear 7 1018 47 10000 1.79 186 18:27 19.12.2021
4129 Clear 7 1018 49 10000 0.45 319 17:49 19.12.2021
4130 Clear 7 1019 48 10000 2.24 191 17:18 19.12.2021
4131 Clear 7 1019 48 10000 0.45 22 16:24 19.12.2021
4132 Clear 7 1019 44 10000 0.45 50 15:28 19.12.2021
4133 Clear 7 1019 44 10000 1.34 227 14:50 19.12.2021
4134 Clear 8 1019 39 10000 0.45 3 13:46 19.12.2021
4135 Clear 8 1019 38 10000 1.34 231 13:21 19.12.2021
4136 Clear 8 1019 38 10000 1.34 236 12:33 19.12.2021
4137 Clear 9 1020 35 10000 0.45 180 11:40 19.12.2021
4138 Clear 9 1019 34 10000 0.45 23 10:52 19.12.2021
4139 Clear 10 1019 34 10000 0.45 43 10:23 19.12.2021
4140 Clear 11 1020 32 10000 0.89 26 09:20 19.12.2021
4141 Clear 12 1020 31 10000 0.89 342 07:35 19.12.2021
4142 Clear 7 1024 50 10000 0.45 357 02:35 19.12.2021
4143 Clear 3 1020 68 10000 0.45 20 00:55 19.12.2021
4144 Clear 3 1023 54 10000 0.45 347 23:31 18.12.2021
4145 Clear 3 1023 53 10000 0.45 358 22:30 18.12.2021
4146 Clear 3 1023 54 10000 2.24 287 21:51 18.12.2021
4147 Clear 3 1023 54 10000 1 220 21:30 18.12.2021
4148 Clear 3 1023 54 10000 0.45 333 20:43 18.12.2021
4149 Clear 3 1023 53 10000 0.45 13 19:50 18.12.2021
4150 Clear 4 1021 58 10000 0.45 318 18:26 18.12.2021
4151 Clear 4 1021 58 10000 0.45 320 17:49 18.12.2021
4152 Clear 4 1021 55 10000 0.45 336 16:55 18.12.2021
4153 Clear 4 1024 47 10000 0.45 344 16:21 18.12.2021
4154 Clear 4 1023 47 10000 0.45 314 15:25 18.12.2021
4155 Clear 4 1023 44 10000 0.89 7 14:19 18.12.2021
4156 Clear 5 1023 39 10000 0.89 347 11:59 18.12.2021
4157 Clear 6 1023 39 10000 0.45 25 10:42 18.12.2021
4158 Clear 7 1023 31 10000 1.34 317 09:32 18.12.2021
4159 Clear 8 1023 30 10000 0.45 354 08:36 18.12.2021
4160 Clear 8 1023 28 10000 0.89 322 07:41 18.12.2021
4161 Clear 3 1028 42 10000 0.89 135 01:47 18.12.2021
4162 Clouds 1 1027 48 10000 0.89 322 23:56 17.12.2021
4163 Clear 1 1027 46 10000 0.45 328 22:51 17.12.2021
4164 Clear 2 1027 46 10000 0.89 314 21:49 17.12.2021
4165 Clear 2 1027 47 10000 0.45 319 20:44 17.12.2021
4166 Clear 2 1028 47 10000 0.89 305 19:57 17.12.2021
4167 Clear 2 1028 44 10000 1.79 10 18:40 17.12.2021
4168 Clear 2 1028 44 10000 1.79 10 17:59 17.12.2021
4169 Clear 3 1029 47 10000 0.89 40 16:57 17.12.2021
4170 Clear 3 1029 45 10000 1.79 240 16:28 17.12.2021
4171 Clear 3 1029 45 10000 1.79 29 15:49 17.12.2021
4172 Clear 3 1028 44 10000 0.45 90 14:43 17.12.2021
4173 Clear 4 1028 44 10000 0.89 78 13:51 17.12.2021
4174 Clear 5 1027 45 10000 2.24 358 12:37 17.12.2021
4175 Clear 7 1026 45 10000 2.24 90 10:42 17.12.2021
4176 Clear 8 1025 41 10000 0.45 287 09:47 17.12.2021
4177 Clear 9 1029 40 10000 2.24 57 08:32 17.12.2021
4178 Clear 9 1029 39 10000 2.24 90 07:38 17.12.2021
4179 Clear 10 1030 46 10000 2.24 90 04:41 17.12.2021
4180 Mist 8 1023 64 5000 0.89 242 00:28 17.12.2021
4181 Mist 9 1021 66 5000 0.89 336 22:25 16.12.2021
4182 Mist 9 1020 67 5000 0.89 336 21:54 16.12.2021
4183 Mist 10 1020 69 5000 0.89 94 21:36 16.12.2021
4184 Mist 10 1020 71 5000 1.34 61 20:40 16.12.2021
4185 Mist 10 1020 73 5000 0.89 71 19:51 16.12.2021
4186 Clouds 10 1019 76 6000 0.89 114 18:45 16.12.2021
4187 Mist 10 1019 77 5000 0.89 114 18:26 16.12.2021
4188 Mist 11 1019 79 4000 6 360 17:35 16.12.2021
4189 Clouds 11 1019 80 7000 0.45 295 16:23 16.12.2021
4190 Rain 11 1018 79 5000 0.45 319 15:22 16.12.2021
4191 Rain 11 1017 76 6000 0.45 135 13:44 16.12.2021
4192 Clouds 12 1016 78 7000 0.45 234 11:48 16.12.2021
4193 Clouds 12 1016 79 6000 0.45 234 11:18 16.12.2021
4194 Mist 12 1015 79 5000 0.45 135 10:32 16.12.2021
4195 Mist 11 1014 81 4500 0.89 279 08:56 16.12.2021
4196 Clouds 12 1014 80 6000 3 30 06:22 16.12.2021
4197 Clouds 12 1015 82 8000 3.58 13 02:59 16.12.2021
4198 Mist 12 1013 85 2000 0.89 8 23:35 15.12.2021
4199 Mist 13 1012 85 2000 0.89 8 22:48 15.12.2021
4200 Rain 13 1010 77 10000 3.58 344 21:58 15.12.2021
4201 Mist 13 1012 85 4000 4 330 21:28 15.12.2021
4202 Rain 13 1012 85 4000 2.24 312 20:31 15.12.2021
4203 Rain 13 1012 84 4000 1.79 337 19:52 15.12.2021
4204 Clouds 14 1012 81 7000 1 0 18:39 15.12.2021
4205 Rain 14 1012 79 7000 0 0 17:56 15.12.2021
4206 Rain 14 1012 79 7000 0.45 93 17:37 15.12.2021
4207 Clouds 14 1013 78 10000 0.89 69 16:35 15.12.2021
4208 Clouds 14 1013 74 10000 0.89 69 15:47 15.12.2021
4209 Rain 14 1013 74 10000 0.89 69 15:47 15.12.2021
4210 Clouds 14 1013 75 10000 0.89 81 15:28 15.12.2021
4211 Clouds 14 1013 72 10000 0.89 81 14:42 15.12.2021
4212 Clouds 13 1014 67 10000 0.89 88 12:52 15.12.2021
4213 Clouds 13 1013 69 10000 0.89 110 10:44 15.12.2021
4214 Clouds 14 1013 67 8000 0.89 27 08:55 15.12.2021
4215 Clouds 14 1013 67 8000 0.45 105 07:43 15.12.2021
4216 Clouds 11 1013 79 6000 1 0 01:35 15.12.2021
4217 Mist 9 1016 70 4500 1.79 132 23:42 14.12.2021
4218 Mist 9 1016 69 4500 1.34 141 22:49 14.12.2021
4219 Mist 8 1015 67 4500 1.34 141 22:25 14.12.2021
4220 Mist 8 1015 69 4500 1 180 20:55 14.12.2021
4221 Rain 8 1016 68 7000 0.89 184 19:44 14.12.2021
4222 Clouds 8 1016 72 7000 1.34 186 19:20 14.12.2021
4223 Clear 8 1016 72 10000 1.34 187 18:28 14.12.2021
4224 Clear 8 1016 71 10000 1.79 184 17:33 14.12.2021
4225 Clear 8 1016 64 10000 1.34 149 16:40 14.12.2021
4226 Clear 8 1016 68 10000 1.34 181 15:36 14.12.2021
4227 Clear 9 1016 65 10000 1.79 199 13:31 14.12.2021
4228 Clear 10 1013 69 10000 2 180 12:00 14.12.2021
4229 Clear 10 1015 63 10000 0.45 343 11:24 14.12.2021
4230 Clear 11 1015 61 10000 2 200 10:24 14.12.2021
4231 Clear 11 1015 58 10000 2 200 09:51 14.12.2021
4232 Clear 13 1015 54 10000 0.45 39 08:28 14.12.2021
4233 Clear 13 1015 55 10000 0.45 8 07:43 14.12.2021
4234 Clear 11 1022 66 10000 3 190 05:35 14.12.2021
4235 Clear 6 1019 63 10000 0.45 88 22:56 13.12.2021
4236 Clear 6 1018 62 10000 0 0 21:53 13.12.2021
4237 Clear 6 1019 61 10000 1 20 21:32 13.12.2021
4238 Clear 6 1019 61 10000 0 0 20:42 13.12.2021
4239 Clear 6 1019 62 10000 1.79 132 19:52 13.12.2021
4240 Clear 6 1020 58 10000 1.79 135 18:24 13.12.2021
4241 Clear 7 1021 54 10000 1 110 17:26 13.12.2021
4242 Clear 7 1022 58 10000 0.45 67 15:54 13.12.2021
4243 Clear 8 1022 54 10000 0.89 9 15:25 13.12.2021
4244 Clear 8 1022 54 10000 1 0 13:45 13.12.2021
4245 Clear 8 1022 50 10000 2 360 12:49 13.12.2021
4246 Clear 8 1022 49 10000 0.45 269 11:56 13.12.2021
4247 Clear 8 1022 47 10000 3 10 11:35 13.12.2021
4248 Clear 9 1022 43 10000 0.45 90 10:44 13.12.2021
4249 Clear 10 1027 44 10000 0.89 88 09:29 13.12.2021
4250 Clear 10 1027 41 10000 1.34 281 07:48 13.12.2021
4251 Clear 9 1029 44 10000 0.89 111 05:35 13.12.2021
4252 Clear 8 1031 53 10000 0.89 279 03:26 13.12.2021
4253 Clear 6 1026 63 10000 0.89 28 23:22 12.12.2021
4254 Clear 7 1025 65 10000 0.89 11 21:40 12.12.2021
4255 Clear 7 1026 61 10000 0.45 309 19:57 12.12.2021
4256 Clear 8 1026 60 10000 0.89 85 18:36 12.12.2021
4257 Clear 8 1026 60 10000 0.89 85 18:36 12.12.2021
4258 Clear 9 1026 60 10000 0.89 71 17:31 12.12.2021
4259 Clear 9 1026 60 10000 0.89 97 16:27 12.12.2021
4260 Clouds 9 1026 61 10000 0.89 40 15:45 12.12.2021
4261 Clouds 9 1026 60 10000 0.89 40 15:25 12.12.2021
4262 Clouds 10 1026 63 10000 0.89 44 14:34 12.12.2021
4263 Clouds 10 1026 63 10000 0.89 336 13:22 12.12.2021
4264 Clouds 10 1025 65 10000 0.89 358 12:27 12.12.2021
4265 Clear 10 1025 66 10000 0.45 1 11:44 12.12.2021
4266 Clear 10 1025 66 10000 0.45 1 11:20 12.12.2021
4267 Mist 10 1025 71 5000 1.34 350 10:22 12.12.2021
4268 Rain 10 1024 75 3500 0.45 62 08:58 12.12.2021
4269 Rain 10 1023 76 4000 0.89 226 07:32 12.12.2021
4270 Rain 10 1024 76 6000 0.45 349 05:57 12.12.2021
4271 Clouds 10 1024 75 8000 0.45 311 04:55 12.12.2021
4272 Clouds 10 1025 74 10000 0.45 29 02:58 12.12.2021
4273 Clear 11 1022 63 10000 0.45 272 23:31 11.12.2021
4274 Clouds 12 1022 69 7000 0.45 87 22:22 11.12.2021
4275 Clouds 12 1021 71 7000 0.45 87 21:51 11.12.2021
4276 Clouds 12 1021 72 6000 5 20 20:24 11.12.2021
4277 Clouds 12 1021 71 10000 0.45 288 19:21 11.12.2021
4278 Clouds 12 1021 69 10000 0.45 288 18:50 11.12.2021
4279 Clouds 12 1021 68 10000 0.45 106 18:19 11.12.2021
4280 Clear 13 1021 69 10000 0.89 93 16:59 11.12.2021
4281 Clear 13 1022 68 10000 0.89 99 15:48 11.12.2021
4282 Clear 13 1021 67 10000 0.89 82 14:54 11.12.2021
4283 Clouds 14 1021 67 10000 0.45 74 12:42 11.12.2021
4284 Clouds 14 1020 65 10000 0.89 77 11:24 11.12.2021
4285 Clouds 15 1019 63 10000 0.45 90 09:45 11.12.2021
4286 Clouds 15 1019 63 10000 0.45 90 09:45 11.12.2021
4287 Clouds 15 1019 63 10000 0.45 90 09:45 11.12.2021
4288 Clouds 15 1019 63 10000 0.45 90 09:45 11.12.2021
4289 Clouds 16 1024 61 10000 0.89 45 07:30 11.12.2021
4290 Mist 11 1022 78 3500 1.34 53 00:51 11.12.2021
4291 Mist 10 1021 81 3000 0.45 64 23:49 10.12.2021
4292 Mist 10 1021 79 3000 1.34 75 23:18 10.12.2021
4293 Mist 9 1021 79 2800 1.34 95 21:52 10.12.2021
4294 Mist 9 1020 77 2800 1.34 90 20:56 10.12.2021
4295 Mist 10 1021 77 3300 1.34 91 19:20 10.12.2021
4296 Mist 10 1021 78 5000 0.89 97 17:54 10.12.2021
4297 Clouds 11 1022 75 6000 0.89 97 16:55 10.12.2021
4298 Clouds 11 1022 75 6000 1.34 71 15:47 10.12.2021
4299 Clouds 11 1022 75 6000 1.34 71 15:29 10.12.2021
4300 Clouds 11 1022 75 6000 1.34 71 14:57 10.12.2021
4301 Clouds 12 1022 73 6000 1.34 83 13:50 10.12.2021
4302 Clouds 12 1022 72 6000 1.34 83 13:20 10.12.2021
4303 Clouds 13 1022 70 6000 0.89 16 12:23 10.12.2021
4304 Clouds 14 1021 65 6000 0.89 106 11:27 10.12.2021
4305 Haze 15 1020 59 5000 0.45 143 09:54 10.12.2021
4306 Haze 15 1025 58 5000 0.45 143 08:30 10.12.2021
4307 Haze 15 1026 60 5000 0.89 89 05:56 10.12.2021
4308 Mist 12 1027 68 3500 2 350 02:47 10.12.2021
4309 Mist 10 1021 77 4000 1.79 331 23:44 09.12.2021
4310 Mist 10 1021 73 5000 1.79 344 22:49 09.12.2021
4311 Mist 10 1021 75 5000 1.79 344 22:23 09.12.2021
4312 Mist 10 1021 75 5000 1.79 333 21:48 09.12.2021
4313 Mist 10 1020 73 5000 1.79 332 20:40 09.12.2021
4314 Mist 10 1021 73 5000 1.79 326 19:46 09.12.2021
4315 Clear 10 1021 73 6000 1.79 326 19:21 09.12.2021
4316 Clear 11 1020 72 6000 1.79 319 18:24 09.12.2021
4317 Clear 11 1020 72 6000 1.79 302 17:51 09.12.2021
4318 Clear 11 1020 71 7000 1.79 301 17:25 09.12.2021
4319 Clear 12 1021 71 7000 1.79 289 16:43 09.12.2021
4320 Clear 12 1021 68 8000 1.79 277 15:31 09.12.2021
4321 Clear 13 1021 65 10000 1.34 266 14:43 09.12.2021
4322 Clear 14 1020 64 10000 0.45 314 13:18 09.12.2021
4323 Clear 14 1020 63 10000 0.45 359 12:31 09.12.2021
4324 Clear 15 1020 61 10000 2.68 284 10:47 09.12.2021
4325 Clear 17 1019 59 10000 0.45 47 08:19 09.12.2021
4326 Clear 16 1021 65 10000 0.89 107 03:59 09.12.2021
4327 Clear 14 1019 76 10000 2 220 01:43 09.12.2021
4328 Clear 12 1021 67 10000 1 0 23:38 08.12.2021
4329 Clear 13 1021 66 10000 0 0 22:59 08.12.2021
4330 Clear 12 1021 66 10000 0.89 102 22:37 08.12.2021
4331 Clear 13 1021 60 10000 3.13 151 21:39 08.12.2021
4332 Clear 12 1021 59 10000 3.58 155 20:58 08.12.2021
4333 Clear 12 1022 64 10000 2.68 152 19:57 08.12.2021
4334 Clear 12 1022 65 10000 3.13 153 19:29 08.12.2021
4335 Clear 12 1022 63 10000 2.24 146 18:22 08.12.2021
4336 Clouds 12 1023 63 10000 1.34 97 16:55 08.12.2021
4337 Clouds 12 1023 63 10000 2.24 95 15:45 08.12.2021
4338 Clouds 13 1023 61 10000 0.89 52 15:23 08.12.2021
4339 Clouds 13 1024 62 10000 1.34 28 13:27 08.12.2021
4340 Clouds 13 1023 61 10000 0.89 48 10:45 08.12.2021
4341 Clouds 13 1023 61 10000 0.89 48 10:45 08.12.2021
4342 Clouds 13 1023 61 10000 0.89 73 10:23 08.12.2021
4343 Clouds 14 1023 58 10000 1.34 42 08:54 08.12.2021
4344 Clouds 15 1024 57 10000 0.89 2 06:36 08.12.2021
4345 Clear 12 1026 67 10000 3 10 01:20 08.12.2021
4346 Clear 11 1025 72 10000 2 340 23:23 07.12.2021
4347 Clear 11 1024 69 10000 0.89 95 21:25 07.12.2021
4348 Clouds 11 1024 69 10000 0.45 48 20:25 07.12.2021
4349 Clouds 11 1024 69 10000 0.45 116 19:21 07.12.2021
4350 Clouds 11 1024 71 8000 0.45 86 18:23 07.12.2021
4351 Clouds 11 1025 74 7000 2 360 17:27 07.12.2021
4352 Clouds 11 1024 74 7000 2 340 16:53 07.12.2021
4353 Clouds 11 1025 74 7000 0.45 104 16:25 07.12.2021
4354 Clear 12 1024 71 10000 0.45 82 14:38 07.12.2021
4355 Clouds 12 1024 68 10000 0.89 114 13:40 07.12.2021
4356 Clouds 12 1024 66 10000 0.45 291 12:22 07.12.2021
4357 Clear 13 1023 63 10000 0.89 306 10:56 07.12.2021
4358 Clouds 14 1023 56 10000 0.45 211 09:36 07.12.2021
4359 Clouds 14 1028 57 8000 0.89 133 07:35 07.12.2021
4360 Clouds 14 1028 57 8000 0.89 61 05:51 07.12.2021
4361 Clear 13 1030 61 8000 0.45 64 03:25 07.12.2021
4362 Clear 9 1023 76 10000 2.24 12 23:23 06.12.2021
4363 Clear 9 1023 74 10000 2.24 14 22:40 06.12.2021
4364 Clear 10 1022 73 10000 2.24 15 21:59 06.12.2021
4365 Clear 10 1022 73 10000 2.24 15 21:27 06.12.2021
4366 Clear 10 1022 72 10000 1.79 9 20:32 06.12.2021
4367 Clear 10 1022 72 10000 1.79 9 20:32 06.12.2021
4368 Clear 10 1022 72 10000 1.79 9 20:32 06.12.2021
4369 Clear 10 1022 72 10000 0.45 345 19:24 06.12.2021
4370 Clear 10 1022 69 10000 0.45 119 18:34 06.12.2021
4371 Clear 10 1022 69 10000 0.89 103 17:53 06.12.2021
4372 Clear 10 1022 68 10000 0.89 103 17:33 06.12.2021
4373 Clear 11 1022 68 10000 0.45 270 15:51 06.12.2021
4374 Clear 12 1022 66 10000 1 0 14:35 06.12.2021
4375 Clear 13 1021 62 10000 0.89 56 12:40 06.12.2021
4376 Clear 13 1020 62 10000 4.47 135 11:55 06.12.2021
4377 Clear 16 1019 52 10000 3 270 09:56 06.12.2021
4378 Clear 16 1024 53 10000 0.89 21 07:38 06.12.2021
4379 Clear 13 1026 64 10000 1.79 133 02:20 06.12.2021
4380 Clear 10 1019 73 10000 2.24 120 22:20 05.12.2021
4381 Clear 10 1019 72 10000 2.24 115 21:25 05.12.2021
4382 Clear 10 1019 72 10000 1.79 110 20:20 05.12.2021
4383 Clear 10 1019 71 10000 1.79 106 19:58 05.12.2021
4384 Clear 11 1019 70 10000 1.79 106 19:23 05.12.2021
4385 Clear 11 1020 70 10000 2.24 104 18:26 05.12.2021
4386 Clear 11 1020 69 10000 0.45 270 17:49 05.12.2021
4387 Clear 11 1020 68 10000 2 110 16:58 05.12.2021
4388 Clear 12 1020 68 10000 2 110 16:28 05.12.2021
4389 Clear 12 1020 67 10000 2 110 15:58 05.12.2021
4390 Clear 12 1020 66 10000 3 120 14:47 05.12.2021
4391 Clear 12 1020 66 10000 3 120 14:29 05.12.2021
4392 Clear 12 1021 63 10000 3.58 113 13:31 05.12.2021
4393 Clear 12 1020 63 10000 0.45 36 12:41 05.12.2021
4394 Clear 12 1020 63 10000 0.45 36 12:23 05.12.2021
4395 Clear 13 1020 62 10000 0.45 51 11:41 05.12.2021
4396 Clear 14 1019 57 10000 0.89 27 10:21 05.12.2021
4397 Clear 16 1019 52 10000 0.89 254 09:26 05.12.2021
4398 Clear 16 1022 47 10000 0.45 298 04:56 05.12.2021
4399 Clear 10 1029 82 10000 1 0 01:23 05.12.2021
4400 Clear 8 1022 65 10000 1.79 120 22:42 04.12.2021
4401 Clear 8 1022 69 10000 1.79 119 21:37 04.12.2021
4402 Clear 9 1022 66 10000 1.79 118 20:40 04.12.2021
4403 Clear 9 1022 65 10000 0.45 270 19:33 04.12.2021
4404 Clear 9 1022 64 10000 1.79 128 18:43 04.12.2021
4405 Clear 9 1023 63 10000 1.79 126 17:47 04.12.2021
4406 Clear 9 1023 63 10000 1.79 126 17:20 04.12.2021
4407 Clear 9 1023 61 10000 0.45 96 16:46 04.12.2021
4408 Clear 9 1023 60 10000 0.45 96 16:27 04.12.2021
4409 Clear 11 1023 52 10000 0.45 56 12:44 04.12.2021
4410 Clear 12 1023 48 10000 4 150 11:34 04.12.2021
4411 Clear 12 1022 45 10000 3 110 10:57 04.12.2021
4412 Clear 14 1026 44 10000 0.89 17 08:53 04.12.2021
4413 Clear 14 1026 44 10000 0.45 103 08:27 04.12.2021
4414 Clear 13 1028 45 10000 0.45 81 04:42 04.12.2021
4415 Mist 9 1021 61 5000 0 0 00:49 04.12.2021
4416 Clear 7 1023 60 6000 0.45 45 23:29 03.12.2021
4417 Clear 7 1022 56 6000 1.34 21 22:50 03.12.2021
4418 Clear 7 1022 63 6000 1.34 29 21:54 03.12.2021
4419 Clear 7 1019 73 6000 1 0 21:20 03.12.2021
4420 Clear 7 1021 63 6000 1.34 25 20:27 03.12.2021
4421 Clear 8 1021 60 6000 1.34 6 19:20 03.12.2021
4422 Clear 8 1021 57 10000 1.34 11 18:22 03.12.2021
4423 Clear 8 1021 53 10000 1.79 22 17:30 03.12.2021
4424 Clear 10 1021 45 10000 0.89 86 13:35 03.12.2021
4425 Clear 11 1020 44 10000 0.45 269 12:21 03.12.2021
4426 Clear 12 1019 40 10000 2 360 11:19 03.12.2021
4427 Clear 14 1023 40 10000 0.89 73 08:40 03.12.2021
4428 Clear 15 1017 33 10000 0.89 300 07:43 03.12.2021
4429 Clear 14 1022 40 10000 1.34 53 06:40 03.12.2021
4430 Clear 8 1016 61 10000 1.34 321 00:49 03.12.2021
4431 Clear 6 1018 58 10000 1.34 344 23:48 02.12.2021
4432 Clear 6 1017 58 10000 0.89 29 22:48 02.12.2021
4433 Clear 7 1017 55 10000 1.34 30 21:41 02.12.2021
4434 Clear 7 1017 55 10000 0.89 36 20:45 02.12.2021
4435 Clear 7 1017 53 10000 0.45 48 20:22 02.12.2021
4436 Clear 7 1017 49 10000 1.34 358 18:47 02.12.2021
4437 Clear 7 1015 43 10000 0.45 54 16:35 02.12.2021
4438 Clear 7 1015 41 10000 2 230 15:41 02.12.2021
4439 Clear 7 1015 41 10000 2 230 15:41 02.12.2021
4440 Clear 8 1014 39 10000 2 220 14:52 02.12.2021
4441 Clear 8 1014 36 10000 0.89 8 13:36 02.12.2021
4442 Clear 8 1014 36 10000 0.45 45 12:24 02.12.2021
4443 Clear 9 1014 32 10000 0.45 42 10:42 02.12.2021
4444 Clear 10 1014 28 10000 0.45 51 09:26 02.12.2021
4445 Clear 12 1014 29 10000 0.89 21 06:59 02.12.2021
4446 Clear 7 1019 49 10000 0.45 14 01:26 02.12.2021
4447 Clear 5 1018 56 10000 0 0 00:26 02.12.2021
4448 Clear 5 1018 56 10000 2 30 22:25 01.12.2021
4449 Clear 5 1018 54 10000 1 0 21:43 01.12.2021
4450 Clear 5 1019 55 10000 3 300 20:23 01.12.2021
4451 Clear 6 1019 55 10000 3 310 19:40 01.12.2021
4452 Clear 6 1020 56 10000 0.45 313 18:42 01.12.2021
4453 Clear 6 1020 55 10000 4 320 16:59 01.12.2021
4454 Clear 7 1020 53 10000 3 310 15:47 01.12.2021
4455 Clear 8 1020 52 10000 3 300 14:30 01.12.2021
4456 Clear 8 1020 52 10000 3 10 13:36 01.12.2021
4457 Clear 9 1020 45 10000 4 330 10:44 01.12.2021
4458 Clear 9 1020 44 10000 5 330 10:20 01.12.2021
4459 Clear 9 1028 46 10000 6 340 08:51 01.12.2021
4460 Clear 10 1028 42 10000 7 340 07:56 01.12.2021
4461 Clear 10 1029 42 10000 6 320 07:19 01.12.2021
4462 Clear 8 1031 50 10000 5 340 03:53 01.12.2021
4463 Clear 7 1031 53 10000 5 320 03:19 01.12.2021
4464 Clear 5 1021 60 10000 0.45 315 00:20 01.12.2021
4465 Clear 5 1020 58 10000 0.45 301 23:28 30.11.2021
4466 Clear 5 1020 56 10000 0.45 300 22:29 30.11.2021
4467 Clear 6 1020 50 10000 5 320 20:46 30.11.2021
4468 Clear 6 1020 48 10000 0.45 301 20:24 30.11.2021
4469 Clear 6 1020 46 10000 0.45 301 19:39 30.11.2021
4470 Clear 6 1019 45 10000 0.45 301 18:52 30.11.2021
4471 Clear 7 1019 45 10000 0.45 327 17:23 30.11.2021
4472 Clear 8 1019 45 10000 0.45 329 15:54 30.11.2021
4473 Clear 9 1019 48 10000 0.45 295 14:33 30.11.2021
4474 Clear 9 1019 48 10000 0.45 300 13:40 30.11.2021
4475 Clear 9 1018 46 10000 0.45 300 12:53 30.11.2021
4476 Clear 10 1017 41 10000 0.45 287 11:54 30.11.2021
4477 Clear 10 1017 41 10000 0.45 312 11:25 30.11.2021
4478 Clear 10 1016 41 10000 0.89 310 10:35 30.11.2021
4479 Clouds 12 1016 40 10000 0.89 290 08:55 30.11.2021
4480 Clouds 12 1015 42 10000 0.89 305 08:32 30.11.2021
4481 Clouds 13 1015 42 10000 0.45 312 07:49 30.11.2021
4482 Clouds 11 1014 51 10000 1.79 267 06:32 30.11.2021
4483 Rain 11 1014 70 7000 2.24 265 01:46 30.11.2021
4484 Rain 11 1014 77 5000 2.24 327 01:26 30.11.2021
4485 Rain 12 1012 74 6000 1.34 261 23:27 29.11.2021
4486 Clouds 13 1012 78 6000 0.89 119 22:59 29.11.2021
4487 Rain 13 1012 81 6000 0.89 316 22:36 29.11.2021
4488 Rain 13 1012 83 7000 0.89 310 21:46 29.11.2021
4489 Clouds 12 1012 83 6000 0.89 288 21:19 29.11.2021
4490 Clouds 12 1012 86 6000 0.89 343 20:44 29.11.2021
4491 Rain 12 1012 92 6000 0.45 291 19:57 29.11.2021
4492 Clouds 14 1012 96 7000 0.89 338 19:38 29.11.2021
4493 Clouds 15 1012 97 7000 1.34 247 18:56 29.11.2021
4494 Clouds 15 1019 91 10000 3.64 262 18:37 29.11.2021
4495 Clouds 15 1021 92 10000 2.24 227 17:21 29.11.2021
4496 Clouds 15 1021 92 10000 2.24 227 16:33 29.11.2021
4497 Clouds 15 1021 91 10000 1.84 207 15:55 29.11.2021
4498 Rain 15 1022 92 10000 1.68 196 14:45 29.11.2021
4499 Rain 15 1022 92 7925 1.56 182 13:47 29.11.2021
4500 Rain 16 1022 88 10000 1.29 187 12:44 29.11.2021
4501 Clouds 16 1022 89 10000 1.29 161 11:43 29.11.2021
4502 Clouds 16 1022 87 10000 1.3 144 10:59 29.11.2021
4503 Rain 18 1022 72 10000 3 160 09:50 29.11.2021
4504 Clouds 20 1022 68 10000 4 180 06:43 29.11.2021
4505 Clear 19 1023 72 10000 3 160 04:53 29.11.2021
4506 Clear 16 1025 94 10000 1 0 00:44 29.11.2021
4507 Clouds 15 1025 94 10000 1 0 23:44 28.11.2021
4508 Clouds 15 1024 88 10000 1 0 23:25 28.11.2021
4509 Clouds 15 1025 88 10000 1 20 21:53 28.11.2021
4510 Rain 15 1025 88 10000 1 30 21:26 28.11.2021
4511 Clouds 15 1025 88 10000 1 60 20:35 28.11.2021
4512 Clear 16 1025 82 10000 2 100 19:28 28.11.2021
4513 Clear 16 1026 82 10000 3 120 18:35 28.11.2021
4514 Clear 16 1026 77 10000 2 110 17:56 28.11.2021
4515 Clear 16 1026 77 10000 2 110 17:32 28.11.2021
4516 Clear 16 1027 77 10000 3 110 16:44 28.11.2021
4517 Clear 16 1027 77 10000 3 110 16:22 28.11.2021
4518 Clear 16 1027 72 10000 3 120 15:32 28.11.2021
4519 Clear 17 1027 72 10000 3 120 14:48 28.11.2021
4520 Clear 17 1027 67 10000 3 120 13:22 28.11.2021
4521 Clear 17 1027 67 10000 3 130 12:48 28.11.2021
4522 Clear 17 1027 67 10000 3 100 11:18 28.11.2021
4523 Clear 17 1027 63 10000 4 110 10:21 28.11.2021
4524 Clouds 18 1027 55 10000 5 130 09:37 28.11.2021
4525 Clouds 18 1027 55 10000 4 130 07:49 28.11.2021
4526 Clear 12 1030 71 10000 2 70 23:58 27.11.2021
4527 Clear 13 1031 67 10000 2 50 21:20 27.11.2021
4528 Clouds 12 1031 66 10000 1 70 19:47 27.11.2021
4529 Clouds 13 1032 67 10000 1 0 17:27 27.11.2021
4530 Clouds 14 1032 62 10000 3 90 15:58 27.11.2021
4531 Clouds 14 1033 58 10000 3 80 13:58 27.11.2021
4532 Clouds 14 1033 58 10000 3 80 12:57 27.11.2021
4533 Clouds 15 1032 55 10000 4 80 10:52 27.11.2021
4534 Clear 15 1032 51 10000 4 70 09:53 27.11.2021
4535 Clear 17 1031 48 10000 4 80 08:44 27.11.2021
4536 Clear 18 1031 45 10000 4 80 06:34 27.11.2021
4537 Clear 14 1033 67 10000 2 40 01:58 27.11.2021
4538 Clear 8 1031 93 10000 2 10 23:38 26.11.2021
4539 Clear 8 1031 93 10000 3 10 22:25 26.11.2021
4540 Clear 8 1031 93 10000 3 360 21:38 26.11.2021
4541 Clear 8 1031 93 10000 3 360 21:18 26.11.2021
4542 Clear 8 1031 87 10000 3 10 20:29 26.11.2021
4543 Clear 8 1030 87 10000 3 360 19:49 26.11.2021
4544 Clear 9 1030 87 10000 2 20 18:41 26.11.2021
4545 Clear 11 1030 76 10000 3 30 17:23 26.11.2021
4546 Clear 13 1030 71 10000 3 50 15:59 26.11.2021
4547 Clear 14 1020 64 8000 3 40 13:36 26.11.2021
4548 Clouds 14 1020 63 7000 4 50 12:51 26.11.2021
4549 Clouds 15 1019 57 8000 2 50 10:39 26.11.2021
4550 Clouds 17 1026 44 8000 4 10 08:59 26.11.2021
4551 Clouds 17 1026 36 8000 4 40 08:39 26.11.2021
4552 Clouds 18 1026 35 8000 4 40 08:19 26.11.2021
4553 Clear 18 1026 35 8000 3 360 06:28 26.11.2021
4554 Clear 18 1026 38 8000 2 20 04:52 26.11.2021
4555 Clear 16 1026 50 8000 2 350 03:26 26.11.2021
4556 Rain 10 1016 61 8000 1 40 23:27 25.11.2021
4557 Clear 10 1015 60 10000 1 150 21:50 25.11.2021
4558 Clear 11 1015 57 10000 0 0 20:37 25.11.2021
4559 Clear 11 1015 53 10000 0 0 18:49 25.11.2021
4560 Clear 11 1015 57 10000 1 220 17:58 25.11.2021
4561 Clear 11 1014 59 10000 1 180 17:26 25.11.2021
4562 Rain 12 1014 56 10000 1 0 16:34 25.11.2021
4563 Clear 13 1014 53 10000 2 180 15:49 25.11.2021
4564 Clear 13 1014 48 10000 1 220 14:19 25.11.2021
4565 Clear 14 1014 45 10000 0.45 1 12:47 25.11.2021
4566 Clear 15 1014 43 10000 1 0 11:52 25.11.2021
4567 Clear 17 1013 35 10000 2 240 09:56 25.11.2021
4568 Clear 18 1021 37 10000 2 0 06:22 25.11.2021
4569 Clear 13 1023 49 10000 3 0 02:52 25.11.2021
4570 Clear 8 1013 71 10000 0.45 22 23:31 24.11.2021
4571 Clear 8 1013 68 10000 0.45 73 22:26 24.11.2021
4572 Clear 8 1012 68 10000 0.45 65 21:38 24.11.2021
4573 Clear 9 1012 67 10000 0.45 24 20:53 24.11.2021
4574 Clear 9 1012 67 10000 0.45 349 20:26 24.11.2021
4575 Clear 10 1012 62 10000 0.45 355 18:31 24.11.2021
4576 Clear 10 1012 60 10000 1 180 17:59 24.11.2021
4577 Clear 10 1013 51 10000 0.45 306 15:47 24.11.2021
4578 Clear 11 1013 46 10000 0.45 22 14:54 24.11.2021
4579 Clear 10 1013 50 10000 0.45 340 14:20 24.11.2021
4580 Clear 11 1013 48 10000 0.45 311 12:50 24.11.2021
4581 Clear 12 1013 35 10000 2 190 11:22 24.11.2021
4582 Clear 13 1012 33 10000 2 220 10:49 24.11.2021
4583 Clear 13 1012 31 10000 0.45 55 10:26 24.11.2021
4584 Clear 15 1021 29 10000 4 230 07:55 24.11.2021
4585 Clear 15 1022 30 10000 4 260 06:55 24.11.2021
4586 Clear 13 1016 32 10000 0.45 353 03:57 24.11.2021
4587 Clear 7 1017 54 10000 1 0 00:58 24.11.2021
4588 Clear 5 1016 52 10000 0.45 75 22:58 23.11.2021
4589 Clear 5 1016 54 10000 0.45 43 22:34 23.11.2021
4590 Clear 5 1016 56 10000 0.45 15 21:44 23.11.2021
4591 Clear 6 1016 53 10000 2 250 20:19 23.11.2021
4592 Clear 6 1017 47 10000 0.45 347 18:43 23.11.2021
4593 Clear 6 1017 52 10000 0.45 346 18:22 23.11.2021
4594 Rain 6 1017 48 10000 0.45 323 17:19 23.11.2021
4595 Clear 6 1017 51 10000 2 230 16:34 23.11.2021
4596 Clear 7 1017 47 10000 2 240 15:22 23.11.2021
4597 Clear 7 1017 43 10000 3 220 14:26 23.11.2021
4598 Clear 8 1017 32 10000 2 290 11:43 23.11.2021
4599 Clear 9 1017 28 10000 0.45 311 10:19 23.11.2021
4600 Clear 10 1017 27 10000 0.45 298 09:18 23.11.2021
4601 Clear 9 1026 31 10000 4 310 06:46 23.11.2021
4602 Clear 8 1028 31 10000 5 320 03:54 23.11.2021
4603 Clear 8 1019 28 10000 0.45 292 02:57 23.11.2021
4604 Clear 4 1018 39 10000 3 320 23:21 22.11.2021
4605 Clear 5 1018 40 10000 3 320 22:52 22.11.2021
4606 Clear 5 1018 40 10000 4 330 22:25 22.11.2021
4607 Clear 5 1018 40 10000 3 310 21:41 22.11.2021
4608 Clear 5 1018 42 10000 0.45 276 20:52 22.11.2021
4609 Clear 5 1018 43 10000 3 330 19:56 22.11.2021
4610 Clear 5 1018 43 10000 3 330 19:19 22.11.2021
4611 Clear 5 1018 41 10000 4 330 18:39 22.11.2021
4612 Clear 6 1019 42 10000 5 320 17:38 22.11.2021
4613 Clear 6 1019 40 10000 4 320 16:18 22.11.2021
4614 Clear 7 1019 33 10000 5 340 13:58 22.11.2021
4615 Clear 8 1018 33 10000 6 340 11:59 22.11.2021
4616 Clear 8 1018 31 10000 7 340 10:41 22.11.2021
4617 Clear 9 1017 28 10000 0.45 288 09:26 22.11.2021
4618 Clear 10 1017 27 10000 8 320 08:40 22.11.2021
4619 Clouds 10 1026 51 10000 8 350 04:36 22.11.2021
4620 Rain 10 1016 59 10000 0.45 279 23:26 21.11.2021
4621 Clear 11 1015 65 10000 0.45 297 22:48 21.11.2021
4622 Clouds 11 1014 74 8000 5 330 21:51 21.11.2021
4623 Rain 10 1014 82 7000 8 350 20:42 21.11.2021
4624 Rain 10 1014 82 7000 0.45 282 20:42 21.11.2021
4625 Rain 11 1014 84 10000 6 350 19:46 21.11.2021
4626 Clouds 11 1013 86 10000 8 360 18:18 21.11.2021
4627 Rain 12 1012 87 5000 10 340 17:38 21.11.2021
4628 Rain 14 1011 92 6000 0.45 28 15:28 21.11.2021
4629 Rain 14 1011 93 6000 7 340 14:45 21.11.2021
4630 Rain 15 1010 92 4000 8 330 13:40 21.11.2021
4631 Rain 15 1010 92 3000 0.45 325 12:35 21.11.2021
4632 Rain 16 1009 90 4000 0.45 287 11:42 21.11.2021
4633 Mist 16 1009 85 4500 0.45 292 10:55 21.11.2021
4634 Rain 17 1008 83 4000 6 350 10:18 21.11.2021
4635 Clouds 18 1007 78 8000 0.45 289 08:40 21.11.2021
4636 Clouds 18 1007 78 8000 4 310 08:20 21.11.2021
4637 Clouds 18 1007 78 10000 4 300 07:41 21.11.2021
4638 Clouds 19 1008 75 10000 0.45 356 05:48 21.11.2021
4639 Clouds 18 1008 77 10000 3 0 05:19 21.11.2021
4640 Clear 19 1009 77 10000 2 210 03:18 21.11.2021
4641 Clear 18 1009 78 10000 2 210 02:48 21.11.2021
4642 Clear 16 1009 85 10000 2 150 00:54 21.11.2021
4643 Clear 16 1009 82 10000 3 140 23:41 20.11.2021
4644 Clouds 17 1009 74 10000 1 110 21:39 20.11.2021
4645 Rain 17 1009 73 10000 2 110 20:50 20.11.2021
4646 Clear 17 1010 70 10000 2 110 18:46 20.11.2021
4647 Clear 17 1010 70 10000 2 110 18:46 20.11.2021
4648 Clear 17 1010 70 10000 3 110 18:26 20.11.2021
4649 Rain 17 1010 70 10000 4 140 17:22 20.11.2021
4650 Rain 17 1010 70 10000 4 140 17:22 20.11.2021
4651 Clear 17 1010 69 10000 0.45 285 16:41 20.11.2021
4652 Clear 17 1011 72 10000 4 130 14:43 20.11.2021
4653 Clear 17 1011 75 10000 3 130 14:21 20.11.2021
4654 Clear 17 1010 75 10000 4 110 11:56 20.11.2021
4655 Clear 17 1010 70 10000 6 110 10:35 20.11.2021
4656 Clear 20 1010 58 10000 5 110 08:57 20.11.2021
4657 Clear 20 1018 52 10000 5 120 07:22 20.11.2021
4658 Clouds 20 1019 56 10000 5 110 05:26 20.11.2021
4659 Clear 20 1019 57 10000 3 130 04:50 20.11.2021
4660 Clear 18 1012 68 10000 2 120 01:41 20.11.2021
4661 Clear 15 1011 74 10000 1 0 00:38 20.11.2021
4662 Clear 14 1010 84 10000 1 0 22:55 19.11.2021
4663 Clear 14 1010 83 10000 1 110 21:58 19.11.2021
4664 Clear 15 1010 80 10000 2 100 20:57 19.11.2021
4665 Clear 15 1010 82 10000 2 110 20:36 19.11.2021
4666 Clear 15 1010 82 10000 3 100 19:50 19.11.2021
4667 Clear 15 1010 82 10000 3 90 18:53 19.11.2021
4668 Clear 15 1010 80 10000 3 100 18:22 19.11.2021
4669 Clear 16 1010 77 10000 3 100 16:47 19.11.2021
4670 Clear 16 1010 75 10000 3 100 15:31 19.11.2021
4671 Clear 17 1010 69 10000 3 100 13:24 19.11.2021
4672 Clear 19 1009 59 10000 4 110 10:27 19.11.2021
4673 Clear 19 1017 56 10000 5 100 09:33 19.11.2021
4674 Clear 21 1016 51 10000 3 90 07:34 19.11.2021
4675 Clear 20 1019 53 10000 3 100 04:28 19.11.2021
4676 Clear 18 1011 68 10000 3 110 01:32 19.11.2021
4677 Clear 14 1010 85 10000 2 110 23:50 18.11.2021
4678 Clear 14 1009 87 10000 1 120 21:48 18.11.2021
4679 Clear 15 1009 86 10000 1 80 20:48 18.11.2021
4680 Clouds 15 1009 86 10000 1 0 20:29 18.11.2021
4681 Clear 15 1010 86 10000 1 80 19:43 18.11.2021
4682 Clear 15 1010 84 10000 1 100 18:41 18.11.2021
4683 Clear 15 1009 84 10000 1 100 18:20 18.11.2021
4684 Clear 16 1010 79 10000 2 90 17:44 18.11.2021
4685 Clear 16 1010 76 10000 2 110 16:44 18.11.2021
4686 Clear 16 1010 75 10000 3 110 15:25 18.11.2021
4687 Clear 16 1010 68 10000 3 120 13:29 18.11.2021
4688 Clear 16 1010 68 10000 3 130 12:33 18.11.2021
4689 Clear 16 1009 68 10000 2 150 11:41 18.11.2021
4690 Clear 17 1009 68 10000 2 150 11:23 18.11.2021
4691 Clear 19 1009 56 10000 2 190 09:33 18.11.2021
4692 Clear 20 1009 47 10000 5 150 07:34 18.11.2021
4693 Clouds 21 1010 46 10000 4 130 05:47 18.11.2021
4694 Clear 19 1020 56 10000 3 150 04:31 18.11.2021
4695 Clouds 14 1021 87 7000 1 20 01:22 18.11.2021
4696 Clear 13 1012 82 10000 0 0 22:48 17.11.2021
4697 Clear 13 1012 80 10000 1 40 22:20 17.11.2021
4698 Clear 13 1012 80 10000 1 20 21:37 17.11.2021
4699 Clear 13 1013 79 10000 1 250 20:18 17.11.2021
4700 Clouds 15 1013 78 10000 4 160 17:48 17.11.2021
4701 Clouds 15 1013 80 10000 0.45 276 17:23 17.11.2021
4702 Clouds 15 1013 80 10000 0.45 276 17:23 17.11.2021
4703 Rain 16 1014 75 10000 2 100 14:18 17.11.2021
4704 Rain 16 1014 73 10000 2 90 12:39 17.11.2021
4705 Rain 16 1013 71 10000 4 120 11:42 17.11.2021
4706 Rain 17 1014 68 10000 3 120 10:28 17.11.2021
4707 Clear 17 1013 64 10000 2 110 09:23 17.11.2021
4708 Rain 18 1013 60 10000 3 80 07:42 17.11.2021
4709 Clouds 18 1016 65 10000 4 110 03:43 17.11.2021
4710 Clouds 16 1016 80 6000 2 60 01:18 17.11.2021
4711 Mist 13 1015 87 3000 1 10 22:54 16.11.2021
4712 Mist 13 1015 87 4500 2 360 20:37 16.11.2021
4713 Mist 13 1016 87 4500 2 360 20:18 16.11.2021
4714 Mist 13 1016 87 4500 2 360 20:18 16.11.2021
4715 Clouds 14 1016 82 6000 1 10 18:53 16.11.2021
4716 Clouds 14 1016 85 7000 1 40 18:30 16.11.2021
4717 Clear 14 1016 82 10000 1 100 17:38 16.11.2021
4718 Clear 14 1017 79 10000 1 0 16:35 16.11.2021
4719 Clear 15 1017 78 10000 2 70 15:49 16.11.2021
4720 Clear 15 1016 73 10000 2 80 14:39 16.11.2021
4721 Rain 16 1016 62 10000 3 90 11:28 16.11.2021
4722 Clear 19 1014 54 10000 4 70 09:46 16.11.2021
4723 Clear 20 1014 51 10000 4 60 08:26 16.11.2021
4724 Clear 20 1014 50 10000 4 90 07:32 16.11.2021
4725 Clear 16 1015 67 10000 2 80 01:44 16.11.2021
4726 Clear 14 1014 69 10000 2 150 23:20 15.11.2021
4727 Rain 14 1013 67 10000 1 150 22:30 15.11.2021
4728 Clear 14 1013 67 10000 1 110 21:52 15.11.2021
4729 Clear 14 1013 68 10000 2 130 21:28 15.11.2021
4730 Clear 14 1014 65 10000 0 0 19:41 15.11.2021
4731 Clear 14 1014 64 10000 1 0 18:30 15.11.2021
4732 Clear 14 1014 61 10000 2 120 16:20 15.11.2021
4733 Clear 14 1014 59 10000 2 130 15:40 15.11.2021
4734 Clear 14 1014 59 10000 2 130 15:21 15.11.2021
4735 Rain 15 1014 52 10000 3 150 13:22 15.11.2021
4736 Clear 17 1013 35 10000 3 160 10:57 15.11.2021
4737 Clear 20 1012 28 10000 3 160 09:27 15.11.2021
4738 Clear 21 1020 32 10000 2 180 07:52 15.11.2021
4739 Clear 21 1013 33 10000 0.45 309 05:19 15.11.2021
4740 Rain 13 1014 63 10000 1 80 23:37 14.11.2021
4741 Rain 12 1014 67 10000 0 0 22:35 14.11.2021
4742 Clear 13 1014 64 10000 2 180 19:53 14.11.2021
4743 Rain 13 1014 62 10000 0 0 19:18 14.11.2021
4744 Rain 13 1013 60 10000 0 0 18:54 14.11.2021
4745 Rain 13 1014 57 10000 0 0 18:36 14.11.2021
4746 Rain 13 1014 55 10000 0 0 18:18 14.11.2021
4747 Rain 14 1014 50 10000 0 0 17:55 14.11.2021
4748 Clear 14 1014 50 10000 1 120 17:37 14.11.2021
4749 Rain 14 1014 46 10000 1 160 17:19 14.11.2021
4750 Rain 14 1014 45 10000 1 160 16:46 14.11.2021
4751 Rain 14 1014 45 10000 1 160 16:20 14.11.2021
4752 Clear 15 1013 38 10000 2 170 15:23 14.11.2021
4753 Rain 15 1013 46 10000 2 180 14:49 14.11.2021
4754 Rain 15 1013 41 10000 1 0 14:28 14.11.2021
4755 Rain 15 1013 42 10000 1 0 13:54 14.11.2021
4756 Rain 15 1013 40 10000 1 0 13:35 14.11.2021
4757 Rain 16 1013 37 10000 1 250 12:27 14.11.2021
4758 Rain 17 1013 33 10000 2 250 11:41 14.11.2021
4759 Clear 18 1012 32 10000 0.45 46 10:41 14.11.2021
4760 Clear 19 1012 27 10000 3 240 09:47 14.11.2021
4761 Clear 21 1012 24 10000 3 260 08:53 14.11.2021
4762 Clear 20 1020 28 10000 4 290 06:54 14.11.2021
4763 Rain 11 1014 87 10000 1 190 23:34 13.11.2021
4764 Rain 11 1013 84 10000 1 170 22:22 13.11.2021
4765 Clear 11 1013 82 10000 1 160 21:50 13.11.2021
4766 Clear 11 1013 85 10000 0.45 37 21:18 13.11.2021
4767 Clear 12 1013 80 10000 0 0 19:37 13.11.2021
4768 Clear 12 1013 81 10000 1 0 18:33 13.11.2021
4769 Clear 12 1013 80 10000 1 210 17:50 13.11.2021
4770 Clear 13 1013 75 10000 2 210 16:35 13.11.2021
4771 Rain 13 1013 71 10000 0.45 353 14:57 13.11.2021
4772 Clear 14 1013 67 10000 0.45 2 14:19 13.11.2021
4773 Clear 14 1012 62 10000 3 200 12:52 13.11.2021
4774 Clear 15 1012 58 10000 3 200 11:58 13.11.2021
4775 Rain 16 1012 54 10000 0.45 31 11:26 13.11.2021
4776 Clear 16 1012 47 10000 2 0 10:43 13.11.2021
4777 Clear 17 1011 45 10000 0.45 4 09:50 13.11.2021
4778 Clear 17 1011 43 10000 0.45 327 09:32 13.11.2021
4779 Clear 18 1011 38 10000 3 240 08:54 13.11.2021
4780 Clear 19 1011 34 10000 3 250 08:18 13.11.2021
4781 Clear 19 1013 32 10000 0.45 346 04:43 13.11.2021
4782 Clear 18 1013 37 10000 4 200 04:23 13.11.2021
4783 Rain 12 1014 59 10000 1 170 00:19 13.11.2021
4784 Clear 12 1013 60 10000 1 160 22:42 12.11.2021
4785 Clear 12 1014 55 10000 1 180 20:55 12.11.2021
4786 Clear 12 1014 52 10000 1 170 19:40 12.11.2021
4787 Clear 12 1014 53 10000 1 170 19:22 12.11.2021
4788 Clear 12 1014 51 10000 1 0 18:20 12.11.2021
4789 Clear 13 1015 44 10000 1 0 16:19 12.11.2021
4790 Clear 13 1015 45 10000 2 0 14:46 12.11.2021
4791 Clear 14 1014 37 10000 2 240 11:31 12.11.2021
4792 Rain 15 1014 32 10000 2 230 10:48 12.11.2021
4793 Clear 17 1014 25 10000 2 270 09:27 12.11.2021
4794 Clear 17 1022 28 10000 4 320 08:35 12.11.2021
4795 Clear 13 1025 48 10000 3 330 02:19 12.11.2021
4796 Clear 10 1015 53 10000 3 320 23:31 11.11.2021
4797 Clear 11 1014 51 10000 3 340 22:27 11.11.2021
4798 Clear 11 1015 49 10000 3 320 21:26 11.11.2021
4799 Clear 11 1015 47 10000 3 310 20:18 11.11.2021
4800 Clear 11 1015 48 10000 2 320 18:54 11.11.2021
4801 Clear 12 1015 45 10000 2 310 17:42 11.11.2021
4802 Clear 12 1015 43 10000 3 310 16:24 11.11.2021
4803 Rain 13 1014 40 10000 4 310 14:44 11.11.2021
4804 Rain 13 1013 39 10000 4 310 14:25 11.11.2021
4805 Rain 14 1013 40 10000 3 310 13:36 11.11.2021
4806 Rain 14 1013 44 10000 0.89 271 12:30 11.11.2021
4807 Clear 15 1011 37 10000 1.34 6 10:24 11.11.2021
4808 Clear 16 1011 32 10000 1.34 325 09:23 11.11.2021
4809 Clear 17 1011 29 10000 1.79 316 07:35 11.11.2021
4810 Clear 11 1012 63 10000 1.34 317 00:43 11.11.2021
4811 Rain 9 1011 67 10000 1.34 346 22:46 10.11.2021
4812 Clear 9 1011 64 10000 0.89 346 21:54 10.11.2021
4813 Rain 10 1011 61 10000 0.89 346 20:57 10.11.2021
4814 Rain 10 1011 59 10000 0.89 315 20:33 10.11.2021
4815 Rain 10 1011 57 10000 0.89 4 19:45 10.11.2021
4816 Rain 11 1011 51 10000 2 270 17:39 10.11.2021
4817 Rain 11 1012 50 10000 3 310 16:21 10.11.2021
4818 Rain 12 1011 45 10000 0.89 340 14:25 10.11.2021
4819 Rain 13 1011 42 10000 0.89 310 13:38 10.11.2021
4820 Rain 13 1011 40 10000 1.34 341 12:31 10.11.2021
4821 Clear 16 1009 31 10000 1.34 289 09:29 10.11.2021
4822 Clear 16 1009 30 10000 1.34 290 08:42 10.11.2021
4823 Clear 16 1009 30 10000 1.34 290 08:42 10.11.2021
4824 Clear 16 1009 28 10000 0.89 292 06:50 10.11.2021
4825 Clear 16 1009 29 10000 1.79 252 05:58 10.11.2021
4826 Clear 15 1009 28 10000 3.58 338 04:58 10.11.2021
4827 Clear 9 1010 69 10000 0.45 353 22:29 09.11.2021
4828 Clear 9 1010 64 10000 0.45 7 20:50 09.11.2021
4829 Clear 9 1011 61 10000 0.45 347 19:36 09.11.2021
4830 Clear 10 1011 57 10000 0.45 17 18:50 09.11.2021
4831 Clear 10 1011 51 10000 0.89 18 16:57 09.11.2021
4832 Clear 11 1012 49 10000 1.34 285 15:37 09.11.2021
4833 Clear 11 1012 44 10000 1.34 274 13:53 09.11.2021
4834 Clear 11 1012 44 10000 0.89 12 12:47 09.11.2021
4835 Clear 12 1011 40 10000 1.34 343 11:18 09.11.2021
4836 Clear 12 1011 35 10000 1.34 356 09:59 09.11.2021
4837 Clear 13 1012 35 10000 0.89 298 09:21 09.11.2021
4838 Clear 14 1012 28 10000 1.34 296 07:54 09.11.2021
4839 Clear 10 1015 37 10000 0.89 278 02:50 09.11.2021
4840 Clear 8 1015 42 10000 0.89 279 01:55 09.11.2021
4841 Clear 8 1015 48 10000 0.89 305 01:36 09.11.2021
4842 Clear 5 1015 58 10000 0.89 297 23:31 08.11.2021
4843 Clear 6 1015 57 10000 0.45 304 22:45 08.11.2021
4844 Clear 6 1015 55 10000 0.45 302 21:45 08.11.2021
4845 Rain 6 1015 55 10000 0.45 302 20:36 08.11.2021
4846 Rain 6 1016 56 10000 0.45 295 19:40 08.11.2021
4847 Rain 6 1017 53 10000 0.45 292 17:44 08.11.2021
4848 Rain 7 1017 55 10000 4 340 15:56 08.11.2021
4849 Rain 7 1017 52 10000 0.45 274 14:56 08.11.2021
4850 Rain 7 1017 51 10000 0.45 310 14:25 08.11.2021
4851 Rain 8 1017 46 10000 0.89 302 12:59 08.11.2021
4852 Rain 7 1016 44 10000 0.45 306 11:54 08.11.2021
4853 Rain 8 1016 41 10000 0.45 315 10:49 08.11.2021
4854 Clear 10 1016 36 10000 0.89 314 08:57 08.11.2021
4855 Clear 9 1016 36 10000 1.79 305 08:18 08.11.2021
4856 Clear 10 1016 35 10000 0.89 270 06:56 08.11.2021
4857 Clear 8 1018 43 10000 0.45 288 03:35 08.11.2021
4858 Clouds 4 1017 62 10000 1.79 341 00:20 08.11.2021
4859 Clear 5 1016 63 10000 1.79 286 22:58 07.11.2021
4860 Clouds 6 1016 66 10000 1.34 277 21:25 07.11.2021
4861 Clouds 6 1016 69 10000 1.79 221 20:18 07.11.2021
4862 Rain 6 1015 84 10000 1.79 216 18:30 07.11.2021
4863 Rain 6 1014 87 10000 2.68 256 17:42 07.11.2021
4864 Rain 7 1013 89 10000 1.34 307 16:22 07.11.2021
4865 Rain 7 1013 88 10000 2.24 312 14:54 07.11.2021
4866 Rain 8 1012 91 10000 1.34 255 14:27 07.11.2021
4867 Rain 9 1011 89 10000 1.79 324 12:48 07.11.2021
4868 Rain 10 1010 92 10000 2.24 192 11:31 07.11.2021
4869 Rain 20 1014 86 10000 3 170 08:59 07.11.2021
4870 Clouds 23 1009 69 10000 5 120 02:53 07.11.2021
4871 Clear 19 1009 86 10000 2 70 00:25 07.11.2021
4872 Rain 19 1009 87 10000 3 90 22:55 06.11.2021
4873 Rain 19 1009 85 10000 2 80 21:50 06.11.2021
4874 Rain 19 1009 85 10000 3 80 20:54 06.11.2021
4875 Rain 19 1009 87 10000 2 60 19:40 06.11.2021
4876 Rain 18 1009 88 10000 3 50 17:31 06.11.2021
4877 Clear 19 1009 83 10000 2 60 16:21 06.11.2021
4878 Clouds 19 1008 84 10000 3 50 13:39 06.11.2021
4879 Rain 19 1008 83 10000 3 50 12:52 06.11.2021
4880 Clear 20 1007 83 10000 3 40 09:55 06.11.2021
4881 Clouds 19 1007 89 10000 3 60 08:36 06.11.2021
4882 Clouds 20 1006 84 10000 4 60 04:50 06.11.2021
4883 Rain 18 1004 97 6000 3 10 23:41 05.11.2021
4884 Rain 18 1012 98 6000 3 10 23:19 05.11.2021
4885 Clouds 18 1004 95 10000 4 70 22:32 05.11.2021
4886 Rain 18 1003 96 10000 3 90 20:25 05.11.2021
4887 Rain 19 1003 96 10000 3 80 19:50 05.11.2021
4888 Rain 19 1003 97 10000 3 100 18:42 05.11.2021
4889 Rain 19 1003 97 8000 4 70 17:45 05.11.2021
4890 Rain 18 1003 97 7000 4 90 16:37 05.11.2021
4891 Rain 18 1004 95 10000 6 80 14:18 05.11.2021
4892 Rain 18 1003 95 10000 6 90 11:45 05.11.2021
4893 Rain 18 1004 96 6000 5 100 09:22 05.11.2021
4894 Rain 19 1003 96 7000 4 110 07:46 05.11.2021
4895 Mist 19 1005 97 5000 3 140 05:33 05.11.2021
4896 Rain 18 1007 97 4000 2 100 02:27 05.11.2021
4897 Rain 18 1007 97 3500 3 110 01:59 05.11.2021
4898 Rain 18 1007 96 6000 4 120 23:45 04.11.2021
4899 Rain 18 1007 96 8000 5 130 22:21 04.11.2021
4900 Clouds 17 1007 95 6000 5 130 21:52 04.11.2021
4901 Rain 17 1007 95 7000 0.45 288 21:19 04.11.2021
4902 Rain 17 1008 94 8000 0.45 275 20:25 04.11.2021
4903 Rain 17 1008 93 8000 4 140 19:48 04.11.2021
4904 Rain 17 1008 92 8000 4 150 19:20 04.11.2021
4905 Rain 18 1009 86 10000 0.45 276 18:21 04.11.2021
4906 Rain 18 1009 84 10000 0.45 293 17:26 04.11.2021
4907 Rain 18 1009 84 10000 0.45 293 17:26 04.11.2021
4908 Clouds 18 1010 82 10000 0.45 264 15:35 04.11.2021
4909 Clouds 19 1010 75 10000 5 130 13:45 04.11.2021
4910 Clouds 19 1009 70 10000 0.45 271 09:50 04.11.2021
4911 Clouds 20 1010 66 10000 5 130 08:31 04.11.2021
4912 Clouds 21 1010 64 10000 5 150 07:35 04.11.2021
4913 Clouds 21 1010 62 10000 0.45 270 06:22 04.11.2021
4914 Clear 16 1011 75 10000 1 110 22:54 03.11.2021
4915 Clear 16 1011 76 10000 3 140 21:51 03.11.2021
4916 Clear 16 1011 75 10000 3 130 21:33 03.11.2021
4917 Clear 16 1011 75 10000 2 120 20:38 03.11.2021
4918 Clear 16 1011 75 10000 2 120 20:19 03.11.2021
4919 Clear 16 1012 75 10000 1 100 19:19 03.11.2021
4920 Clear 16 1012 75 10000 1 0 18:25 03.11.2021
4921 Rain 16 1012 73 10000 1 150 17:41 03.11.2021
4922 Rain 16 1012 72 10000 2 160 16:27 03.11.2021
4923 Rain 17 1012 70 10000 2 150 15:44 03.11.2021
4924 Rain 17 1013 68 10000 2 150 14:25 03.11.2021
4925 Rain 17 1012 64 10000 3 150 12:33 03.11.2021
4926 Rain 18 1012 61 10000 4 190 11:27 03.11.2021
4927 Rain 19 1011 56 10000 0.45 271 10:49 03.11.2021
4928 Rain 19 1011 56 10000 0.45 271 10:49 03.11.2021
4929 Clear 20 1019 55 10000 3 210 09:31 03.11.2021
4930 Rain 22 1011 42 10000 3 220 08:24 03.11.2021
4931 Clear 22 1020 40 10000 2 0 07:39 03.11.2021
4932 Clear 21 1021 50 10000 2 180 05:35 03.11.2021
4933 Clear 20 1023 55 10000 2 70 02:50 03.11.2021
4934 Rain 16 1014 71 10000 1 90 23:56 02.11.2021
4935 Rain 16 1014 70 10000 1 30 22:47 02.11.2021
4936 Rain 16 1014 71 10000 1 350 21:39 02.11.2021
4937 Rain 16 1014 70 10000 1 70 20:33 02.11.2021
4938 Rain 16 1015 69 10000 1 80 19:53 02.11.2021
4939 Rain 16 1015 69 10000 1 0 18:59 02.11.2021
4940 Rain 16 1015 69 10000 1 50 18:26 02.11.2021
4941 Clear 16 1015 69 10000 3 80 17:42 02.11.2021
4942 Rain 16 1016 68 10000 2 90 16:31 02.11.2021
4943 Rain 16 1015 69 10000 1 0 15:32 02.11.2021
4944 Rain 16 1016 66 10000 3 70 14:28 02.11.2021
4945 Rain 16 1016 66 10000 4 80 13:27 02.11.2021
4946 Rain 17 1015 64 10000 4 80 12:41 02.11.2021
4947 Rain 18 1015 61 10000 3 80 11:34 02.11.2021
4948 Rain 18 1015 58 10000 4 50 10:53 02.11.2021
4949 Rain 19 1014 57 10000 3 50 10:27 02.11.2021
4950 Clear 20 1014 49 10000 3 30 08:43 02.11.2021
4951 Clear 21 1022 54 10000 4 30 06:53 02.11.2021
4952 Clear 20 1025 58 10000 3 100 03:49 02.11.2021
4953 Clear 19 1025 67 10000 5 50 02:21 02.11.2021
4954 Clouds 16 1017 82 8000 4 30 22:47 01.11.2021
4955 Clouds 17 1016 82 8000 4 40 20:52 01.11.2021
4956 Clouds 17 1016 83 8000 4 30 20:33 01.11.2021
4957 Clear 17 1016 83 10000 4 40 19:55 01.11.2021
4958 Clear 17 1016 83 10000 3 40 19:25 01.11.2021
4959 Clear 17 1017 82 10000 3 20 18:21 01.11.2021
4960 Clear 18 1017 83 10000 2 40 17:19 01.11.2021
4961 Clear 18 1017 85 10000 3 30 16:45 01.11.2021
4962 Clear 18 1017 83 10000 2 30 15:47 01.11.2021
4963 Clear 18 1017 82 10000 2 20 15:20 01.11.2021
4964 Clear 18 1017 80 10000 4 60 14:42 01.11.2021
4965 Clear 18 1017 79 10000 4 60 14:20 01.11.2021
4966 Rain 19 1017 74 10000 3 50 13:19 01.11.2021
4967 Rain 19 1017 70 10000 4 50 12:24 01.11.2021
4968 Clear 21 1016 60 10000 4 50 10:23 01.11.2021
4969 Clear 21 1024 53 10000 5 30 08:53 01.11.2021
4970 Clear 23 1024 48 10000 3 30 07:47 01.11.2021
4971 Clear 23 1024 48 10000 2 80 05:53 01.11.2021
4972 Clouds 21 1026 67 7000 2 0 03:40 01.11.2021
4973 Rain 17 1017 87 10000 1 350 23:59 31.10.2021
4974 Clear 16 1017 89 10000 2 360 21:37 31.10.2021
4975 Clear 17 1016 89 10000 3 340 20:25 31.10.2021
4976 Clear 17 1016 86 10000 2 40 18:51 31.10.2021
4977 Clear 17 1017 85 10000 2 330 18:25 31.10.2021
4978 Clear 17 1017 85 10000 2 50 16:48 31.10.2021
4979 Clear 18 1017 80 10000 1 80 15:18 31.10.2021
4980 Clear 19 1017 75 10000 2 110 13:27 31.10.2021
4981 Rain 19 1017 71 10000 2 90 12:30 31.10.2021
4982 Rain 20 1016 65 10000 3 80 10:51 31.10.2021
4983 Clear 22 1015 55 10000 3 80 09:43 31.10.2021
4984 Clear 22 1023 57 10000 4 60 08:47 31.10.2021
4985 Clouds 22 1016 59 10000 4 50 04:54 31.10.2021
4986 Rain 16 1016 92 10000 1 340 00:36 31.10.2021
4987 Rain 16 1015 91 10000 1 360 22:28 30.10.2021
4988 Rain 16 1015 90 10000 1 350 21:30 30.10.2021
4989 Rain 17 1016 84 10000 2 10 19:57 30.10.2021
4990 Rain 17 1016 82 10000 2 340 17:51 30.10.2021
4991 Rain 18 1016 78 10000 2 30 15:49 30.10.2021
4992 Rain 18 1016 72 10000 4 20 13:59 30.10.2021
4993 Rain 19 1016 72 10000 4 50 13:38 30.10.2021
4994 Rain 19 1016 72 10000 4 50 13:20 30.10.2021
4995 Rain 21 1015 55 10000 4 360 11:50 30.10.2021
4996 Clear 21 1022 52 10000 4 360 10:57 30.10.2021
4997 Clear 23 1022 46 10000 5 360 08:59 30.10.2021
4998 Clear 22 1022 46 10000 5 340 07:57 30.10.2021
4999 Clear 21 1023 54 10000 4 340 05:47 30.10.2021
5000 Clear 20 1016 65 10000 3 350 02:59 30.10.2021
5001 Rain 17 1014 77 10000 2 340 23:21 29.10.2021
5002 Rain 17 1013 76 10000 2 330 22:35 29.10.2021
5003 Rain 17 1014 74 10000 2 330 21:19 29.10.2021
5004 Rain 18 1013 72 10000 2 360 20:33 29.10.2021
5005 Rain 18 1014 71 10000 2 20 19:30 29.10.2021
5006 Rain 18 1014 69 10000 2 30 17:48 29.10.2021
5007 Rain 19 1014 67 10000 3 70 15:50 29.10.2021
5008 Rain 19 1014 67 10000 3 110 13:19 29.10.2021
5009 Clear 21 1013 56 10000 4 10 10:49 29.10.2021
5010 Clear 22 1013 51 10000 2 50 10:30 29.10.2021
5011 Clear 20 1016 63 10000 4 20 02:46 29.10.2021
5012 Rain 16 1016 76 10000 2 360 00:32 29.10.2021
5013 Rain 16 1015 72 10000 3 360 22:32 28.10.2021
5014 Rain 16 1015 72 10000 2 350 20:59 28.10.2021
5015 Rain 17 1015 71 10000 2 350 19:56 28.10.2021
5016 Rain 17 1016 70 10000 2 30 18:46 28.10.2021
5017 Rain 17 1016 67 10000 1 60 17:38 28.10.2021
5018 Rain 17 1016 65 10000 3 40 16:38 28.10.2021
5019 Rain 18 1016 62 10000 3 50 14:42 28.10.2021
5020 Rain 18 1016 61 10000 4 50 13:33 28.10.2021
5021 Rain 19 1016 57 10000 4 60 12:50 28.10.2021
5022 Clear 19 1015 55 10000 4 40 11:49 28.10.2021
5023 Clear 20 1023 54 10000 4 40 10:23 28.10.2021
5024 Clear 21 1023 50 10000 3 70 09:37 28.10.2021
5025 Clear 21 1022 49 10000 4 30 08:36 28.10.2021
5026 Clear 21 1023 51 10000 5 30 07:41 28.10.2021
5027 Rain 17 1017 69 10000 3 30 01:48 28.10.2021
5028 Rain 15 1015 73 10000 2 10 22:49 27.10.2021
5029 Rain 16 1015 75 10000 2 10 21:53 27.10.2021
5030 Rain 16 1015 78 7000 2 40 21:20 27.10.2021
5031 Rain 16 1015 81 6000 2 360 20:43 27.10.2021
5032 Rain 16 1015 83 6000 2 10 19:46 27.10.2021
5033 Rain 17 1015 82 6000 2 350 18:56 27.10.2021
5034 Rain 17 1015 82 7000 2 360 17:39 27.10.2021
5035 Rain 17 1015 79 10000 3 20 16:25 27.10.2021
5036 Rain 17 1015 76 10000 2 20 15:24 27.10.2021
5037 Rain 18 1015 72 10000 3 30 14:20 27.10.2021
5038 Clear 20 1014 54 10000 4 30 11:18 27.10.2021
5039 Clear 20 1022 55 10000 3 20 10:36 27.10.2021
5040 Clear 21 1021 51 10000 3 20 09:22 27.10.2021
5041 Clouds 21 1022 51 10000 4 10 07:44 27.10.2021
5042 Clouds 21 1023 59 10000 3 40 05:38 27.10.2021
5043 Rain 17 1015 82 10000 3 360 01:24 27.10.2021
5044 Rain 17 1015 83 10000 2 350 00:54 27.10.2021
5045 Rain 17 1014 81 10000 1 10 23:54 26.10.2021
5046 Rain 17 1014 80 10000 1 350 22:44 26.10.2021
5047 Clear 17 1014 80 10000 1 40 22:21 26.10.2021
5048 Clear 17 1013 79 10000 1 10 21:32 26.10.2021
5049 Clear 17 1015 80 10000 0 0 19:48 26.10.2021
5050 Clear 17 1015 79 10000 1 180 18:54 26.10.2021
5051 Clear 18 1015 75 10000 0 0 17:45 26.10.2021
5052 Rain 18 1013 70 10000 1 0 15:49 26.10.2021
5053 Rain 19 1012 63 10000 1 0 12:55 26.10.2021
5054 Clear 21 1011 54 10000 2 160 10:54 26.10.2021
5055 Clear 22 1019 53 10000 3 140 08:24 26.10.2021
5056 Clear 22 1012 48 10000 1 0 07:22 26.10.2021
5057 Clear 16 1015 84 10000 2 360 00:19 26.10.2021
5058 Clear 16 1015 83 10000 2 10 23:28 25.10.2021
5059 Rain 16 1015 82 10000 1 350 22:29 25.10.2021
5060 Rain 16 1015 80 10000 1 20 21:42 25.10.2021
5061 Rain 16 1015 79 10000 1 30 20:28 25.10.2021
5062 Clear 16 1016 78 10000 1 20 19:43 25.10.2021
5063 Clear 16 1016 78 10000 0 0 19:22 25.10.2021
5064 Clear 17 1016 75 10000 1 90 18:35 25.10.2021
5065 Rain 18 1016 71 10000 1 0 16:43 25.10.2021
5066 Rain 17 1015 66 10000 3 70 14:47 25.10.2021
5067 Rain 18 1014 63 10000 3 70 12:31 25.10.2021
5068 Clear 20 1013 57 10000 3 70 10:46 25.10.2021
5069 Clear 21 1022 56 10000 5 30 08:57 25.10.2021
5070 Clear 21 1023 53 10000 6 350 06:27 25.10.2021
5071 Clear 20 1016 64 10000 4 10 03:18 25.10.2021
5072 Rain 15 1015 83 8000 1 360 00:49 25.10.2021
5073 Clear 15 1015 83 8000 2 330 00:31 25.10.2021
5074 Clear 15 1015 81 10000 2 340 23:33 24.10.2021
5075 Rain 15 1015 81 10000 2 330 22:37 24.10.2021
5076 Rain 15 1015 81 10000 2 330 22:19 24.10.2021
5077 Rain 15 1015 77 10000 1 350 20:46 24.10.2021
5078 Rain 15 1015 77 10000 1 350 20:46 24.10.2021
5079 Rain 15 1015 76 10000 1 350 20:27 24.10.2021
5080 Rain 15 1016 77 10000 2 10 19:22 24.10.2021
5081 Rain 15 1016 76 10000 3 360 18:27 24.10.2021
5082 Rain 16 1016 71 10000 3 10 17:29 24.10.2021
5083 Rain 16 1017 67 10000 2 10 15:49 24.10.2021
5084 Rain 18 1017 62 10000 3 60 13:58 24.10.2021
5085 Rain 18 1016 57 10000 5 60 12:41 24.10.2021
5086 Clear 19 1015 55 10000 5 30 11:43 24.10.2021
5087 Clear 20 1023 54 10000 5 10 10:47 24.10.2021
5088 Clear 20 1023 52 10000 5 30 09:59 24.10.2021
5089 Clear 20 1026 51 10000 4 20 05:35 24.10.2021
5090 Rain 17 1018 72 10000 2 360 00:53 24.10.2021
5091 Rain 16 1017 73 10000 2 10 23:34 23.10.2021
5092 Rain 17 1017 69 10000 2 20 21:56 23.10.2021
5093 Rain 17 1018 64 10000 3 60 19:53 23.10.2021
5094 Rain 17 1018 63 10000 1 0 18:59 23.10.2021
5095 Rain 17 1018 62 10000 2 70 18:21 23.10.2021
5096 Rain 17 1018 62 10000 2 90 17:42 23.10.2021
5097 Rain 17 1019 62 10000 2 50 16:20 23.10.2021
5098 Rain 17 1019 59 10000 3 60 13:58 23.10.2021
5099 Rain 18 1029 53 10000 4 40 03:33 23.10.2021
5100 Rain 14 1019 69 10000 1 360 23:45 22.10.2021
5101 Rain 14 1019 67 10000 2 10 22:44 22.10.2021
5102 Rain 15 1019 64 10000 3 320 19:51 22.10.2021
5103 Rain 15 1019 62 10000 2 340 18:40 22.10.2021
5104 Rain 15 1019 62 10000 2 10 17:25 22.10.2021
5105 Rain 15 1019 61 10000 3 10 14:58 22.10.2021
5106 Rain 16 1019 59 10000 3 10 13:35 22.10.2021
5107 Clear 18 1018 50 10000 5 10 10:58 22.10.2021
5108 Clear 18 1018 50 10000 7 10 10:37 22.10.2021
5109 Clouds 19 1018 48 8000 6 360 09:41 22.10.2021
5110 Clouds 19 1018 49 8000 7 10 07:53 22.10.2021
5111 Clouds 20 1018 48 8000 7 360 07:21 22.10.2021
5112 Mist 15 1019 72 5000 4 340 02:37 22.10.2021
5113 Rain 13 1017 81 10000 4 330 23:53 21.10.2021
5114 Rain 13 1016 77 10000 4 320 22:47 21.10.2021
5115 Rain 13 1016 77 10000 4 320 22:47 21.10.2021
5116 Rain 13 1016 75 10000 3 310 21:39 21.10.2021
5117 Rain 13 1016 72 10000 3 310 20:26 21.10.2021
5118 Rain 13 1016 71 10000 2 290 19:56 21.10.2021
5119 Rain 13 1016 69 10000 3 300 19:26 21.10.2021
5120 Rain 14 1016 65 10000 4 330 18:34 21.10.2021
5121 Rain 14 1016 64 10000 4 340 17:53 21.10.2021
5122 Rain 14 1016 65 10000 4 330 17:18 21.10.2021
5123 Rain 15 1016 65 10000 0.45 287 15:33 21.10.2021
5124 Rain 15 1015 65 10000 5 330 14:56 21.10.2021
5125 Rain 15 1015 64 10000 6 330 14:37 21.10.2021
5126 Rain 16 1014 65 10000 3 320 11:59 21.10.2021
5127 Clouds 17 1013 64 10000 5 340 09:42 21.10.2021
5128 Clouds 16 1013 70 10000 6 330 07:54 21.10.2021
5129 Clouds 17 1013 68 10000 0.45 267 06:46 21.10.2021
5130 Clear 12 1014 89 10000 4 330 00:51 21.10.2021
5131 Rain 11 1013 90 10000 3 330 22:35 20.10.2021
5132 Rain 11 1013 92 10000 4 340 21:48 20.10.2021
5133 Rain 12 1013 94 10000 4 340 20:59 20.10.2021
5134 Rain 12 1013 94 10000 5 340 20:39 20.10.2021
5135 Rain 12 1013 94 10000 5 340 20:19 20.10.2021
5136 Rain 12 1014 94 10000 5 340 19:23 20.10.2021
5137 Rain 12 1014 92 10000 4 360 18:29 20.10.2021
5138 Rain 12 1014 93 10000 5 360 17:33 20.10.2021
5139 Rain 12 1015 94 10000 4 360 14:33 20.10.2021
5140 Rain 14 1014 88 10000 3 360 09:54 20.10.2021
5141 Rain 15 1015 77 10000 3 10 05:34 20.10.2021
5142 Rain 15 1016 68 10000 7 10 02:35 20.10.2021
5143 Rain 15 1016 67 10000 6 10 00:33 20.10.2021
5144 Rain 15 1015 65 10000 5 360 22:37 19.10.2021
5145 Rain 16 1015 64 10000 5 10 21:37 19.10.2021
5146 Rain 16 1016 64 10000 6 10 20:26 19.10.2021
5147 Rain 16 1016 64 10000 6 10 19:58 19.10.2021
5148 Rain 16 1016 63 10000 6 20 19:34 19.10.2021
5149 Clear 16 1016 63 10000 5 30 18:33 19.10.2021
5150 Rain 16 1016 63 10000 0.45 270 17:47 19.10.2021
5151 Rain 17 1017 67 10000 7 20 15:29 19.10.2021
5152 Rain 18 1016 68 10000 4 350 14:37 19.10.2021
5153 Rain 18 1016 69 10000 4 340 13:52 19.10.2021
5154 Rain 18 1015 67 10000 4 350 12:20 19.10.2021
5155 Rain 18 1015 65 10000 5 350 11:23 19.10.2021
5156 Rain 18 1014 61 10000 5 350 09:43 19.10.2021
5157 Rain 19 1014 59 10000 5 10 08:56 19.10.2021
5158 Rain 15 1014 78 10000 3 330 00:39 19.10.2021
5159 Clear 16 1016 79 10000 3 330 23:58 18.10.2021
5160 Rain 16 1016 79 10000 3 320 23:39 18.10.2021
5161 Rain 16 1016 79 10000 2 330 22:55 18.10.2021
5162 Rain 16 1016 79 10000 3 320 22:18 18.10.2021
5163 Rain 16 1016 79 10000 2 360 20:46 18.10.2021
5164 Rain 16 1016 77 10000 2 340 20:23 18.10.2021
5165 Rain 16 1016 75 10000 2 330 19:31 18.10.2021
5166 Rain 16 1015 74 10000 2 310 18:59 18.10.2021
5167 Rain 16 1014 71 10000 2 0 16:38 18.10.2021
5168 Rain 17 1014 67 10000 2 240 14:44 18.10.2021
5169 Rain 18 1013 59 10000 3 0 11:59 18.10.2021
5170 Clear 20 1021 56 10000 2 150 09:48 18.10.2021
5171 Clear 19 1021 57 10000 2 130 08:21 18.10.2021
5172 Clear 15 1017 64 10000 3 10 00:30 18.10.2021
5173 Rain 14 1017 65 10000 4 360 22:48 17.10.2021
5174 Rain 14 1017 65 10000 4 10 21:44 17.10.2021
5175 Rain 14 1017 64 10000 3 350 20:57 17.10.2021
5176 Rain 14 1017 64 10000 3 340 20:21 17.10.2021
5177 Rain 14 1017 61 10000 3 350 19:38 17.10.2021
5178 Rain 14 1012 61 10000 2.62 3 18:34 17.10.2021
5179 Rain 14 1019 63 10000 5 330 16:46 17.10.2021
5180 Rain 15 1019 62 10000 5 360 14:40 17.10.2021
5181 Rain 15 1019 62 10000 5 360 14:21 17.10.2021
5182 Rain 15 1020 60 10000 5 360 13:33 17.10.2021
5183 Clear 15 1020 59 10000 6 360 11:31 17.10.2021
5184 Clear 16 1020 56 10000 6 350 10:19 17.10.2021
5185 Clear 17 1020 50 10000 6 20 09:21 17.10.2021
5186 Clouds 17 1021 53 10000 0.45 276 06:52 17.10.2021
5187 Rain 15 1022 61 10000 5 340 00:35 17.10.2021
5188 Rain 15 1022 64 10000 7 350 23:22 16.10.2021
5189 Rain 15 1021 59 10000 0.45 284 20:55 16.10.2021
5190 Rain 15 1022 62 10000 0.45 266 20:29 16.10.2021
5191 Rain 16 1022 62 10000 0.45 270 19:41 16.10.2021
5192 Clouds 16 1022 62 10000 0.45 7 19:20 16.10.2021
5193 Clouds 16 1022 64 10000 6 350 18:45 16.10.2021
5194 Clouds 16 1022 62 10000 0.45 286 18:24 16.10.2021
5195 Rain 16 1022 63 10000 0.45 278 17:35 16.10.2021
5196 Rain 16 1022 63 10000 0.45 302 16:28 16.10.2021
5197 Rain 14 1030 87 10000 7 360 13:26 16.10.2021
5198 Clouds 16 1020 74 10000 0.45 256 11:25 16.10.2021
5199 Clouds 17 1018 77 10000 12 10 09:35 16.10.2021
5200 Rain 19 1016 80 10000 7 20 04:33 16.10.2021
5201 Rain 18 1014 95 5000 8 10 01:22 16.10.2021
5202 Rain 19 1012 94 10000 0.45 276 23:27 15.10.2021
5203 Rain 19 1011 93 10000 0.45 270 22:21 15.10.2021
5204 Rain 19 1011 94 6000 8 10 21:41 15.10.2021
5205 Rain 19 1010 94 6000 0.45 275 20:54 15.10.2021
5206 Rain 20 1010 94 6000 0.45 206 20:35 15.10.2021
5207 Rain 21 1010 93 6000 8 10 19:20 15.10.2021
5208 Rain 22 1010 90 10000 1.34 104 18:22 15.10.2021
5209 Rain 22 1010 90 10000 1.34 104 18:22 15.10.2021
5210 Rain 23 1009 92 10000 6 360 15:48 15.10.2021
5211 Rain 23 1009 94 6000 4 330 14:22 15.10.2021
5212 Rain 24 1008 91 6000 0.45 288 12:25 15.10.2021
5213 Clouds 25 1007 88 7000 0.45 258 11:19 15.10.2021
5214 Clouds 26 1007 85 10000 5 310 10:31 15.10.2021
5215 Clouds 28 1006 76 10000 0.45 309 07:37 15.10.2021
5216 Clouds 28 1008 73 10000 2 170 04:46 15.10.2021
5217 Clear 25 1008 94 10000 0.89 132 00:23 15.10.2021
5218 Clear 25 1008 94 10000 0.89 106 23:25 14.10.2021
5219 Clear 25 1007 94 10000 1 0 22:22 14.10.2021
5220 Clouds 25 1007 94 10000 2 120 21:37 14.10.2021
5221 Clouds 25 1007 93 10000 3 120 20:21 14.10.2021
5222 Clouds 25 1008 91 10000 2 110 19:46 14.10.2021
5223 Clouds 26 1008 91 10000 3 120 18:40 14.10.2021
5224 Clouds 26 1008 91 10000 3 120 18:40 14.10.2021
5225 Clouds 26 1009 91 10000 3 120 16:59 14.10.2021
5226 Rain 26 1009 91 10000 3 120 16:32 14.10.2021
5227 Rain 26 1009 89 10000 4 130 14:50 14.10.2021
5228 Rain 26 1009 89 10000 4 130 14:26 14.10.2021
5229 Rain 26 1008 85 10000 4 130 13:33 14.10.2021
5230 Clear 27 1008 80 10000 5 120 11:34 14.10.2021
5231 Clouds 29 1015 75 10000 5 120 09:24 14.10.2021
5232 Clouds 31 1004 62 10000 3.68 99 06:19 14.10.2021
5233 Clouds 25 1005 92 10000 1.63 75 00:41 14.10.2021
5234 Rain 25 1009 96 6000 4 100 22:40 13.10.2021
5235 Rain 25 1009 96 10000 2 100 21:36 13.10.2021
5236 Clouds 25 1009 96 10000 2 100 20:43 13.10.2021
5237 Clouds 25 1009 96 10000 1 0 19:20 13.10.2021
5238 Clear 25 1009 95 10000 2 70 18:37 13.10.2021
5239 Clear 25 1010 95 10000 2 100 16:37 13.10.2021
5240 Clouds 25 1010 95 10000 3 110 14:47 13.10.2021
5241 Clouds 25 1010 93 10000 3 110 14:23 13.10.2021
5242 Rain 25 1009 93 10000 3 120 12:42 13.10.2021
5243 Rain 25 1008 93 10000 3 100 11:36 13.10.2021
5244 Rain 26 1008 94 10000 3 70 09:37 13.10.2021
5245 Rain 27 1008 89 10000 5 70 07:50 13.10.2021
5246 Clouds 26 1010 94 10000 2 70 02:58 13.10.2021
5247 Rain 26 1010 95 10000 3 70 02:19 13.10.2021
5248 Rain 24 1009 97 6000 3 10 23:33 12.10.2021
5249 Rain 23 1009 97 6000 3 10 22:50 12.10.2021
5250 Rain 23 1009 97 6000 3 10 22:50 12.10.2021
5251 Rain 23 1009 97 6000 5 20 22:23 12.10.2021
5252 Rain 23 1009 95 8000 7 20 20:50 12.10.2021
5253 Rain 23 1009 95 7000 7 10 20:24 12.10.2021
5254 Clouds 22 1010 95 7000 6 10 18:58 12.10.2021
5255 Clouds 22 1010 95 8000 6 10 18:23 12.10.2021
5256 Rain 22 1011 95 6000 5 360 17:19 12.10.2021
5257 Clouds 22 1011 88 10000 6 10 16:19 12.10.2021
5258 Rain 22 1012 83 10000 6 10 15:29 12.10.2021
5259 Rain 22 1012 79 10000 7 20 13:45 12.10.2021
5260 Rain 22 1011 76 10000 7 30 12:44 12.10.2021
5261 Rain 23 1011 71 10000 0.45 340 10:45 12.10.2021
5262 Clouds 23 1011 69 10000 0.45 270 09:20 12.10.2021
5263 Rain 23 1011 67 10000 0.45 262 08:00 12.10.2021
5264 Clouds 23 1020 69 10000 9 30 06:42 12.10.2021
5265 Clouds 23 1013 68 10000 0.45 275 04:35 12.10.2021
5266 Rain 21 1012 73 10000 0.45 266 01:30 12.10.2021
5267 Rain 21 1011 74 10000 6 30 23:41 11.10.2021
5268 Rain 21 1011 74 10000 0.45 266 22:59 11.10.2021
5269 Rain 21 1011 74 10000 0.45 282 22:30 11.10.2021
5270 Rain 21 1011 73 10000 7 30 21:19 11.10.2021
5271 Clouds 21 1011 72 10000 5 20 19:46 11.10.2021
5272 Clouds 21 1012 72 10000 6 20 18:59 11.10.2021
5273 Clouds 21 1012 73 10000 6 10 18:18 11.10.2021
5274 Rain 21 1012 71 10000 6 20 16:39 11.10.2021
5275 Rain 21 1012 71 10000 0.45 268 16:19 11.10.2021
5276 Rain 21 1012 71 10000 8 20 15:37 11.10.2021
5277 Rain 21 1013 72 10000 6 30 14:53 11.10.2021
5278 Rain 21 1012 74 10000 7 10 13:39 11.10.2021
5279 Rain 21 1012 78 10000 0.45 241 12:20 11.10.2021
5280 Clouds 20 1011 88 10000 7 30 10:48 11.10.2021
5281 Clouds 20 1011 91 10000 9 20 09:44 11.10.2021
5282 Mist 20 1011 94 4000 7 20 07:30 11.10.2021
5283 Rain 21 1011 91 5000 9 10 01:42 11.10.2021
5284 Rain 22 1011 90 5000 9 10 00:52 11.10.2021
5285 Rain 21 1010 91 5000 0.45 300 00:28 11.10.2021
5286 Rain 22 1010 89 7000 0.89 14 21:57 10.10.2021
5287 Rain 22 1010 90 7000 1.34 103 21:35 10.10.2021
5288 Rain 22 1010 90 7000 1.34 108 20:48 10.10.2021
5289 Rain 22 1010 89 7000 1.34 119 20:21 10.10.2021
5290 Rain 23 1010 89 6000 1.34 132 19:59 10.10.2021
5291 Rain 23 1010 87 7000 1.34 93 19:37 10.10.2021
5292 Rain 22 1010 94 10000 10 10 18:37 10.10.2021
5293 Rain 23 1009 93 10000 0.45 248 16:57 10.10.2021
5294 Rain 25 1010 92 6000 7 360 15:47 10.10.2021
5295 Rain 26 1009 91 10000 0.45 279 14:42 10.10.2021
5296 Rain 27 1008 88 10000 0.45 314 13:34 10.10.2021
5297 Rain 27 1014 89 10000 3 0 12:35 10.10.2021
5298 Rain 28 1014 77 10000 6 140 10:44 10.10.2021
5299 Clouds 30 1013 69 10000 4 90 09:31 10.10.2021
5300 Clouds 31 1013 67 10000 4 80 08:54 10.10.2021
5301 Clouds 30 1014 71 10000 3 80 07:28 10.10.2021
5302 Clouds 28 1009 80 10000 3 110 02:45 10.10.2021
5303 Clouds 26 1016 95 10000 2 90 00:57 10.10.2021
5304 Clouds 26 1016 95 10000 2 80 00:29 10.10.2021
5305 Clouds 26 1016 94 10000 1 80 22:52 09.10.2021
5306 Clouds 26 1008 90 10000 2 80 21:45 09.10.2021
5307 Clouds 26 1008 89 10000 2 70 21:26 09.10.2021
5308 Clouds 26 1009 89 10000 2 100 19:44 09.10.2021
5309 Clouds 26 1009 89 10000 3 110 18:59 09.10.2021
5310 Clouds 26 1009 87 10000 4 130 18:33 09.10.2021
5311 Clouds 26 1009 84 10000 5 130 16:43 09.10.2021
5312 Clouds 26 1017 87 10000 4 120 15:32 09.10.2021
5313 Rain 27 1009 79 10000 0.45 298 13:43 09.10.2021
5314 Rain 27 1009 79 10000 6 120 12:40 09.10.2021
5315 Clouds 27 1008 76 10000 6 120 11:48 09.10.2021
5316 Clouds 28 1015 72 10000 7 130 10:42 09.10.2021
5317 Clouds 29 1008 71 10000 6 140 09:36 09.10.2021
5318 Clouds 30 1008 68 10000 5 130 08:29 09.10.2021
5319 Clouds 30 1008 69 10000 4 160 07:47 09.10.2021
5320 Clouds 29 1009 72 10000 6 140 05:29 09.10.2021
5321 Clouds 28 1010 80 10000 4 120 02:57 09.10.2021
5322 Clouds 28 1010 83 10000 5 130 02:38 09.10.2021
5323 Clouds 25 1009 93 10000 1 100 23:37 08.10.2021
5324 Clouds 25 1009 93 10000 2 80 22:53 08.10.2021
5325 Clouds 25 1008 93 10000 2 70 22:23 08.10.2021
5326 Clouds 25 1008 92 10000 3 60 20:53 08.10.2021
5327 Rain 25 1009 89 10000 3 80 18:53 08.10.2021
5328 Rain 25 1017 92 10000 2 80 17:28 08.10.2021
5329 Rain 25 1017 92 10000 2 80 16:50 08.10.2021
5330 Rain 26 1009 87 10000 3 90 16:23 08.10.2021
5331 Rain 26 1008 83 10000 3 80 13:57 08.10.2021
5332 Rain 25 1008 82 10000 5 90 12:48 08.10.2021
5333 Clouds 26 1014 80 10000 5 90 11:31 08.10.2021
5334 Clouds 28 1014 76 10000 5 100 10:35 08.10.2021
5335 Clouds 30 1014 64 10000 5 80 07:34 08.10.2021
5336 Clear 24 1007 88 10000 1 0 23:38 07.10.2021
5337 Clear 24 1007 87 10000 1 0 22:59 07.10.2021
5338 Clear 24 1007 85 10000 3 130 21:34 07.10.2021
5339 Clear 25 1007 85 10000 3 130 20:58 07.10.2021
5340 Clear 25 1007 85 10000 3 130 19:45 07.10.2021
5341 Clear 25 1007 87 10000 3 140 19:27 07.10.2021
5342 Clear 25 1015 89 10000 4 120 17:48 07.10.2021
5343 Clear 25 1015 89 10000 4 110 16:43 07.10.2021
5344 Clear 26 1007 89 10000 4 120 15:23 07.10.2021
5345 Clouds 25 1007 91 10000 4 110 13:45 07.10.2021
5346 Clouds 25 1007 89 10000 3 110 13:21 07.10.2021
5347 Clouds 25 1006 88 10000 2 90 12:36 07.10.2021
5348 Clouds 24 1006 89 10000 4 90 10:48 07.10.2021
5349 Clouds 25 1006 83 10000 5 90 10:19 07.10.2021
5350 Rain 26 1006 85 10000 4 100 08:56 07.10.2021
5351 Rain 27 1006 74 10000 5 110 08:25 07.10.2021
5352 Rain 27 1006 78 10000 4 140 07:40 07.10.2021
5353 Rain 29 1006 63 10000 6 140 06:48 07.10.2021
5354 Clear 25 1007 86 10000 3 120 02:22 07.10.2021
5355 Rain 24 1007 87 10000 1.34 165 23:36 06.10.2021
5356 Clear 25 1006 86 10000 0.45 81 22:41 06.10.2021
5357 Rain 25 1006 85 10000 0.89 95 21:45 06.10.2021
5358 Rain 26 1006 84 10000 0.89 88 20:34 06.10.2021
5359 Rain 24 1014 93 10000 3 100 19:28 06.10.2021
5360 Rain 25 1007 91 10000 5 150 18:20 06.10.2021
5361 Rain 27 1007 79 10000 0.45 281 16:45 06.10.2021
5362 Rain 26 1015 83 10000 4 120 15:24 06.10.2021
5363 Rain 27 1014 79 10000 4 100 13:32 06.10.2021
5364 Rain 27 1014 76 10000 4 110 12:54 06.10.2021
5365 Rain 27 1007 72 10000 5 120 12:30 06.10.2021
5366 Clouds 28 1007 67 10000 6 110 11:46 06.10.2021
5367 Clear 30 1013 62 10000 6 120 09:57 06.10.2021
5368 Clear 30 1013 58 10000 5 100 09:37 06.10.2021
5369 Clear 31 1007 53 10000 5 120 08:39 06.10.2021
5370 Clouds 31 1008 52 10000 6 140 06:19 06.10.2021
5371 Clouds 30 1010 65 10000 5 130 04:24 06.10.2021
5372 Clouds 30 1010 65 10000 5 130 04:24 06.10.2021
5373 Clouds 25 1017 90 10000 4 130 00:24 06.10.2021
5374 Clouds 25 1017 91 10000 4 130 23:52 05.10.2021
5375 Clouds 25 1017 91 10000 4 130 23:52 05.10.2021
5376 Clouds 25 1017 91 10000 4 130 23:52 05.10.2021
5377 Clouds 25 1017 91 10000 3 120 23:32 05.10.2021
5378 Clear 25 1016 92 10000 3 130 22:38 05.10.2021
5379 Clear 25 1016 91 10000 3 110 21:57 05.10.2021
5380 Clear 26 1008 87 10000 1.34 124 21:29 05.10.2021
5381 Clear 26 1009 88 10000 1.34 124 20:33 05.10.2021
5382 Clouds 26 1009 89 10000 0.45 280 19:51 05.10.2021
5383 Clouds 26 1010 88 10000 4 140 19:25 05.10.2021
5384 Clouds 26 1010 85 10000 4 120 18:21 05.10.2021
5385 Rain 26 1011 80 10000 4 110 15:39 05.10.2021
5386 Rain 26 1018 77 10000 4 100 13:55 05.10.2021
5387 Rain 26 1017 75 10000 4 100 13:26 05.10.2021
5388 Rain 27 1017 68 10000 4 130 12:35 05.10.2021
5389 Clear 28 1016 59 10000 6 130 11:41 05.10.2021
5390 Clear 30 1016 53 10000 5 160 10:38 05.10.2021
5391 Clear 32 1009 33 10000 0.45 284 08:36 05.10.2021
5392 Clear 25 1019 78 10000 4 150 01:47 05.10.2021
5393 Clear 23 1017 86 10000 5 150 22:57 04.10.2021
5394 Clear 24 1017 86 10000 4 150 21:38 04.10.2021
5395 Clear 25 1018 85 10000 5 150 18:52 04.10.2021
5396 Clear 25 1018 82 10000 6 150 17:32 04.10.2021
5397 Clear 26 1018 81 10000 6 150 15:50 04.10.2021
5398 Clear 26 1018 81 10000 6 150 15:24 04.10.2021
5399 Clear 26 1018 78 10000 7 150 14:34 04.10.2021
5400 Rain 26 1017 80 10000 7 150 13:32 04.10.2021
5401 Rain 27 1017 78 10000 7 140 12:50 04.10.2021
5402 Clear 29 1016 73 10000 8 140 11:34 04.10.2021
5403 Clouds 30 1016 69 10000 8 140 10:47 04.10.2021
5404 Clouds 31 1016 66 10000 7 150 09:44 04.10.2021
5405 Clouds 32 1016 63 10000 7 180 07:54 04.10.2021
5406 Clouds 31 1017 62 10000 7 170 06:50 04.10.2021
5407 Clear 25 1016 83 10000 4 180 23:38 03.10.2021
5408 Clear 25 1015 82 10000 6 170 21:56 03.10.2021
5409 Clear 25 1015 82 10000 7 170 21:34 03.10.2021
5410 Clear 25 1015 81 10000 8 170 20:49 03.10.2021
5411 Clear 25 1015 81 10000 7 160 19:49 03.10.2021
5412 Clear 25 1016 80 10000 8 160 18:29 03.10.2021
5413 Clear 25 1016 82 10000 8 160 17:37 03.10.2021
5414 Clear 25 1016 78 10000 8 150 15:30 03.10.2021
5415 Clear 25 1015 78 10000 7 150 14:31 03.10.2021
5416 Clear 25 1015 78 10000 7 150 14:31 03.10.2021
5417 Rain 26 1015 78 10000 7 150 13:36 03.10.2021
5418 Rain 26 1014 75 10000 8 150 12:47 03.10.2021
5419 Rain 28 1014 66 10000 7 150 11:37 03.10.2021
5420 Clear 30 1014 57 10000 7 140 09:58 03.10.2021
5421 Clear 29 1016 58 10000 8 160 05:38 03.10.2021
5422 Rain 22 1014 87 10000 4 150 22:52 02.10.2021
5423 Rain 23 1014 89 10000 4 150 21:59 02.10.2021
5424 Clear 23 1014 83 10000 4 150 20:33 02.10.2021
5425 Rain 23 1014 82 10000 6 150 18:56 02.10.2021
5426 Rain 23 1014 81 10000 5 150 18:20 02.10.2021
5427 Clear 24 1015 79 10000 5 140 17:37 02.10.2021
5428 Clear 24 1014 78 10000 5 140 16:39 02.10.2021
5429 Clear 32 1012 50 10000 4 140 07:30 02.10.2021
5430 Rain 24 1011 78 10000 3 40 15:37 30.09.2021
5431 Rain 24 1010 74 10000 4 30 13:54 30.09.2021
5432 Clouds 26 1009 65 10000 3 30 11:54 30.09.2021
5433 Clouds 28 1009 59 10000 3 30 10:53 30.09.2021
5434 Clouds 28 1009 58 10000 4 20 10:22 30.09.2021
5435 Clouds 29 1009 56 10000 4 20 08:31 30.09.2021
5436 Clouds 28 1009 57 10000 4 10 07:35 30.09.2021
5437 Clouds 27 1011 62 10000 3 360 05:23 30.09.2021
5438 Rain 23 1011 84 10000 4 350 01:41 30.09.2021
5439 Clear 23 1011 85 10000 4 330 00:29 30.09.2021
5440 Rain 23 1010 88 10000 4 320 22:38 29.09.2021
5441 Rain 23 1010 89 10000 4 320 21:27 29.09.2021
5442 Rain 23 1010 89 10000 4 330 20:28 29.09.2021
5443 Rain 23 1010 89 10000 4 320 19:55 29.09.2021
5444 Rain 23 1010 89 10000 5 340 18:52 29.09.2021
5445 Rain 23 1010 92 10000 6 360 17:52 29.09.2021
5446 Rain 24 1010 90 10000 6 10 16:51 29.09.2021
5447 Rain 24 1010 93 10000 5 350 15:58 29.09.2021
5448 Rain 24 1010 91 10000 5 350 14:39 29.09.2021
5449 Rain 24 1009 91 10000 6 350 13:58 29.09.2021
5450 Rain 25 1009 94 10000 4 340 13:22 29.09.2021
5451 Rain 25 1008 94 10000 5 360 12:35 29.09.2021
5452 Rain 25 1008 93 6000 5 340 10:50 29.09.2021
5453 Rain 26 1007 89 8000 6 360 09:53 29.09.2021
5454 Rain 26 1006 88 8000 7 320 09:34 29.09.2021
5455 Rain 32 1006 55 10000 4 0 07:33 29.09.2021
5456 Clear 31 1008 62 10000 3 230 04:19 29.09.2021
5457 Clear 24 1007 88 10000 5 150 23:27 28.09.2021
5458 Rain 24 1008 88 10000 3 150 22:24 28.09.2021
5459 Clear 24 1008 88 10000 4 150 21:44 28.09.2021
5460 Rain 24 1009 87 10000 3 150 20:43 28.09.2021
5461 Rain 24 1009 87 10000 3 160 19:46 28.09.2021
5462 Rain 25 1009 86 10000 4 150 18:50 28.09.2021
5463 Rain 25 1009 86 10000 3 160 18:18 28.09.2021
5464 Rain 25 1009 82 10000 5 150 16:23 28.09.2021
5465 Rain 27 1010 76 10000 4 120 14:30 28.09.2021
5466 Rain 27 1009 76 10000 5 150 12:50 28.09.2021
5467 Clouds 28 1009 73 10000 6 140 12:21 28.09.2021
5468 Clouds 29 1009 73 10000 5 130 11:46 28.09.2021
5469 Clouds 30 1009 71 10000 5 150 11:19 28.09.2021
5470 Clear 31 1009 63 10000 4 80 10:19 28.09.2021
5471 Clear 32 1009 56 10000 2 0 09:00 28.09.2021
5472 Clear 32 1009 57 10000 3 230 08:38 28.09.2021
5473 Clear 33 1009 52 10000 2 0 07:47 28.09.2021
5474 Clouds 31 1011 63 10000 2 220 05:28 28.09.2021
5475 Clear 25 1012 92 10000 1 0 01:23 28.09.2021
5476 Clear 24 1011 91 10000 1 170 00:25 28.09.2021
5477 Clear 24 1011 93 10000 1 170 23:41 27.09.2021
5478 Rain 24 1011 90 10000 2 170 22:55 27.09.2021
5479 Clouds 24 1011 90 10000 1 190 21:54 27.09.2021
5480 Rain 25 1011 90 10000 1 150 20:44 27.09.2021
5481 Rain 25 1011 92 10000 2 160 19:55 27.09.2021
5482 Clear 25 1012 89 10000 3 150 19:27 27.09.2021
5483 Clear 25 1012 89 10000 4 160 18:49 27.09.2021
5484 Rain 25 1012 86 10000 4 160 17:29 27.09.2021
5485 Rain 25 1012 85 10000 5 150 16:49 27.09.2021
5486 Rain 26 1013 82 10000 4 140 15:44 27.09.2021
5487 Rain 26 1012 82 10000 4 160 15:18 27.09.2021
5488 Rain 27 1012 78 10000 4 140 13:32 27.09.2021
5489 Clear 29 1011 67 10000 3 210 11:40 27.09.2021
5490 Clear 31 1011 62 10000 2 220 10:36 27.09.2021
5491 Clear 32 1011 57 10000 2 70 08:50 27.09.2021
5492 Clouds 30 1013 60 10000 2 170 05:22 27.09.2021
5493 Clouds 27 1014 78 10000 3 160 03:18 27.09.2021
5494 Clouds 24 1013 93 10000 2 140 22:33 26.09.2021
5495 Clouds 24 1013 93 10000 2 160 21:50 26.09.2021
5496 Clear 24 1013 90 10000 2 140 21:25 26.09.2021
5497 Clear 24 1013 89 10000 3 140 20:21 26.09.2021
5498 Clear 25 1013 89 10000 3 140 19:48 26.09.2021
5499 Rain 25 1014 89 10000 4 130 18:45 26.09.2021
5500 Clear 25 1014 86 10000 4 130 17:56 26.09.2021
5501 Clear 25 1015 85 10000 5 130 17:22 26.09.2021
5502 Clouds 25 1015 85 10000 5 120 16:40 26.09.2021
5503 Clouds 25 1015 85 10000 4 120 15:59 26.09.2021
5504 Rain 26 1015 83 10000 5 130 14:54 26.09.2021
5505 Rain 26 1014 80 10000 5 130 13:55 26.09.2021
5506 Rain 26 1014 77 10000 6 130 13:20 26.09.2021
5507 Clear 27 1014 67 10000 5 150 12:24 26.09.2021
5508 Clear 28 1014 59 10000 6 160 11:42 26.09.2021
5509 Clear 30 1014 51 10000 6 130 10:25 26.09.2021
5510 Clear 31 1014 48 10000 4 90 08:58 26.09.2021
5511 Clear 30 1015 52 10000 4 150 06:36 26.09.2021
5512 Clear 22 1015 83 10000 3 130 00:22 26.09.2021
5513 Clear 22 1015 83 10000 3 130 23:26 25.09.2021
5514 Clear 23 1016 80 10000 3 120 22:38 25.09.2021
5515 Clear 23 1016 80 10000 3 130 21:55 25.09.2021
5516 Clear 23 1016 80 10000 3 130 21:31 25.09.2021
5517 Clear 23 1016 83 10000 2 110 20:45 25.09.2021
5518 Clear 24 1016 82 10000 4 140 18:55 25.09.2021
5519 Clear 24 1016 79 10000 4 120 17:55 25.09.2021
5520 Clear 25 1017 77 10000 3 120 15:48 25.09.2021
5521 Rain 25 1016 74 10000 5 120 13:57 25.09.2021
5522 Rain 25 1016 72 10000 5 120 13:31 25.09.2021
5523 Clear 26 1016 69 10000 5 120 12:25 25.09.2021
5524 Clear 27 1016 62 10000 6 140 10:34 25.09.2021
5525 Clear 29 1015 57 10000 6 110 09:32 25.09.2021
5526 Clear 29 1016 55 10000 6 110 07:56 25.09.2021
5527 Clear 29 1017 57 10000 5 130 05:46 25.09.2021
5528 Rain 22 1018 84 10000 2 120 23:50 24.09.2021
5529 Clear 22 1017 84 10000 4 120 21:42 24.09.2021
5530 Rain 23 1017 81 10000 4 120 20:33 24.09.2021
5531 Rain 23 1017 80 10000 4 120 19:47 24.09.2021
5532 Rain 23 1018 78 10000 4 130 18:32 24.09.2021
5533 Rain 24 1018 77 10000 5 130 17:53 24.09.2021
5534 Rain 24 1018 75 10000 4 120 17:35 24.09.2021
5535 Rain 24 1018 75 10000 5 130 16:55 24.09.2021
5536 Rain 25 1018 73 10000 5 110 13:57 24.09.2021
5537 Rain 25 1018 74 10000 5 120 12:45 24.09.2021
5538 Clear 26 1018 72 10000 5 110 12:27 24.09.2021
5539 Clear 26 1017 71 10000 6 110 11:50 24.09.2021
5540 Clear 28 1017 68 10000 6 110 10:24 24.09.2021
5541 Clear 29 1018 63 10000 5 130 08:29 24.09.2021
5542 Clear 29 1018 62 10000 5 110 07:32 24.09.2021
5543 Clear 30 1019 58 10000 4 100 06:44 24.09.2021
5544 Clear 30 1020 53 10000 4 130 04:53 24.09.2021
5545 Rain 24 1018 89 10000 4 110 22:46 23.09.2021
5546 Rain 24 1018 89 10000 3 110 22:19 23.09.2021
5547 Rain 24 1018 88 10000 4 120 21:38 23.09.2021
5548 Rain 24 1018 88 10000 4 130 20:32 23.09.2021
5549 Rain 25 1018 82 10000 4 130 19:18 23.09.2021
5550 Rain 25 1018 82 10000 4 130 19:18 23.09.2021
5551 Rain 25 1018 82 10000 4 130 19:18 23.09.2021
5552 Rain 25 1018 80 10000 4 130 17:18 23.09.2021
5553 Rain 26 1018 74 10000 4 130 15:20 23.09.2021
5554 Rain 27 1018 71 10000 4 120 14:58 23.09.2021
5555 Rain 28 1017 65 10000 4 120 13:40 23.09.2021
5556 Rain 28 1017 65 10000 4 120 13:18 23.09.2021
5557 Rain 29 1016 60 10000 5 130 12:46 23.09.2021
5558 Clear 29 1016 58 10000 5 130 12:21 23.09.2021
5559 Clear 33 1015 31 10000 4 160 10:42 23.09.2021
5560 Clear 33 1015 31 10000 4 160 10:19 23.09.2021
5561 Clear 34 1015 27 10000 5 150 09:48 23.09.2021
5562 Clear 35 1016 28 10000 4 140 06:32 23.09.2021
5563 Rain 24 1015 86 10000 1 180 00:28 23.09.2021
5564 Rain 24 1014 85 10000 1 160 22:54 22.09.2021
5565 Rain 24 1014 85 10000 0 0 22:22 22.09.2021
5566 Rain 24 1014 84 10000 1 160 21:45 22.09.2021
5567 Rain 25 1014 78 10000 1 140 20:58 22.09.2021
5568 Rain 25 1014 78 10000 1 170 20:27 22.09.2021
5569 Rain 25 1014 75 10000 2 160 19:27 22.09.2021
5570 Rain 26 1014 75 10000 2 160 18:36 22.09.2021
5571 Rain 25 1014 79 10000 1.69 166 17:38 22.09.2021
5572 Rain 27 1014 66 10000 2 171 15:53 22.09.2021
5573 Rain 27 1013 66 10000 3 190 14:37 22.09.2021
5574 Rain 29 1012 60 10000 4 190 13:24 22.09.2021
5575 Clear 33 1011 40 10000 3 0 11:20 22.09.2021
5576 Clear 34 1011 38 10000 4 240 09:35 22.09.2021
5577 Clear 34 1011 40 10000 3 240 08:51 22.09.2021
5578 Clear 33 1011 43 10000 2 0 07:41 22.09.2021
5579 Clear 34 1011 44 10000 3 240 06:54 22.09.2021
5580 Clear 33 1012 46 10000 2 0 05:49 22.09.2021
5581 Clear 32 1012 50 10000 2 0 04:54 22.09.2021
5582 Clear 30 1012 57 10000 2 0 03:33 22.09.2021
5583 Rain 23 1010 94 8000 1 180 00:18 22.09.2021
5584 Rain 24 1009 93 10000 1 180 22:27 21.09.2021
5585 Rain 23 1009 96 10000 2 200 21:30 21.09.2021
5586 Rain 24 1010 92 10000 1.92 207 19:38 21.09.2021
5587 Rain 24 1010 93 10000 2 190 19:19 21.09.2021
5588 Rain 25 1009 82 10000 5 190 16:58 21.09.2021
5589 Rain 25 1009 80 10000 4 190 15:57 21.09.2021
5590 Rain 26 1009 75 10000 3 190 15:24 21.09.2021
5591 Rain 26 1008 71 10000 4 190 14:43 21.09.2021
5592 Rain 27 1008 69 10000 3 190 13:40 21.09.2021
5593 Rain 27 1007 67 10000 4 190 12:45 21.09.2021
5594 Clear 31 1007 45 10000 3 240 10:44 21.09.2021
5595 Clear 31 1007 45 10000 5 240 09:28 21.09.2021
5596 Clear 31 1008 48 10000 4 240 07:44 21.09.2021
5597 Clouds 28 1010 57 10000 5 240 05:18 21.09.2021
5598 Clear 23 1009 88 10000 1 0 23:52 20.09.2021
5599 Rain 23 1009 88 10000 1 200 21:52 20.09.2021
5600 Rain 23 1009 88 10000 1 0 21:32 20.09.2021
5601 Rain 23 1008 83 10000 2 290 19:55 20.09.2021
5602 Rain 23 1009 84 10000 2 330 18:37 20.09.2021
5603 Rain 23 1009 88 10000 2 290 17:30 20.09.2021
5604 Rain 24 1009 86 10000 3 310 16:26 20.09.2021
5605 Rain 24 1009 87 10000 3 310 15:43 20.09.2021
5606 Thunderstorm 24 1009 87 10000 3 270 14:50 20.09.2021
5607 Rain 27 1007 61 10000 4 310 12:53 20.09.2021
5608 Clouds 27 1007 68 10000 3 290 12:29 20.09.2021
5609 Clouds 28 1006 67 10000 6 330 10:57 20.09.2021
5610 Clouds 29 1006 71 10000 7 330 09:52 20.09.2021
5611 Clouds 29 1006 70 10000 7 330 09:33 20.09.2021
5612 Clouds 29 1006 70 10000 7 330 09:33 20.09.2021
5613 Clouds 32 1005 62 10000 7 330 08:54 20.09.2021
5614 Clouds 33 1006 65 10000 4 230 06:34 20.09.2021
5615 Clear 25 1007 92 10000 5 160 23:28 19.09.2021
5616 Clouds 25 1007 92 10000 5 150 21:51 19.09.2021
5617 Clouds 25 1007 92 10000 5 150 21:21 19.09.2021
5618 Clouds 25 1008 93 10000 5 150 20:32 19.09.2021
5619 Clouds 25 1009 93 10000 5 150 18:54 19.09.2021
5620 Rain 25 1009 87 10000 6 150 17:56 19.09.2021
5621 Rain 25 1010 87 10000 6 140 16:52 19.09.2021
5622 Rain 25 1011 86 10000 5 150 15:44 19.09.2021
5623 Rain 25 1011 86 10000 6 140 14:49 19.09.2021
5624 Rain 25 1011 86 10000 5 130 13:59 19.09.2021
5625 Clouds 26 1010 80 10000 5 120 12:56 19.09.2021
5626 Clouds 26 1010 79 10000 6 130 12:18 19.09.2021
5627 Clouds 27 1010 77 10000 6 150 11:23 19.09.2021
5628 Clouds 29 1010 73 10000 6 150 09:52 19.09.2021
5629 Clouds 29 1010 71 10000 5 130 09:26 19.09.2021
5630 Clouds 29 1011 68 10000 6 130 06:49 19.09.2021
5631 Clear 24 1013 83 10000 3 120 01:38 19.09.2021
5632 Clear 22 1013 86 10000 4 140 23:25 18.09.2021
5633 Clear 22 1013 86 10000 4 130 21:56 18.09.2021
5634 Rain 22 1013 86 10000 3 150 20:47 18.09.2021
5635 Clear 23 1014 83 10000 3 140 19:58 18.09.2021
5636 Clouds 23 1014 83 10000 3 130 19:36 18.09.2021
5637 Clouds 23 1014 83 10000 3 130 19:18 18.09.2021
5638 Clear 24 1015 83 10000 3 130 18:30 18.09.2021
5639 Rain 24 1015 79 10000 4 130 16:35 18.09.2021
5640 Rain 25 1014 76 10000 4 120 13:59 18.09.2021
5641 Rain 25 1014 73 10000 4 110 13:31 18.09.2021
5642 Rain 25 1013 72 10000 4 100 12:52 18.09.2021
5643 Clear 27 1013 64 10000 4 100 11:59 18.09.2021
5644 Clear 27 1013 61 10000 5 100 11:29 18.09.2021
5645 Clear 29 1013 56 10000 4 100 10:30 18.09.2021
5646 Clear 30 1013 48 10000 4 110 09:24 18.09.2021
5647 Clouds 30 1013 50 10000 2 0 08:25 18.09.2021
5648 Clear 20 1014 91 10000 0.26 109 00:53 18.09.2021
5649 Clear 20 1014 91 10000 0.27 80 23:56 17.09.2021
5650 Clear 20 1014 89 10000 0.09 13 22:48 17.09.2021
5651 Rain 21 1014 89 10000 1 0 22:23 17.09.2021
5652 Clear 21 1014 86 10000 0 0 21:32 17.09.2021
5653 Rain 22 1014 78 10000 1 0 19:34 17.09.2021
5654 Rain 23 1014 78 10000 2 80 18:40 17.09.2021
5655 Rain 24 1014 74 10000 3 40 16:35 17.09.2021
5656 Rain 25 1014 71 10000 3 30 14:48 17.09.2021
5657 Clear 27 1012 57 10000 4 360 11:48 17.09.2021
5658 Clear 28 1011 56 10000 4 330 10:21 17.09.2021
5659 Clouds 28 1011 55 10000 5 340 07:46 17.09.2021
5660 Clouds 26 1013 63 10000 5 330 05:27 17.09.2021
5661 Rain 21 1011 92 10000 3 310 00:31 17.09.2021
5662 Rain 21 1010 92 10000 4 320 22:41 16.09.2021
5663 Rain 21 1010 92 10000 4 320 22:23 16.09.2021
5664 Rain 22 1010 89 10000 4 320 21:35 16.09.2021
5665 Rain 22 1010 89 10000 3 310 20:29 16.09.2021
5666 Rain 23 1010 83 10000 3 300 18:46 16.09.2021
5667 Rain 23 1010 85 10000 4 300 18:18 16.09.2021
5668 Rain 24 1010 83 10000 4 340 15:33 16.09.2021
5669 Rain 25 1010 80 10000 4 360 14:43 16.09.2021
5670 Rain 25 1009 77 10000 4 10 13:23 16.09.2021
5671 Clear 25 1009 74 10000 5 10 12:40 16.09.2021
5672 Clear 26 1009 72 10000 5 360 11:46 16.09.2021
5673 Clear 27 1008 69 10000 6 360 10:50 16.09.2021
5674 Clear 27 1008 70 10000 8 360 10:21 16.09.2021
5675 Clouds 27 1008 66 10000 8 360 08:45 16.09.2021
5676 Clouds 28 1009 65 10000 9 360 07:47 16.09.2021
5677 Clouds 28 1009 67 10000 7 360 06:56 16.09.2021
5678 Clouds 28 1009 65 10000 8 360 06:32 16.09.2021
5679 Clouds 25 1010 81 10000 6 360 02:58 16.09.2021
5680 Clouds 24 1010 88 10000 5 350 00:46 16.09.2021
5681 Rain 23 1010 92 10000 4 350 22:52 15.09.2021
5682 Rain 23 1010 93 10000 5 360 21:56 15.09.2021
5683 Rain 23 1010 96 10000 4 20 21:30 15.09.2021
5684 Rain 23 1010 96 10000 4 20 21:30 15.09.2021
5685 Rain 23 1010 96 10000 4 20 21:30 15.09.2021
5686 Rain 23 1010 96 10000 4 20 21:30 15.09.2021
5687 Rain 23 1011 96 10000 5 360 20:24 15.09.2021
5688 Clouds 23 1011 97 10000 5 360 19:29 15.09.2021
5689 Rain 23 1011 97 10000 4 350 18:25 15.09.2021
5690 Rain 23 1004 96 8000 5 360 17:26 15.09.2021
5691 Rain 23 1004 96 6000 5 360 16:20 15.09.2021
5692 Rain 24 1004 96 10000 5 360 14:46 15.09.2021
5693 Rain 24 1004 96 10000 5 360 14:24 15.09.2021
5694 Rain 24 1003 96 7000 5 10 13:39 15.09.2021
5695 Rain 24 1003 96 7000 5 10 13:21 15.09.2021
5696 Clouds 24 1003 95 7000 6 360 12:21 15.09.2021
5697 Clouds 24 1003 95 7000 6 360 12:21 15.09.2021
5698 Rain 24 1003 94 10000 5 10 11:41 15.09.2021
5699 Rain 24 1003 91 8000 6 10 10:56 15.09.2021
5700 Rain 25 1003 88 10000 6 360 09:30 15.09.2021
5701 Rain 25 1003 86 10000 8 10 08:26 15.09.2021
5702 Clouds 26 1004 82 10000 7 360 05:54 15.09.2021
5703 Clouds 24 1003 90 10000 6 330 23:55 14.09.2021
5704 Clouds 24 1003 89 10000 0.45 332 21:55 14.09.2021
5705 Rain 23 1003 94 10000 0.45 248 20:55 14.09.2021
5706 Rain 24 1003 90 10000 0.45 312 19:42 14.09.2021
5707 Rain 24 1003 87 10000 0.45 299 17:45 14.09.2021
5708 Rain 24 1004 87 10000 0.45 215 17:27 14.09.2021
5709 Rain 24 1004 88 10000 8 340 15:37 14.09.2021
5710 Rain 24 1003 92 10000 6 340 14:31 14.09.2021
5711 Rain 23 1003 97 5000 8 340 12:45 14.09.2021
5712 Clouds 24 1002 96 8000 8 330 10:54 14.09.2021
5713 Clouds 24 1002 93 10000 0.45 270 09:51 14.09.2021
5714 Rain 25 1002 94 10000 0.45 274 08:41 14.09.2021
5715 Rain 24 1009 95 10000 9 340 06:24 14.09.2021
5716 Rain 25 998 94 10000 0.45 252 00:31 14.09.2021
5717 Rain 24 996 97 10000 0.45 303 22:48 13.09.2021
5718 Rain 24 996 97 10000 0.45 209 22:24 13.09.2021
5719 Rain 24 996 96 10000 0.45 336 21:45 13.09.2021
5720 Rain 24 996 97 10000 0.45 323 20:50 13.09.2021
5721 Rain 24 995 97 5000 0.45 304 18:46 13.09.2021
5722 Rain 24 995 97 5000 11 330 17:49 13.09.2021
5723 Rain 24 995 97 4500 11 320 16:50 13.09.2021
5724 Rain 24 995 97 4500 0.45 242 15:30 13.09.2021
5725 Rain 24 995 97 3000 13 350 11:55 13.09.2021
5726 Clouds 24 994 97 3000 0.45 344 10:58 13.09.2021
5727 Clouds 24 995 96 3000 0.45 272 09:35 13.09.2021
5728 Rain 26 997 88 10000 8 50 04:38 13.09.2021
5729 Rain 24 997 96 7000 0.45 317 22:59 12.09.2021
5730 Rain 25 997 93 6000 1.34 141 22:25 12.09.2021
5731 Rain 25 1005 95 10000 6 80 21:36 12.09.2021
5732 Rain 25 998 95 10000 0.45 83 20:28 12.09.2021
5733 Rain 25 998 95 10000 0.45 83 20:28 12.09.2021
5734 Rain 25 998 92 8000 0.45 283 19:49 12.09.2021
5735 Rain 25 999 91 10000 0.45 260 19:19 12.09.2021
5736 Rain 25 999 91 10000 0.45 260 19:19 12.09.2021
5737 Rain 25 999 88 10000 6 90 18:20 12.09.2021
5738 Rain 26 999 87 10000 5 70 16:30 12.09.2021
5739 Rain 26 1000 91 10000 4 80 14:52 12.09.2021
5740 Rain 26 1000 91 10000 5 100 12:48 12.09.2021
5741 Rain 26 1000 89 10000 4 70 10:44 12.09.2021
5742 Rain 27 1007 91 10000 4 60 08:59 12.09.2021
5743 Rain 27 1000 86 10000 0.45 273 08:36 12.09.2021
5744 Rain 27 1000 86 10000 1.34 62 00:56 12.09.2021
5745 Clouds 27 1000 87 10000 0.89 103 23:18 11.09.2021
5746 Rain 27 1000 87 10000 0.89 142 21:40 11.09.2021
5747 Clouds 26 1008 91 10000 4 70 20:18 11.09.2021
5748 Clouds 26 1002 87 10000 4 80 18:32 11.09.2021
5749 Rain 27 1001 85 10000 4 80 17:29 11.09.2021
5750 Rain 27 1002 82 10000 3 90 15:38 11.09.2021
5751 Rain 26 1009 88 10000 4 100 13:25 11.09.2021
5752 Rain 27 1008 85 10000 6 100 11:47 11.09.2021
5753 Clouds 27 1008 89 10000 3 70 10:51 11.09.2021
5754 Clouds 28 1001 88 10000 2 60 09:28 11.09.2021
5755 Rain 26 1010 89 10000 3 100 07:44 11.09.2021
5756 Clouds 29 1003 80 10000 4 70 04:23 11.09.2021
5757 Rain 26 1010 98 10000 1 90 22:48 10.09.2021
5758 Rain 27 1003 91 10000 0.89 89 22:22 10.09.2021
5759 Rain 27 1003 91 10000 0.89 105 21:43 10.09.2021
5760 Rain 26 1011 95 10000 3 110 19:32 10.09.2021
5761 Rain 26 1011 95 10000 3 100 17:59 10.09.2021
5762 Rain 26 1011 95 10000 1 0 16:28 10.09.2021
5763 Rain 26 1003 91 10000 3 130 13:32 10.09.2021
5764 Clear 26 1003 86 10000 3 110 10:54 10.09.2021
5765 Thunderstorm 24 1010 100 5000 7 30 08:26 10.09.2021
5766 Thunderstorm 30 1010 74 10000 3 150 07:43 10.09.2021
5767 Clouds 27 1003 90 10000 3 190 00:40 10.09.2021
5768 Rain 27 1010 92 10000 3 190 21:54 09.09.2021
5769 Rain 27 1010 90 10000 3 170 20:48 09.09.2021
5770 Rain 27 1010 90 10000 3 190 20:28 09.09.2021
5771 Rain 27 1011 90 10000 3 150 18:46 09.09.2021
5772 Rain 27 1011 86 10000 4 150 17:51 09.09.2021
5773 Rain 27 1011 86 10000 5 160 16:39 09.09.2021
5774 Rain 28 1004 87 10000 4 160 15:25 09.09.2021
5775 Clouds 29 1010 79 10000 5 150 12:33 09.09.2021
5776 Clear 29 1003 78 10000 5 150 11:22 09.09.2021
5777 Clouds 30 1003 70 10000 0.45 270 09:36 09.09.2021
5778 Clouds 29 1003 73 10000 0.45 277 07:45 09.09.2021
5779 Clouds 29 1004 76 10000 0.45 274 05:47 09.09.2021
5780 Clear 26 1005 78 10000 3 130 23:55 08.09.2021
5781 Rain 26 1004 75 10000 3 130 21:49 08.09.2021
5782 Rain 26 1005 75 10000 3 140 20:49 08.09.2021
5783 Rain 26 1005 75 10000 2 150 19:46 08.09.2021
5784 Rain 26 1005 74 10000 3 140 18:47 08.09.2021
5785 Rain 26 1005 73 10000 3 140 18:25 08.09.2021
5786 Rain 26 1005 72 10000 3 140 17:39 08.09.2021
5787 Rain 27 1005 67 10000 0.45 309 15:21 08.09.2021
5788 Rain 26 1005 65 10000 4 150 13:28 08.09.2021
5789 Clear 27 1005 65 10000 3 120 12:41 08.09.2021
5790 Clear 27 1005 63 10000 3 120 12:22 08.09.2021
5791 Clear 27 1005 61 10000 3 160 11:26 08.09.2021
5792 Clouds 28 1005 61 10000 3 130 10:31 08.09.2021
5793 Clouds 27 1004 60 10000 3 130 09:37 08.09.2021
5794 Clear 28 1005 60 10000 2 60 07:44 08.09.2021
5795 Clouds 28 1005 60 10000 2 70 06:40 08.09.2021
5796 Rain 25 1013 77 10000 2 20 23:18 07.09.2021
5797 Rain 25 1013 77 10000 1 0 22:19 07.09.2021
5798 Rain 25 1013 77 10000 1 0 22:19 07.09.2021
5799 Rain 25 1004 73 10000 3 20 20:40 07.09.2021
5800 Rain 25 1013 76 10000 3 20 18:52 07.09.2021
5801 Rain 25 1013 76 10000 3 50 18:24 07.09.2021
5802 Rain 25 1013 74 10000 3 60 16:59 07.09.2021
5803 Rain 26 1006 73 10000 3 40 15:55 07.09.2021
5804 Rain 26 1006 73 10000 5 10 14:46 07.09.2021
5805 Rain 27 1005 69 10000 5 10 13:29 07.09.2021
5806 Clear 27 1012 70 10000 5 10 11:51 07.09.2021
5807 Clear 29 1012 65 10000 5 340 10:43 07.09.2021
5808 Clouds 29 1012 65 10000 4 360 08:40 07.09.2021
5809 Clouds 29 1005 62 10000 0.89 124 07:44 07.09.2021
5810 Clouds 29 1013 66 10000 6 340 05:46 07.09.2021
5811 Clouds 27 1006 71 10000 0.45 147 02:38 07.09.2021
5812 Clouds 26 1006 78 10000 0.89 100 00:53 07.09.2021
5813 Clouds 26 1006 78 10000 0.45 284 23:36 06.09.2021
5814 Rain 25 1005 80 10000 5 330 22:57 06.09.2021
5815 Rain 26 1005 82 10000 0.89 92 22:39 06.09.2021
5816 Rain 27 1005 80 10000 0.89 109 21:29 06.09.2021
5817 Rain 27 1012 79 10000 5 330 19:32 06.09.2021
5818 Rain 27 1013 80 10000 5 330 18:53 06.09.2021
5819 Rain 27 1013 83 10000 4 320 18:24 06.09.2021
5820 Rain 28 1013 84 10000 4 310 17:36 06.09.2021
5821 Rain 28 1013 81 10000 4 320 15:55 06.09.2021
5822 Rain 29 1013 75 8000 3 310 14:25 06.09.2021
5823 Rain 29 1012 76 6000 2 310 12:48 06.09.2021
5824 Rain 31 1004 69 7000 0.45 298 10:54 06.09.2021
5825 Clouds 32 1011 66 7000 3 330 08:35 06.09.2021
5826 Clouds 31 1012 72 7000 3 340 06:47 06.09.2021
5827 Clouds 27 1004 88 7000 4 360 23:37 05.09.2021
5828 Clouds 27 1012 89 7000 4 10 22:50 05.09.2021
5829 Clouds 27 1012 91 7000 4 10 21:58 05.09.2021
5830 Rain 28 1012 92 7000 3 350 21:31 05.09.2021
5831 Rain 28 1012 92 7000 3 350 21:30 05.09.2021
5832 Rain 28 1012 92 10000 3 360 20:21 05.09.2021
5833 Rain 29 1005 84 10000 1 0 18:42 05.09.2021
5834 -273 0 0 0 0 0 17:31 05.09.2021
5835 Rain 29 1005 80 10000 2 90 17:30 05.09.2021
5836 Rain 29 1012 82 10000 4 170 15:27 05.09.2021
5837 Rain 30 1012 81 10000 4 150 14:19 05.09.2021
5838 Clear 30 1003 73 10000 0.89 143 12:26 05.09.2021
5839 Rain 31 1002 69 10000 1.34 138 10:48 05.09.2021
5840 Rain 31 1002 69 10000 1.79 156 10:23 05.09.2021
5841 Rain 31 1002 69 10000 1.79 156 10:23 05.09.2021
5842 Rain 31 1003 68 10000 1.79 159 09:21 05.09.2021
5843 Clear 32 1003 65 10000 0.45 290 07:31 05.09.2021
5844 Rain 28 1003 86 10000 1.34 108 00:46 05.09.2021
5845 Clear 28 1003 85 10000 0.45 283 00:21 05.09.2021
5846 Rain 28 1002 85 10000 1.34 145 23:29 04.09.2021
5847 Clear 28 1002 85 10000 0.45 293 22:35 04.09.2021
5848 Rain 28 1002 85 10000 0.45 276 21:44 04.09.2021
5849 Clear 28 1002 84 10000 1.34 109 19:40 04.09.2021
5850 Rain 28 1003 83 10000 0.45 276 17:43 04.09.2021
5851 Rain 29 1003 84 10000 0.45 279 15:53 04.09.2021
5852 Rain 29 1009 83 10000 5 120 12:22 04.09.2021
5853 Clouds 30 1001 74 10000 0.45 300 11:18 04.09.2021
5854 Clouds 32 1002 66 10000 0.45 305 08:46 04.09.2021
5855 Clear 28 1002 77 10000 1.34 146 01:59 04.09.2021
5856 Clouds 27 1002 82 10000 3 130 00:23 04.09.2021
5857 Clear 27 1002 80 10000 1.34 135 23:23 03.09.2021
5858 Rain 27 1001 79 10000 0.89 149 21:43 03.09.2021
5859 Rain 27 1001 78 10000 4 110 21:24 03.09.2021
5860 Rain 27 1001 78 10000 3 100 20:34 03.09.2021
5861 Rain 26 1009 81 10000 4 100 19:44 03.09.2021
5862 Rain 26 1010 82 10000 3 100 18:37 03.09.2021
5863 Rain 26 1010 82 10000 2 100 17:32 03.09.2021
5864 Rain 27 1003 77 10000 4 110 15:46 03.09.2021
5865 Rain 27 1002 77 10000 3 90 14:47 03.09.2021
5866 Clouds 29 1000 69 10000 5 110 11:22 03.09.2021
5867 Clouds 30 1000 68 10000 5 120 10:19 03.09.2021
5868 Clouds 31 1000 68 10000 3 90 08:22 03.09.2021
5869 Clouds 29 1008 73 10000 2 20 06:51 03.09.2021
5870 Rain 25 1008 96 8000 3 20 23:59 02.09.2021
5871 Rain 26 1007 95 6000 1 0 22:22 02.09.2021
5872 Rain 26 1007 93 10000 2 350 20:59 02.09.2021
5873 Rain 27 1008 92 8000 3 360 18:52 02.09.2021
5874 Rain 27 1008 93 10000 3 240 16:39 02.09.2021
5875 Rain 28 1001 83 10000 2 230 15:32 02.09.2021
5876 Rain 28 1000 80 10000 2 280 13:42 02.09.2021
5877 Clear 28 1000 77 10000 3 350 11:46 02.09.2021
5878 Rain 28 1000 79 10000 3 340 11:24 02.09.2021
5879 Thunderstorm 29 1000 83 10000 4 260 09:20 02.09.2021
5880 Rain 31 1000 73 10000 6 330 07:36 02.09.2021
5881 Rain 32 1008 70 10000 2 0 05:53 02.09.2021
5882 Clouds 30 1002 82 8000 1.34 125 02:37 02.09.2021
5883 Clouds 30 1002 83 8000 1.34 78 01:49 02.09.2021
5884 Clouds 27 1008 91 10000 3 130 23:41 01.09.2021
5885 Clouds 27 1008 91 10000 3 130 23:20 01.09.2021
5886 Clouds 27 1008 91 10000 2 130 22:29 01.09.2021
5887 Clear 27 1009 91 10000 3 110 21:32 01.09.2021
5888 Rain 27 1010 87 10000 2 80 19:37 01.09.2021
5889 Rain 27 1011 86 10000 2 90 17:55 01.09.2021
5890 Rain 28 1011 88 10000 3 80 16:59 01.09.2021
5891 Rain 28 1011 86 10000 4 60 16:35 01.09.2021
5892 Clouds 29 1003 85 7000 4 50 13:59 01.09.2021
5893 Rain 30 1003 83 5000 6 30 11:47 01.09.2021
5894 Rain 34 1008 60 10000 2 300 09:49 01.09.2021
5895 Clouds 37 1008 49 10000 3 330 08:19 01.09.2021
5896 Clear 36 1010 55 10000 1 0 06:42 01.09.2021
5897 Clear 36 1010 55 10000 1 0 06:42 01.09.2021
5898 Clear 27 1010 90 10000 2 150 23:30 31.08.2021
5899 Clear 27 1010 90 10000 2 160 21:57 31.08.2021
5900 Rain 28 1010 87 10000 3 150 19:49 31.08.2021
5901 Clear 28 1010 87 10000 3 150 19:23 31.08.2021
5902 Rain 29 1003 83 10000 3 150 17:44 31.08.2021
5903 Clear 29 1003 81 10000 3 150 17:21 31.08.2021
5904 Rain 29 1004 79 10000 4 150 16:28 31.08.2021
5905 Rain 30 1004 76 10000 0.45 292 15:25 31.08.2021
5906 Clear 33 1010 58 10000 4 180 11:46 31.08.2021
5907 Clouds 33 1010 58 10000 4 200 11:18 31.08.2021
5908 Clouds 34 1010 59 10000 3 180 10:42 31.08.2021
5909 Clouds 34 1011 59 10000 4 180 09:41 31.08.2021
5910 Clouds 34 1004 57 10000 0.45 273 07:39 31.08.2021
5911 Clouds 33 1005 61 10000 0.45 276 05:56 31.08.2021
5912 Clear 28 1005 88 10000 0.45 285 23:36 30.08.2021
5913 Clear 28 1005 88 10000 0.89 147 22:30 30.08.2021
5914 Clouds 28 1005 88 10000 1.79 96 21:35 30.08.2021
5915 Clouds 28 1005 88 10000 1.34 128 20:35 30.08.2021
5916 Clear 28 1005 88 10000 1.34 148 19:32 30.08.2021
5917 Clear 28 1005 87 10000 1.34 129 18:57 30.08.2021
5918 Clear 29 1005 85 10000 1.79 132 17:48 30.08.2021
5919 Clear 29 1005 81 10000 0.45 281 16:25 30.08.2021
5920 Rain 30 1006 76 10000 5 140 15:40 30.08.2021
5921 Rain 30 1006 72 10000 4 120 13:51 30.08.2021
5922 Clear 31 1005 67 10000 0.45 270 12:49 30.08.2021
5923 Clear 33 1012 62 10000 5 140 10:41 30.08.2021
5924 Clear 30 1006 72 10000 1.34 185 02:37 30.08.2021
5925 Clear 28 1005 85 10000 1.34 158 21:33 29.08.2021
5926 Clear 28 1005 85 10000 0.45 263 20:34 29.08.2021
5927 Rain 28 1005 85 10000 4 150 19:20 29.08.2021
5928 Clear 28 1005 84 10000 0.45 278 17:58 29.08.2021
5929 Rain 29 1005 80 10000 4 140 15:49 29.08.2021
5930 Rain 30 1005 76 10000 4 160 14:21 29.08.2021
5931 Rain 30 1005 72 10000 5 150 13:44 29.08.2021
5932 Clear 31 1011 67 10000 4 160 12:40 29.08.2021
5933 Clouds 33 1011 55 10000 4 130 11:50 29.08.2021
5934 Rain 33 1011 55 10000 5 160 11:23 29.08.2021
5935 Rain 34 1011 55 10000 6 150 10:43 29.08.2021
5936 Clouds 34 1011 58 10000 6 150 10:24 29.08.2021
5937 Clouds 35 1004 54 10000 5 180 08:58 29.08.2021
5938 Clear 29 1005 88 10000 1.34 139 00:37 29.08.2021
5939 Clear 28 1004 90 10000 1.79 137 21:54 28.08.2021
5940 Rain 29 1004 88 10000 1.34 124 20:28 28.08.2021
5941 Rain 29 1012 87 10000 2 170 18:43 28.08.2021
5942 Rain 29 1012 87 10000 2 170 18:19 28.08.2021
5943 Rain 29 1012 86 10000 4 190 17:18 28.08.2021
5944 Clouds 30 1006 79 10000 2 160 15:39 28.08.2021
5945 Rain 30 1005 74 10000 3 190 14:20 28.08.2021
5946 Clouds 30 1004 72 10000 2 140 13:44 28.08.2021
5947 Clouds 30 1004 76 10000 5 190 12:42 28.08.2021
5948 Clouds 31 1011 74 10000 4 190 11:53 28.08.2021
5949 Clouds 32 1003 70 10000 5 200 10:35 28.08.2021
5950 Rain 34 1011 62 10000 2 0 08:39 28.08.2021
5951 Clouds 35 1004 56 10000 0.45 313 07:24 28.08.2021
5952 Clear 27 1012 92 10000 3 140 22:29 27.08.2021
5953 Clear 27 1012 95 7000 3 150 20:57 27.08.2021
5954 Clouds 27 1012 94 7000 2 160 20:19 27.08.2021
5955 Rain 27 1012 92 10000 2 80 18:57 27.08.2021
5956 Clear 27 1013 91 10000 2 20 18:37 27.08.2021
5957 Rain 27 1013 91 10000 3 360 16:55 27.08.2021
5958 Rain 28 1013 91 10000 4 360 15:22 27.08.2021
5959 Rain 28 1013 91 10000 4 360 15:21 27.08.2021
5960 Rain 28 1012 84 10000 3 70 14:38 27.08.2021
5961 Rain 29 1004 80 10000 5 110 12:28 27.08.2021
5962 Rain 31 1011 73 10000 4 320 11:24 27.08.2021
5963 Rain 31 1010 76 10000 4 340 10:42 27.08.2021
5964 Clouds 32 1010 70 10000 4 310 09:30 27.08.2021
5965 Clouds 32 1011 70 10000 2 270 08:39 27.08.2021
5966 Clouds 32 1005 68 10000 0.45 316 05:53 27.08.2021
5967 Clear 30 1005 74 10000 1.34 124 02:44 27.08.2021
5968 Rain 27 1004 91 10000 1.34 137 00:28 27.08.2021
5969 Clear 26 1004 90 10000 1.34 116 22:28 26.08.2021
5970 Rain 26 1003 90 10000 1.79 136 21:57 26.08.2021
5971 Rain 25 1004 93 10000 0.45 251 19:54 26.08.2021
5972 Rain 25 1004 93 10000 2 160 18:42 26.08.2021
5973 Thunderstorm 23 1013 95 8000 5 330 17:28 26.08.2021
5974 Rain 29 1012 83 10000 4 170 16:31 26.08.2021
5975 Clear 30 1012 82 10000 4 170 15:37 26.08.2021
5976 Clear 29 1011 81 10000 3 80 13:27 26.08.2021
5977 Clouds 29 1011 83 10000 3 40 12:47 26.08.2021
5978 Rain 30 1004 76 10000 6 20 11:49 26.08.2021
5979 Clouds 32 1003 69 10000 3 120 09:30 26.08.2021
5980 Clouds 31 1003 73 10000 3 120 08:19 26.08.2021
5981 Clear 27 1011 82 10000 1 170 23:45 25.08.2021
5982 Rain 27 1011 81 10000 1 180 22:44 25.08.2021
5983 Rain 27 1011 77 10000 0 0 22:25 25.08.2021
5984 Rain 28 1010 76 10000 1 0 20:57 25.08.2021
5985 Rain 27 1010 81 10000 1 170 20:30 25.08.2021
5986 Rain 27 1010 81 10000 1 0 19:52 25.08.2021
5987 Rain 28 1011 82 10000 1 0 18:18 25.08.2021
5988 Rain 29 1010 78 10000 1 240 15:59 25.08.2021
5989 Rain 29 1010 77 10000 2 270 15:39 25.08.2021
5990 Rain 29 1010 77 10000 3 0 14:47 25.08.2021
5991 Rain 29 1009 73 10000 2 0 13:54 25.08.2021
5992 Rain 31 1001 59 10000 3 240 12:23 25.08.2021
5993 Clear 32 1000 54 10000 3 240 11:20 25.08.2021
5994 Clear 32 1007 56 10000 3 270 09:59 25.08.2021
5995 Clear 32 1007 59 10000 3 270 09:36 25.08.2021
5996 Clouds 31 1007 63 10000 3 290 08:36 25.08.2021
5997 Rain 31 1000 60 10000 0.89 182 07:20 25.08.2021
5998 Rain 27 998 87 10000 1.79 131 01:21 25.08.2021
5999 Thunderstorm 27 1004 93 7000 3 200 23:23 24.08.2021
6000 Clear 26 1004 90 10000 2 90 21:18 24.08.2021
6001 Clouds 26 1004 95 7000 4 20 20:18 24.08.2021
6002 Rain 26 1005 91 7000 7 330 19:43 24.08.2021
6003 Rain 27 1004 92 8000 1 0 17:55 24.08.2021
6004 Rain 27 997 87 8000 2 10 17:22 24.08.2021
6005 Rain 28 998 89 7000 4 360 16:18 24.08.2021
6006 Rain 30 997 75 10000 4 150 13:51 24.08.2021
6007 Clouds 31 1003 73 10000 1 0 12:45 24.08.2021
6008 Clear 31 1003 73 10000 2 0 11:21 24.08.2021
6009 Clear 32 1002 72 10000 2 210 10:46 24.08.2021
6010 Clear 31 1003 75 10000 3 290 09:53 24.08.2021
6011 Clouds 33 996 64 10000 0.89 309 07:41 24.08.2021
6012 Clouds 32 997 70 10000 0.89 11 05:50 24.08.2021
6013 Clouds 31 997 78 7000 1.34 135 03:31 24.08.2021
6014 Clear 29 1002 81 10000 3 240 23:39 23.08.2021
6015 Clear 29 1001 81 10000 3 220 22:43 23.08.2021
6016 Clear 29 1001 82 10000 2 240 21:18 23.08.2021
6017 Clear 29 1001 85 10000 3 220 19:41 23.08.2021
6018 Clear 29 1002 84 10000 3 190 17:49 23.08.2021
6019 Rain 30 995 80 10000 2 180 15:37 23.08.2021
6020 Rain 31 995 71 10000 0.45 271 13:56 23.08.2021
6021 Clear 31 1001 74 10000 4 190 12:31 23.08.2021
6022 Clear 34 1000 66 10000 4 170 10:47 23.08.2021
6023 Clouds 34 1000 66 10000 3 180 09:54 23.08.2021
6024 Clouds 34 995 66 10000 0.45 334 08:35 23.08.2021
6025 Clouds 32 996 67 10000 0.45 312 06:59 23.08.2021
6026 Clouds 33 996 66 10000 0.45 284 06:39 23.08.2021
6027 Clear 28 997 86 10000 1.34 162 01:36 23.08.2021
6028 Clear 28 997 87 10000 1.34 128 00:45 23.08.2021
6029 Rain 28 997 87 10000 1.34 144 22:42 22.08.2021
6030 Rain 28 998 84 10000 1.34 68 20:58 22.08.2021
6031 Rain 28 998 83 10000 1.34 242 20:19 22.08.2021
6032 Rain 28 998 83 10000 1.34 242 20:19 22.08.2021
6033 Clear 28 999 81 10000 1.34 160 18:29 22.08.2021
6034 Clear 30 999 72 10000 0.45 328 15:48 22.08.2021
6035 Clear 30 999 74 10000 0.45 267 14:53 22.08.2021
6036 Clouds 30 998 72 10000 0.45 269 13:40 22.08.2021
6037 Clouds 30 998 73 10000 6 150 13:19 22.08.2021
6038 Clouds 30 998 76 10000 4 150 12:40 22.08.2021
6039 Clear 31 1005 70 10000 4 150 11:44 22.08.2021
6040 Clear 31 998 66 10000 4 150 11:19 22.08.2021
6041 Rain 32 999 75 10000 2 150 08:41 22.08.2021
6042 Rain 32 1000 68 10000 7 150 06:59 22.08.2021
6043 Clouds 29 1000 86 10000 0.89 83 00:32 22.08.2021
6044 Clouds 27 1006 89 10000 2 140 22:36 21.08.2021
6045 Clouds 27 1007 89 10000 2 160 21:34 21.08.2021
6046 Rain 28 1007 83 10000 1 140 18:47 21.08.2021
6047 Rain 28 1007 83 10000 1 0 18:21 21.08.2021
6048 Rain 29 1000 80 10000 2 130 16:58 21.08.2021
6049 Clouds 29 1000 80 10000 4 150 16:29 21.08.2021
6050 Rain 29 1007 79 10000 4 140 15:38 21.08.2021
6051 Rain 29 1007 79 10000 4 140 15:38 21.08.2021
6052 Rain 29 1007 79 10000 4 140 15:20 21.08.2021
6053 Clouds 30 1006 70 10000 3 40 13:35 21.08.2021
6054 Rain 31 1005 66 10000 3 340 12:39 21.08.2021
6055 Clouds 32 1005 66 10000 4 300 09:32 21.08.2021
6056 Clouds 32 999 66 10000 1.34 28 06:20 21.08.2021
6057 Clear 29 1005 79 10000 2 230 23:50 20.08.2021
6058 Clear 29 1004 84 10000 3 200 21:54 20.08.2021
6059 Clear 29 1005 79 10000 5 180 18:31 20.08.2021
6060 Clear 30 1005 74 10000 5 170 16:26 20.08.2021
6061 Clear 30 1005 79 10000 5 150 13:48 20.08.2021
6062 Clear 32 1005 66 10000 5 170 11:41 20.08.2021
6063 Clouds 32 1005 66 10000 5 170 10:55 20.08.2021
6064 Clear 32 1005 66 10000 5 180 09:42 20.08.2021
6065 Rain 32 1005 62 10000 5 180 08:46 20.08.2021
6066 Clear 32 999 61 10000 5 150 07:45 20.08.2021
6067 Clouds 31 1001 68 10000 0.45 291 04:22 20.08.2021
6068 Clear 27 1000 85 10000 5 150 00:36 20.08.2021
6069 Clear 26 1000 90 10000 0.45 270 23:20 19.08.2021
6070 Clear 27 1000 88 10000 4 150 22:35 19.08.2021
6071 Clear 27 1000 87 10000 5 150 20:48 19.08.2021
6072 Clear 27 1001 82 10000 1.34 141 19:44 19.08.2021
6073 Clear 27 1001 81 10000 5 140 17:27 19.08.2021
6074 Clear 27 1002 80 10000 0.45 280 16:30 19.08.2021
6075 Clear 28 1008 74 10000 5 150 13:47 19.08.2021
6076 Clouds 29 1007 65 10000 5 160 12:37 19.08.2021
6077 Clouds 31 1007 62 10000 5 160 11:30 19.08.2021
6078 Clear 31 1007 58 10000 5 150 10:24 19.08.2021
6079 Clouds 31 1001 53 10000 0.45 23 09:47 19.08.2021
6080 Clouds 31 1008 58 10000 6 150 09:21 19.08.2021
6081 Clouds 32 1001 49 10000 6 160 07:35 19.08.2021
6082 Clear 28 1002 76 10000 3 130 02:25 19.08.2021
6083 Clear 27 1002 80 10000 3 130 01:51 19.08.2021
6084 Clear 26 1008 83 10000 2 130 22:56 18.08.2021
6085 Rain 26 1008 83 10000 3 150 21:40 18.08.2021
6086 Rain 26 1009 83 10000 3 150 20:32 18.08.2021
6087 Rain 27 1009 74 10000 3 150 19:34 18.08.2021
6088 Rain 27 1009 74 10000 3 160 18:54 18.08.2021
6089 Rain 27 1009 74 10000 4 140 17:57 18.08.2021
6090 Rain 27 1009 74 10000 4 160 15:47 18.08.2021
6091 Clear 27 1009 74 10000 3 160 15:24 18.08.2021
6092 Rain 28 1009 74 10000 4 140 14:51 18.08.2021
6093 Clear 29 1008 65 10000 3 200 12:43 18.08.2021
6094 Clear 29 1001 67 10000 3 200 12:24 18.08.2021
6095 Rain 30 1008 66 10000 4 190 10:21 18.08.2021
6096 Clouds 32 1009 48 10000 1 0 07:42 18.08.2021
6097 Clear 26 1003 88 10000 0.89 99 00:43 18.08.2021
6098 Clear 24 1009 94 10000 1 340 22:29 17.08.2021
6099 Clear 24 1009 94 10000 2 10 21:26 17.08.2021
6100 Clear 25 1010 88 10000 2 20 20:44 17.08.2021
6101 Clear 25 1010 88 10000 2 360 18:57 17.08.2021
6102 Clear 26 1010 78 10000 1 0 17:31 17.08.2021
6103 Clear 26 1011 78 10000 3 40 16:34 17.08.2021
6104 Rain 27 1003 74 10000 3 60 15:36 17.08.2021
6105 Rain 27 1010 69 10000 5 30 14:28 17.08.2021
6106 Clouds 29 1009 61 10000 5 30 11:48 17.08.2021
6107 Clouds 31 1008 58 10000 6 60 09:21 17.08.2021
6108 Clouds 31 1009 62 10000 6 40 07:45 17.08.2021
6109 Mist 25 1010 100 5000 3 330 00:21 17.08.2021
6110 Clouds 26 1002 94 8000 0.89 90 22:54 16.08.2021
6111 Clouds 26 1002 94 8000 0.89 139 22:36 16.08.2021
6112 Clouds 25 1002 95 8000 0.89 120 21:53 16.08.2021
6113 Clear 25 1002 95 10000 0.89 111 20:53 16.08.2021
6114 Clear 26 1003 95 10000 0.89 83 19:44 16.08.2021
6115 Rain 25 1003 96 10000 0.89 67 19:22 16.08.2021
6116 Rain 25 1003 95 7000 2 250 18:21 16.08.2021
6117 Rain 25 1003 95 10000 2 260 17:51 16.08.2021
6118 Rain 25 1004 95 10000 1 0 15:29 16.08.2021
6119 Rain 25 1003 95 10000 2 110 14:28 16.08.2021
6120 Rain 25 1004 95 5000 2 10 13:30 16.08.2021
6121 Clouds 26 1003 94 10000 3 20 12:29 16.08.2021
6122 Rain 26 1002 94 8000 2 300 10:37 16.08.2021
6123 Rain 28 1002 87 10000 2 280 08:44 16.08.2021
6124 Clouds 29 1003 82 10000 3 340 07:32 16.08.2021
6125 Clouds 30 1004 75 10000 3 340 06:22 16.08.2021
6126 Clouds 27 1004 92 7000 0.89 85 01:44 16.08.2021
6127 Mist 25 1003 95 4200 0.89 115 21:37 15.08.2021
6128 Mist 25 1003 95 4600 0.89 104 20:27 15.08.2021
6129 Mist 25 1003 95 5000 2 350 18:42 15.08.2021
6130 Mist 25 1003 95 5000 3 340 17:50 15.08.2021
6131 Rain 26 1003 94 6000 2 330 17:22 15.08.2021
6132 Clouds 26 1003 94 8000 2 350 15:49 15.08.2021
6133 Clouds 26 1003 94 6000 2 280 14:42 15.08.2021
6134 Rain 26 1003 94 10000 2 330 13:35 15.08.2021
6135 Rain 26 1002 94 10000 2 20 10:50 15.08.2021
6136 Rain 27 1002 88 10000 3 40 08:35 15.08.2021
6137 Rain 25 1002 94 8000 0.89 68 01:22 15.08.2021
6138 Rain 24 1002 94 5000 0.89 118 00:33 15.08.2021
6139 Rain 25 1009 100 10000 1 30 21:27 14.08.2021
6140 Rain 25 1008 100 10000 1 0 20:28 14.08.2021
6141 Rain 26 1001 91 10000 0 0 19:31 14.08.2021
6142 Rain 26 1002 90 10000 1 0 18:23 14.08.2021
6143 Rain 26 1002 88 10000 1 0 16:44 14.08.2021
6144 Rain 26 1002 89 10000 2 110 15:34 14.08.2021
6145 Rain 25 1002 89 10000 1 0 13:49 14.08.2021
6146 Rain 26 1000 86 10000 1 0 10:58 14.08.2021
6147 Rain 26 1000 83 10000 2 70 09:43 14.08.2021
6148 Rain 25 1000 93 7000 4 360 04:52 14.08.2021
6149 Rain 24 997 91 10000 1.34 92 23:51 13.08.2021
6150 Rain 24 996 92 8000 0.89 98 21:51 13.08.2021
6151 Rain 25 996 91 6000 0.89 77 20:22 13.08.2021
6152 Rain 25 996 92 10000 4 50 18:46 13.08.2021
6153 Rain 25 996 91 10000 3 60 17:18 13.08.2021
6154 Rain 25 997 94 10000 5 50 15:55 13.08.2021
6155 Rain 26 996 94 7000 3 10 11:55 13.08.2021
6156 Rain 27 995 93 8000 5 40 11:18 13.08.2021
6157 Rain 30 996 65 10000 3 90 08:40 13.08.2021
6158 Clouds 30 1003 66 10000 4 70 07:48 13.08.2021
6159 Clouds 30 1003 66 10000 5 80 06:32 13.08.2021
6160 Clouds 27 1004 94 10000 2 360 00:27 13.08.2021
6161 Clouds 27 1004 89 10000 2 360 21:51 12.08.2021
6162 Clear 27 1005 89 10000 2 360 20:35 12.08.2021
6163 Clear 28 998 83 10000 0.89 93 19:50 12.08.2021
6164 Clouds 27 1005 89 10000 4 10 18:29 12.08.2021
6165 Rain 27 1006 89 10000 4 360 16:50 12.08.2021
6166 Rain 27 1006 89 10000 4 360 16:50 12.08.2021
6167 Rain 28 1006 83 10000 3 50 15:39 12.08.2021
6168 Rain 28 998 81 10000 4 40 13:51 12.08.2021
6169 Rain 30 998 74 10000 5 30 11:37 12.08.2021
6170 Rain 29 999 81 10000 2 310 08:57 12.08.2021
6171 Rain 30 999 76 5000 6 350 07:21 12.08.2021
6172 Clouds 26 1007 98 7000 1 340 23:21 11.08.2021
6173 Clear 26 1007 98 10000 1 30 21:37 11.08.2021
6174 Rain 26 1008 100 10000 1 360 18:53 11.08.2021
6175 Rain 27 1001 93 10000 0 0 18:24 11.08.2021
6176 Rain 26 1009 100 10000 2 110 15:21 11.08.2021
6177 Rain 27 1002 91 10000 0.89 108 14:54 11.08.2021
6178 Rain 27 1001 88 10000 3 130 12:47 11.08.2021
6179 Rain 28 1001 88 10000 3 110 12:29 11.08.2021
6180 Rain 28 1000 86 10000 3 90 11:40 11.08.2021
6181 Clouds 29 1000 85 10000 3 90 11:18 11.08.2021
6182 Rain 27 1001 91 10000 4 80 08:53 11.08.2021
6183 Rain 30 1001 76 10000 1.34 109 03:29 11.08.2021
6184 Rain 27 1007 94 10000 2 200 22:33 10.08.2021
6185 Rain 28 999 85 10000 1.34 142 21:38 10.08.2021
6186 Rain 29 999 85 10000 1.34 145 20:49 10.08.2021
6187 Rain 28 1006 94 10000 4 140 19:25 10.08.2021
6188 Rain 28 1007 89 10000 1 0 16:51 10.08.2021
6189 Clear 28 1000 85 10000 3 150 15:22 10.08.2021
6190 Clear 28 1000 85 10000 3 140 14:39 10.08.2021
6191 Rain 30 999 74 10000 4 100 10:47 10.08.2021
6192 Clouds 34 1005 59 10000 3 140 08:18 10.08.2021
6193 Clouds 32 1006 66 10000 3 180 05:24 10.08.2021
6194 Clouds 28 998 90 10000 1.34 117 00:37 10.08.2021
6195 Clouds 28 998 92 10000 1.34 125 23:24 09.08.2021
6196 Clouds 28 998 91 10000 1.34 127 21:52 09.08.2021
6197 Clear 28 1005 93 10000 3 140 20:35 09.08.2021
6198 Rain 28 1006 90 10000 3 150 17:57 09.08.2021
6199 Rain 29 998 76 10000 5 130 15:35 09.08.2021
6200 Rain 29 998 76 10000 5 130 15:35 09.08.2021
6201 Clear 29 999 76 10000 4 120 14:37 09.08.2021
6202 Rain 30 998 71 10000 5 110 13:29 09.08.2021
6203 Clouds 31 998 62 10000 6 80 11:47 09.08.2021
6204 Rain 34 1004 52 10000 2 220 09:27 09.08.2021
6205 Clouds 35 1004 49 10000 2 200 07:59 09.08.2021
6206 Clear 26 1005 86 10000 2 30 21:31 08.08.2021
6207 Clear 26 1005 85 10000 1 20 20:36 08.08.2021
6208 Rain 27 1006 78 10000 2 360 17:35 08.08.2021
6209 Clear 28 999 69 10000 2 30 15:46 08.08.2021
6210 Clear 29 999 63 10000 3 20 14:34 08.08.2021
6211 Clear 30 1004 59 10000 5 30 12:46 08.08.2021
6212 Clouds 32 1003 55 10000 5 20 10:35 08.08.2021
6213 Clouds 33 997 55 10000 5 360 06:41 08.08.2021
6214 Rain 28 997 84 10000 0.89 104 00:52 08.08.2021
6215 Rain 27 1003 88 10000 4 350 00:24 08.08.2021
6216 Rain 27 1003 88 10000 4 350 00:24 08.08.2021
6217 Clear 27 1003 86 10000 4 10 21:43 07.08.2021
6218 Clear 27 1002 85 10000 4 20 20:59 07.08.2021
6219 Clear 28 997 80 10000 5 20 18:21 07.08.2021
6220 Clear 28 1004 81 10000 4 30 16:50 07.08.2021
6221 Rain 28 1004 76 10000 4 50 15:36 07.08.2021
6222 Clouds 29 1003 73 10000 6 40 13:34 07.08.2021
6223 Clouds 31 1002 63 10000 7 40 10:28 07.08.2021
6224 Rain 33 996 56 10000 6 30 06:31 07.08.2021
6225 Rain 30 996 69 10000 1.34 97 02:18 07.08.2021
6226 Clouds 26 1002 87 10000 2 90 22:19 06.08.2021
6227 Clouds 27 1002 90 10000 3 100 20:34 06.08.2021
6228 Clouds 27 995 83 10000 1.34 104 19:57 06.08.2021
6229 Clouds 27 995 82 10000 1.34 127 19:18 06.08.2021
6230 Clouds 28 995 79 10000 5 110 17:23 06.08.2021
6231 Clouds 31 1001 70 10000 4 90 10:53 06.08.2021
6232 Clouds 31 1001 74 10000 3 130 09:56 06.08.2021
6233 Clouds 32 994 64 10000 6 100 07:54 06.08.2021
6234 Clouds 28 995 87 10000 0.89 78 23:34 05.08.2021
6235 Clouds 28 995 86 10000 1.34 112 22:28 05.08.2021
6236 Clouds 28 995 85 10000 1.34 116 20:44 05.08.2021
6237 Clouds 28 995 83 10000 1.34 101 19:25 05.08.2021
6238 Clouds 28 996 83 10000 6 130 16:33 05.08.2021
6239 Clouds 29 996 79 10000 5 140 14:25 05.08.2021
6240 Clouds 30 1001 72 10000 6 130 11:21 05.08.2021
6241 Clouds 32 1002 69 10000 6 130 08:35 05.08.2021
6242 Clouds 32 997 63 10000 1.34 146 04:48 05.08.2021
6243 Clouds 28 996 84 10000 1.34 131 23:20 04.08.2021
6244 Clouds 28 996 84 10000 1.34 111 21:44 04.08.2021
6245 Clouds 28 996 84 10000 1.34 107 21:21 04.08.2021
6246 Clouds 28 997 83 10000 1.34 190 17:25 04.08.2021
6247 Clouds 28 998 79 10000 6 120 15:36 04.08.2021
6248 Clouds 29 998 77 10000 6 120 14:41 04.08.2021
6249 Clouds 31 1003 66 10000 7 110 10:51 04.08.2021
6250 Clouds 28 998 88 10000 1.34 128 23:43 03.08.2021
6251 Clouds 28 998 87 10000 1.34 146 20:34 03.08.2021
6252 Clouds 28 998 87 10000 1.34 108 19:46 03.08.2021
6253 Clouds 29 998 84 10000 5 120 17:38 03.08.2021
6254 Clouds 29 998 85 10000 5 110 14:58 03.08.2021
6255 Clouds 30 997 79 10000 3 120 11:44 03.08.2021
6256 Clouds 30 996 80 10000 6 130 10:39 03.08.2021
6257 Clouds 28 995 89 10000 1.34 20 23:48 02.08.2021
6258 Rain 29 995 84 10000 4 50 17:32 02.08.2021
6259 Clouds 28 1002 84 10000 4 50 15:46 02.08.2021
6260 Clouds 30 1001 76 10000 5 80 12:54 02.08.2021
6261 Clouds 30 1000 74 10000 5 50 11:58 02.08.2021
6262 Clouds 31 1000 70 10000 5 50 10:58 02.08.2021
6263 Clouds 32 1000 69 10000 5 70 09:45 02.08.2021
6264 Clear 27 999 95 10000 2 120 20:29 01.08.2021
6265 Clouds 27 999 92 10000 2 110 18:18 01.08.2021
6266 Clouds 29 998 87 10000 2 90 12:55 01.08.2021
6267 Rain 29 997 86 10000 2 70 11:35 01.08.2021
6268 Clouds 29 999 94 8000 2 140 04:53 01.08.2021
6269 Rain 28 998 96 7000 3 120 03:46 01.08.2021
6270 Rain 28 991 89 10000 1.34 142 22:41 31.07.2021
6271 Clear 28 991 84 10000 2 150 19:47 31.07.2021
6272 Rain 29 992 89 10000 2 150 16:38 31.07.2021
6273 Rain 30 992 86 10000 4 150 15:27 31.07.2021
6274 Clear 31 997 70 10000 2 170 10:59 31.07.2021
6275 Thunderstorm 29 993 88 2200 1.34 120 04:38 31.07.2021
6276 Rain 29 992 84 10000 1.34 106 22:31 30.07.2021
6277 Rain 28 999 86 10000 1 190 20:24 30.07.2021
6278 Rain 29 1000 75 10000 4 150 15:38 30.07.2021
6279 Rain 28 999 90 10000 2 260 19:57 29.07.2021
6280 Rain 33 990 65 10000 0.45 289 08:43 29.07.2021
6281 Rain 32 991 74 10000 0.45 262 04:51 29.07.2021
6282 Clouds 27 991 92 10000 0.45 269 22:38 28.07.2021
6283 Clouds 28 991 90 10000 0.45 287 17:53 28.07.2021
6284 Clouds 28 991 90 10000 0.45 284 16:54 28.07.2021
6285 Clouds 31 989 71 10000 0.45 264 09:39 28.07.2021
6286 Rain 27 989 93 6000 1.34 61 23:50 27.07.2021
6287 Rain 26 989 95 10000 1.34 92 21:33 27.07.2021
6288 Rain 26 988 95 10000 0.45 221 14:54 27.07.2021
6289 Rain 27 987 95 10000 0.45 247 14:22 27.07.2021
6290 Rain 27 986 92 2500 0.89 249 10:20 27.07.2021
6291 Rain 26 985 96 8000 1.34 109 00:49 27.07.2021
6292 Rain 26 983 96 6000 7 120 15:33 26.07.2021
6293 Rain 26 980 95 7000 0.45 272 08:59 26.07.2021
6294 Rain 26 979 92 10000 1.34 95 20:57 25.07.2021
6295 Rain 25 979 96 7000 0.45 229 19:23 25.07.2021
6296 Rain 26 980 93 5000 0.89 202 16:22 25.07.2021
6297 Rain 25 981 95 4000 0.89 340 10:57 25.07.2021
6298 Rain 26 982 94 4000 0.45 224 08:20 25.07.2021
6299 Rain 26 986 93 5000 1.34 124 02:34 25.07.2021
6300 Rain 27 990 90 10000 1.34 122 20:20 24.07.2021
6301 Rain 27 999 90 10000 7 50 15:51 24.07.2021
6302 Rain 27 1002 95 10000 7 60 04:21 24.07.2021
6303 Clouds 28 1003 80 10000 7 70 14:46 23.07.2021
6304 Clouds 29 1003 73 10000 8 70 12:43 23.07.2021
6305 Clouds 31 1004 69 10000 8 80 07:34 23.07.2021
6306 Clouds 27 1004 83 10000 6 70 22:44 22.07.2021
6307 Clouds 29 1005 80 10000 7 90 13:59 22.07.2021
6308 Clouds 31 1005 67 10000 7 80 09:58 22.07.2021
6309 Clouds 31 1005 69 10000 7 80 08:23 22.07.2021
6310 Clouds 31 1005 69 10000 7 80 08:23 22.07.2021
6311 Clouds 27 1006 81 10000 4 70 22:32 21.07.2021
6312 Clouds 27 1006 81 10000 4 70 21:30 21.07.2021
6313 Clouds 29 1009 65 10000 4 80 15:20 21.07.2021
6314 Clear 33 1007 49 10000 6 80 09:50 21.07.2021
6315 Clear 33 1007 49 10000 6 80 09:50 21.07.2021
6316 Clear 33 1007 46 10000 7 60 08:47 21.07.2021
6317 Clouds 27 1009 83 10000 4 100 23:55 20.07.2021
6318 Clouds 28 1010 81 10000 6 110 17:43 20.07.2021
6319 Clouds 28 1010 81 10000 6 110 16:26 20.07.2021
6320 Clouds 28 1010 83 10000 6 120 15:26 20.07.2021
6321 Clouds 31 1008 68 10000 6 110 11:18 20.07.2021
6322 Clouds 31 1010 71 10000 5 140 04:48 20.07.2021
6323 Clouds 27 1009 87 10000 6 130 22:25 19.07.2021
6324 Rain 30 1007 74 10000 7 130 13:36 19.07.2021
6325 Clouds 31 1007 70 10000 6 130 12:37 19.07.2021
6326 Clear 27 1007 83 10000 4 120 19:44 18.07.2021
6327 Clouds 27 1007 79 10000 5 130 15:20 18.07.2021
6328 Clouds 32 1005 61 10000 7 130 10:18 18.07.2021
6329 Clouds 26 1007 85 10000 4 130 22:25 17.07.2021
6330 Clouds 26 1007 87 10000 4 130 21:54 17.07.2021
6331 Clouds 26 1007 87 10000 5 120 21:35 17.07.2021
6332 Clouds 30 1006 69 10000 7 120 12:30 17.07.2021
6333 Clouds 32 1006 63 10000 7 160 10:20 17.07.2021
6334 Rain 32 1008 62 10000 6 150 04:46 17.07.2021
6335 Clear 29 1010 78 10000 5 140 14:23 16.07.2021
6336 Clouds 33 1009 66 10000 7 140 08:47 16.07.2021
6337 Clear 29 1010 77 10000 7 170 02:18 16.07.2021
6338 Clear 31 1009 70 10000 7 150 13:53 15.07.2021
6339 Clear 32 1008 66 10000 6 150 12:53 15.07.2021
6340 Clear 35 1009 58 10000 6 180 07:30 15.07.2021
6341 Clear 27 1007 82 10000 6 160 21:33 14.07.2021
6342 Clear 29 1008 81 10000 6 140 15:56 14.07.2021
6343 Clear 36 1005 59 10000 6 180 09:52 14.07.2021
6344 Clear 27 1006 82 10000 4 160 23:20 13.07.2021
6345 Clear 28 1006 82 10000 5 160 19:57 13.07.2021
6346 Clear 28 1006 85 10000 6 160 19:37 13.07.2021
6347 Clear 28 1006 85 10000 6 160 19:18 13.07.2021
6348 Clear 29 1005 83 10000 6 170 18:42 13.07.2021
6349 Clear 29 1005 83 10000 6 170 18:23 13.07.2021
6350 Rain 30 1004 78 10000 5 150 13:21 13.07.2021
6351 Clear 34 1004 65 10000 6 180 08:50 13.07.2021
6352 Clear 29 1004 84 10000 5 170 20:24 12.07.2021
6353 Clear 30 1005 79 10000 5 150 16:46 12.07.2021
6354 Rain 33 1004 66 10000 5 170 12:21 12.07.2021
6355 Rain 33 1004 66 10000 5 170 12:21 12.07.2021
6356 Rain 33 1004 66 10000 5 170 12:21 12.07.2021
6357 Rain 33 1004 66 10000 5 170 12:21 12.07.2021
6358 Rain 33 1004 66 10000 5 170 12:21 12.07.2021
6359 Clear 28 1007 91 10000 3 170 23:21 11.07.2021
6360 Clear 29 1006 89 10000 3 150 19:56 11.07.2021
6361 Rain 35 1007 66 10000 3 190 11:32 11.07.2021
6362 Clear 26 1008 98 10000 3 160 22:58 10.07.2021
6363 Rain 27 1008 91 10000 3 100 12:37 10.07.2021
6364 Rain 32 1007 74 10000 6 190 07:49 10.07.2021
6365 Clouds 25 1007 88 10000 4 190 01:23 10.07.2021
6366 Thunderstorm 27 1008 75 10000 1 0 18:20 09.07.2021
6367 Clear 28 1008 69 10000 4 230 14:48 09.07.2021
6368 Clouds 32 1006 69 10000 4 200 08:41 09.07.2021
6369 Thunderstorm 24 1007 98 5000 5 210 23:51 08.07.2021
6370 Rain 24 1006 95 10000 2 180 22:35 08.07.2021
6371 Rain 24 1007 95 10000 2 210 18:56 08.07.2021
6372 Rain 24 1008 98 10000 3 220 17:42 08.07.2021
6373 Rain 25 1006 98 10000 3 190 13:31 08.07.2021
6374 Rain 25 1007 95 10000 2 280 12:41 08.07.2021
6375 Rain 24 1006 98 10000 3 30 11:32 08.07.2021
6376 Thunderstorm 26 1006 93 1500 13 350 09:51 08.07.2021
6377 Clear 33 1007 72 10000 3 220 04:42 08.07.2021
6378 Rain 29 1007 86 10000 1 0 00:34 08.07.2021
6379 Clear 28 1006 87 10000 1 210 22:27 07.07.2021
6380 Clear 28 1006 87 10000 2 240 21:55 07.07.2021
6381 Rain 28 1006 87 10000 3 190 21:37 07.07.2021
6382 Clear 28 1006 87 10000 3 190 21:18 07.07.2021
6383 Clear 28 1007 90 10000 2 200 19:55 07.07.2021
6384 Clear 28 1007 90 10000 3 250 19:27 07.07.2021
6385 Clear 28 1007 88 10000 2 210 16:49 07.07.2021
6386 Rain 28 1007 90 10000 2 170 15:26 07.07.2021
6387 Rain 32 1006 64 10000 10 330 12:24 07.07.2021
6388 Clouds 36 1006 56 10000 6 240 07:45 07.07.2021
6389 Rain 35 1006 63 10000 4 220 05:58 07.07.2021
6390 Rain 35 1006 64 10000 4 230 05:30 07.07.2021
6391 Clear 28 1005 88 10000 4 160 20:57 06.07.2021
6392 Rain 28 1006 88 10000 5 170 19:18 06.07.2021
6393 Clouds 28 1006 88 10000 5 160 18:45 06.07.2021
6394 Clouds 28 1006 86 10000 6 140 18:22 06.07.2021
6395 Clear 30 1006 78 10000 6 150 13:37 06.07.2021
6396 Clear 34 1005 61 10000 5 190 10:28 06.07.2021
6397 Clear 35 1005 52 10000 6 180 09:39 06.07.2021
6398 Clear 35 1005 54 10000 6 210 08:32 06.07.2021
6399 Clear 33 1006 57 10000 7 190 04:50 06.07.2021
6400 Clear 27 1006 84 10000 4 190 23:58 05.07.2021
6401 Clear 28 1005 84 10000 4 170 21:59 05.07.2021
6402 Rain 26 1007 91 10000 3 160 17:22 05.07.2021
6403 Clear 30 1006 77 10000 5 160 14:29 05.07.2021
6404 Clear 33 1006 69 10000 4 190 06:21 05.07.2021
6405 Clear 31 1006 75 10000 4 190 05:42 05.07.2021
6406 Clear 27 1007 85 10000 4 180 01:28 05.07.2021
6407 Clouds 25 1006 98 6000 3 160 21:38 04.07.2021
6408 Clouds 26 1007 98 8000 3 120 18:30 04.07.2021
6409 Clouds 25 1008 95 8000 3 80 15:31 04.07.2021
6410 Clouds 25 1007 93 8000 4 70 11:26 04.07.2021
6411 Rain 25 1007 95 6000 4 80 08:38 04.07.2021
6412 Mist 26 1006 98 4500 0 0 23:31 03.07.2021
6413 Mist 25 1005 98 5000 1 0 21:57 03.07.2021
6414 Rain 26 1003 91 10000 3 270 13:21 03.07.2021
6415 Rain 26 1002 91 10000 4 0 12:37 03.07.2021
6416 Rain 31 1000 75 10000 5 210 09:28 03.07.2021
6417 Rain 32 1000 77 10000 5 200 08:45 03.07.2021
6418 Rain 26 1001 92 10000 4 170 00:41 03.07.2021
6419 Rain 26 1003 96 5000 3 160 10:33 02.07.2021
6420 Rain 27 1003 91 10000 4 170 07:29 02.07.2021
6421 Clouds 26 1004 94 10000 3 170 03:23 02.07.2021
6422 Clouds 26 1004 95 10000 4 140 22:32 01.07.2021
6423 Rain 26 1004 95 10000 3 140 21:37 01.07.2021
6424 Clouds 25 1004 97 8000 2 120 20:22 01.07.2021
6425 Rain 26 1004 94 10000 5 130 19:20 01.07.2021
6426 Rain 26 1004 93 10000 3 110 18:48 01.07.2021
6427 Rain 26 1005 87 10000 5 110 17:43 01.07.2021
6428 Clouds 27 1004 84 10000 4 130 16:39 01.07.2021
6429 Rain 27 1004 84 10000 5 90 15:24 01.07.2021
6430 Rain 27 1004 82 10000 4 110 14:20 01.07.2021
6431 Clouds 31 1002 63 10000 5 140 10:30 01.07.2021
6432 Clouds 29 1005 70 10000 4 90 03:58 01.07.2021
6433 Rain 25 1003 91 10000 4 120 23:18 30.06.2021
6434 Rain 25 1003 91 10000 3 100 21:59 30.06.2021
6435 Clouds 25 1003 91 10000 4 130 21:20 30.06.2021
6436 Clear 25 1004 91 10000 3 140 20:24 30.06.2021
6437 Clear 25 1005 84 10000 3 80 17:19 30.06.2021
6438 Clouds 26 1004 82 10000 4 150 14:22 30.06.2021
6439 Clouds 29 1003 69 10000 4 140 10:45 30.06.2021
6440 Rain 25 1005 86 10000 4 130 02:52 30.06.2021
6441 Clouds 24 1003 91 10000 4 130 20:34 29.06.2021
6442 Clouds 25 1004 90 10000 4 140 17:48 29.06.2021
6443 Clouds 25 1004 87 10000 5 160 17:28 29.06.2021
6444 Clouds 25 1004 84 10000 5 130 15:51 29.06.2021
6445 Clouds 26 1004 81 10000 4 130 14:55 29.06.2021
6446 Clouds 27 1003 76 10000 5 140 13:26 29.06.2021
6447 Clouds 30 1003 64 10000 4 160 08:26 29.06.2021
6448 Clear 24 1004 91 10000 1 0 23:52 28.06.2021
6449 Clouds 24 1004 93 10000 2 140 21:32 28.06.2021
6450 Clouds 24 1004 88 10000 2 100 19:21 28.06.2021
6451 Clouds 25 1004 87 10000 3 110 17:21 28.06.2021
6452 Clouds 26 1003 82 10000 5 110 14:32 28.06.2021
6453 Clouds 27 1002 77 10000 4 80 12:57 28.06.2021
6454 Clouds 25 1002 98 10000 1 0 00:20 28.06.2021
6455 Clouds 24 1001 98 10000 1 90 22:51 27.06.2021
6456 Clouds 25 1002 98 6000 1 80 19:45 27.06.2021
6457 Clouds 25 1002 98 6000 2 120 18:56 27.06.2021
6458 Rain 25 1003 95 10000 3 130 15:40 27.06.2021
6459 Rain 25 1001 95 10000 3 150 11:23 27.06.2021
6460 Rain 25 1004 98 7000 3 90 01:38 27.06.2021
6461 Rain 24 1004 98 10000 2 160 22:36 26.06.2021
6462 Rain 24 1004 98 10000 3 160 20:55 26.06.2021
6463 Rain 24 1004 98 10000 3 160 20:35 26.06.2021
6464 Rain 24 1006 94 10000 3 110 16:33 26.06.2021
6465 Rain 25 1005 91 10000 4 140 14:47 26.06.2021
6466 Rain 25 1004 85 10000 5 140 12:25 26.06.2021
6467 Clouds 26 1005 89 10000 5 180 07:33 26.06.2021
6468 Clouds 24 1005 97 10000 4 160 23:24 25.06.2021
6469 Rain 25 999 86 10000 1.34 128 20:38 25.06.2021
6470 Rain 26 999 83 10000 1.34 125 18:59 25.06.2021
6471 Rain 26 1000 82 10000 1.34 114 17:31 25.06.2021
6472 Rain 26 1000 82 10000 1.34 114 17:31 25.06.2021
6473 Rain 26 1000 80 10000 1.34 137 16:42 25.06.2021
6474 Rain 26 1000 75 10000 7 130 13:58 25.06.2021
6475 Clear 30 1000 55 10000 0.45 295 10:31 25.06.2021
6476 Clear 31 1000 50 10000 0.45 295 07:27 25.06.2021
6477 Clear 30 1000 57 10000 0.45 270 06:32 25.06.2021
6478 Clear 25 1001 83 10000 1.34 137 01:40 25.06.2021
6479 Rain 25 1001 85 10000 1.34 128 21:48 24.06.2021
6480 Clear 25 1001 85 10000 0.89 270 20:44 24.06.2021
6481 Clear 25 1001 84 10000 1.34 104 20:19 24.06.2021
6482 Clear 25 1002 84 10000 1.34 151 18:35 24.06.2021
6483 Rain 25 1002 84 10000 1.34 134 18:35 24.06.2021
6484 Rain 27 1002 75 10000 5 150 15:24 24.06.2021
6485 Rain 27 1002 73 10000 0.45 279 14:54 24.06.2021
6486 Clear 28 1001 64 10000 0.45 303 13:34 24.06.2021
6487 Clear 31 1001 41 10000 0.45 286 10:23 24.06.2021
6488 Rain 32 1002 39 10000 5 160 08:32 24.06.2021
6489 Clear 33 1002 39 10000 2 140 07:24 24.06.2021
6490 Rain 25 1002 78 10000 0.89 111 00:27 24.06.2021
6491 Rain 25 1002 74 10000 1.34 119 22:25 23.06.2021
6492 Rain 25 1002 72 10000 0.89 103 21:22 23.06.2021
6493 Rain 25 1002 69 10000 0.89 183 20:19 23.06.2021
6494 Rain 25 1003 64 10000 0.89 128 18:30 23.06.2021
6495 Rain 26 1004 63 10000 0.89 134 16:52 23.06.2021
6496 Clear 27 1010 50 10000 4 160 14:31 23.06.2021
6497 Clear 29 1002 40 10000 5 150 12:47 23.06.2021
6498 Clear 32 1002 39 10000 6 160 11:22 23.06.2021
6499 Clear 33 1009 38 10000 4 130 09:26 23.06.2021
6500 Clear 34 1002 26 10000 4 140 08:38 23.06.2021
6501 Clear 34 1003 30 10000 4 150 07:49 23.06.2021
6502 Clear 32 1003 25 10000 1.34 114 05:33 23.06.2021
6503 Rain 27 1003 56 10000 0.89 93 01:50 23.06.2021
6504 Rain 24 1003 71 10000 0.45 117 23:59 22.06.2021
6505 Rain 23 1003 73 10000 0.89 70 23:41 22.06.2021
6506 Rain 23 1002 67 10000 0.45 76 22:38 22.06.2021
6507 Rain 23 1002 71 10000 0.89 103 21:39 22.06.2021
6508 Rain 23 1001 69 10000 0.89 115 20:36 22.06.2021
6509 Rain 24 1002 70 10000 0.89 143 19:18 22.06.2021
6510 Rain 24 1002 70 10000 1.34 139 18:29 22.06.2021
6511 Rain 24 1002 69 10000 3 150 17:29 22.06.2021
6512 Rain 24 1002 66 10000 3 160 16:48 22.06.2021
6513 Rain 26 1002 59 10000 3 160 14:54 22.06.2021
6514 Rain 26 1002 54 10000 4 140 14:25 22.06.2021
6515 Clear 29 1001 48 10000 4 130 13:18 22.06.2021
6516 Clear 30 1007 49 10000 5 140 11:53 22.06.2021
6517 Clear 31 1007 35 10000 4 150 10:37 22.06.2021
6518 Clear 32 1001 39 10000 3 0 07:59 22.06.2021
6519 Rain 24 1000 78 10000 0.89 161 00:50 22.06.2021
6520 Rain 23 999 79 10000 0.89 115 23:32 21.06.2021
6521 Rain 23 999 78 10000 1.34 101 22:29 21.06.2021
6522 Rain 23 999 79 10000 0.89 106 21:28 21.06.2021
6523 Clear 23 1006 78 10000 2 120 20:46 21.06.2021
6524 Rain 23 999 76 10000 0.89 147 19:55 21.06.2021
6525 Clear 24 999 75 10000 0.89 133 18:57 21.06.2021
6526 Rain 24 999 75 10000 3 100 17:26 21.06.2021
6527 Rain 24 999 74 10000 4 90 16:44 21.06.2021
6528 Rain 25 999 75 10000 4 90 16:23 21.06.2021
6529 Clear 25 999 76 10000 4 90 15:45 21.06.2021
6530 Rain 26 999 69 10000 4 120 14:18 21.06.2021
6531 Clear 26 998 61 10000 4 90 13:34 21.06.2021
6532 Clear 28 1004 53 10000 4 110 12:36 21.06.2021
6533 Clear 28 1004 49 10000 5 110 11:49 21.06.2021
6534 Clear 29 1004 43 10000 4 130 10:30 21.06.2021
6535 Clear 31 1004 25 10000 4 80 09:29 21.06.2021
6536 Clear 31 1004 30 10000 6 140 08:21 21.06.2021
6537 Clear 31 998 42 10000 3 0 06:47 21.06.2021
6538 Rain 23 997 87 7000 1 190 00:29 21.06.2021
6539 Rain 22 997 88 6000 1 170 23:35 20.06.2021
6540 Rain 22 997 92 8000 0 0 22:58 20.06.2021
6541 Clouds 22 996 90 8000 0 0 21:57 20.06.2021
6542 Clouds 22 996 90 8000 1 0 21:20 20.06.2021
6543 Clouds 22 996 90 8000 1 170 19:41 20.06.2021
6544 Clouds 22 996 90 8000 1 170 19:21 20.06.2021
6545 Clouds 22 997 89 8000 1 0 17:48 20.06.2021
6546 Clear 23 997 87 10000 2 190 16:49 20.06.2021
6547 Clear 23 997 85 10000 3 180 15:49 20.06.2021
6548 Clear 23 997 84 10000 2 170 15:31 20.06.2021
6549 Clear 23 997 80 10000 3 200 14:45 20.06.2021
6550 Clear 24 1003 77 10000 3 200 13:36 20.06.2021
6551 Clear 25 1002 65 10000 3 200 12:39 20.06.2021
6552 Clear 27 1002 57 10000 2 170 11:46 20.06.2021
6553 Clear 27 1002 63 10000 2 190 10:23 20.06.2021
6554 Clear 27 1003 62 10000 1 0 09:43 20.06.2021
6555 Clear 26 1003 69 10000 3 170 06:56 20.06.2021
6556 Clear 21 995 89 10000 1 0 23:37 19.06.2021
6557 Clear 21 995 88 10000 0 0 22:58 19.06.2021
6558 Clear 21 995 89 10000 0.89 69 21:51 19.06.2021
6559 Clear 22 995 88 10000 0.45 40 21:19 19.06.2021
6560 Rain 21 996 87 10000 1 180 18:53 19.06.2021
6561 Rain 20 1003 93 10000 2 220 18:21 19.06.2021
6562 Rain 21 996 86 10000 2 140 17:22 19.06.2021
6563 Clouds 21 996 88 10000 2 170 16:20 19.06.2021
6564 Clouds 21 997 88 10000 3 200 14:42 19.06.2021
6565 Clouds 21 996 86 10000 2 160 12:51 19.06.2021
6566 Clouds 21 996 87 10000 1 0 11:53 19.06.2021
6567 Clear 21 996 85 10000 3 150 10:46 19.06.2021
6568 Clouds 21 995 85 10000 3 150 10:23 19.06.2021
6569 Rain 21 996 91 6000 2 190 09:23 19.06.2021
6570 Rain 22 997 87 7000 2 220 07:48 19.06.2021
6571 Rain 22 997 82 10000 1 0 06:29 19.06.2021
6572 Rain 22 997 82 10000 1 0 06:29 19.06.2021
6573 Rain 22 997 79 10000 1 0 01:46 19.06.2021
6574 Clouds 21 996 87 10000 0.45 87 00:18 19.06.2021
6575 Clouds 20 996 89 10000 3 20 23:29 18.06.2021
6576 Rain 20 996 91 10000 2 50 22:50 18.06.2021
6577 Rain 20 996 93 8000 4 40 22:21 18.06.2021
6578 Rain 20 996 94 3000 5 10 21:39 18.06.2021
6579 Rain 21 996 94 3000 5 10 21:19 18.06.2021
6580 Rain 21 996 92 5000 3 10 19:39 18.06.2021
6581 Rain 21 996 89 10000 3 30 18:27 18.06.2021
6582 Rain 22 997 82 10000 3 40 17:29 18.06.2021
6583 Clouds 22 997 86 10000 5 30 16:21 18.06.2021
6584 Rain 22 997 90 10000 5 40 15:43 18.06.2021
6585 Rain 23 997 94 4000 4 30 14:32 18.06.2021
6586 Mist 24 996 94 4000 4 30 13:37 18.06.2021
6587 Mist 24 996 93 4000 2 40 12:45 18.06.2021
6588 Mist 24 996 93 4000 3 40 12:26 18.06.2021
6589 Rain 25 995 93 3000 3 10 11:28 18.06.2021
6590 Rain 25 995 91 3000 3 20 10:52 18.06.2021
6591 Mist 26 995 91 3000 4 360 10:22 18.06.2021
6592 Mist 26 995 88 3000 4 20 09:44 18.06.2021
6593 Mist 27 995 81 4000 1 0 08:49 18.06.2021
6594 Mist 27 995 81 4000 3 360 08:21 18.06.2021
6595 Mist 28 995 77 5000 3 340 07:23 18.06.2021
6596 Mist 25 997 94 4500 0.45 98 01:43 18.06.2021
6597 Mist 25 996 95 4500 3 330 23:42 17.06.2021
6598 Clouds 25 995 95 6000 2 320 22:52 17.06.2021
6599 Clouds 25 995 96 6000 2 290 22:24 17.06.2021
6600 Clouds 25 995 95 7000 0.45 195 21:41 17.06.2021
6601 Clouds 25 996 95 7000 1 340 20:57 17.06.2021
6602 Clouds 25 995 95 8000 0.89 96 20:24 17.06.2021
6603 Rain 25 995 95 8000 1 260 19:47 17.06.2021
6604 Clouds 25 996 94 8000 1 0 18:40 17.06.2021
6605 Clouds 25 996 91 8000 2 160 17:43 17.06.2021
6606 Clouds 25 996 90 8000 2 160 17:19 17.06.2021
6607 Clouds 25 1004 94 8000 3 140 16:25 17.06.2021
6608 Clouds 25 1004 94 7000 2 140 15:32 17.06.2021
6609 Clouds 24 1003 100 6000 2 120 14:20 17.06.2021
6610 Mist 25 997 93 5000 2 130 12:53 17.06.2021
6611 Mist 25 996 93 5000 3 150 12:27 17.06.2021
6612 Clouds 26 996 91 7000 3 140 10:57 17.06.2021
6613 Rain 27 995 89 8000 3 160 10:37 17.06.2021
6614 Rain 26 996 89 8000 3 120 09:57 17.06.2021
6615 Rain 26 996 92 8000 2 150 09:35 17.06.2021
6616 Rain 26 996 93 8000 2 140 08:23 17.06.2021
6617 Clouds 25 1003 97 8000 3 160 06:56 17.06.2021
6618 Rain 24 1004 96 6000 3 160 04:31 17.06.2021
6619 Clouds 24 997 93 10000 0.45 229 23:50 16.06.2021
6620 Clouds 24 997 91 10000 3 140 23:31 16.06.2021
6621 Clouds 24 997 91 10000 3 140 23:30 16.06.2021
6622 Clouds 24 997 93 10000 0.89 139 22:38 16.06.2021
6623 Rain 24 997 92 10000 4 130 21:48 16.06.2021
6624 Rain 24 997 91 10000 0.89 139 21:26 16.06.2021
6625 Clouds 24 997 87 10000 0.45 157 20:46 16.06.2021
6626 Clouds 24 997 86 10000 0.89 106 20:19 16.06.2021
6627 Clouds 24 997 85 10000 1.34 94 19:43 16.06.2021
6628 Clouds 24 997 85 10000 4 110 19:18 16.06.2021
6629 Clouds 24 997 85 10000 3 110 18:38 16.06.2021
6630 Clouds 25 998 83 10000 3 80 17:55 16.06.2021
6631 Clouds 25 998 83 10000 3 90 17:27 16.06.2021
6632 Clouds 24 1005 87 10000 3 70 16:45 16.06.2021
6633 Clouds 25 1005 85 10000 3 70 16:22 16.06.2021
6634 Clouds 25 1004 85 10000 3 80 15:39 16.06.2021
6635 Clouds 25 1004 84 10000 3 60 14:57 16.06.2021
6636 Clouds 25 1004 84 10000 2 50 14:39 16.06.2021
6637 Clouds 25 1004 84 10000 2 50 14:20 16.06.2021
6638 Clouds 26 997 80 10000 3 50 13:40 16.06.2021
6639 Clouds 26 997 80 10000 3 50 13:21 16.06.2021
6640 Clouds 26 996 78 10000 4 30 12:34 16.06.2021
6641 Clouds 27 996 77 10000 3 40 11:52 16.06.2021
6642 Clouds 28 996 74 10000 3 30 11:19 16.06.2021
6643 Clouds 28 996 73 10000 4 40 10:40 16.06.2021
6644 Clouds 28 996 74 10000 3 40 09:46 16.06.2021
6645 Clouds 29 996 70 10000 4 20 08:48 16.06.2021
6646 Clouds 29 996 70 10000 4 10 07:50 16.06.2021
6647 Clouds 29 996 71 10000 3 360 07:30 16.06.2021
6648 Clouds 26 996 81 10000 1.34 88 02:49 16.06.2021
6649 Clouds 25 994 89 7000 1.34 90 23:52 15.06.2021
6650 Clouds 25 994 89 7000 1.79 45 23:24 15.06.2021
6651 Clouds 24 994 89 10000 0.89 186 22:56 15.06.2021
6652 Clouds 24 994 89 10000 0.89 186 22:56 15.06.2021
6653 Clouds 25 993 88 10000 0.45 314 22:37 15.06.2021
6654 Clouds 25 993 86 10000 0.45 314 21:42 15.06.2021
6655 Clouds 26 993 85 10000 1.34 45 20:48 15.06.2021
6656 Clouds 26 993 85 10000 1.34 67 19:38 15.06.2021
6657 Clear 27 992 83 10000 1.34 65 18:31 15.06.2021
6658 Clear 28 992 85 10000 4 320 16:53 15.06.2021
6659 Clear 28 992 87 10000 3 330 16:21 15.06.2021
6660 Clear 29 992 88 10000 0.89 277 15:34 15.06.2021
6661 Clear 29 991 88 10000 0.45 307 14:44 15.06.2021
6662 Rain 29 991 86 10000 3 330 13:42 15.06.2021
6663 Rain 29 990 86 10000 4 290 12:59 15.06.2021
6664 Rain 31 990 73 10000 1.34 237 12:39 15.06.2021
6665 Clear 33 990 65 10000 0.89 57 11:48 15.06.2021
6666 Clear 33 990 64 10000 0.89 359 11:19 15.06.2021
6667 Rain 33 990 64 10000 0.45 235 10:46 15.06.2021
6668 Clear 33 989 63 10000 0.89 340 10:22 15.06.2021
6669 Rain 33 990 65 10000 1.34 23 09:31 15.06.2021
6670 Rain 32 996 70 10000 4 250 08:27 15.06.2021
6671 Rain 31 997 74 10000 3 230 07:37 15.06.2021
6672 Rain 30 998 79 10000 2 0 06:22 15.06.2021
6673 Rain 28 998 89 10000 4 230 04:30 15.06.2021
6674 Rain 27 992 91 8000 0.45 342 00:46 15.06.2021
6675 Clouds 26 991 94 7000 0.45 241 23:40 14.06.2021
6676 Rain 26 991 94 7000 0.45 307 23:22 14.06.2021
6677 Rain 26 991 94 7000 0.89 119 22:42 14.06.2021
6678 Clouds 26 991 94 7000 0.45 270 22:18 14.06.2021
6679 Rain 26 991 94 7000 1.79 145 21:38 14.06.2021
6680 Rain 26 991 94 7000 1.34 183 21:20 14.06.2021
6681 Rain 26 991 94 10000 0.89 277 20:47 14.06.2021
6682 Clear 26 992 93 10000 1.34 139 19:49 14.06.2021
6683 Clear 26 993 92 10000 3 160 19:31 14.06.2021
6684 Clear 26 993 92 10000 1.34 118 18:54 14.06.2021
6685 Clear 26 993 92 10000 0.89 45 18:22 14.06.2021
6686 Clear 26 993 91 10000 0.89 182 17:48 14.06.2021
6687 Rain 26 993 91 10000 4 160 17:27 14.06.2021
6688 Rain 26 994 89 10000 3 160 16:20 14.06.2021
6689 Rain 26 995 89 10000 3 140 15:47 14.06.2021
6690 Clear 27 994 85 10000 0.45 297 14:56 14.06.2021
6691 Rain 27 994 86 10000 0.45 304 14:37 14.06.2021
6692 Rain 27 995 86 10000 4 140 13:29 14.06.2021
6693 Rain 27 995 85 10000 4 130 12:51 14.06.2021
6694 Clear 28 994 83 10000 3 140 12:22 14.06.2021
6695 Clear 28 994 81 10000 4 140 11:38 14.06.2021
6696 Clear 28 994 81 10000 3 150 10:46 14.06.2021
6697 Clear 28 995 83 10000 3 140 09:27 14.06.2021
6698 Clear 27 995 84 10000 3 130 08:59 14.06.2021
6699 Rain 27 996 88 10000 3 120 08:22 14.06.2021
6700 Rain 26 1003 92 8000 3 150 07:41 14.06.2021
6701 Rain 27 1004 93 6000 1 0 05:46 14.06.2021
6702 Rain 27 998 88 5000 2 140 04:29 14.06.2021
6703 Mist 25 998 95 4000 0.89 124 00:30 14.06.2021
6704 Mist 25 998 93 5000 0.45 97 23:26 13.06.2021
6705 Clouds 25 997 94 6000 2 130 22:42 13.06.2021
6706 Clouds 25 997 94 6000 1.34 103 22:22 13.06.2021
6707 Clouds 25 997 94 8000 0.45 63 21:58 13.06.2021
6708 Clouds 25 997 93 8000 3 140 21:35 13.06.2021
6709 Clouds 25 997 94 6000 1.79 132 20:49 13.06.2021
6710 Clouds 25 997 94 6000 2 130 20:30 13.06.2021
6711 Clouds 25 997 94 6000 0.89 127 19:57 13.06.2021
6712 Rain 25 997 93 6000 2 140 19:35 13.06.2021
6713 Rain 25 998 91 8000 0.89 112 18:59 13.06.2021
6714 Clouds 25 998 90 8000 0.45 94 18:29 13.06.2021
6715 Clouds 25 998 92 8000 0.89 162 17:47 13.06.2021
6716 Clouds 25 999 92 7000 0.45 110 16:39 13.06.2021
6717 Clouds 25 999 89 10000 1 0 15:42 13.06.2021
6718 Clouds 26 999 85 10000 0.45 303 14:50 13.06.2021
6719 Clouds 25 1006 93 10000 2 210 14:22 13.06.2021
6720 Clouds 26 999 92 8000 0.45 341 13:26 13.06.2021
6721 Clouds 26 999 88 8000 3 200 12:59 13.06.2021
6722 Rain 26 999 89 8000 0.45 335 12:37 13.06.2021
6723 Rain 27 999 87 8000 4 200 11:49 13.06.2021
6724 Rain 27 999 87 8000 3 180 11:20 13.06.2021
6725 Rain 27 999 83 8000 2 90 10:38 13.06.2021
6726 Rain 27 1000 83 8000 2 90 09:57 13.06.2021
6727 Clouds 28 1000 79 8000 1 0 09:37 13.06.2021
6728 Clouds 28 1000 80 8000 1 0 09:19 13.06.2021
6729 Rain 27 1000 88 8000 1 0 08:39 13.06.2021
6730 Rain 27 1001 90 8000 1 0 08:18 13.06.2021
6731 Rain 26 1009 91 7000 1 0 04:22 13.06.2021
6732 Rain 26 1002 92 7000 0.89 103 00:18 13.06.2021
6733 Rain 26 1001 93 10000 1 0 23:19 12.06.2021
6734 Rain 26 1001 91 10000 0.89 125 22:31 12.06.2021
6735 Rain 26 1002 90 10000 0.89 103 21:45 12.06.2021
6736 Rain 26 1002 88 10000 0.89 110 20:58 12.06.2021
6737 Rain 26 1009 89 10000 2 180 20:24 12.06.2021
6738 Clouds 25 1002 91 10000 2 190 19:58 12.06.2021
6739 Clouds 25 1002 90 10000 3 190 18:58 12.06.2021
6740 Clouds 25 1003 89 10000 4 170 18:30 12.06.2021
6741 Clouds 25 1003 89 10000 4 170 18:30 12.06.2021
6742 Clouds 25 1003 86 10000 3 150 17:41 12.06.2021
6743 Clouds 25 1003 86 10000 3 150 17:18 12.06.2021
6744 Clouds 25 1004 85 10000 3 130 15:45 12.06.2021
6745 Rain 25 1004 85 10000 4 140 14:54 12.06.2021
6746 Rain 25 1010 83 10000 5 130 14:32 12.06.2021
6747 Rain 25 1003 83 10000 4 140 13:58 12.06.2021
6748 Clear 28 1002 71 10000 4 90 12:42 12.06.2021
6749 Clear 27 1009 75 10000 4 90 12:23 12.06.2021
6750 Clear 27 1009 75 10000 4 90 12:23 12.06.2021
6751 Clear 28 1009 71 10000 5 140 11:35 12.06.2021
6752 Clear 29 1009 64 10000 5 140 10:46 12.06.2021
6753 Clear 29 1009 60 10000 4 110 10:26 12.06.2021
6754 Clear 30 1009 59 10000 5 100 09:45 12.06.2021
6755 Clear 30 1010 60 10000 5 90 08:35 12.06.2021
6756 Clear 31 1004 55 10000 6 140 07:35 12.06.2021
6757 Clear 30 1005 65 10000 4 120 05:36 12.06.2021
6758 Clear 24 1004 87 10000 2 100 00:23 12.06.2021
6759 Clear 24 1004 88 10000 2 120 22:26 11.06.2021
6760 Clear 24 1004 87 10000 2 100 21:54 11.06.2021
6761 Clear 24 1003 86 10000 2 90 21:34 11.06.2021
6762 Clear 24 1003 87 10000 1 110 20:51 11.06.2021